| time (UTC) | temp F | wind direction | speed knots | gust knots | rain 1hr in | rain 24hr in | rain mn in | humidity % | barometer mb |
| 20260507071931 | 0 | 270 | 13.0 | 19.1 | 0.00 | 0.00 | 0.00 | 1003.3 | |
| 20260507071911 | 0 | 270 | 13.0 | 19.1 | 0.00 | 0.00 | 0.00 | 1003.2 | |
| 20260507071901 | 0 | 270 | 13.9 | 19.1 | 0.00 | 0.00 | 0.00 | 1003.2 | |
| 20260507071832 | 0 | 270 | 13.0 | 19.1 | 0.00 | 0.00 | 0.00 | 1003.2 | |
| 20260507071822 | 0 | 270 | 12.2 | 19.1 | 0.00 | 0.00 | 0.00 | 1003.1 | |
| 20260507071812 | 0 | 270 | 12.2 | 19.1 | 0.00 | 0.00 | 0.00 | 1003.2 | |
| 20260507071752 | 0 | 270 | 11.3 | 19.1 | 0.00 | 0.00 | 0.00 | 1003.2 | |
| 20260507071732 | 0 | 270 | 10.4 | 19.1 | 0.00 | 0.00 | 0.00 | 1003.2 | |
| 20260507071722 | 0 | 225 | 12.2 | 19.1 | 0.00 | 0.00 | 0.00 | 1003.2 | |
| 20260507071702 | 0 | 270 | 12.2 | 19.1 | 0.00 | 0.00 | 0.00 | 1003.2 | |
| 20260507071632 | 0 | 270 | 11.3 | 19.1 | 0.00 | 0.00 | 0.00 | 1003.2 | |
| 20260507071552 | 0 | 248 | 10.4 | 19.1 | 0.00 | 0.00 | 0.00 | 1003.2 | |
| 20260507071542 | 0 | 270 | 10.4 | 19.1 | 0.00 | 0.00 | 0.00 | 1003.2 | |
| 20260507071532 | 0 | 270 | 11.3 | 19.1 | 0.00 | 0.00 | 0.00 | 1003.1 | |
| 20260507071522 | 0 | 270 | 12.2 | 19.1 | 0.00 | 0.00 | 0.00 | 1003.2 | |
| 20260507071512 | 0 | 225 | 12.2 | 19.1 | 0.00 | 0.00 | 0.00 | 1003.2 | |
| 20260507071502 | 0 | 225 | 11.3 | 19.1 | 0.00 | 0.00 | 0.00 | 1003.1 | |
| 20260507071452 | 0 | 270 | 10.4 | 19.1 | 0.00 | 0.00 | 0.00 | 1003.1 | |
| 20260507071432 | 0 | 270 | 9.6 | 19.1 | 0.00 | 0.00 | 0.00 | 1003.1 | |
| 20260507071422 | 0 | 248 | 8.7 | 19.1 | 0.00 | 0.00 | 0.00 | 1003.1 | |
| 20260507071412 | 0 | 270 | 8.7 | 19.1 | 0.00 | 0.00 | 0.00 | 1003.0 | |
| 20260507071402 | 0 | 225 | 9.6 | 19.1 | 0.00 | 0.00 | 0.00 | 1003.1 | |
| 20260507071352 | 0 | 225 | 10.4 | 19.1 | 0.00 | 0.00 | 0.00 | 1003.1 | |
| 20260507071312 | 0 | 225 | 10.4 | 17.4 | 0.00 | 0.00 | 0.00 | 1003.1 | |
| 20260507071252 | 0 | 270 | 10.4 | 17.4 | 0.00 | 0.00 | 0.00 | 1003.2 | |
| 20260507071232 | 0 | 225 | 10.4 | 17.4 | 0.00 | 0.00 | 0.00 | 1003.1 | |
| 20260507071212 | 0 | 270 | 10.4 | 17.4 | 0.00 | 0.00 | 0.00 | 1003.1 | |
| 20260507071202 | 0 | 248 | 11.3 | 17.4 | 0.00 | 0.00 | 0.00 | 1003.1 | |
| 20260507071152 | 0 | 270 | 12.2 | 17.4 | 0.00 | 0.00 | 0.00 | 1003.1 | |
| 20260507071142 | 0 | 225 | 12.2 | 17.4 | 0.00 | 0.00 | 0.00 | 1003.1 | |
| 20260507071112 | 0 | 270 | 12.2 | 17.4 | 0.00 | 0.00 | 0.00 | 1003.1 | |
| 20260507071102 | 0 | 225 | 12.2 | 17.4 | 0.00 | 0.00 | 0.00 | 1003.1 | |
| 20260507071052 | 0 | 225 | 11.3 | 17.4 | 0.00 | 0.00 | 0.00 | 1002.9 | |
| 20260507071043 | 0 | 248 | 10.4 | 17.4 | 0.00 | 0.00 | 0.00 | 1003.1 | |
| 20260507071033 | 0 | 248 | 8.7 | 17.4 | 0.00 | 0.00 | 0.00 | 1003.1 | |
| 20260507071023 | 0 | 270 | 7.8 | 17.4 | 0.00 | 0.00 | 0.00 | 1002.9 | |
| 20260507071013 | 0 | 225 | 7.8 | 17.4 | 0.00 | 0.00 | 0.00 | 1003.0 | |
| 20260507071003 | 0 | 225 | 7.0 | 14.8 | 0.00 | 0.00 | 0.00 | 1002.9 | |
| 20260507070953 | 0 | 180 | 7.0 | 14.8 | 0.00 | 0.00 | 0.00 | 1003.0 | |
| 20260507070943 | 0 | 225 | 7.8 | 14.8 | 0.00 | 0.00 | 0.00 | 1002.9 | |
| 20260507070913 | 0 | 270 | 8.7 | 14.8 | 0.00 | 0.00 | 0.00 | 1002.9 | |
| 20260507070903 | 0 | 225 | 8.7 | 14.8 | 0.00 | 0.00 | 0.00 | 1003.0 | |
| 20260507070853 | 0 | 225 | 8.7 | 14.8 | 0.00 | 0.00 | 0.00 | 1003.1 | |
| 20260507070823 | 0 | 225 | 8.7 | 14.8 | 0.00 | 0.00 | 0.00 | 1003.0 | |
| 20260507070813 | 0 | 270 | 8.7 | 14.8 | 0.00 | 0.00 | 0.00 | 1002.9 | |
| 20260507070753 | 0 | 248 | 8.7 | 14.8 | 0.00 | 0.00 | 0.00 | 1003.0 | |
| 20260507070743 | 0 | 225 | 9.6 | 14.8 | 0.00 | 0.00 | 0.00 | 1003.1 | |
| 20260507070733 | 0 | 270 | 9.6 | 14.8 | 0.00 | 0.00 | 0.00 | 1003.0 | |
| 20260507070723 | 0 | 225 | 10.4 | 14.8 | 0.00 | 0.00 | 0.00 | 1003.0 | |
| 20260507070713 | 0 | 225 | 10.4 | 14.8 | 0.00 | 0.00 | 0.00 | 1003.1 | |
| 20260507070703 | 0 | 270 | 10.4 | 14.8 | 0.00 | 0.00 | 0.00 | 1003.1 | |
| 20260507070643 | 0 | 225 | 10.4 | 14.8 | 0.00 | 0.00 | 0.00 | 1003.0 | |
| 20260507070633 | 0 | 225 | 10.4 | 14.8 | 0.00 | 0.00 | 0.00 | 1003.1 | |
| 20260507070623 | 0 | 270 | 10.4 | 14.8 | 0.00 | 0.00 | 0.00 | 1003.1 | |
| 20260507070613 | 0 | 270 | 10.4 | 13.9 | 0.00 | 0.00 | 0.00 | 1003.0 | |
| 20260507070603 | 0 | 270 | 9.6 | 13.9 | 0.00 | 0.00 | 0.00 | 1003.0 | |
| 20260507070553 | 0 | 248 | 8.7 | 13.9 | 0.00 | 0.00 | 0.00 | 1003.0 | |
| 20260507070543 | 0 | 225 | 8.7 | 13.9 | 0.00 | 0.00 | 0.00 | 1003.0 | |
| 20260507070523 | 0 | 270 | 8.7 | 13.9 | 0.00 | 0.00 | 0.00 | 1003.1 | |
| 20260507070513 | 0 | 270 | 8.7 | 13.9 | 0.00 | 0.00 | 0.00 | 1003.0 | |
| 20260507070503 | 0 | 270 | 9.6 | 13.9 | 0.00 | 0.00 | 0.00 | 1003.0 | |
| 20260507070453 | 0 | 270 | 10.4 | 13.9 | 0.00 | 0.00 | 0.00 | 1003.0 | |
| 20260507070443 | 0 | 248 | 10.4 | 13.9 | 0.00 | 0.00 | 0.00 | 1003.1 | |
| 20260507070433 | 0 | 225 | 10.4 | 13.9 | 0.00 | 0.00 | 0.00 | 1003.0 | |
| 20260507070413 | 0 | 270 | 10.4 | 13.9 | 0.00 | 0.00 | 0.00 | 1003.0 | |
| 20260507070344 | 0 | 270 | 8.7 | 13.9 | 0.00 | 0.00 | 0.00 | 1003.0 | |
| 20260507070334 | 0 | 270 | 9.6 | 13.9 | 0.00 | 0.00 | 0.00 | 1003.0 | |
| 20260507070324 | 0 | 270 | 10.4 | 13.9 | 0.00 | 0.00 | 0.00 | 1003.0 | |
| 20260507070244 | 0 | 270 | 9.6 | 13.9 | 0.00 | 0.00 | 0.00 | 1003.0 | |
| 20260507070214 | 0 | 270 | 8.7 | 13.9 | 0.00 | 0.00 | 0.00 | 1003.0 | |
| 20260507070204 | 0 | 270 | 9.6 | 13.9 | 0.00 | 0.00 | 0.00 | 1003.0 | |
| 20260507070154 | 0 | 270 | 9.6 | 13.9 | 0.00 | 0.00 | 0.00 | 1002.9 | |
| 20260507070134 | 0 | 270 | 10.4 | 13.9 | 0.00 | 0.00 | 0.00 | 1003.0 | |
| 20260507070104 | 0 | 270 | 9.6 | 13.9 | 0.00 | 0.00 | 0.00 | 1003.0 | |
| 20260507070054 | 56 | 270 | 9.6 | 13.9 | 0.00 | 0.00 | 0.00 | 71 | 1003.0 |
| 20260507070044 | 0 | 270 | 10.4 | 13.9 | 0.00 | 0.00 | 0.00 | 1002.9 | |
| 20260507070024 | 0 | 270 | 10.4 | 13.9 | 0.00 | 0.00 | 0.00 | 1003.0 | |
| 20260507070014 | 0 | 225 | 10.4 | 13.9 | 0.00 | 0.00 | 0.00 | 1003.0 | |
| 20260507065954 | 0 | 270 | 10.4 | 14.8 | 0.00 | 0.00 | 0.00 | 1003.0 | |
| 20260507065924 | 0 | 270 | 9.6 | 14.8 | 0.00 | 0.00 | 0.00 | 1003.1 | |
| 20260507065914 | 0 | 270 | 9.6 | 14.8 | 0.00 | 0.00 | 0.00 | 1003.0 | |
| 20260507065854 | 0 | 270 | 10.4 | 14.8 | 0.00 | 0.00 | 0.00 | 1003.0 | |
| 20260507065834 | 0 | 270 | 10.4 | 16.5 | 0.00 | 0.00 | 0.00 | 1003.1 | |
| 20260507065814 | 0 | 270 | 10.4 | 16.5 | 0.00 | 0.00 | 0.00 | 1003.0 | |
| 20260507065804 | 0 | 270 | 9.6 | 16.5 | 0.00 | 0.00 | 0.00 | 1003.0 | |
| 20260507065724 | 0 | 270 | 8.7 | 16.5 | 0.00 | 0.00 | 0.00 | 1003.0 | |
| 20260507065704 | 0 | 270 | 9.6 | 16.5 | 0.00 | 0.00 | 0.00 | 1003.0 | |
| 20260507065634 | 0 | 225 | 10.4 | 17.4 | 0.00 | 0.00 | 0.00 | 1003.0 | |
| 20260507065625 | 0 | 270 | 10.4 | 17.4 | 0.00 | 0.00 | 0.00 | 1003.0 | |
| 20260507065615 | 0 | 270 | 10.4 | 18.2 | 0.00 | 0.00 | 0.00 | 1003.0 | |
| 20260507065545 | 0 | 270 | 10.4 | 18.2 | 0.00 | 0.00 | 0.00 | 1002.9 | |
| 20260507065535 | 0 | 270 | 11.3 | 18.2 | 0.00 | 0.00 | 0.00 | 1003.0 | |
| 20260507065505 | 0 | 270 | 10.4 | 19.1 | 0.00 | 0.00 | 0.00 | 1003.0 | |
| 20260507065455 | 0 | 270 | 11.3 | 19.1 | 0.00 | 0.00 | 0.00 | 1003.0 | |
| 20260507065445 | 0 | 270 | 11.3 | 19.1 | 0.00 | 0.00 | 0.00 | 1002.9 | |
| 20260507065435 | 0 | 225 | 12.2 | 19.1 | 0.00 | 0.00 | 0.00 | 1003.0 | |
| 20260507065425 | 0 | 270 | 12.2 | 19.1 | 0.00 | 0.00 | 0.00 | 1003.0 | |
| 20260507065405 | 0 | 270 | 12.2 | 19.1 | 0.00 | 0.00 | 0.00 | 1002.9 | |
| 20260507065345 | 0 | 270 | 12.2 | 19.1 | 0.00 | 0.00 | 0.00 | 1003.0 | |
| 20260507065335 | 0 | 270 | 11.3 | 19.1 | 0.00 | 0.00 | 0.00 | 1003.0 | |
| 20260507065315 | 0 | 270 | 10.4 | 19.1 | 0.00 | 0.00 | 0.00 | 1002.9 | |
| 20260507065306 | 0 | 248 | 10.4 | 19.1 | 0.00 | 0.00 | 0.00 | 1003.0 | |
| 20260507065245 | 0 | 270 | 10.4 | 19.1 | 0.00 | 0.00 | 0.00 | 1003.0 | |
| 20260507065235 | 0 | 225 | 10.4 | 19.1 | 0.00 | 0.00 | 0.00 | 1003.0 | |
| 20260507065215 | 0 | 225 | 12.2 | 19.1 | 0.00 | 0.00 | 0.00 | 1002.9 | |
| 20260507065205 | 0 | 270 | 12.2 | 19.1 | 0.00 | 0.00 | 0.00 | 1002.9 | |
| 20260507065155 | 0 | 270 | 11.3 | 19.1 | 0.00 | 0.00 | 0.00 | 1002.9 | |
| 20260507065145 | 0 | 248 | 12.2 | 19.1 | 0.00 | 0.00 | 0.00 | 1002.8 | |
| 20260507065135 | 0 | 225 | 12.2 | 19.1 | 0.00 | 0.00 | 0.00 | 1003.0 | |
| 20260507065125 | 0 | 270 | 12.2 | 19.1 | 0.00 | 0.00 | 0.00 | 1002.8 | |
| 20260507065115 | 0 | 270 | 12.2 | 19.1 | 0.00 | 0.00 | 0.00 | 1002.9 | |
| 20260507065105 | 0 | 270 | 13.0 | 19.1 | 0.00 | 0.00 | 0.00 | 1002.9 | |
| 20260507065055 | 0 | 270 | 13.9 | 19.1 | 0.00 | 0.00 | 0.00 | 1003.0 | |
| 20260507065045 | 0 | 270 | 13.9 | 19.1 | 0.00 | 0.00 | 0.00 | 1002.9 | |
| 20260507065035 | 0 | 225 | 13.0 | 19.1 | 0.00 | 0.00 | 0.00 | 1002.8 | |
| 20260507065025 | 0 | 270 | 12.2 | 19.1 | 0.00 | 0.00 | 0.00 | 1002.9 | |
| 20260507065015 | 0 | 225 | 12.2 | 16.5 | 0.00 | 0.00 | 0.00 | 1002.9 | |
| 20260507065005 | 0 | 225 | 11.3 | 16.5 | 0.00 | 0.00 | 0.00 | 1002.9 | |
| 20260507064955 | 0 | 270 | 10.4 | 16.5 | 0.00 | 0.00 | 0.00 | 1002.9 | |
| 20260507064925 | 0 | 270 | 11.3 | 16.5 | 0.00 | 0.00 | 0.00 | 1002.9 | |
| 20260507064915 | 0 | 270 | 10.4 | 16.5 | 0.00 | 0.00 | 0.00 | 1002.9 | |
| 20260507064905 | 0 | 225 | 10.4 | 16.5 | 0.00 | 0.00 | 0.00 | 1002.9 | |
| 20260507064855 | 0 | 270 | 10.4 | 18.2 | 0.00 | 0.00 | 0.00 | 1002.9 | |
| 20260507064846 | 0 | 248 | 10.4 | 18.2 | 0.00 | 0.00 | 0.00 | 1002.9 | |
| 20260507064836 | 0 | 270 | 9.6 | 18.2 | 0.00 | 0.00 | 0.00 | 1002.9 | |
| 20260507064826 | 0 | 270 | 8.7 | 18.2 | 0.00 | 0.00 | 0.00 | 1002.8 | |
| 20260507064806 | 0 | 270 | 10.4 | 18.2 | 0.00 | 0.00 | 0.00 | 1002.9 | |
| 20260507064746 | 0 | 270 | 11.3 | 18.2 | 0.00 | 0.00 | 0.00 | 1002.9 | |
| 20260507064736 | 0 | 270 | 12.2 | 18.2 | 0.00 | 0.00 | 0.00 | 1002.9 | |
| 20260507064656 | 0 | 270 | 12.2 | 18.2 | 0.00 | 0.00 | 0.00 | 1002.9 | |
| 20260507064646 | 0 | 270 | 12.2 | 18.2 | 0.00 | 0.00 | 0.00 | 1002.8 | |
| 20260507064636 | 0 | 248 | 12.2 | 18.2 | 0.00 | 0.00 | 0.00 | 1002.9 | |
| 20260507064626 | 0 | 225 | 12.2 | 18.2 | 0.00 | 0.00 | 0.00 | 1002.8 | |
| 20260507064606 | 0 | 270 | 12.2 | 18.2 | 0.00 | 0.00 | 0.00 | 1002.9 | |
| 20260507064546 | 0 | 270 | 12.2 | 18.2 | 0.00 | 0.00 | 0.00 | 1002.8 | |
| 20260507064536 | 0 | 270 | 11.3 | 18.2 | 0.00 | 0.00 | 0.00 | 1002.8 | |
| 20260507064516 | 0 | 270 | 10.4 | 18.2 | 0.00 | 0.00 | 0.00 | 1002.8 | |
| 20260507064506 | 0 | 270 | 11.3 | 18.2 | 0.00 | 0.00 | 0.00 | 1002.9 | |
| 20260507064446 | 0 | 248 | 11.3 | 18.2 | 0.00 | 0.00 | 0.00 | 1002.8 | |
| 20260507064426 | 0 | 270 | 12.2 | 18.2 | 0.00 | 0.00 | 0.00 | 1002.8 | |
| 20260507064416 | 0 | 225 | 12.2 | 18.2 | 0.00 | 0.00 | 0.00 | 1002.9 | |
| 20260507064406 | 0 | 225 | 11.3 | 18.2 | 0.00 | 0.00 | 0.00 | 1002.9 | |
| 20260507064356 | 0 | 225 | 11.3 | 16.5 | 0.00 | 0.00 | 0.00 | 1002.8 | |
| 20260507064336 | 0 | 225 | 10.4 | 16.5 | 0.00 | 0.00 | 0.00 | 1002.8 | |
| 20260507064326 | 0 | 270 | 11.3 | 16.5 | 0.00 | 0.00 | 0.00 | 1002.9 | |
| 20260507064306 | 0 | 270 | 11.3 | 16.5 | 0.00 | 0.00 | 0.00 | 1002.8 | |
| 20260507064256 | 55 | 270 | 11.3 | 16.5 | 0.00 | 0.00 | 0.00 | 76 | 1002.8 |
| 20260507064236 | 0 | 225 | 12.2 | 16.5 | 0.00 | 0.00 | 0.00 | 1002.9 | |
| 20260507064226 | 0 | 270 | 12.2 | 16.5 | 0.00 | 0.00 | 0.00 | 1002.8 | |
| 20260507064207 | 0 | 270 | 11.3 | 15.6 | 0.00 | 0.00 | 0.00 | 1002.8 | |
| 20260507064156 | 0 | 270 | 10.4 | 14.8 | 0.00 | 0.00 | 0.00 | 1002.9 | |
| 20260507064147 | 0 | 0 | 10.4 | 14.8 | 0.00 | 0.00 | 0.00 | 1002.9 | |
| 20260507064137 | 0 | 270 | 9.6 | 14.8 | 0.00 | 0.00 | 0.00 | 1002.9 | |
| 20260507064127 | 0 | 270 | 9.6 | 14.8 | 0.00 | 0.00 | 0.00 | 1002.8 | |
| 20260507064117 | 0 | 270 | 10.4 | 14.8 | 0.00 | 0.00 | 0.00 | 1002.9 | |
| 20260507064107 | 0 | 225 | 10.4 | 14.8 | 0.00 | 0.00 | 0.00 | 1002.7 | |
| 20260507064057 | 0 | 225 | 10.4 | 14.8 | 0.00 | 0.00 | 0.00 | 1002.8 | |
| 20260507064037 | 0 | 270 | 10.4 | 15.6 | 0.00 | 0.00 | 0.00 | 1002.8 | |
| 20260507064027 | 0 | 270 | 11.3 | 15.6 | 0.00 | 0.00 | 0.00 | 1002.9 | |
| 20260507064017 | 0 | 270 | 11.3 | 15.6 | 0.00 | 0.00 | 0.00 | 1002.8 | |
| 20260507063947 | 0 | 270 | 12.2 | 15.6 | 0.00 | 0.00 | 0.00 | 1002.8 | |
| 20260507063937 | 0 | 270 | 11.3 | 15.6 | 0.00 | 0.00 | 0.00 | 1002.8 | |
| 20260507063927 | 0 | 270 | 10.4 | 15.6 | 0.00 | 0.00 | 0.00 | 1002.8 | |
| 20260507063917 | 0 | 248 | 10.4 | 15.6 | 0.00 | 0.00 | 0.00 | 1002.8 | |
| 20260507063907 | 0 | 270 | 10.4 | 15.6 | 0.00 | 0.00 | 0.00 | 1002.9 | |
| 20260507063857 | 0 | 270 | 9.6 | 15.6 | 0.00 | 0.00 | 0.00 | 1002.8 | |
| 20260507063837 | 0 | 270 | 8.7 | 15.6 | 0.00 | 0.00 | 0.00 | 1002.8 | |
| 20260507063827 | 0 | 270 | 8.7 | 16.5 | 0.00 | 0.00 | 0.00 | 1002.8 | |
| 20260507063807 | 0 | 270 | 8.7 | 16.5 | 0.00 | 0.00 | 0.00 | 1002.9 | |
| 20260507063747 | 0 | 270 | 8.7 | 16.5 | 0.00 | 0.00 | 0.00 | 1002.8 | |
| 20260507063737 | 0 | 270 | 9.6 | 16.5 | 0.00 | 0.00 | 0.00 | 1002.9 | |
| 20260507063717 | 0 | 270 | 9.6 | 16.5 | 0.00 | 0.00 | 0.00 | 1002.8 | |
| 20260507063707 | 0 | 270 | 10.4 | 16.5 | 0.00 | 0.00 | 0.00 | 1002.8 | |
| 20260507063647 | 0 | 270 | 10.4 | 16.5 | 0.00 | 0.00 | 0.00 | 1002.7 | |
| 20260507063627 | 0 | 270 | 10.4 | 16.5 | 0.00 | 0.00 | 0.00 | 1002.8 | |
| 20260507063617 | 0 | 270 | 11.3 | 16.5 | 0.00 | 0.00 | 0.00 | 1002.7 | |
| 20260507063607 | 0 | 225 | 11.3 | 16.5 | 0.00 | 0.00 | 0.00 | 1002.8 | |
| 20260507063547 | 0 | 270 | 10.4 | 16.5 | 0.00 | 0.00 | 0.00 | 1002.8 | |
| 20260507063537 | 0 | 225 | 10.4 | 16.5 | 0.00 | 0.00 | 0.00 | 1002.8 | |
| 20260507063527 | 0 | 270 | 10.4 | 16.5 | 0.00 | 0.00 | 0.00 | 1002.7 | |
| 20260507063507 | 0 | 270 | 10.4 | 16.5 | 0.00 | 0.00 | 0.00 | 1002.8 | |
| 20260507063428 | 0 | 270 | 10.4 | 16.5 | 0.00 | 0.00 | 0.00 | 1002.8 | |
| 20260507063418 | 0 | 270 | 11.3 | 16.5 | 0.00 | 0.00 | 0.00 | 1002.8 | |
| 20260507063408 | 0 | 270 | 11.3 | 16.5 | 0.00 | 0.00 | 0.00 | 1002.9 | |
| 20260507063358 | 0 | 248 | 11.3 | 16.5 | 0.00 | 0.00 | 0.00 | 1002.8 | |
| 20260507063348 | 0 | 225 | 11.3 | 16.5 | 0.00 | 0.00 | 0.00 | 1002.9 | |
| 20260507063328 | 0 | 225 | 11.3 | 16.5 | 0.00 | 0.00 | 0.00 | 1002.8 | |
| 20260507063308 | 0 | 225 | 10.4 | 16.5 | 0.00 | 0.00 | 0.00 | 1002.8 | |
| 20260507063258 | 0 | 248 | 10.4 | 17.4 | 0.00 | 0.00 | 0.00 | 1002.8 | |
| 20260507063248 | 0 | 270 | 10.4 | 17.4 | 0.00 | 0.00 | 0.00 | 1002.8 | |
| 20260507063238 | 0 | 225 | 10.4 | 17.4 | 0.00 | 0.00 | 0.00 | 1002.9 | |
| 20260507063228 | 0 | 225 | 10.4 | 17.4 | 0.00 | 0.00 | 0.00 | 1002.8 | |
| 20260507063218 | 0 | 225 | 9.6 | 17.4 | 0.00 | 0.00 | 0.00 | 1002.8 | |
| 20260507063208 | 0 | 225 | 8.7 | 17.4 | 0.00 | 0.00 | 0.00 | 1002.7 | |
| 20260507063158 | 0 | 270 | 8.7 | 17.4 | 0.00 | 0.00 | 0.00 | 1002.7 | |
| 20260507063148 | 0 | 270 | 8.7 | 17.4 | 0.00 | 0.00 | 0.00 | 1002.8 | |
| 20260507063138 | 0 | 248 | 9.6 | 17.4 | 0.00 | 0.00 | 0.00 | 1002.8 | |
| 20260507063128 | 0 | 225 | 9.6 | 17.4 | 0.00 | 0.00 | 0.00 | 1002.9 | |
| 20260507063118 | 0 | 270 | 9.6 | 17.4 | 0.00 | 0.00 | 0.00 | 1002.8 | |
| 20260507063108 | 0 | 0 | 10.4 | 17.4 | 0.00 | 0.00 | 0.00 | 1002.8 | |
| 20260507063048 | 0 | 225 | 10.4 | 17.4 | 0.00 | 0.00 | 0.00 | 1002.8 | |
| 20260507063038 | 0 | 270 | 10.4 | 17.4 | 0.00 | 0.00 | 0.00 | 1002.8 | |
| 20260507063028 | 0 | 225 | 9.6 | 17.4 | 0.00 | 0.00 | 0.00 | 1002.8 | |
| 20260507063018 | 0 | 225 | 8.7 | 17.4 | 0.00 | 0.00 | 0.00 | 1002.9 | |
| 20260507062948 | 0 | 270 | 8.7 | 17.4 | 0.00 | 0.00 | 0.00 | 1002.8 | |
| 20260507062938 | 0 | 270 | 9.6 | 17.4 | 0.00 | 0.00 | 0.00 | 1002.8 | |
| 20260507062928 | 0 | 270 | 10.4 | 17.4 | 0.00 | 0.00 | 0.00 | 1002.9 | |
| 20260507062918 | 0 | 248 | 10.4 | 17.4 | 0.00 | 0.00 | 0.00 | 1002.8 | |
| 20260507062908 | 0 | 270 | 11.3 | 17.4 | 0.00 | 0.00 | 0.00 | 1002.8 | |
| 20260507062848 | 0 | 270 | 12.2 | 17.4 | 0.00 | 0.00 | 0.00 | 1002.8 | |
| 20260507062829 | 0 | 225 | 12.2 | 17.4 | 0.00 | 0.00 | 0.00 | 1002.7 | |
| 20260507062809 | 0 | 225 | 12.2 | 17.4 | 0.00 | 0.00 | 0.00 | 1002.8 | |
| 20260507062759 | 0 | 225 | 11.3 | 17.4 | 0.00 | 0.00 | 0.00 | 1002.8 | |
| 20260507062749 | 0 | 225 | 10.4 | 16.5 | 0.00 | 0.00 | 0.00 | 1002.7 | |
| 20260507062739 | 0 | 225 | 10.4 | 16.5 | 0.00 | 0.00 | 0.00 | 1002.8 | |
| 20260507062729 | 0 | 270 | 11.3 | 16.5 | 0.00 | 0.00 | 0.00 | 1002.9 | |
| 20260507062719 | 0 | 225 | 11.3 | 16.5 | 0.00 | 0.00 | 0.00 | 1002.8 | |
| 20260507062639 | 0 | 270 | 12.2 | 16.5 | 0.00 | 0.00 | 0.00 | 1002.8 | |
| 20260507062629 | 0 | 270 | 11.3 | 16.5 | 0.00 | 0.00 | 0.00 | 1002.8 | |
| 20260507062609 | 0 | 248 | 10.4 | 16.5 | 0.00 | 0.00 | 0.00 | 1002.8 | |
| 20260507062559 | 0 | 225 | 9.6 | 16.5 | 0.00 | 0.00 | 0.00 | 1002.6 | |
| 20260507062549 | 0 | 225 | 9.6 | 16.5 | 0.00 | 0.00 | 0.00 | 1002.9 | |
| 20260507062539 | 0 | 180 | 9.6 | 16.5 | 0.00 | 0.00 | 0.00 | 1002.8 | |
| 20260507062529 | 0 | 270 | 10.4 | 16.5 | 0.00 | 0.00 | 0.00 | 675.5 | |
| 20260507062519 | 0 | 225 | 10.4 | 16.5 | 0.00 | 0.00 | 0.00 | 1002.9 | |
| 20260507062509 | 0 | 270 | 11.3 | 16.5 | 0.00 | 0.00 | 0.00 | 1002.8 | |
| 20260507062459 | 0 | 270 | 12.2 | 16.5 | 0.00 | 0.00 | 0.00 | 1002.9 | |
| 20260507062439 | 0 | 225 | 12.2 | 16.5 | 0.00 | 0.00 | 0.00 | 1002.9 | |
| 20260507062419 | 0 | 270 | 12.2 | 16.5 | 0.00 | 0.00 | 0.00 | 1002.8 | |
| 20260507062409 | 55 | 270 | 12.2 | 16.5 | 0.00 | 0.00 | 0.00 | 70 | 1002.9 |
| 20260507062359 | 0 | 270 | 11.3 | 16.5 | 0.00 | 0.00 | 0.00 | 1002.8 | |
| 20260507062349 | 0 | 270 | 10.4 | 16.5 | 0.00 | 0.00 | 0.00 | 1002.8 | |
| 20260507062339 | 0 | 270 | 10.4 | 16.5 | 0.00 | 0.00 | 0.00 | 861.2 | |
| 20260507062309 | 0 | 270 | 9.6 | 14.8 | 0.00 | 0.00 | 0.00 | 1002.8 | |
| 20260507062259 | 0 | 270 | 10.4 | 14.8 | 0.00 | 0.00 | 0.00 | 1002.8 | |
| 20260507062249 | 0 | 225 | 10.4 | 14.8 | 0.00 | 0.00 | 0.00 | 1002.9 | |
| 20260507062229 | 55 | 270 | 11.3 | 15.6 | 0.00 | 0.00 | 0.00 | 70 | 1002.8 |
| 20260507062219 | 0 | 270 | 11.3 | 15.6 | 0.00 | 0.00 | 0.00 | 1002.8 | |
| 20260507062209 | 0 | 270 | 11.3 | 15.6 | 0.00 | 0.00 | 0.00 | 1031.6 | |
| 20260507062159 | 0 | 270 | 10.4 | 15.6 | 0.00 | 0.00 | 0.00 | 1002.9 | |
| 20260507062150 | 0 | 270 | 9.6 | 15.6 | 0.00 | 0.00 | 0.00 | ||
| 20260507062120 | 0 | 270 | 8.7 | 15.6 | 0.00 | 0.00 | 0.00 | 1002.8 | |
| 20260507062110 | 0 | 270 | 9.6 | 15.6 | 0.00 | 0.00 | 0.00 | 1002.8 | |
| 20260507062100 | 0 | 270 | 10.4 | 15.6 | 0.00 | 0.00 | 0.00 | 1002.8 | |
| 20260507062040 | 0 | 270 | 10.4 | 15.6 | 0.00 | 0.00 | 0.00 | 1002.9 | |
| 20260507062020 | 0 | 270 | 11.3 | 16.5 | 0.00 | 0.00 | 0.00 | 1002.8 | |
| 20260507062010 | 0 | 270 | 11.3 | 16.5 | 0.00 | 0.00 | 0.00 | 1002.9 | |
| 20260507062000 | 0 | 270 | 12.2 | 16.5 | 0.00 | 0.00 | 0.00 | 1002.9 | |
| 20260507061950 | 0 | 270 | 11.3 | 17.4 | 0.00 | 0.00 | 0.00 | 1009.1 | |
| 20260507061940 | 0 | 270 | 11.3 | 17.4 | 0.00 | 0.00 | 0.00 | 1002.8 | |
| 20260507061930 | 0 | 270 | 11.3 | 17.4 | 0.00 | 0.00 | 0.00 | 1002.9 | |
| 20260507061920 | 0 | 225 | 11.3 | 17.4 | 0.00 | 0.00 | 0.00 | 1002.9 | |
| 20260507061910 | 0 | 270 | 10.4 | 17.4 | 0.00 | 0.00 | 0.00 | 1002.8 | |
| 20260507061900 | 0 | 270 | 10.4 | 17.4 | 0.00 | 0.00 | 0.00 | 865.2 | |
| 20260507061840 | 0 | 225 | 10.4 | 17.4 | 0.00 | 0.00 | 0.00 | 1002.8 | |
| 20260507061830 | 0 | 270 | 10.4 | 17.4 | 0.00 | 0.00 | 0.00 | 1002.8 | |
| 20260507061800 | 0 | 270 | 10.4 | 17.4 | 0.00 | 0.00 | 0.00 | 1002.9 | |
| 20260507061750 | 0 | 270 | 10.4 | 17.4 | 0.00 | 0.00 | 0.00 | 1002.8 | |
| 20260507061740 | 0 | 225 | 10.4 | 17.4 | 0.00 | 0.00 | 0.00 | 1002.7 | |
| 20260507061700 | 0 | 270 | 10.4 | 17.4 | 0.00 | 0.00 | 0.00 | 1002.8 | |
| 20260507061650 | 0 | 225 | 10.4 | 17.4 | 0.00 | 0.00 | 0.00 | 1002.7 | |
| 20260507061640 | 0 | 248 | 10.4 | 17.4 | 0.00 | 0.00 | 0.00 | 1002.8 | |
| 20260507061610 | 0 | 270 | 11.3 | 17.4 | 0.00 | 0.00 | 0.00 | 1002.8 | |
| 20260507061600 | 0 | 270 | 12.2 | 17.4 | 0.00 | 0.00 | 0.00 | 1002.8 | |
| 20260507061550 | 0 | 225 | 12.2 | 17.4 | 0.00 | 0.00 | 0.00 | 1002.8 | |
| 20260507061540 | 0 | 225 | 13.0 | 17.4 | 0.00 | 0.00 | 0.00 | 1002.8 | |
| 20260507061520 | 0 | 248 | 13.0 | 17.4 | 0.00 | 0.00 | 0.00 | 1002.7 | |
| 20260507061510 | 0 | 270 | 13.0 | 17.4 | 0.00 | 0.00 | 0.00 | 1002.8 | |
| 20260507061502 | 0 | 270 | 13.0 | 17.4 | 0.00 | 0.00 | 0.00 | 1002.7 | |
| 20260507061440 | 0 | 270 | 12.2 | 17.4 | 0.00 | 0.00 | 0.00 | 1002.8 | |
| 20260507061431 | 0 | 270 | 12.2 | 16.5 | 0.00 | 0.00 | 0.00 | 1002.8 | |
| 20260507061421 | 0 | 270 | 11.3 | 16.5 | 0.00 | 0.00 | 0.00 | 1002.7 | |
| 20260507061411 | 0 | 225 | 10.4 | 16.5 | 0.00 | 0.00 | 0.00 | 1002.7 | |
| 20260507061401 | 0 | 270 | 10.4 | 16.5 | 0.00 | 0.00 | 0.00 | 1002.8 | |
| 20260507061351 | 0 | 270 | 9.6 | 14.8 | 0.00 | 0.00 | 0.00 | 1002.7 | |
| 20260507061341 | 0 | 270 | 8.7 | 14.8 | 0.00 | 0.00 | 0.00 | 1002.8 | |
| 20260507061321 | 0 | 225 | 8.7 | 14.8 | 0.00 | 0.00 | 0.00 | 1002.7 | |
| 20260507061301 | 0 | 270 | 9.6 | 14.8 | 0.00 | 0.00 | 0.00 | 1002.7 | |
| 20260507061251 | 0 | 225 | 10.4 | 16.5 | 0.00 | 0.00 | 0.00 | 1002.7 | |
| 20260507061241 | 0 | 270 | 10.4 | 16.5 | 0.00 | 0.00 | 0.00 | 1002.7 | |
| 20260507061201 | 0 | 270 | 11.3 | 16.5 | 0.00 | 0.00 | 0.00 | 1002.7 | |
| 20260507061151 | 0 | 270 | 10.4 | 16.5 | 0.00 | 0.00 | 0.00 | 1002.7 | |
| 20260507061141 | 0 | 270 | 10.4 | 16.5 | 0.00 | 0.00 | 0.00 | 1002.8 | |
| 20260507061131 | 0 | 225 | 10.4 | 16.5 | 0.00 | 0.00 | 0.00 | ||
| 20260507061101 | 0 | 270 | 10.4 | 16.5 | 0.00 | 0.00 | 0.00 | 1002.7 | |
| 20260507061051 | 0 | 270 | 9.6 | 16.5 | 0.00 | 0.00 | 0.00 | 1002.7 | |
| 20260507061041 | 0 | 270 | 9.6 | 16.5 | 0.00 | 0.00 | 0.00 | 1002.6 | |
| 20260507061031 | 0 | 225 | 9.6 | 16.5 | 0.00 | 0.00 | 0.00 | 1002.7 | |
| 20260507061021 | 0 | 248 | 9.6 | 16.5 | 0.00 | 0.00 | 0.00 | 1002.7 | |
| 20260507061011 | 0 | 270 | 8.7 | 16.5 | 0.00 | 0.00 | 0.00 | 1002.7 | |
| 20260507060951 | 0 | 270 | 8.7 | 16.5 | 0.00 | 0.00 | 0.00 | 1002.6 | |
| 20260507060911 | 0 | 270 | 8.7 | 16.5 | 0.00 | 0.00 | 0.00 | 1002.6 | |
| 20260507060901 | 0 | 270 | 8.7 | 16.5 | 0.00 | 0.00 | 0.00 | 1002.7 | |
| 20260507060851 | 0 | 225 | 9.6 | 16.5 | 0.00 | 0.00 | 0.00 | 1002.6 | |
| 20260507060841 | 0 | 225 | 10.4 | 16.5 | 0.00 | 0.00 | 0.00 | 1002.7 | |
| 20260507060831 | 0 | 225 | 11.3 | 16.5 | 0.00 | 0.00 | 0.00 | 1002.6 | |
| 20260507060821 | 0 | 270 | 11.3 | 16.5 | 0.00 | 0.00 | 0.00 | 1002.7 | |
| 20260507060801 | 0 | 270 | 12.2 | 16.5 | 0.00 | 0.00 | 0.00 | 1002.6 | |
| 20260507060731 | 0 | 270 | 12.2 | 16.5 | 0.00 | 0.00 | 0.00 | 1002.7 | |
| 20260507060722 | 0 | 270 | 12.2 | 16.5 | 0.00 | 0.00 | 0.00 | 1002.6 | |
| 20260507060712 | 0 | 270 | 11.3 | 16.5 | 0.00 | 0.00 | 0.00 | 1002.6 | |
| 20260507060702 | 0 | 270 | 10.4 | 16.5 | 0.00 | 0.00 | 0.00 | 1002.7 | |
| 20260507060642 | 0 | 270 | 10.4 | 16.5 | 0.00 | 0.00 | 0.00 | 1002.6 | |
| 20260507060632 | 0 | 270 | 9.6 | 16.5 | 0.00 | 0.00 | 0.00 | 1002.6 | |
| 20260507060622 | 0 | 225 | 10.4 | 16.5 | 0.00 | 0.00 | 0.00 | 1002.6 | |
| 20260507060612 | 0 | 248 | 10.4 | 16.5 | 0.00 | 0.00 | 0.00 | 943.3 | |
| 20260507060602 | 0 | 270 | 10.4 | 16.5 | 0.00 | 0.00 | 0.00 | 1002.6 | |
| 20260507060542 | 0 | 270 | 11.3 | 16.5 | 0.00 | 0.00 | 0.00 | 1002.6 | |
| 20260507060532 | 0 | 248 | 11.3 | 16.5 | 0.00 | 0.00 | 0.00 | 830.9 | |
| 20260507060522 | 0 | 270 | 10.4 | 16.5 | 0.00 | 0.00 | 0.00 | 1002.7 | |
| 20260507060512 | 0 | 270 | 10.4 | 16.5 | 0.00 | 0.00 | 0.00 | 1002.6 | |
| 20260507060452 | 0 | 270 | 8.7 | 14.8 | 0.00 | 0.00 | 0.00 | 1002.7 | |
| 20260507060442 | 0 | 270 | 8.7 | 13.9 | 0.00 | 0.00 | 0.00 | 1002.7 | |
| 20260507060432 | 0 | 270 | 7.8 | 13.9 | 0.00 | 0.00 | 0.00 | 1002.6 | |
| 20260507060402 | 0 | 270 | 8.7 | 13.9 | 0.00 | 0.00 | 0.00 | 1002.6 | |
| 20260507060352 | 0 | 270 | 9.6 | 13.9 | 0.00 | 0.00 | 0.00 | 1002.6 | |
| 20260507060332 | 0 | 270 | 10.4 | 13.9 | 0.00 | 0.00 | 0.00 | 1002.6 | |
| 20260507060322 | 0 | 248 | 10.4 | 13.9 | 0.00 | 0.00 | 0.00 | 1002.6 | |
| 20260507060312 | 0 | 270 | 9.6 | 13.9 | 0.00 | 0.00 | 0.00 | 1002.6 | |
| 20260507060252 | 0 | 270 | 8.7 | 13.9 | 0.00 | 0.00 | 0.00 | 1002.6 | |
| 20260507060242 | 0 | 270 | 7.8 | 14.8 | 0.00 | 0.00 | 0.00 | 1002.6 | |
| 20260507060212 | 0 | 270 | 7.0 | 14.8 | 0.00 | 0.00 | 0.00 | 1002.6 | |
| 20260507060202 | 0 | 270 | 7.8 | 14.8 | 0.00 | 0.00 | 0.00 | 1002.6 | |
| 20260507060152 | 0 | 270 | 8.7 | 14.8 | 0.00 | 0.00 | 0.00 | 1002.6 | |
| 20260507060142 | 0 | 270 | 9.6 | 14.8 | 0.00 | 0.00 | 0.00 | 1002.6 | |
| 20260507060132 | 0 | 225 | 10.4 | 14.8 | 0.00 | 0.00 | 0.00 | 1002.6 | |
| 20260507060112 | 0 | 270 | 10.4 | 14.8 | 0.00 | 0.00 | 0.00 | 1002.7 | |
| 20260507060052 | 0 | 225 | 10.4 | 14.8 | 0.00 | 0.00 | 0.00 | 1002.6 | |
| 20260507060042 | 0 | 248 | 9.6 | 14.8 | 0.00 | 0.00 | 0.00 | 1002.6 | |
| 20260507060022 | 0 | 225 | 9.6 | 14.8 | 0.00 | 0.00 | 0.00 | 1002.6 | |
| 20260507060003 | 0 | 270 | 9.6 | 14.8 | 0.00 | 0.00 | 0.00 | 1002.6 | |
| 20260507055943 | 0 | 270 | 8.7 | 14.8 | 0.00 | 0.00 | 0.00 | 1002.6 | |
| 20260507055933 | 0 | 270 | 8.7 | 14.8 | 0.00 | 0.00 | 0.00 | 1002.5 | |
| 20260507055923 | 0 | 225 | 7.8 | 14.8 | 0.00 | 0.00 | 0.00 | 1002.6 | |
| 20260507055913 | 0 | 270 | 7.8 | 14.8 | 0.00 | 0.00 | 0.00 | 1002.5 | |
| 20260507055853 | 0 | 225 | 8.7 | 14.8 | 0.00 | 0.00 | 0.00 | 1002.5 | |
| 20260507055843 | 0 | 270 | 9.6 | 14.8 | 0.00 | 0.00 | 0.00 | 1002.5 | |
| 20260507055823 | 0 | 270 | 10.4 | 14.8 | 0.00 | 0.00 | 0.00 | 1002.6 | |
| 20260507055813 | 0 | 270 | 10.4 | 14.8 | 0.00 | 0.00 | 0.00 | 1002.5 | |
| 20260507055803 | 0 | 270 | 8.7 | 14.8 | 0.00 | 0.00 | 0.00 | 1002.5 | |
| 20260507055753 | 0 | 270 | 8.7 | 14.8 | 0.00 | 0.00 | 0.00 | 1002.6 | |
| 20260507055743 | 0 | 270 | 8.7 | 13.0 | 0.00 | 0.00 | 0.00 | 1002.5 | |
| 20260507055723 | 0 | 270 | 7.8 | 13.0 | 0.00 | 0.00 | 0.00 | 1002.6 | |
| 20260507055703 | 0 | 270 | 7.8 | 13.0 | 0.00 | 0.00 | 0.00 | 1002.5 | |
| 20260507055643 | 0 | 248 | 8.7 | 13.0 | 0.00 | 0.00 | 0.00 | 1002.5 | |
| 20260507055633 | 0 | 270 | 8.7 | 13.0 | 0.00 | 0.00 | 0.00 | 1002.5 | |
| 20260507055623 | 0 | 270 | 8.7 | 13.0 | 0.00 | 0.00 | 0.00 | 1002.4 | |
| 20260507055553 | 0 | 270 | 8.7 | 13.0 | 0.00 | 0.00 | 0.00 | 1002.5 | |
| 20260507055543 | 0 | 225 | 8.7 | 13.0 | 0.00 | 0.00 | 0.00 | 1002.5 | |
| 20260507055533 | 0 | 225 | 7.8 | 13.9 | 0.00 | 0.00 | 0.00 | 1002.5 | |
| 20260507055513 | 0 | 270 | 7.0 | 13.9 | 0.00 | 0.00 | 0.00 | 1002.5 | |
| 20260507055503 | 0 | 248 | 7.0 | 13.9 | 0.00 | 0.00 | 0.00 | 1002.4 | |
| 20260507055453 | 0 | 225 | 7.0 | 13.9 | 0.00 | 0.00 | 0.00 | 1002.3 | |
| 20260507055443 | 0 | 225 | 7.0 | 13.9 | 0.00 | 0.00 | 0.00 | 1002.5 | |
| 20260507055433 | 0 | 270 | 7.8 | 13.9 | 0.00 | 0.00 | 0.00 | 1002.5 | |
| 20260507055423 | 0 | 225 | 7.8 | 13.9 | 0.00 | 0.00 | 0.00 | 1002.4 | |
| 20260507055413 | 0 | 248 | 8.7 | 13.9 | 0.00 | 0.00 | 0.00 | 1002.4 | |
| 20260507055403 | 0 | 270 | 8.7 | 13.9 | 0.00 | 0.00 | 0.00 | 1002.5 | |
| 20260507055343 | 0 | 270 | 8.7 | 13.9 | 0.00 | 0.00 | 0.00 | 1002.4 | |
| 20260507055333 | 0 | 270 | 9.6 | 13.9 | 0.00 | 0.00 | 0.00 | 1002.4 | |
| 20260507055306 | 0 | 270 | 9.6 | 13.9 | 0.00 | 0.00 | 0.00 | 1002.5 | |
| 20260507055234 | 0 | 270 | 8.7 | 13.9 | 0.00 | 0.00 | 0.00 | 1002.5 | |
| 20260507055224 | 0 | 270 | 9.6 | 13.9 | 0.00 | 0.00 | 0.00 | 1002.5 | |
| 20260507055214 | 0 | 270 | 8.7 | 13.9 | 0.00 | 0.00 | 0.00 | 1002.4 | |
| 20260507055144 | 0 | 270 | 8.7 | 13.9 | 0.00 | 0.00 | 0.00 | 1002.5 | |
| 20260507055134 | 0 | 270 | 9.6 | 13.9 | 0.00 | 0.00 | 0.00 | 1002.5 | |
| 20260507055124 | 0 | 270 | 9.6 | 13.9 | 0.00 | 0.00 | 0.00 | 1002.4 | |
| 20260507055104 | 0 | 270 | 10.4 | 13.9 | 0.00 | 0.00 | 0.00 | 1002.5 | |
| 20260507055054 | 0 | 270 | 10.4 | 13.9 | 0.00 | 0.00 | 0.00 | 1002.4 | |
| 20260507055014 | 0 | 270 | 10.4 | 13.9 | 0.00 | 0.00 | 0.00 | 1002.5 | |
| 20260507054934 | 0 | 270 | 9.6 | 13.9 | 0.00 | 0.00 | 0.00 | 1002.5 | |
| 20260507054924 | 0 | 270 | 8.7 | 13.9 | 0.00 | 0.00 | 0.00 | 1002.5 | |
| 20260507054914 | 0 | 270 | 8.7 | 12.2 | 0.00 | 0.00 | 0.00 | 1002.4 | |
| 20260507054834 | 0 | 270 | 8.7 | 12.2 | 0.00 | 0.00 | 0.00 | 1002.5 | |
| 20260507054824 | 0 | 270 | 8.7 | 12.2 | 0.00 | 0.00 | 0.00 | 1002.4 | |
| 20260507054744 | 0 | 270 | 8.7 | 12.2 | 0.00 | 0.00 | 0.00 | 1002.5 | |
| 20260507054734 | 0 | 270 | 8.7 | 12.2 | 0.00 | 0.00 | 0.00 | 1002.4 | |
| 20260507054714 | 0 | 225 | 8.7 | 12.2 | 0.00 | 0.00 | 0.00 | 1002.4 | |
| 20260507054704 | 0 | 270 | 8.7 | 12.2 | 0.00 | 0.00 | 0.00 | 1002.5 | |
| 20260507054654 | 0 | 270 | 8.7 | 12.2 | 0.00 | 0.00 | 0.00 | 1002.4 | |
| 20260507054644 | 0 | 270 | 7.8 | 12.2 | 0.00 | 0.00 | 0.00 | 1002.5 | |
| 20260507054634 | 0 | 270 | 7.8 | 13.0 | 0.00 | 0.00 | 0.00 | 1002.4 | |
| 20260507054624 | 0 | 270 | 7.8 | 13.0 | 0.00 | 0.00 | 0.00 | 1002.5 | |
| 20260507054614 | 0 | 225 | 7.8 | 13.0 | 0.00 | 0.00 | 0.00 | 1002.5 | |
| 20260507054604 | 0 | 203 | 7.8 | 13.0 | 0.00 | 0.00 | 0.00 | 1002.4 | |
| 20260507054545 | 0 | 270 | 7.0 | 13.0 | 0.00 | 0.00 | 0.00 | 1002.4 | |
| 20260507054535 | 0 | 248 | 7.0 | 13.0 | 0.00 | 0.00 | 0.00 | 1002.5 | |
| 20260507054525 | 0 | 270 | 7.0 | 13.0 | 0.00 | 0.00 | 0.00 | 1002.5 | |
| 20260507054515 | 0 | 225 | 7.0 | 13.0 | 0.00 | 0.00 | 0.00 | 1002.5 | |
| 20260507054505 | 0 | 225 | 7.0 | 13.9 | 0.00 | 0.00 | 0.00 | 1002.4 | |
| 20260507054455 | 0 | 248 | 7.8 | 13.9 | 0.00 | 0.00 | 0.00 | 1002.4 | |
| 20260507054445 | 0 | 270 | 7.8 | 13.9 | 0.00 | 0.00 | 0.00 | 1002.4 | |
| 20260507054415 | 0 | 270 | 8.7 | 13.9 | 0.00 | 0.00 | 0.00 | 1002.4 | |
| 20260507054405 | 0 | 248 | 8.7 | 13.9 | 0.00 | 0.00 | 0.00 | 1002.5 | |
| 20260507054355 | 0 | 225 | 8.7 | 13.9 | 0.00 | 0.00 | 0.00 | 1002.5 | |
| 20260507054345 | 0 | 270 | 8.7 | 13.9 | 0.00 | 0.00 | 0.00 | 1002.5 | |
| 20260507054315 | 0 | 270 | 8.7 | 13.9 | 0.00 | 0.00 | 0.00 | 1002.4 | |
| 20260507054305 | 0 | 225 | 8.7 | 13.9 | 0.00 | 0.00 | 0.00 | 1002.4 | |
| 20260507054225 | 0 | 270 | 8.7 | 13.9 | 0.00 | 0.00 | 0.00 | 1002.4 | |
| 20260507054155 | 0 | 270 | 9.6 | 13.9 | 0.00 | 0.00 | 0.00 | 1002.4 | |
| 20260507054145 | 0 | 270 | 8.7 | 13.9 | 0.00 | 0.00 | 0.00 | 1002.4 | |
| 20260507054125 | 0 | 225 | 8.7 | 13.9 | 0.00 | 0.00 | 0.00 | 1002.3 | |
| 20260507054115 | 0 | 225 | 8.7 | 13.9 | 0.00 | 0.00 | 0.00 | 1002.4 | |
| 20260507054105 | 0 | 270 | 8.7 | 13.9 | 0.00 | 0.00 | 0.00 | 1002.4 | |
| 20260507054055 | 0 | 270 | 9.6 | 13.9 | 0.00 | 0.00 | 0.00 | 1002.4 | |
| 20260507054045 | 0 | 225 | 9.6 | 13.9 | 0.00 | 0.00 | 0.00 | 1002.4 | |
| 20260507054025 | 0 | 270 | 10.4 | 13.9 | 0.00 | 0.00 | 0.00 | 1002.4 | |
| 20260507054015 | 0 | 225 | 10.4 | 14.8 | 0.00 | 0.00 | 0.00 | 1002.4 | |
| 20260507053955 | 0 | 225 | 9.6 | 14.8 | 0.00 | 0.00 | 0.00 | 1002.4 | |
| 20260507053945 | 0 | 248 | 9.6 | 14.8 | 0.00 | 0.00 | 0.00 | 1002.4 | |
| 20260507053935 | 0 | 270 | 8.7 | 14.8 | 0.00 | 0.00 | 0.00 | 1002.4 | |
| 20260507053905 | 0 | 225 | 8.7 | 14.8 | 0.00 | 0.00 | 0.00 | 1002.4 | |
| 20260507053855 | 0 | 270 | 8.7 | 14.8 | 0.00 | 0.00 | 0.00 | 1002.4 | |
| 20260507053845 | 0 | 225 | 7.8 | 14.8 | 0.00 | 0.00 | 0.00 | 1002.4 | |
| 20260507053836 | 0 | 270 | 7.8 | 14.8 | 0.00 | 0.00 | 0.00 | 1002.4 | |
| 20260507053806 | 0 | 248 | 8.7 | 14.8 | 0.00 | 0.00 | 0.00 | 1002.4 | |
| 20260507053756 | 0 | 270 | 8.7 | 14.8 | 0.00 | 0.00 | 0.00 | 1002.4 | |
| 20260507053726 | 0 | 270 | 9.6 | 14.8 | 0.00 | 0.00 | 0.00 | 1002.4 | |
| 20260507053716 | 55 | 270 | 8.7 | 15.6 | 0.00 | 0.00 | 0.00 | 72 | 1002.4 |
| 20260507053706 | 0 | 270 | 8.7 | 15.6 | 0.00 | 0.00 | 0.00 | 1002.4 | |
| 20260507053646 | 0 | 270 | 8.7 | 15.6 | 0.00 | 0.00 | 0.00 | 1002.3 | |
| 20260507053626 | 0 | 270 | 8.7 | 15.6 | 0.00 | 0.00 | 0.00 | 1002.4 | |
| 20260507053616 | 0 | 270 | 9.6 | 15.6 | 0.00 | 0.00 | 0.00 | 1002.4 | |
| 20260507053606 | 0 | 225 | 9.6 | 15.6 | 0.00 | 0.00 | 0.00 | 1002.4 | |
| 20260507053556 | 0 | 225 | 10.4 | 15.6 | 0.00 | 0.00 | 0.00 | 1002.4 | |
| 20260507053536 | 0 | 225 | 10.4 | 16.5 | 0.00 | 0.00 | 0.00 | 1002.4 | |
| 20260507053526 | 0 | 270 | 10.4 | 16.5 | 0.00 | 0.00 | 0.00 | 1002.4 | |
| 20260507053516 | 0 | 225 | 9.6 | 16.5 | 0.00 | 0.00 | 0.00 | 1002.4 | |
| 20260507053446 | 0 | 225 | 8.7 | 16.5 | 0.00 | 0.00 | 0.00 | 1002.4 | |
| 20260507053436 | 0 | 270 | 8.7 | 16.5 | 0.00 | 0.00 | 0.00 | 1002.4 | |
| 20260507053426 | 0 | 248 | 8.7 | 16.5 | 0.00 | 0.00 | 0.00 | 1002.3 | |
| 20260507053406 | 0 | 225 | 8.7 | 16.5 | 0.00 | 0.00 | 0.00 | 1002.4 | |
| 20260507053356 | 0 | 270 | 8.7 | 16.5 | 0.00 | 0.00 | 0.00 | 1002.3 | |
| 20260507053346 | 55 | 225 | 8.7 | 16.5 | 0.00 | 0.00 | 0.00 | 73 | 1002.4 |
| 20260507053336 | 0 | 270 | 8.7 | 16.5 | 0.00 | 0.00 | 0.00 | 1002.4 | |
| 20260507053326 | 0 | 225 | 8.7 | 16.5 | 0.00 | 0.00 | 0.00 | 1002.3 | |
| 20260507053316 | 0 | 225 | 9.6 | 16.5 | 0.00 | 0.00 | 0.00 | 1002.3 | |
| 20260507053256 | 0 | 270 | 10.4 | 16.5 | 0.00 | 0.00 | 0.00 | 1002.3 | |
| 20260507053246 | 0 | 225 | 10.4 | 16.5 | 0.00 | 0.00 | 0.00 | 1002.4 | |
| 20260507053226 | 0 | 270 | 10.4 | 16.5 | 0.00 | 0.00 | 0.00 | 1002.4 | |
| 20260507053206 | 0 | 225 | 10.4 | 16.5 | 0.00 | 0.00 | 0.00 | 1002.4 | |
| 20260507053157 | 0 | 248 | 10.4 | 16.5 | 0.00 | 0.00 | 0.00 | 1002.3 | |
| 20260507053146 | 0 | 270 | 11.3 | 16.5 | 0.00 | 0.00 | 0.00 | 1002.3 | |
| 20260507053137 | 0 | 270 | 12.2 | 16.5 | 0.00 | 0.00 | 0.00 | 1002.4 | |
| 20260507053117 | 0 | 270 | 11.3 | 16.5 | 0.00 | 0.00 | 0.00 | 1002.4 | |
| 20260507053107 | 0 | 225 | 11.3 | 16.5 | 0.00 | 0.00 | 0.00 | 1002.3 | |
| 20260507053057 | 0 | 225 | 12.2 | 16.5 | 0.00 | 0.00 | 0.00 | 1002.2 | |
| 20260507053047 | 0 | 225 | 11.3 | 16.5 | 0.00 | 0.00 | 0.00 | 1002.2 | |
| 20260507053037 | 0 | 225 | 10.4 | 16.5 | 0.00 | 0.00 | 0.00 | 1002.3 | |
| 20260507053027 | 0 | 315 | 11.3 | 16.5 | 0.00 | 0.00 | 0.00 | 1002.2 | |
| 20260507053017 | 0 | 270 | 12.2 | 16.5 | 0.00 | 0.00 | 0.00 | 1002.3 | |
| 20260507052947 | 0 | 270 | 10.4 | 16.5 | 0.00 | 0.00 | 0.00 | 1002.3 | |
| 20260507052937 | 0 | 225 | 11.3 | 16.5 | 0.00 | 0.00 | 0.00 | 1002.3 | |
| 20260507052907 | 0 | 225 | 10.4 | 16.5 | 0.00 | 0.00 | 0.00 | 1002.3 | |
| 20260507052857 | 0 | 225 | 11.3 | 16.5 | 0.00 | 0.00 | 0.00 | 1002.2 | |
| 20260507052847 | 0 | 270 | 11.3 | 16.5 | 0.00 | 0.00 | 0.00 | 1002.2 | |
| 20260507052837 | 55 | 270 | 10.4 | 16.5 | 0.00 | 0.00 | 0.00 | 72 | 1002.3 |
| 20260507052827 | 0 | 270 | 10.4 | 16.5 | 0.00 | 0.00 | 0.00 | 1002.3 | |
| 20260507052747 | 0 | 270 | 10.4 | 16.5 | 0.00 | 0.00 | 0.00 | 1002.3 | |
| 20260507052727 | 0 | 270 | 11.3 | 16.5 | 0.00 | 0.00 | 0.00 | 1002.3 | |
| 20260507052717 | 0 | 248 | 12.2 | 16.5 | 0.00 | 0.00 | 0.00 | 1002.3 | |
| 20260507052657 | 0 | 225 | 12.2 | 16.5 | 0.00 | 0.00 | 0.00 | 1002.3 | |
| 20260507052637 | 0 | 225 | 12.2 | 17.4 | 0.00 | 0.00 | 0.00 | 1002.3 | |
| 20260507052627 | 0 | 270 | 12.2 | 17.4 | 0.00 | 0.00 | 0.00 | 1002.4 | |
| 20260507052617 | 0 | 248 | 11.3 | 17.4 | 0.00 | 0.00 | 0.00 | 1002.2 | |
| 20260507052607 | 0 | 270 | 10.4 | 17.4 | 0.00 | 0.00 | 0.00 | 1002.2 | |
| 20260507052557 | 0 | 225 | 8.7 | 17.4 | 0.00 | 0.00 | 0.00 | 1002.3 | |
| 20260507052547 | 0 | 225 | 8.7 | 17.4 | 0.00 | 0.00 | 0.00 | 1002.2 | |
| 20260507052537 | 0 | 225 | 7.8 | 17.4 | 0.00 | 0.00 | 0.00 | 1002.0 | |
| 20260507052517 | 0 | 225 | 7.8 | 17.4 | 0.00 | 0.00 | 0.00 | 1002.1 | |
| 20260507052457 | 0 | 225 | 8.7 | 17.4 | 0.00 | 0.00 | 0.00 | 1002.2 | |
| 20260507052447 | 0 | 270 | 8.7 | 19.1 | 0.00 | 0.00 | 0.00 | 1002.2 | |
| 20260507052438 | 0 | 270 | 9.6 | 19.1 | 0.00 | 0.00 | 0.00 | 1002.2 | |
| 20260507052428 | 0 | 225 | 10.4 | 19.1 | 0.00 | 0.00 | 0.00 | 1002.2 | |
| 20260507052418 | 0 | 270 | 11.3 | 19.1 | 0.00 | 0.00 | 0.00 | 1001.8 | |
| 20260507052408 | 0 | 225 | 12.2 | 19.1 | 0.00 | 0.00 | 0.00 | 1000.4 | |
| 20260507052348 | 0 | 270 | 12.2 | 19.1 | 0.00 | 0.00 | 0.00 | 1002.2 | |
| 20260507052328 | 0 | 270 | 12.2 | 19.1 | 0.00 | 0.00 | 0.00 | 1002.3 | |
| 20260507052258 | 0 | 270 | 12.2 | 19.1 | 0.00 | 0.00 | 0.00 | 698.2 | |
| 20260507052248 | 0 | 270 | 12.2 | 19.1 | 0.00 | 0.00 | 0.00 | 1002.2 | |
| 20260507052238 | 0 | 225 | 12.2 | 19.1 | 0.00 | 0.00 | 0.00 | 1002.2 | |
| 20260507052228 | 0 | 225 | 13.0 | 19.1 | 0.00 | 0.00 | 0.00 | 1002.1 | |
| 20260507052208 | 0 | 225 | 12.2 | 19.1 | 0.00 | 0.00 | 0.00 | 1002.3 | |
| 20260507052158 | 0 | 225 | 12.2 | 19.1 | 0.00 | 0.00 | 0.00 | 1002.2 | |
| 20260507052138 | 55 | 203 | 11.3 | 19.1 | 0.00 | 0.00 | 0.00 | 73 | 1002.1 |
| 20260507052128 | 0 | 270 | 11.3 | 19.1 | 0.00 | 0.00 | 0.00 | 1002.2 | |
| 20260507052058 | 0 | 270 | 12.2 | 19.1 | 0.00 | 0.00 | 0.00 | 1002.2 | |
| 20260507052048 | 0 | 225 | 12.2 | 19.1 | 0.00 | 0.00 | 0.00 | 1002.2 | |
| 20260507052038 | 0 | 225 | 12.2 | 19.1 | 0.00 | 0.00 | 0.00 | 1002.1 | |
| 20260507052028 | 0 | 270 | 12.2 | 19.1 | 0.00 | 0.00 | 0.00 | 1002.0 | |
| 20260507052018 | 0 | 225 | 11.3 | 19.1 | 0.00 | 0.00 | 0.00 | 1002.1 | |
| 20260507052008 | 0 | 248 | 10.4 | 19.1 | 0.00 | 0.00 | 0.00 | 1002.1 | |
| 20260507051958 | 0 | 248 | 10.4 | 19.1 | 0.00 | 0.00 | 0.00 | 1002.2 | |
| 20260507051948 | 0 | 225 | 9.6 | 16.5 | 0.00 | 0.00 | 0.00 | 1002.2 | |
| 20260507051938 | 0 | 270 | 8.7 | 20.0 | 0.00 | 0.00 | 0.00 | 1002.2 | |
| 20260507051928 | 0 | 225 | 8.7 | 20.9 | 0.00 | 0.00 | 0.00 | 1002.2 | |
| 20260507051918 | 0 | 225 | 8.7 | 20.9 | 0.00 | 0.00 | 0.00 | 1002.1 | |
| 20260507051908 | 0 | 225 | 9.6 | 20.9 | 0.00 | 0.00 | 0.00 | 1002.2 | |
| 20260507051858 | 0 | 270 | 9.6 | 20.9 | 0.00 | 0.00 | 0.00 | 1002.1 | |
| 20260507051848 | 0 | 248 | 10.4 | 20.9 | 0.00 | 0.00 | 0.00 | 1002.2 | |
| 20260507051828 | 0 | 225 | 10.4 | 20.9 | 0.00 | 0.00 | 0.00 | 1002.1 | |
| 20260507051818 | 0 | 270 | 10.4 | 20.9 | 0.00 | 0.00 | 0.00 | 1002.1 | |
| 20260507051808 | 0 | 270 | 9.6 | 20.9 | 0.00 | 0.00 | 0.00 | 1002.1 | |
| 20260507051738 | 0 | 225 | 9.6 | 20.9 | 0.00 | 0.00 | 0.00 | 1002.2 | |
| 20260507051729 | 0 | 270 | 9.6 | 20.9 | 0.00 | 0.00 | 0.00 | 1002.1 | |
| 20260507051719 | 0 | 270 | 9.6 | 20.9 | 0.00 | 0.00 | 0.00 | 1002.0 | |
| 20260507051709 | 0 | 225 | 10.4 | 20.9 | 0.00 | 0.00 | 0.00 | 1002.2 | |
| 20260507051659 | 0 | 248 | 10.4 | 20.9 | 0.00 | 0.00 | 0.00 | 1002.0 | |
| 20260507051649 | 0 | 225 | 11.3 | 20.9 | 0.00 | 0.00 | 0.00 | 1002.1 | |
| 20260507051629 | 0 | 225 | 10.4 | 20.9 | 0.00 | 0.00 | 0.00 | 1002.2 | |
| 20260507051619 | 0 | 225 | 10.4 | 20.9 | 0.00 | 0.00 | 0.00 | 1002.0 | |
| 20260507051609 | 0 | 270 | 10.4 | 20.9 | 0.00 | 0.00 | 0.00 | 1002.2 | |
| 20260507051549 | 0 | 225 | 11.3 | 20.9 | 0.00 | 0.00 | 0.00 | 1002.1 | |
| 20260507051539 | 0 | 270 | 12.2 | 20.9 | 0.00 | 0.00 | 0.00 | 1002.1 | |
| 20260507051529 | 0 | 225 | 13.9 | 20.9 | 0.00 | 0.00 | 0.00 | 1002.2 | |
| 20260507051519 | 0 | 225 | 14.8 | 20.9 | 0.00 | 0.00 | 0.00 | 1002.1 | |
| 20260507051509 | 0 | 270 | 14.8 | 20.9 | 0.00 | 0.00 | 0.00 | 1002.1 | |
| 20260507051459 | 0 | 248 | 14.8 | 20.9 | 0.00 | 0.00 | 0.00 | 1002.1 | |
| 20260507051449 | 0 | 270 | 13.9 | 20.9 | 0.00 | 0.00 | 0.00 | 1002.1 | |
| 20260507051439 | 0 | 270 | 12.2 | 20.9 | 0.00 | 0.00 | 0.00 | 1002.1 | |
| 20260507051429 | 0 | 270 | 11.3 | 20.9 | 0.00 | 0.00 | 0.00 | 1002.0 | |
| 20260507051409 | 0 | 270 | 8.7 | 18.2 | 0.00 | 0.00 | 0.00 | 1002.1 | |
| 20260507051359 | 54 | 225 | 8.7 | 18.2 | 0.00 | 0.00 | 0.00 | 73 | 1002.0 |
| 20260507051349 | 0 | 225 | 8.7 | 18.2 | 0.00 | 0.00 | 0.00 | 1002.2 | |
| 20260507051339 | 0 | 225 | 8.7 | 18.2 | 0.00 | 0.00 | 0.00 | 1002.1 | |
| 20260507051329 | 0 | 203 | 9.6 | 18.2 | 0.00 | 0.00 | 0.00 | 1002.0 | |
| 20260507051319 | 0 | 225 | 10.4 | 18.2 | 0.00 | 0.00 | 0.00 | 1002.1 | |
| 20260507051309 | 0 | 225 | 11.3 | 18.2 | 0.00 | 0.00 | 0.00 | 1002.0 | |
| 20260507051259 | 0 | 225 | 12.2 | 18.2 | 0.00 | 0.00 | 0.00 | 1002.0 | |
| 20260507051239 | 54 | 270 | 12.2 | 18.2 | 0.00 | 0.00 | 0.00 | 74 | 1002.1 |
| 20260507051229 | 0 | 225 | 12.2 | 18.2 | 0.00 | 0.00 | 0.00 | 1002.1 | |
| 20260507051219 | 0 | 248 | 12.2 | 18.2 | 0.00 | 0.00 | 0.00 | 1002.1 | |
| 20260507051209 | 0 | 270 | 11.3 | 18.2 | 0.00 | 0.00 | 0.00 | 1002.0 | |
| 20260507051159 | 0 | 270 | 11.3 | 17.4 | 0.00 | 0.00 | 0.00 | 1002.1 | |
| 20260507051149 | 0 | 270 | 10.4 | 15.6 | 0.00 | 0.00 | 0.00 | 1002.1 | |
| 20260507051139 | 0 | 225 | 10.4 | 15.6 | 0.00 | 0.00 | 0.00 | 1002.1 | |
| 20260507051119 | 0 | 248 | 10.4 | 15.6 | 0.00 | 0.00 | 0.00 | 1002.1 | |
| 20260507051110 | 0 | 225 | 10.4 | 15.6 | 0.00 | 0.00 | 0.00 | 1002.0 | |
| 20260507051100 | 0 | 248 | 9.6 | 14.8 | 0.00 | 0.00 | 0.00 | 1002.2 | |
| 20260507051050 | 0 | 248 | 8.7 | 14.8 | 0.00 | 0.00 | 0.00 | 1002.1 | |
| 20260507051039 | 0 | 225 | 8.7 | 14.8 | 0.00 | 0.00 | 0.00 | 1002.1 | |
| 20260507051030 | 0 | 225 | 8.7 | 14.8 | 0.00 | 0.00 | 0.00 | 1002.0 | |
| 20260507051020 | 0 | 248 | 8.7 | 14.8 | 0.00 | 0.00 | 0.00 | 1002.0 | |
| 20260507051010 | 0 | 270 | 8.7 | 14.8 | 0.00 | 0.00 | 0.00 | 1002.1 | |
| 20260507051000 | 0 | 225 | 9.6 | 14.8 | 0.00 | 0.00 | 0.00 | 1002.1 | |
| 20260507050950 | 0 | 180 | 10.4 | 14.8 | 0.00 | 0.00 | 0.00 | 1002.1 | |
| 20260507050940 | 0 | 225 | 10.4 | 14.8 | 0.00 | 0.00 | 0.00 | 1002.1 | |
| 20260507050930 | 0 | 270 | 10.4 | 14.8 | 0.00 | 0.00 | 0.00 | 1002.1 | |
| 20260507050920 | 0 | 225 | 9.6 | 14.8 | 0.00 | 0.00 | 0.00 | 1002.1 | |
| 20260507050900 | 0 | 225 | 8.7 | 14.8 | 0.00 | 0.00 | 0.00 | 1002.1 | |
| 20260507050850 | 0 | 248 | 8.7 | 14.8 | 0.00 | 0.00 | 0.00 | 1002.1 | |
| 20260507050840 | 0 | 225 | 8.7 | 14.8 | 0.00 | 0.00 | 0.00 | 1002.0 | |
| 20260507050830 | 0 | 270 | 8.7 | 14.8 | 0.00 | 0.00 | 0.00 | 1002.0 | |
| 20260507050810 | 0 | 225 | 8.7 | 14.8 | 0.00 | 0.00 | 0.00 | 1002.1 | |
| 20260507050800 | 0 | 225 | 7.8 | 13.9 | 0.00 | 0.00 | 0.00 | 1002.1 | |
| 20260507050750 | 0 | 225 | 8.7 | 14.8 | 0.00 | 0.00 | 0.00 | 1002.0 | |
| 20260507050730 | 0 | 225 | 8.7 | 14.8 | 0.00 | 0.00 | 0.00 | 1002.1 | |
| 20260507050720 | 0 | 225 | 8.7 | 17.4 | 0.00 | 0.00 | 0.00 | 1002.0 | |
| 20260507050710 | 0 | 225 | 8.7 | 17.4 | 0.00 | 0.00 | 0.00 | 1002.1 | |
| 20260507050700 | 0 | 225 | 8.7 | 17.4 | 0.00 | 0.00 | 0.00 | ||
| 20260507050650 | 0 | 248 | 8.7 | 17.4 | 0.00 | 0.00 | 0.00 | 1002.0 | |
| 20260507050640 | 0 | 225 | 9.6 | 17.4 | 0.00 | 0.00 | 0.00 | 1002.0 | |
| 20260507050630 | 0 | 270 | 9.6 | 17.4 | 0.00 | 0.00 | 0.00 | 1002.0 | |
| 20260507050620 | 54 | 225 | 9.6 | 18.2 | 0.00 | 0.00 | 0.00 | 75 | 1002.0 |
| 20260507050610 | 0 | 270 | 10.4 | 18.2 | 0.00 | 0.00 | 0.00 | 1002.0 | |
| 20260507050600 | 54 | 270 | 10.4 | 18.2 | 0.00 | 0.00 | 0.00 | 75 | 1002.1 |
| 20260507050550 | 0 | 270 | 10.4 | 18.2 | 0.00 | 0.00 | 0.00 | 1002.1 | |
| 20260507050540 | 0 | 225 | 10.4 | 18.2 | 0.00 | 0.00 | 0.00 | 1002.0 | |
| 20260507050530 | 0 | 248 | 10.4 | 18.2 | 0.00 | 0.00 | 0.00 | 1002.1 | |
| 20260507050500 | 0 | 270 | 9.6 | 18.2 | 0.00 | 0.00 | 0.00 | 1002.0 | |
| 20260507050450 | 54 | 225 | 8.7 | 18.2 | 0.00 | 0.00 | 0.00 | 75 | 1002.1 |
| 20260507050440 | 0 | 225 | 8.7 | 18.2 | 0.00 | 0.00 | 0.00 | 1002.0 | |
| 20260507050420 | 0 | 225 | 8.7 | 18.2 | 0.00 | 0.00 | 0.00 | 1002.1 | |
| 20260507050400 | 0 | 225 | 8.7 | 18.2 | 0.00 | 0.00 | 0.00 | 1002.0 | |
| 20260507050350 | 0 | 270 | 8.7 | 18.2 | 0.00 | 0.00 | 0.00 | 1002.0 | |
| 20260507050340 | 0 | 225 | 9.6 | 18.2 | 0.00 | 0.00 | 0.00 | 1002.0 | |
| 20260507050330 | 0 | 225 | 10.4 | 18.2 | 0.00 | 0.00 | 0.00 | 1002.0 | |
| 20260507050321 | 0 | 225 | 11.3 | 18.2 | 0.00 | 0.00 | 0.00 | 1002.0 | |
| 20260507050301 | 0 | 225 | 12.2 | 18.2 | 0.00 | 0.00 | 0.00 | 1002.0 | |
| 20260507050251 | 53 | 248 | 13.0 | 18.2 | 0.00 | 0.00 | 0.00 | 78 | 1001.9 |
| 20260507050231 | 0 | 225 | 13.0 | 18.2 | 0.00 | 0.00 | 0.00 | 1002.0 | |
| 20260507050211 | 0 | 225 | 12.2 | 18.2 | 0.00 | 0.00 | 0.00 | 1002.0 | |
| 20260507050201 | 0 | 225 | 11.3 | 18.2 | 0.00 | 0.00 | 0.00 | 1001.9 | |
| 20260507050151 | 0 | 225 | 10.4 | 18.2 | 0.00 | 0.00 | 0.00 | 1002.0 | |
| 20260507050131 | 0 | 225 | 8.7 | 18.2 | 0.00 | 0.00 | 0.00 | 1001.9 | |
| 20260507050121 | 0 | 225 | 7.0 | 16.5 | 0.00 | 0.00 | 0.00 | 1002.0 | |
| 20260507050111 | 0 | 225 | 7.0 | 12.2 | 0.00 | 0.00 | 0.00 | 1001.7 | |
| 20260507050051 | 0 | 225 | 7.0 | 12.2 | 0.00 | 0.00 | 0.00 | 1002.0 | |
| 20260507050041 | 0 | 225 | 7.0 | 12.2 | 0.00 | 0.00 | 0.00 | 1001.8 | |
| 20260507050031 | 0 | 270 | 7.0 | 12.2 | 0.00 | 0.00 | 0.00 | 1001.9 | |
| 20260507050001 | 0 | 225 | 7.0 | 12.2 | 0.00 | 0.00 | 0.00 | 1001.9 | |
| 20260507045941 | 0 | 225 | 6.1 | 12.2 | 0.00 | 0.00 | 0.00 | 1001.9 | |
| 20260507045921 | 0 | 225 | 7.0 | 12.2 | 0.00 | 0.00 | 0.00 | 1002.0 | |
| 20260507045901 | 0 | 225 | 7.0 | 12.2 | 0.00 | 0.00 | 0.00 | 1001.9 | |
| 20260507045851 | 0 | 225 | 7.8 | 12.2 | 0.00 | 0.00 | 0.00 | 1001.8 | |
| 20260507045831 | 0 | 225 | 7.8 | 12.2 | 0.00 | 0.00 | 0.00 | 1001.9 | |
| 20260507045821 | 0 | 225 | 7.0 | 12.2 | 0.00 | 0.00 | 0.00 | 1001.9 | |
| 20260507045811 | 0 | 225 | 6.1 | 12.2 | 0.00 | 0.00 | 0.00 | 1001.9 | |
| 20260507045801 | 0 | 270 | 5.2 | 12.2 | 0.00 | 0.00 | 0.00 | 1001.9 | |
| 20260507045751 | 0 | 225 | 5.2 | 13.0 | 0.00 | 0.00 | 0.00 | 1001.9 | |
| 20260507045741 | 0 | 225 | 5.2 | 13.0 | 0.00 | 0.00 | 0.00 | 1002.0 | |
| 20260507045721 | 0 | 248 | 5.2 | 13.9 | 0.00 | 0.00 | 0.00 | 1002.0 | |
| 20260507045711 | 0 | 225 | 5.2 | 13.9 | 0.00 | 0.00 | 0.00 | 1001.9 | |
| 20260507045701 | 0 | 225 | 6.1 | 13.9 | 0.00 | 0.00 | 0.00 | 1001.9 | |
| 20260507045651 | 0 | 270 | 7.0 | 13.9 | 0.00 | 0.00 | 0.00 | 1001.8 | |
| 20260507045641 | 0 | 225 | 7.0 | 15.6 | 0.00 | 0.00 | 0.00 | 1002.0 | |
| 20260507045631 | 0 | 225 | 6.1 | 15.6 | 0.00 | 0.00 | 0.00 | 1002.0 | |
| 20260507045621 | 0 | 225 | 5.2 | 15.6 | 0.00 | 0.00 | 0.00 | 1001.9 | |
| 20260507045611 | 0 | 225 | 5.2 | 15.6 | 0.00 | 0.00 | 0.00 | 1002.0 | |
| 20260507045541 | 0 | 225 | 5.2 | 15.6 | 0.00 | 0.00 | 0.00 | 1001.9 | |
| 20260507045532 | 0 | 225 | 6.1 | 15.6 | 0.00 | 0.00 | 0.00 | 1001.9 | |
| 20260507045502 | 0 | 225 | 7.0 | 15.6 | 0.00 | 0.00 | 0.00 | 1001.9 | |
| 20260507045442 | 0 | 225 | 8.7 | 15.6 | 0.00 | 0.00 | 0.00 | 1001.9 | |
| 20260507045432 | 0 | 270 | 7.8 | 16.5 | 0.00 | 0.00 | 0.00 | 1001.9 | |
| 20260507045422 | 0 | 225 | 8.7 | 16.5 | 0.00 | 0.00 | 0.00 | 1001.9 | |
| 20260507045412 | 0 | 225 | 7.8 | 16.5 | 0.00 | 0.00 | 0.00 | 1001.9 | |
| 20260507045402 | 0 | 225 | 7.0 | 16.5 | 0.00 | 0.00 | 0.00 | 1001.9 | |
| 20260507045332 | 0 | 225 | 7.8 | 16.5 | 0.00 | 0.00 | 0.00 | 1001.9 | |
| 20260507045322 | 0 | 225 | 8.7 | 16.5 | 0.00 | 0.00 | 0.00 | 1001.9 | |
| 20260507045252 | 0 | 225 | 8.7 | 16.5 | 0.00 | 0.00 | 0.00 | 1001.8 | |
| 20260507045242 | 0 | 180 | 8.7 | 16.5 | 0.00 | 0.00 | 0.00 | 1001.7 | |
| 20260507045232 | 0 | 270 | 9.6 | 16.5 | 0.00 | 0.00 | 0.00 | 1001.9 | |
| 20260507045212 | 0 | 225 | 8.7 | 16.5 | 0.00 | 0.00 | 0.00 | 1001.8 | |
| 20260507045202 | 0 | 180 | 8.7 | 16.5 | 0.00 | 0.00 | 0.00 | 1001.8 | |
| 20260507045132 | 0 | 248 | 8.7 | 16.5 | 0.00 | 0.00 | 0.00 | 1001.8 | |
| 20260507045122 | 0 | 225 | 8.7 | 16.5 | 0.00 | 0.00 | 0.00 | 1001.8 | |
| 20260507045112 | 0 | 225 | 9.6 | 16.5 | 0.00 | 0.00 | 0.00 | 1001.8 | |
| 20260507045102 | 0 | 225 | 10.4 | 16.5 | 0.00 | 0.00 | 0.00 | 1001.8 | |
| 20260507045052 | 0 | 248 | 10.4 | 16.5 | 0.00 | 0.00 | 0.00 | 1001.8 | |
| 20260507045042 | 0 | 270 | 10.4 | 16.5 | 0.00 | 0.00 | 0.00 | 1001.8 | |
| 20260507045022 | 0 | 248 | 12.2 | 16.5 | 0.00 | 0.00 | 0.00 | 1001.7 | |
| 20260507045012 | 0 | 225 | 12.2 | 16.5 | 0.00 | 0.00 | 0.00 | 1001.8 | |
| 20260507045002 | 0 | 225 | 11.3 | 16.5 | 0.00 | 0.00 | 0.00 | 1001.8 | |
| 20260507044952 | 0 | 225 | 11.3 | 16.5 | 0.00 | 0.00 | 0.00 | 1001.7 | |
| 20260507044942 | 0 | 225 | 10.4 | 16.5 | 0.00 | 0.00 | 0.00 | 1001.7 | |
| 20260507044932 | 0 | 270 | 9.6 | 16.5 | 0.00 | 0.00 | 0.00 | 1001.7 | |
| 20260507044922 | 0 | 270 | 8.7 | 13.9 | 0.00 | 0.00 | 0.00 | 1001.8 | |
| 20260507044902 | 0 | 225 | 8.7 | 13.9 | 0.00 | 0.00 | 0.00 | 1001.7 | |
| 20260507044842 | 0 | 248 | 7.8 | 13.9 | 0.00 | 0.00 | 0.00 | 1001.7 | |
| 20260507044833 | 0 | 225 | 7.8 | 13.9 | 0.00 | 0.00 | 0.00 | 1001.7 | |
| 20260507044822 | 0 | 225 | 7.0 | 13.9 | 0.00 | 0.00 | 0.00 | 1001.8 | |
| 20260507044803 | 0 | 225 | 7.0 | 13.9 | 0.00 | 0.00 | 0.00 | 1001.7 | |
| 20260507044753 | 0 | 248 | 7.8 | 13.9 | 0.00 | 0.00 | 0.00 | 1001.8 | |
| 20260507044733 | 0 | 225 | 8.7 | 13.9 | 0.00 | 0.00 | 0.00 | 1001.8 | |
| 20260507044723 | 0 | 270 | 8.7 | 13.9 | 0.00 | 0.00 | 0.00 | 1001.7 | |
| 20260507044703 | 0 | 225 | 8.7 | 13.9 | 0.00 | 0.00 | 0.00 | 1001.7 | |
| 20260507044643 | 0 | 225 | 8.7 | 14.8 | 0.00 | 0.00 | 0.00 | 1001.8 | |
| 20260507044603 | 0 | 225 | 8.7 | 14.8 | 0.00 | 0.00 | 0.00 | 1001.8 | |
| 20260507044553 | 0 | 248 | 9.6 | 14.8 | 0.00 | 0.00 | 0.00 | 1001.7 | |
| 20260507044533 | 0 | 248 | 8.7 | 14.8 | 0.00 | 0.00 | 0.00 | 1001.8 | |
| 20260507044513 | 0 | 225 | 9.6 | 14.8 | 0.00 | 0.00 | 0.00 | 1001.8 | |
| 20260507044503 | 0 | 270 | 9.6 | 14.8 | 0.00 | 0.00 | 0.00 | 1001.8 | |
| 20260507044453 | 0 | 270 | 9.6 | 14.8 | 0.00 | 0.00 | 0.00 | 1001.7 | |
| 20260507044443 | 0 | 225 | 9.6 | 14.8 | 0.00 | 0.00 | 0.00 | 1001.7 | |
| 20260507044433 | 0 | 225 | 9.6 | 14.8 | 0.00 | 0.00 | 0.00 | 1001.8 | |
| 20260507044423 | 0 | 270 | 8.7 | 14.8 | 0.00 | 0.00 | 0.00 | 1001.7 | |
| 20260507044413 | 0 | 270 | 8.7 | 14.8 | 0.00 | 0.00 | 0.00 | 1001.8 | |
| 20260507044403 | 0 | 225 | 7.8 | 14.8 | 0.00 | 0.00 | 0.00 | 1001.8 | |
| 20260507044343 | 0 | 225 | 8.7 | 14.8 | 0.00 | 0.00 | 0.00 | 1001.7 | |
| 20260507044323 | 0 | 225 | 7.8 | 14.8 | 0.00 | 0.00 | 0.00 | 1001.7 | |
| 20260507044303 | 0 | 225 | 8.7 | 14.8 | 0.00 | 0.00 | 0.00 | 1001.7 | |
| 20260507044233 | 0 | 225 | 9.6 | 14.8 | 0.00 | 0.00 | 0.00 | 1001.7 | |
| 20260507044223 | 0 | 225 | 8.7 | 14.8 | 0.00 | 0.00 | 0.00 | 1001.8 | |
| 20260507044213 | 0 | 270 | 8.7 | 14.8 | 0.00 | 0.00 | 0.00 | 1001.7 | |
| 20260507044203 | 0 | 270 | 7.0 | 14.8 | 0.00 | 0.00 | 0.00 | 1001.8 | |
| 20260507044153 | 0 | 225 | 7.0 | 12.2 | 0.00 | 0.00 | 0.00 | 1001.7 | |
| 20260507044113 | 0 | 225 | 7.0 | 12.2 | 0.00 | 0.00 | 0.00 | 1001.7 | |
| 20260507044104 | 53 | 225 | 6.1 | 12.2 | 0.00 | 0.00 | 0.00 | 78 | 1001.7 |
| 20260507044053 | 0 | 225 | 6.1 | 12.2 | 0.00 | 0.00 | 0.00 | 1001.7 | |
| 20260507044034 | 0 | 225 | 5.2 | 12.2 | 0.00 | 0.00 | 0.00 | 1001.7 | |
| 20260507044024 | 0 | 270 | 6.1 | 12.2 | 0.00 | 0.00 | 0.00 | 1001.7 | |
| 20260507044014 | 53 | 225 | 6.1 | 12.2 | 0.00 | 0.00 | 0.00 | 78 | 1001.7 |
| 20260507044004 | 0 | 225 | 7.0 | 12.2 | 0.00 | 0.00 | 0.00 | 1001.7 | |
| 20260507043954 | 0 | 270 | 7.0 | 12.2 | 0.00 | 0.00 | 0.00 | 1001.8 | |
| 20260507043934 | 0 | 225 | 7.8 | 12.2 | 0.00 | 0.00 | 0.00 | 1001.7 | |
| 20260507043924 | 0 | 225 | 7.8 | 12.2 | 0.00 | 0.00 | 0.00 | 807.0 | |
| 20260507043914 | 0 | 225 | 8.7 | 12.2 | 0.00 | 0.00 | 0.00 | 1001.7 | |
| 20260507043904 | 0 | 248 | 7.8 | 12.2 | 0.00 | 0.00 | 0.00 | 1001.7 | |
| 20260507043844 | 0 | 225 | 7.0 | 12.2 | 0.00 | 0.00 | 0.00 | 1001.7 | |
| 20260507043834 | 0 | 225 | 5.2 | 12.2 | 0.00 | 0.00 | 0.00 | 1001.7 | |
| 20260507043824 | 0 | 225 | 5.2 | 11.3 | 0.00 | 0.00 | 0.00 | ||
| 20260507043804 | 0 | 225 | 5.2 | 10.4 | 0.00 | 0.00 | 0.00 | 1001.7 | |
| 20260507043754 | 0 | 225 | 6.1 | 10.4 | 0.00 | 0.00 | 0.00 | 902.8 | |
| 20260507043744 | 0 | 225 | 7.0 | 10.4 | 0.00 | 0.00 | 0.00 | 1001.7 | |
| 20260507043734 | 0 | 180 | 7.0 | 10.4 | 0.00 | 0.00 | 0.00 | 1001.6 | |
| 20260507043714 | 0 | 225 | 7.0 | 10.4 | 0.00 | 0.00 | 0.00 | 1001.6 | |
| 20260507043704 | 0 | 225 | 7.0 | 10.4 | 0.00 | 0.00 | 0.00 | 1001.7 | |
| 20260507043654 | 0 | 270 | 7.0 | 9.6 | 0.00 | 0.00 | 0.00 | 1001.7 | |
| 20260507043644 | 0 | 270 | 7.0 | 9.6 | 0.00 | 0.00 | 0.00 | 1001.6 | |
| 20260507043634 | 0 | 248 | 7.0 | 9.6 | 0.00 | 0.00 | 0.00 | 1001.6 | |
| 20260507043624 | 0 | 225 | 6.1 | 9.6 | 0.00 | 0.00 | 0.00 | 1001.7 | |
| 20260507043614 | 0 | 225 | 6.1 | 9.6 | 0.00 | 0.00 | 0.00 | 660.6 | |
| 20260507043554 | 53 | 225 | 5.2 | 9.6 | 0.00 | 0.00 | 0.00 | 79 | 1001.7 |
| 20260507043544 | 0 | 225 | 5.2 | 9.6 | 0.00 | 0.00 | 0.00 | 1001.7 | |
| 20260507043534 | 0 | 270 | 5.2 | 9.6 | 0.00 | 0.00 | 0.00 | 712.1 | |
| 20260507043524 | 0 | 248 | 6.1 | 9.6 | 0.00 | 0.00 | 0.00 | ||
| 20260507043514 | 0 | 270 | 6.1 | 9.6 | 0.00 | 0.00 | 0.00 | 1001.6 | |
| 20260507043504 | 0 | 225 | 6.1 | 9.6 | 0.00 | 0.00 | 0.00 | 1001.7 | |
| 20260507043434 | 0 | 225 | 5.2 | 9.6 | 0.00 | 0.00 | 0.00 | 1001.7 | |
| 20260507043424 | 0 | 248 | 5.2 | 9.6 | 0.00 | 0.00 | 0.00 | 1001.6 | |
| 20260507043414 | 0 | 270 | 5.2 | 9.6 | 0.00 | 0.00 | 0.00 | 1001.6 | |
| 20260507043404 | 0 | 225 | 6.1 | 9.6 | 0.00 | 0.00 | 0.00 | 1001.7 | |
| 20260507043354 | 0 | 225 | 7.0 | 9.6 | 0.00 | 0.00 | 0.00 | 1001.7 | |
| 20260507043344 | 0 | 248 | 7.0 | 9.6 | 0.00 | 0.00 | 0.00 | 1001.7 | |
| 20260507043325 | 0 | 270 | 7.0 | 9.6 | 0.00 | 0.00 | 0.00 | 1001.7 | |
| 20260507043315 | 0 | 225 | 7.0 | 9.6 | 0.00 | 0.00 | 0.00 | 1001.7 | |
| 20260507043255 | 0 | 270 | 6.1 | 9.6 | 0.00 | 0.00 | 0.00 | 1001.7 | |
| 20260507043245 | 0 | 225 | 6.1 | 9.6 | 0.00 | 0.00 | 0.00 | 1001.7 | |
| 20260507043235 | 0 | 225 | 7.0 | 10.4 | 0.00 | 0.00 | 0.00 | 1001.6 | |
| 20260507043225 | 0 | 225 | 7.0 | 10.4 | 0.00 | 0.00 | 0.00 | 1001.7 | |
| 20260507043215 | 0 | 270 | 7.0 | 10.4 | 0.00 | 0.00 | 0.00 | 1001.6 | |
| 20260507043145 | 0 | 225 | 6.1 | 10.4 | 0.00 | 0.00 | 0.00 | 1001.6 | |
| 20260507043135 | 0 | 248 | 5.2 | 10.4 | 0.00 | 0.00 | 0.00 | 1001.7 | |
| 20260507043115 | 0 | 225 | 5.2 | 10.4 | 0.00 | 0.00 | 0.00 | 1001.6 | |
| 20260507043055 | 0 | 225 | 5.2 | 10.4 | 0.00 | 0.00 | 0.00 | 1001.7 | |
| 20260507043035 | 0 | 225 | 6.1 | 10.4 | 0.00 | 0.00 | 0.00 | 1001.6 | |
| 20260507043025 | 0 | 225 | 6.1 | 10.4 | 0.00 | 0.00 | 0.00 | 1001.7 | |
| 20260507043015 | 0 | 225 | 7.0 | 10.4 | 0.00 | 0.00 | 0.00 | 1001.7 | |
| 20260507043005 | 0 | 225 | 7.0 | 10.4 | 0.00 | 0.00 | 0.00 | 1001.6 | |
| 20260507042955 | 0 | 248 | 7.0 | 10.4 | 0.00 | 0.00 | 0.00 | 1001.7 | |
| 20260507042925 | 0 | 225 | 7.0 | 10.4 | 0.00 | 0.00 | 0.00 | 1001.7 | |
| 20260507042845 | 0 | 225 | 7.0 | 10.4 | 0.00 | 0.00 | 0.00 | 1001.7 | |
| 20260507042825 | 0 | 270 | 7.0 | 10.4 | 0.00 | 0.00 | 0.00 | 1001.7 | |
| 20260507042815 | 0 | 270 | 6.1 | 10.4 | 0.00 | 0.00 | 0.00 | 1001.7 | |
| 20260507042805 | 0 | 225 | 7.0 | 10.4 | 0.00 | 0.00 | 0.00 | 1001.7 | |
| 20260507042755 | 0 | 225 | 7.0 | 10.4 | 0.00 | 0.00 | 0.00 | 1001.6 | |
| 20260507042745 | 0 | 248 | 7.0 | 10.4 | 0.00 | 0.00 | 0.00 | 1001.7 | |
| 20260507042715 | 0 | 225 | 7.0 | 10.4 | 0.00 | 0.00 | 0.00 | 1001.6 | |
| 20260507042705 | 0 | 225 | 7.0 | 10.4 | 0.00 | 0.00 | 0.00 | 1001.7 | |
| 20260507042655 | 0 | 225 | 7.0 | 10.4 | 0.00 | 0.00 | 0.00 | 1001.8 | |
| 20260507042645 | 0 | 225 | 6.1 | 10.4 | 0.00 | 0.00 | 0.00 | 1001.7 | |
| 20260507042635 | 0 | 225 | 5.2 | 10.4 | 0.00 | 0.00 | 0.00 | 1001.8 | |
| 20260507042625 | 0 | 225 | 5.2 | 9.6 | 0.00 | 0.00 | 0.00 | 1001.7 | |
| 20260507042606 | 0 | 225 | 4.3 | 9.6 | 0.00 | 0.00 | 0.00 | 1001.7 | |
| 20260507042556 | 0 | 225 | 5.2 | 9.6 | 0.00 | 0.00 | 0.00 | 1001.6 | |
| 20260507042546 | 0 | 225 | 5.2 | 9.6 | 0.00 | 0.00 | 0.00 | 1001.7 | |
| 20260507042536 | 0 | 225 | 6.1 | 9.6 | 0.00 | 0.00 | 0.00 | 1001.6 | |
| 20260507042506 | 0 | 225 | 6.1 | 9.6 | 0.00 | 0.00 | 0.00 | 1001.7 | |
| 20260507042446 | 0 | 225 | 7.0 | 9.6 | 0.00 | 0.00 | 0.00 | 1001.8 | |
| 20260507042436 | 0 | 225 | 7.0 | 9.6 | 0.00 | 0.00 | 0.00 | 1001.7 | |
| 20260507042426 | 0 | 225 | 6.1 | 9.6 | 0.00 | 0.00 | 0.00 | 1001.7 | |
| 20260507042416 | 0 | 225 | 6.1 | 9.6 | 0.00 | 0.00 | 0.00 | 1001.8 | |
| 20260507042346 | 0 | 225 | 6.1 | 9.6 | 0.00 | 0.00 | 0.00 | 1001.7 | |
| 20260507042316 | 0 | 225 | 7.0 | 9.6 | 0.00 | 0.00 | 0.00 | 1001.7 | |
| 20260507042307 | 0 | 248 | 7.0 | 11.3 | 0.00 | 0.00 | 0.00 | 1001.7 | |
| 20260507042246 | 0 | 225 | 7.0 | 12.2 | 0.00 | 0.00 | 0.00 | 1001.7 | |
| 20260507042226 | 0 | 225 | 6.1 | 12.2 | 0.00 | 0.00 | 0.00 | 1001.7 | |
| 20260507042216 | 0 | 225 | 6.1 | 12.2 | 0.00 | 0.00 | 0.00 | 930.9 | |
| 20260507042156 | 52 | 270 | 7.0 | 12.2 | 0.00 | 0.00 | 0.00 | 80 | 1001.7 |
| 20260507042146 | 0 | 248 | 7.0 | 12.2 | 0.00 | 0.00 | 0.00 | 1001.7 | |
| 20260507042136 | 0 | 225 | 7.0 | 12.2 | 0.00 | 0.00 | 0.00 | 1001.7 | |
| 20260507042126 | 0 | 270 | 6.1 | 12.2 | 0.00 | 0.00 | 0.00 | 1001.7 | |
| 20260507042116 | 50 | 270 | 6.1 | 12.2 | 0.00 | 0.00 | 0.00 | 83 | 1001.7 |
| 20260507042106 | 0 | 248 | 5.2 | 12.2 | 0.00 | 0.00 | 0.00 | 1001.6 | |
| 20260507042056 | 0 | 225 | 5.2 | 12.2 | 0.00 | 0.00 | 0.00 | 1001.7 | |
| 20260507042046 | 0 | 248 | 5.2 | 12.2 | 0.00 | 0.00 | 0.00 | 1001.7 | |
| 20260507042026 | 0 | 225 | 5.2 | 12.2 | 0.00 | 0.00 | 0.00 | 1001.6 | |
| 20260507042016 | 0 | 248 | 5.2 | 12.2 | 0.00 | 0.00 | 0.00 | 1001.6 | |
| 20260507042006 | 0 | 225 | 6.1 | 12.2 | 0.00 | 0.00 | 0.00 | 1001.6 | |
| 20260507041946 | 0 | 225 | 7.0 | 12.2 | 0.00 | 0.00 | 0.00 | 1001.6 | |
| 20260507041926 | 0 | 225 | 7.0 | 12.2 | 0.00 | 0.00 | 0.00 | 1001.7 | |
| 20260507041916 | 0 | 270 | 7.0 | 12.2 | 0.00 | 0.00 | 0.00 | 1001.7 | |
| 20260507041906 | 0 | 225 | 7.0 | 12.2 | 0.00 | 0.00 | 0.00 | 1001.6 | |
| 20260507041856 | 0 | 248 | 7.8 | 12.2 | 0.00 | 0.00 | 0.00 | 1001.6 | |
| 20260507041846 | 0 | 270 | 7.8 | 12.2 | 0.00 | 0.00 | 0.00 | 1001.6 | |
| 20260507041836 | 0 | 225 | 7.8 | 12.2 | 0.00 | 0.00 | 0.00 | 1001.6 | |
| 20260507041816 | 0 | 225 | 7.0 | 12.2 | 0.00 | 0.00 | 0.00 | 1001.6 | |
| 20260507041807 | 0 | 270 | 7.0 | 12.2 | 0.00 | 0.00 | 0.00 | 1001.6 | |
| 20260507041756 | 0 | 225 | 6.1 | 9.6 | 0.00 | 0.00 | 0.00 | 1001.6 | |
| 20260507041747 | 0 | 225 | 5.2 | 9.6 | 0.00 | 0.00 | 0.00 | 1001.6 | |
| 20260507041737 | 0 | 270 | 5.2 | 11.3 | 0.00 | 0.00 | 0.00 | 1001.6 | |
| 20260507041727 | 0 | 270 | 5.2 | 11.3 | 0.00 | 0.00 | 0.00 | 1001.5 | |
| 20260507041717 | 0 | 225 | 5.2 | 11.3 | 0.00 | 0.00 | 0.00 | 1001.6 | |
| 20260507041657 | 0 | 225 | 6.1 | 11.3 | 0.00 | 0.00 | 0.00 | 1001.6 | |
| 20260507041647 | 0 | 248 | 6.1 | 11.3 | 0.00 | 0.00 | 0.00 | 1001.6 | |
| 20260507041627 | 0 | 270 | 6.1 | 11.3 | 0.00 | 0.00 | 0.00 | 1001.6 | |
| 20260507041617 | 0 | 225 | 6.1 | 11.3 | 0.00 | 0.00 | 0.00 | 1001.6 | |
| 20260507041607 | 0 | 225 | 7.0 | 11.3 | 0.00 | 0.00 | 0.00 | 1001.6 | |
| 20260507041547 | 0 | 270 | 7.0 | 11.3 | 0.00 | 0.00 | 0.00 | 1001.6 | |
| 20260507041537 | 0 | 270 | 6.1 | 11.3 | 0.00 | 0.00 | 0.00 | 1001.6 | |
| 20260507041527 | 0 | 225 | 6.1 | 11.3 | 0.00 | 0.00 | 0.00 | 1001.6 | |
| 20260507041507 | 0 | 270 | 5.2 | 11.3 | 0.00 | 0.00 | 0.00 | 1001.7 | |
| 20260507041447 | 0 | 225 | 5.2 | 11.3 | 0.00 | 0.00 | 0.00 | 1001.6 | |
| 20260507041437 | 0 | 270 | 5.2 | 11.3 | 0.00 | 0.00 | 0.00 | 1001.6 | |
| 20260507041407 | 0 | 225 | 5.2 | 11.3 | 0.00 | 0.00 | 0.00 | 1001.6 | |
| 20260507041357 | 0 | 270 | 5.2 | 11.3 | 0.00 | 0.00 | 0.00 | 1001.6 | |
| 20260507041347 | 0 | 270 | 6.1 | 11.3 | 0.00 | 0.00 | 0.00 | 1001.6 | |
| 20260507041337 | 0 | 248 | 7.0 | 11.3 | 0.00 | 0.00 | 0.00 | 1001.6 | |
| 20260507041327 | 0 | 225 | 7.0 | 11.3 | 0.00 | 0.00 | 0.00 | 1001.6 | |
| 20260507041317 | 0 | 270 | 7.0 | 11.3 | 0.00 | 0.00 | 0.00 | 1001.6 | |
| 20260507041257 | 0 | 225 | 7.8 | 11.3 | 0.00 | 0.00 | 0.00 | 1001.6 | |
| 20260507041247 | 0 | 248 | 7.8 | 11.3 | 0.00 | 0.00 | 0.00 | 1001.6 | |
| 20260507041237 | 0 | 270 | 7.8 | 11.3 | 0.00 | 0.00 | 0.00 | 1001.6 | |
| 20260507041207 | 0 | 270 | 7.0 | 9.6 | 0.00 | 0.00 | 0.00 | 1001.6 | |
| 20260507041157 | 0 | 225 | 7.0 | 9.6 | 0.00 | 0.00 | 0.00 | 1001.6 | |
| 20260507041147 | 0 | 248 | 7.0 | 9.6 | 0.00 | 0.00 | 0.00 | 1001.6 | |
| 20260507041127 | 0 | 270 | 6.1 | 9.6 | 0.00 | 0.00 | 0.00 | 1001.6 | |
| 20260507041117 | 0 | 270 | 5.2 | 8.7 | 0.00 | 0.00 | 0.00 | 1001.6 | |
| 20260507041107 | 0 | 270 | 5.2 | 8.7 | 0.00 | 0.00 | 0.00 | 1001.5 | |
| 20260507041037 | 0 | 225 | 5.2 | 8.7 | 0.00 | 0.00 | 0.00 | 1001.5 | |
| 20260507041028 | 0 | 225 | 5.2 | 8.7 | 0.00 | 0.00 | 0.00 | 1001.6 | |
| 20260507041018 | 0 | 248 | 5.2 | 8.7 | 0.00 | 0.00 | 0.00 | 1001.6 | |
| 20260507041008 | 0 | 270 | 5.2 | 8.7 | 0.00 | 0.00 | 0.00 | 1001.5 | |
| 20260507040958 | 0 | 225 | 5.2 | 8.7 | 0.00 | 0.00 | 0.00 | 1001.5 | |
| 20260507040948 | 0 | 270 | 5.2 | 8.7 | 0.00 | 0.00 | 0.00 | 1001.6 | |
| 20260507040938 | 0 | 270 | 4.3 | 8.7 | 0.00 | 0.00 | 0.00 | 1001.6 | |
| 20260507040928 | 0 | 225 | 5.2 | 8.7 | 0.00 | 0.00 | 0.00 | 1001.6 | |
| 20260507040908 | 0 | 270 | 5.2 | 8.7 | 0.00 | 0.00 | 0.00 | 1001.6 | |
| 20260507040858 | 0 | 225 | 5.2 | 8.7 | 0.00 | 0.00 | 0.00 | 1001.5 | |
| 20260507040848 | 0 | 270 | 5.2 | 8.7 | 0.00 | 0.00 | 0.00 | 1001.5 | |
| 20260507040818 | 0 | 270 | 5.2 | 8.7 | 0.00 | 0.00 | 0.00 | 1001.6 | |
| 20260507040758 | 0 | 270 | 5.2 | 7.8 | 0.00 | 0.00 | 0.00 | 1001.5 | |
| 20260507040718 | 0 | 270 | 5.2 | 7.8 | 0.00 | 0.00 | 0.00 | 1001.6 | |
| 20260507040658 | 0 | 270 | 5.2 | 7.0 | 0.00 | 0.00 | 0.00 | 1001.5 | |
| 20260507040628 | 0 | 270 | 5.2 | 7.0 | 0.00 | 0.00 | 0.00 | 1001.6 | |
| 20260507040618 | 0 | 270 | 5.2 | 7.0 | 0.00 | 0.00 | 0.00 | 1001.5 | |
| 20260507040548 | 0 | 270 | 4.3 | 7.0 | 0.00 | 0.00 | 0.00 | 1001.5 | |
| 20260507040538 | 0 | 248 | 4.3 | 7.0 | 0.00 | 0.00 | 0.00 | 1001.5 | |
| 20260507040458 | 0 | 270 | 4.3 | 7.0 | 0.00 | 0.00 | 0.00 | 1001.5 | |
| 20260507040418 | 0 | 270 | 4.3 | 7.0 | 0.00 | 0.00 | 0.00 | 1001.5 | |
| 20260507040358 | 0 | 225 | 4.3 | 7.0 | 0.00 | 0.00 | 0.00 | 1001.5 | |
| 20260507040338 | 0 | 270 | 4.3 | 7.0 | 0.00 | 0.00 | 0.00 | 1001.5 | |
| 20260507040308 | 0 | 270 | 5.2 | 7.0 | 0.00 | 0.00 | 0.00 | 1001.5 | |
| 20260507040258 | 0 | 248 | 5.2 | 7.0 | 0.00 | 0.00 | 0.00 | 1001.6 | |
| 20260507040249 | 0 | 270 | 4.3 | 7.0 | 0.00 | 0.00 | 0.00 | 1001.6 | |
| 20260507040239 | 0 | 270 | 4.3 | 7.0 | 0.00 | 0.00 | 0.00 | 1001.5 | |
| 20260507040229 | 0 | 270 | 4.3 | 6.1 | 0.00 | 0.00 | 0.00 | 1001.5 | |
| 20260507040219 | 0 | 270 | 3.5 | 6.1 | 0.00 | 0.00 | 0.00 | 1001.5 | |
| 20260507040209 | 0 | 270 | 3.5 | 7.0 | 0.00 | 0.00 | 0.00 | 1001.5 | |
| 20260507040149 | 0 | 270 | 4.3 | 7.0 | 0.00 | 0.00 | 0.00 | 1001.5 | |
| 20260507040129 | 0 | 270 | 3.5 | 7.0 | 0.00 | 0.00 | 0.00 | 1001.5 | |
| 20260507040109 | 0 | 270 | 3.5 | 7.0 | 0.00 | 0.00 | 0.00 | 1001.6 | |
| 20260507040049 | 0 | 270 | 3.5 | 7.0 | 0.00 | 0.00 | 0.00 | 1001.5 | |
| 20260507040039 | 0 | 270 | 4.3 | 7.0 | 0.00 | 0.00 | 0.00 | 1001.5 | |
| 20260507040029 | 0 | 270 | 4.3 | 7.0 | 0.00 | 0.00 | 0.00 | 1001.6 | |
| 20260507035959 | 0 | 270 | 4.3 | 7.0 | 0.00 | 0.00 | 0.00 | 1001.5 | |
| 20260507035949 | 0 | 248 | 4.3 | 7.0 | 0.00 | 0.00 | 0.00 | 1001.5 | |
| 20260507035929 | 0 | 270 | 4.3 | 7.0 | 0.00 | 0.00 | 0.00 | 1001.6 | |
| 20260507035919 | 0 | 270 | 4.3 | 7.0 | 0.00 | 0.00 | 0.00 | 1001.5 | |
| 20260507035839 | 0 | 270 | 4.3 | 7.0 | 0.00 | 0.00 | 0.00 | 1001.5 | |
| 20260507035829 | 0 | 270 | 4.3 | 7.8 | 0.00 | 0.00 | 0.00 | 1001.5 | |
| 20260507035819 | 0 | 248 | 4.3 | 7.8 | 0.00 | 0.00 | 0.00 | 1001.5 | |
| 20260507035809 | 0 | 225 | 4.3 | 7.8 | 0.00 | 0.00 | 0.00 | 1001.5 | |
| 20260507035749 | 0 | 270 | 4.3 | 7.8 | 0.00 | 0.00 | 0.00 | 1001.5 | |
| 20260507035709 | 0 | 270 | 5.2 | 7.8 | 0.00 | 0.00 | 0.00 | 1001.5 | |
| 20260507035649 | 0 | 225 | 5.2 | 7.8 | 0.00 | 0.00 | 0.00 | 1001.5 | |
| 20260507035629 | 0 | 270 | 4.3 | 7.8 | 0.00 | 0.00 | 0.00 | 1001.5 | |
| 20260507035550 | 0 | 270 | 4.3 | 7.8 | 0.00 | 0.00 | 0.00 | 1001.5 | |
| 20260507035540 | 0 | 225 | 4.3 | 7.8 | 0.00 | 0.00 | 0.00 | 1001.5 | |
| 20260507035510 | 0 | 270 | 4.3 | 7.8 | 0.00 | 0.00 | 0.00 | 1001.5 | |
| 20260507035440 | 0 | 270 | 5.2 | 7.8 | 0.00 | 0.00 | 0.00 | 1001.5 | |
| 20260507035420 | 0 | 225 | 5.2 | 7.8 | 0.00 | 0.00 | 0.00 | 1001.5 | |
| 20260507035410 | 0 | 225 | 5.2 | 7.8 | 0.00 | 0.00 | 0.00 | 1001.6 | |
| 20260507035350 | 0 | 248 | 5.2 | 7.8 | 0.00 | 0.00 | 0.00 | 1001.5 | |
| 20260507035340 | 0 | 225 | 5.2 | 7.8 | 0.00 | 0.00 | 0.00 | 1001.5 | |
| 20260507035330 | 0 | 225 | 5.2 | 7.0 | 0.00 | 0.00 | 0.00 | 1001.5 | |
| 20260507035310 | 0 | 270 | 5.2 | 7.0 | 0.00 | 0.00 | 0.00 | 1001.5 | |
| 20260507035250 | 0 | 225 | 5.2 | 7.0 | 0.00 | 0.00 | 0.00 | 1001.5 | |
| 20260507035200 | 0 | 225 | 4.3 | 7.0 | 0.00 | 0.00 | 0.00 | 1001.5 | |
| 20260507035150 | 0 | 248 | 4.3 | 7.8 | 0.00 | 0.00 | 0.00 | 1001.5 | |
| 20260507035110 | 0 | 225 | 4.3 | 7.8 | 0.00 | 0.00 | 0.00 | 1001.5 | |
| 20260507035100 | 0 | 225 | 3.5 | 7.8 | 0.00 | 0.00 | 0.00 | 1001.5 | |
| 20260507035020 | 0 | 225 | 3.5 | 7.8 | 0.00 | 0.00 | 0.00 | 1001.5 | |
| 20260507035000 | 0 | 225 | 4.3 | 7.8 | 0.00 | 0.00 | 0.00 | 1001.5 | |
| 20260507034940 | 0 | 225 | 5.2 | 7.8 | 0.00 | 0.00 | 0.00 | 1001.5 | |
| 20260507034920 | 0 | 225 | 4.3 | 7.8 | 0.00 | 0.00 | 0.00 | 1001.5 | |
| 20260507034910 | 0 | 225 | 3.5 | 7.8 | 0.00 | 0.00 | 0.00 | 1001.6 | |
| 20260507034840 | 0 | 225 | 3.5 | 8.7 | 0.00 | 0.00 | 0.00 | 1001.5 | |
| 20260507034820 | 0 | 225 | 2.6 | 8.7 | 0.00 | 0.00 | 0.00 | 1001.5 | |
| 20260507034751 | 0 | 225 | 3.5 | 8.7 | 0.00 | 0.00 | 0.00 | 1001.5 | |
| 20260507034721 | 0 | 248 | 4.3 | 8.7 | 0.00 | 0.00 | 0.00 | 1001.5 | |
| 20260507034711 | 0 | 225 | 4.3 | 8.7 | 0.00 | 0.00 | 0.00 | 1001.5 | |
| 20260507034701 | 0 | 270 | 5.2 | 8.7 | 0.00 | 0.00 | 0.00 | 1001.5 | |
| 20260507034641 | 0 | 225 | 5.2 | 8.7 | 0.00 | 0.00 | 0.00 | 1001.5 | |
| 20260507034601 | 0 | 225 | 5.2 | 8.7 | 0.00 | 0.00 | 0.00 | 1001.5 | |
| 20260507034551 | 0 | 225 | 4.3 | 8.7 | 0.00 | 0.00 | 0.00 | 1001.5 | |
| 20260507034511 | 0 | 225 | 5.2 | 8.7 | 0.00 | 0.00 | 0.00 | 1001.5 | |
| 20260507034501 | 0 | 270 | 5.2 | 8.7 | 0.00 | 0.00 | 0.00 | 1001.5 | |
| 20260507034451 | 0 | 225 | 6.1 | 8.7 | 0.00 | 0.00 | 0.00 | 1001.5 | |
| 20260507034411 | 0 | 225 | 5.2 | 8.7 | 0.00 | 0.00 | 0.00 | 1001.5 | |
| 20260507034401 | 0 | 270 | 5.2 | 7.8 | 0.00 | 0.00 | 0.00 | 1001.5 | |
| 20260507034341 | 0 | 225 | 5.2 | 7.8 | 0.00 | 0.00 | 0.00 | 1001.5 | |
| 20260507034301 | 0 | 225 | 5.2 | 7.8 | 0.00 | 0.00 | 0.00 | 1001.5 | |
| 20260507034231 | 0 | 270 | 5.2 | 7.8 | 0.00 | 0.00 | 0.00 | 1001.5 | |
| 20260507034221 | 0 | 225 | 5.2 | 7.0 | 0.00 | 0.00 | 0.00 | 1001.5 | |
| 20260507034211 | 0 | 270 | 5.2 | 7.0 | 0.00 | 0.00 | 0.00 | 964.7 | |
| 20260507034151 | 0 | 270 | 5.2 | 7.0 | 0.00 | 0.00 | 0.00 | 1020.5 | |
| 20260507034141 | 0 | 270 | 5.2 | 7.0 | 0.00 | 0.00 | 0.00 | 1001.5 | |
| 20260507034131 | 50 | 225 | 5.2 | 7.0 | 0.00 | 0.00 | 0.00 | 82 | 1001.4 |
| 20260507034051 | 0 | 270 | 5.2 | 7.0 | 0.00 | 0.00 | 0.00 | 1001.5 | |
| 20260507034041 | 0 | 248 | 5.2 | 7.0 | 0.00 | 0.00 | 0.00 | 1001.5 | |
| 20260507034021 | 0 | 225 | 5.2 | 7.0 | 0.00 | 0.00 | 0.00 | 1001.4 | |
| 20260507034001 | 0 | 270 | 5.2 | 7.0 | 0.00 | 0.00 | 0.00 | 1001.5 | |
| 20260507033952 | 0 | 225 | 5.2 | 7.0 | 0.00 | 0.00 | 0.00 | 1001.5 | |
| 20260507033942 | 0 | 248 | 5.2 | 7.0 | 0.00 | 0.00 | 0.00 | 1001.4 | |
| 20260507033932 | 0 | 270 | 5.2 | 7.0 | 0.00 | 0.00 | 0.00 | 1001.4 | |
| 20260507033912 | 0 | 248 | 5.2 | 7.0 | 0.00 | 0.00 | 0.00 | 1001.5 | |
| 20260507033842 | 0 | 270 | 5.2 | 7.0 | 0.00 | 0.00 | 0.00 | 1001.5 | |
| 20260507033802 | 0 | 270 | 5.2 | 7.0 | 0.00 | 0.00 | 0.00 | 1001.4 | |
| 20260507033752 | 0 | 225 | 5.2 | 7.0 | 0.00 | 0.00 | 0.00 | 1001.5 | |
| 20260507033742 | 0 | 248 | 5.2 | 7.0 | 0.00 | 0.00 | 0.00 | 1001.5 | |
| 20260507033722 | 0 | 270 | 5.2 | 7.0 | 0.00 | 0.00 | 0.00 | 1001.5 | |
| 20260507033702 | 0 | 225 | 5.2 | 7.0 | 0.00 | 0.00 | 0.00 | 1001.4 | |
| 20260507033652 | 0 | 248 | 5.2 | 7.0 | 0.00 | 0.00 | 0.00 | 1001.4 | |
| 20260507033642 | 0 | 225 | 4.3 | 7.0 | 0.00 | 0.00 | 0.00 | 1001.4 | |
| 20260507033632 | 0 | 270 | 4.3 | 7.0 | 0.00 | 0.00 | 0.00 | 1001.4 | |
| 20260507033602 | 0 | 270 | 3.5 | 6.1 | 0.00 | 0.00 | 0.00 | 1001.4 | |
| 20260507033532 | 0 | 225 | 3.5 | 6.1 | 0.00 | 0.00 | 0.00 | 1001.4 | |
| 20260507033512 | 0 | 248 | 3.5 | 6.1 | 0.00 | 0.00 | 0.00 | 1001.4 | |
| 20260507033452 | 0 | 225 | 3.5 | 6.1 | 0.00 | 0.00 | 0.00 | 1001.4 | |
| 20260507033412 | 0 | 225 | 3.5 | 6.1 | 0.00 | 0.00 | 0.00 | 1001.4 | |
| 20260507033402 | 0 | 225 | 2.6 | 5.2 | 0.00 | 0.00 | 0.00 | 1001.4 | |
| 20260507033332 | 0 | 225 | 2.6 | 4.3 | 0.00 | 0.00 | 0.00 | 1001.4 | |
| 20260507033322 | 0 | 225 | 1.7 | 4.3 | 0.00 | 0.00 | 0.00 | 1001.4 | |
| 20260507033243 | 0 | 225 | 1.7 | 4.3 | 0.00 | 0.00 | 0.00 | 1001.4 | |
| 20260507033203 | 0 | 225 | 1.7 | 4.3 | 0.00 | 0.00 | 0.00 | 1001.4 | |
| 20260507033143 | 0 | 225 | 0.9 | 4.3 | 0.00 | 0.00 | 0.00 | 1001.4 | |
| 20260507033123 | 0 | 225 | 1.7 | 4.3 | 0.00 | 0.00 | 0.00 | 1001.4 | |
| 20260507033043 | 0 | 225 | 1.7 | 4.3 | 0.00 | 0.00 | 0.00 | 1001.4 | |
| 20260507033003 | 0 | 225 | 1.7 | 4.3 | 0.00 | 0.00 | 0.00 | 1001.4 | |
| 20260507032933 | 0 | 225 | 1.7 | 4.3 | 0.00 | 0.00 | 0.00 | 1001.5 | |
| 20260507032923 | 0 | 225 | 1.7 | 4.3 | 0.00 | 0.00 | 0.00 | 1001.4 | |
| 20260507032843 | 0 | 225 | 1.7 | 4.3 | 0.00 | 0.00 | 0.00 | 1001.4 | |
| 20260507032833 | 0 | 225 | 1.7 | 5.2 | 0.00 | 0.00 | 0.00 | 1001.4 | |
| 20260507032803 | 0 | 225 | 1.7 | 6.1 | 0.00 | 0.00 | 0.00 | 1001.4 | |
| 20260507032753 | 0 | 180 | 1.7 | 6.1 | 0.00 | 0.00 | 0.00 | 1001.4 | |
| 20260507032743 | 0 | 180 | 1.7 | 6.1 | 0.00 | 0.00 | 0.00 | 1001.3 | |
| 20260507032733 | 0 | 225 | 0.9 | 6.1 | 0.00 | 0.00 | 0.00 | 1001.4 | |
| 20260507032723 | 0 | 225 | 0.9 | 6.1 | 0.00 | 0.00 | 0.00 | 1001.3 | |
| 20260507032713 | 0 | 203 | 1.7 | 6.1 | 0.00 | 0.00 | 0.00 | 1001.3 | |
| 20260507032703 | 0 | 225 | 1.7 | 6.1 | 0.00 | 0.00 | 0.00 | 1001.3 | |
| 20260507032653 | 0 | 225 | 1.7 | 6.1 | 0.00 | 0.00 | 0.00 | 1001.4 | |
| 20260507032623 | 0 | 225 | 1.7 | 6.1 | 0.00 | 0.00 | 0.00 | 1001.3 | |
| 20260507032603 | 0 | 225 | 1.7 | 6.1 | 0.00 | 0.00 | 0.00 | 1001.4 | |
| 20260507032554 | 0 | 225 | 1.7 | 7.0 | 0.00 | 0.00 | 0.00 | 1001.3 | |
| 20260507032543 | 0 | 180 | 0.9 | 7.0 | 0.00 | 0.00 | 0.00 | 1001.4 | |
| 20260507032523 | 0 | 225 | 0.9 | 7.0 | 0.00 | 0.00 | 0.00 | 1001.3 | |
| 20260507032513 | 0 | 270 | 0.9 | 7.0 | 0.00 | 0.00 | 0.00 | 1001.4 | |
| 20260507032504 | 0 | 270 | 0.9 | 7.0 | 0.00 | 0.00 | 0.00 | 1001.3 | |
| 20260507032453 | 0 | 203 | 0.9 | 7.0 | 0.00 | 0.00 | 0.00 | 1001.3 | |
| 20260507032443 | 0 | 225 | 1.7 | 7.0 | 0.00 | 0.00 | 0.00 | 1001.3 | |
| 20260507032433 | 0 | 225 | 1.7 | 7.0 | 0.00 | 0.00 | 0.00 | 1001.4 | |
| 20260507032423 | 0 | 180 | 2.6 | 7.0 | 0.00 | 0.00 | 0.00 | 1001.4 | |
| 20260507032404 | 0 | 225 | 3.5 | 7.0 | 0.00 | 0.00 | 0.00 | 1001.4 | |
| 20260507032334 | 0 | 225 | 3.5 | 7.0 | 0.00 | 0.00 | 0.00 | 1001.3 | |
| 20260507032314 | 0 | 225 | 3.5 | 7.0 | 0.00 | 0.00 | 0.00 | 1001.4 | |
| 20260507032254 | 0 | 225 | 3.5 | 7.0 | 0.00 | 0.00 | 0.00 | 1001.3 | |
| 20260507032244 | 0 | 248 | 3.5 | 7.0 | 0.00 | 0.00 | 0.00 | 1001.4 | |
| 20260507032234 | 0 | 225 | 3.5 | 7.0 | 0.00 | 0.00 | 0.00 | 1001.4 | |
| 20260507032224 | 0 | 248 | 4.3 | 7.0 | 0.00 | 0.00 | 0.00 | 1001.4 | |
| 20260507032154 | 0 | 225 | 4.3 | 7.0 | 0.00 | 0.00 | 0.00 | 1001.4 | |
| 20260507032134 | 0 | 225 | 4.3 | 7.0 | 0.00 | 0.00 | 0.00 | 1001.3 | |
| 20260507032124 | 0 | 248 | 4.3 | 7.0 | 0.00 | 0.00 | 0.00 | 1001.4 | |
| 20260507032114 | 0 | 225 | 3.5 | 7.0 | 0.00 | 0.00 | 0.00 | 1001.3 | |
| 20260507032104 | 0 | 225 | 3.5 | 7.0 | 0.00 | 0.00 | 0.00 | 1001.4 | |
| 20260507032044 | 0 | 225 | 2.6 | 7.0 | 0.00 | 0.00 | 0.00 | 1001.4 | |
| 20260507032034 | 0 | 225 | 3.5 | 7.0 | 0.00 | 0.00 | 0.00 | 1001.3 | |
| 20260507032024 | 0 | 225 | 3.5 | 7.0 | 0.00 | 0.00 | 0.00 | 1001.4 | |
| 20260507031954 | 0 | 225 | 3.5 | 7.0 | 0.00 | 0.00 | 0.00 | 1001.3 | |
| 20260507031934 | 0 | 225 | 4.3 | 7.0 | 0.00 | 0.00 | 0.00 | 1001.3 | |
| 20260507031914 | 0 | 225 | 3.5 | 7.0 | 0.00 | 0.00 | 0.00 | 1001.3 | |
| 20260507031904 | 0 | 270 | 4.3 | 7.0 | 0.00 | 0.00 | 0.00 | 1001.3 | |
| 20260507031854 | 0 | 225 | 4.3 | 7.0 | 0.00 | 0.00 | 0.00 | 1001.3 | |
| 20260507031824 | 0 | 248 | 4.3 | 7.0 | 0.00 | 0.00 | 0.00 | 1001.3 | |
| 20260507031814 | 0 | 225 | 4.3 | 7.0 | 0.00 | 0.00 | 0.00 | 1001.3 | |
| 20260507031754 | 0 | 270 | 4.3 | 7.0 | 0.00 | 0.00 | 0.00 | 1001.4 | |
| 20260507031744 | 0 | 225 | 4.3 | 7.0 | 0.00 | 0.00 | 0.00 | 1001.4 | |
| 20260507031715 | 0 | 225 | 4.3 | 7.0 | 0.00 | 0.00 | 0.00 | 1001.3 | |
| 20260507031704 | 0 | 270 | 4.3 | 8.7 | 0.00 | 0.00 | 0.00 | 1001.4 | |
| 20260507031654 | 0 | 225 | 4.3 | 8.7 | 0.00 | 0.00 | 0.00 | 1001.3 | |
| 20260507031645 | 0 | 270 | 3.5 | 8.7 | 0.00 | 0.00 | 0.00 | 1001.3 | |
| 20260507031635 | 0 | 225 | 3.5 | 8.7 | 0.00 | 0.00 | 0.00 | 1001.3 | |
| 20260507031615 | 0 | 270 | 4.3 | 8.7 | 0.00 | 0.00 | 0.00 | 1001.3 | |
| 20260507031605 | 0 | 225 | 4.3 | 8.7 | 0.00 | 0.00 | 0.00 | 1001.3 | |
| 20260507031545 | 0 | 225 | 5.2 | 8.7 | 0.00 | 0.00 | 0.00 | 1001.3 | |
| 20260507031525 | 0 | 248 | 4.3 | 8.7 | 0.00 | 0.00 | 0.00 | 1001.3 | |
| 20260507031505 | 0 | 225 | 4.3 | 8.7 | 0.00 | 0.00 | 0.00 | 1001.4 | |
| 20260507031455 | 0 | 225 | 4.3 | 8.7 | 0.00 | 0.00 | 0.00 | 1001.3 | |
| 20260507031435 | 0 | 225 | 3.5 | 8.7 | 0.00 | 0.00 | 0.00 | 1001.3 | |
| 20260507031426 | 0 | 270 | 3.5 | 8.7 | 0.00 | 0.00 | 0.00 | 1001.3 | |
| 20260507031415 | 0 | 248 | 3.5 | 8.7 | 0.00 | 0.00 | 0.00 | 1001.3 | |
| 20260507031355 | 0 | 225 | 3.5 | 8.7 | 0.00 | 0.00 | 0.00 | 1001.3 | |
| 20260507031345 | 0 | 225 | 3.5 | 8.7 | 0.00 | 0.00 | 0.00 | 1001.4 | |
| 20260507031325 | 0 | 225 | 4.3 | 8.7 | 0.00 | 0.00 | 0.00 | 1001.3 | |
| 20260507031255 | 0 | 225 | 5.2 | 8.7 | 0.00 | 0.00 | 0.00 | 1001.3 | |
| 20260507031245 | 0 | 270 | 5.2 | 8.7 | 0.00 | 0.00 | 0.00 | 1001.3 | |
| 20260507031215 | 0 | 225 | 5.2 | 8.7 | 0.00 | 0.00 | 0.00 | 1001.3 | |
| 20260507031145 | 0 | 225 | 5.2 | 8.7 | 0.00 | 0.00 | 0.00 | 1001.4 | |
| 20260507031135 | 0 | 225 | 5.2 | 8.7 | 0.00 | 0.00 | 0.00 | 1001.3 | |
| 20260507031105 | 0 | 225 | 4.3 | 8.7 | 0.00 | 0.00 | 0.00 | 1001.3 | |
| 20260507031055 | 0 | 248 | 3.5 | 8.7 | 0.00 | 0.00 | 0.00 | 1001.3 | |
| 20260507031046 | 0 | 225 | 3.5 | 8.7 | 0.00 | 0.00 | 0.00 | 1001.3 | |
| 20260507031035 | 0 | 225 | 4.3 | 8.7 | 0.00 | 0.00 | 0.00 | 1001.4 | |
| 20260507031025 | 0 | 225 | 4.3 | 8.7 | 0.00 | 0.00 | 0.00 | 1001.3 | |
| 20260507030955 | 0 | 225 | 5.2 | 8.7 | 0.00 | 0.00 | 0.00 | 1001.3 | |
| 20260507030915 | 0 | 225 | 5.2 | 8.7 | 0.00 | 0.00 | 0.00 | 1001.3 | |
| 20260507030855 | 0 | 270 | 5.2 | 8.7 | 0.00 | 0.00 | 0.00 | 1001.4 | |
| 20260507030836 | 0 | 248 | 5.2 | 8.7 | 0.00 | 0.00 | 0.00 | 1001.3 | |
| 20260507030806 | 0 | 225 | 5.2 | 7.8 | 0.00 | 0.00 | 0.00 | 1001.3 | |
| 20260507030746 | 0 | 225 | 5.2 | 7.8 | 0.00 | 0.00 | 0.00 | 1001.4 | |
| 20260507030726 | 0 | 248 | 5.2 | 7.8 | 0.00 | 0.00 | 0.00 | 1001.3 | |
| 20260507030646 | 0 | 225 | 5.2 | 7.8 | 0.00 | 0.00 | 0.00 | 1001.3 | |
| 20260507030636 | 0 | 225 | 5.2 | 7.8 | 0.00 | 0.00 | 0.00 | 1001.4 | |
| 20260507030626 | 0 | 225 | 5.2 | 7.0 | 0.00 | 0.00 | 0.00 | 1001.4 | |
| 20260507030606 | 0 | 248 | 5.2 | 7.0 | 0.00 | 0.00 | 0.00 | 1001.3 | |
| 20260507030556 | 0 | 270 | 5.2 | 7.0 | 0.00 | 0.00 | 0.00 | 1001.3 | |
| 20260507030546 | 0 | 225 | 5.2 | 7.0 | 0.00 | 0.00 | 0.00 | 1001.4 | |
| 20260507030526 | 0 | 225 | 5.2 | 7.8 | 0.00 | 0.00 | 0.00 | 1001.4 | |
| 20260507030516 | 0 | 225 | 5.2 | 7.8 | 0.00 | 0.00 | 0.00 | 1001.3 | |
| 20260507030506 | 0 | 248 | 5.2 | 7.8 | 0.00 | 0.00 | 0.00 | 1001.3 | |
| 20260507030456 | 0 | 225 | 4.3 | 7.8 | 0.00 | 0.00 | 0.00 | 1001.4 | |
| 20260507030426 | 0 | 225 | 4.3 | 7.8 | 0.00 | 0.00 | 0.00 | 1001.3 | |
| 20260507030416 | 0 | 225 | 4.3 | 7.8 | 0.00 | 0.00 | 0.00 | 1001.4 | |
| 20260507030356 | 0 | 225 | 5.2 | 7.8 | 0.00 | 0.00 | 0.00 | 1001.4 | |
| 20260507030336 | 0 | 225 | 5.2 | 7.8 | 0.00 | 0.00 | 0.00 | 1001.3 | |
| 20260507030326 | 0 | 270 | 5.2 | 7.8 | 0.00 | 0.00 | 0.00 | 1001.4 | |
| 20260507030316 | 0 | 225 | 4.3 | 7.8 | 0.00 | 0.00 | 0.00 | ||
| 20260507030306 | 0 | 225 | 4.3 | 7.8 | 0.00 | 0.00 | 0.00 | 1001.4 | |
| 20260507030256 | 0 | 225 | 5.2 | 7.8 | 0.00 | 0.00 | 0.00 | 1001.4 | |
| 20260507030246 | 0 | 270 | 5.2 | 7.8 | 0.00 | 0.00 | 0.00 | 1001.3 | |
| 20260507030236 | 0 | 225 | 5.2 | 7.8 | 0.00 | 0.00 | 0.00 | 1001.3 | |
| 20260507030216 | 0 | 225 | 5.2 | 7.8 | 0.00 | 0.00 | 0.00 | 1001.4 | |
| 20260507030206 | 0 | 225 | 4.3 | 7.8 | 0.00 | 0.00 | 0.00 | 1001.4 | |
| 20260507030146 | 0 | 225 | 4.3 | 7.8 | 0.00 | 0.00 | 0.00 | 1001.3 | |
| 20260507030117 | 0 | 270 | 5.2 | 7.8 | 0.00 | 0.00 | 0.00 | 1001.4 | |
| 20260507030107 | 0 | 225 | 5.2 | 7.8 | 0.00 | 0.00 | 0.00 | 1001.3 | |
| 20260507030047 | 0 | 225 | 5.2 | 7.8 | 0.00 | 0.00 | 0.00 | 1001.4 | |
| 20260507030017 | 0 | 225 | 4.3 | 7.0 | 0.00 | 0.00 | 0.00 | 1001.4 | |
| 20260507030007 | 0 | 225 | 4.3 | 7.0 | 0.00 | 0.00 | 0.00 | 1001.3 | |
| 20260507025957 | 0 | 270 | 4.3 | 7.0 | 0.00 | 0.00 | 0.00 | 1001.3 | |
| 20260507025947 | 0 | 270 | 3.5 | 7.0 | 0.00 | 0.00 | 0.00 | 1001.4 | |
| 20260507025907 | 0 | 225 | 3.5 | 7.0 | 0.00 | 0.00 | 0.00 | 1001.4 | |
| 20260507025847 | 0 | 225 | 3.5 | 7.0 | 0.00 | 0.00 | 0.00 | 1001.3 | |
| 20260507025817 | 0 | 225 | 3.5 | 7.0 | 0.00 | 0.00 | 0.00 | 1001.4 | |
| 20260507025737 | 0 | 225 | 3.5 | 7.8 | 0.00 | 0.00 | 0.00 | 1001.4 | |
| 20260507025717 | 0 | 225 | 4.3 | 7.8 | 0.00 | 0.00 | 0.00 | 1001.4 | |
| 20260507025647 | 0 | 225 | 5.2 | 7.8 | 0.00 | 0.00 | 0.00 | 1001.4 | |
| 20260507025627 | 0 | 0 | 5.2 | 7.8 | 0.00 | 0.00 | 0.00 | 1001.3 | |
| 20260507025607 | 0 | 225 | 5.2 | 7.8 | 0.00 | 0.00 | 0.00 | 1001.4 | |
| 20260507025527 | 0 | 225 | 5.2 | 7.8 | 0.00 | 0.00 | 0.00 | 1001.4 | |
| 20260507025507 | 0 | 270 | 5.2 | 7.8 | 0.00 | 0.00 | 0.00 | 1001.4 | |
| 20260507025447 | 0 | 225 | 5.2 | 7.8 | 0.00 | 0.00 | 0.00 | 1001.4 | |
| 20260507025437 | 0 | 248 | 5.2 | 7.8 | 0.00 | 0.00 | 0.00 | 1001.4 | |
| 20260507025427 | 0 | 225 | 5.2 | 7.8 | 0.00 | 0.00 | 0.00 | 1001.3 | |
| 20260507025407 | 0 | 225 | 5.2 | 7.8 | 0.00 | 0.00 | 0.00 | 1001.4 | |
| 20260507025358 | 0 | 248 | 5.2 | 7.8 | 0.00 | 0.00 | 0.00 | 1001.4 | |
| 20260507025347 | 0 | 248 | 5.2 | 7.8 | 0.00 | 0.00 | 0.00 | 1001.3 | |
| 20260507025337 | 0 | 270 | 6.1 | 7.8 | 0.00 | 0.00 | 0.00 | 1001.3 | |
| 20260507025328 | 0 | 225 | 6.1 | 7.8 | 0.00 | 0.00 | 0.00 | 1001.4 | |
| 20260507025308 | 0 | 270 | 5.2 | 7.8 | 0.00 | 0.00 | 0.00 | 1001.3 | |
| 20260507025248 | 0 | 225 | 5.2 | 7.8 | 0.00 | 0.00 | 0.00 | 1001.4 | |
| 20260507025228 | 0 | 225 | 5.2 | 7.8 | 0.00 | 0.00 | 0.00 | 1001.3 | |
| 20260507025208 | 0 | 225 | 5.2 | 7.8 | 0.00 | 0.00 | 0.00 | 1001.4 | |
| 20260507025158 | 0 | 0 | 5.2 | 7.8 | 0.00 | 0.00 | 0.00 | 1001.3 | |
| 20260507025148 | 0 | 225 | 5.2 | 7.8 | 0.00 | 0.00 | 0.00 | 1001.3 | |
| 20260507025138 | 0 | 248 | 5.2 | 7.8 | 0.00 | 0.00 | 0.00 | 1001.4 | |
| 20260507025128 | 0 | 225 | 5.2 | 7.8 | 0.00 | 0.00 | 0.00 | 1001.4 | |
| 20260507025108 | 0 | 270 | 5.2 | 7.8 | 0.00 | 0.00 | 0.00 | 1001.4 | |
| 20260507025058 | 0 | 270 | 5.2 | 7.8 | 0.00 | 0.00 | 0.00 | 1001.3 | |
| 20260507025048 | 0 | 225 | 5.2 | 7.8 | 0.00 | 0.00 | 0.00 | 1001.4 | |
| 20260507025018 | 0 | 225 | 5.2 | 7.8 | 0.00 | 0.00 | 0.00 | 1001.3 | |
| 20260507025008 | 0 | 225 | 5.2 | 7.8 | 0.00 | 0.00 | 0.00 | 1001.4 | |
| 20260507024958 | 0 | 225 | 5.2 | 7.0 | 0.00 | 0.00 | 0.00 | 1001.3 | |
| 20260507024948 | 0 | 270 | 5.2 | 7.0 | 0.00 | 0.00 | 0.00 | 1001.3 | |
| 20260507024938 | 0 | 225 | 5.2 | 7.0 | 0.00 | 0.00 | 0.00 | 1001.4 | |
| 20260507024928 | 0 | 248 | 5.2 | 7.0 | 0.00 | 0.00 | 0.00 | 1001.4 | |
| 20260507024918 | 0 | 270 | 5.2 | 7.0 | 0.00 | 0.00 | 0.00 | 1001.4 | |
| 20260507024858 | 0 | 270 | 5.2 | 7.0 | 0.00 | 0.00 | 0.00 | 1001.3 | |
| 20260507024848 | 0 | 225 | 5.2 | 7.0 | 0.00 | 0.00 | 0.00 | 1001.4 | |
| 20260507024838 | 0 | 225 | 5.2 | 7.0 | 0.00 | 0.00 | 0.00 | 1001.3 | |
| 20260507024818 | 0 | 225 | 4.3 | 7.0 | 0.00 | 0.00 | 0.00 | 1001.3 | |
| 20260507024808 | 0 | 270 | 4.3 | 7.0 | 0.00 | 0.00 | 0.00 | 1001.3 | |
| 20260507024758 | 0 | 225 | 3.5 | 7.0 | 0.00 | 0.00 | 0.00 | 1001.4 | |
| 20260507024718 | 0 | 225 | 3.5 | 7.0 | 0.00 | 0.00 | 0.00 | 1001.3 | |
| 20260507024658 | 0 | 225 | 4.3 | 7.0 | 0.00 | 0.00 | 0.00 | 1001.3 | |
| 20260507024648 | 0 | 225 | 5.2 | 7.0 | 0.00 | 0.00 | 0.00 | 1001.3 | |
| 20260507024628 | 0 | 225 | 5.2 | 7.0 | 0.00 | 0.00 | 0.00 | 1001.4 | |
| 20260507024608 | 0 | 225 | 5.2 | 7.0 | 0.00 | 0.00 | 0.00 | 1001.3 | |
| 20260507024559 | 0 | 225 | 4.3 | 7.0 | 0.00 | 0.00 | 0.00 | 1001.3 | |
| 20260507024549 | 0 | 225 | 4.3 | 6.1 | 0.00 | 0.00 | 0.00 | 1001.4 | |
| 20260507024539 | 0 | 225 | 4.3 | 6.1 | 0.00 | 0.00 | 0.00 | 1001.3 | |
| 20260507024509 | 0 | 225 | 3.5 | 6.1 | 0.00 | 0.00 | 0.00 | 1001.3 | |
| 20260507024459 | 0 | 225 | 2.6 | 6.1 | 0.00 | 0.00 | 0.00 | 1001.3 | |
| 20260507024449 | 0 | 225 | 2.6 | 6.1 | 0.00 | 0.00 | 0.00 | 1001.4 | |
| 20260507024419 | 0 | 225 | 2.6 | 6.1 | 0.00 | 0.00 | 0.00 | 1001.3 | |
| 20260507024339 | 0 | 225 | 2.6 | 6.1 | 0.00 | 0.00 | 0.00 | 1001.3 | |
| 20260507024309 | 0 | 225 | 1.7 | 6.1 | 0.00 | 0.00 | 0.00 | 1001.3 | |
| 20260507024259 | 0 | 225 | 1.7 | 6.1 | 0.00 | 0.00 | 0.00 | 1001.4 | |
| 20260507024249 | 0 | 203 | 1.7 | 6.1 | 0.00 | 0.00 | 0.00 | 1001.3 | |
| 20260507024219 | 0 | 225 | 1.7 | 6.1 | 0.00 | 0.00 | 0.00 | 1001.3 | |
| 20260507024149 | 0 | 225 | 2.6 | 6.1 | 0.00 | 0.00 | 0.00 | 1001.3 | |
| 20260507024109 | 0 | 225 | 2.6 | 6.1 | 0.00 | 0.00 | 0.00 | 1001.3 | |
| 20260507024039 | 0 | 225 | 3.5 | 6.1 | 0.00 | 0.00 | 0.00 | 1001.3 | |
| 20260507024019 | 0 | 225 | 2.6 | 6.1 | 0.00 | 0.00 | 0.00 | 1001.3 | |
| 20260507023959 | 0 | 225 | 3.5 | 6.1 | 0.00 | 0.00 | 0.00 | 1001.3 | |
| 20260507023949 | 0 | 225 | 3.5 | 6.1 | 0.00 | 0.00 | 0.00 | 1001.2 | |
| 20260507023939 | 0 | 225 | 2.6 | 6.1 | 0.00 | 0.00 | 0.00 | 1001.2 | |
| 20260507023909 | 0 | 225 | 3.5 | 6.1 | 0.00 | 0.00 | 0.00 | 1001.2 | |
| 20260507023900 | 0 | 225 | 2.6 | 6.1 | 0.00 | 0.00 | 0.00 | 1001.2 | |
| 20260507023850 | 0 | 225 | 3.5 | 6.1 | 0.00 | 0.00 | 0.00 | 1001.3 | |
| 20260507023839 | 0 | 225 | 2.6 | 6.1 | 0.00 | 0.00 | 0.00 | 1001.3 | |
| 20260507023820 | 0 | 225 | 2.6 | 6.1 | 0.00 | 0.00 | 0.00 | 1001.2 | |
| 20260507023800 | 0 | 225 | 2.6 | 6.1 | 0.00 | 0.00 | 0.00 | 1001.3 | |
| 20260507023720 | 0 | 225 | 2.6 | 5.2 | 0.00 | 0.00 | 0.00 | 1001.3 | |
| 20260507023710 | 0 | 225 | 1.7 | 5.2 | 0.00 | 0.00 | 0.00 | 1001.2 | |
| 20260507023650 | 0 | 225 | 1.7 | 4.3 | 0.00 | 0.00 | 0.00 | 1001.3 | |
| 20260507023630 | 0 | 225 | 1.7 | 3.5 | 0.00 | 0.00 | 0.00 | 1001.3 | |
| 20260507023550 | 0 | 225 | 1.7 | 3.5 | 0.00 | 0.00 | 0.00 | 1001.3 | |
| 20260507023540 | 0 | 225 | 1.7 | 3.5 | 0.00 | 0.00 | 0.00 | 1001.2 | |
| 20260507023500 | 0 | 225 | 1.7 | 3.5 | 0.00 | 0.00 | 0.00 | 1001.3 | |
| 20260507023430 | 0 | 225 | 1.7 | 2.6 | 0.00 | 0.00 | 0.00 | 1001.3 | |
| 20260507023410 | 0 | 203 | 0.9 | 3.5 | 0.00 | 0.00 | 0.00 | 1001.2 | |
| 20260507023400 | 0 | 225 | 1.7 | 3.5 | 0.00 | 0.00 | 0.00 | 1001.3 | |
| 20260507023340 | 0 | 225 | 0.9 | 4.3 | 0.00 | 0.00 | 0.00 | 1001.2 | |
| 20260507023310 | 0 | 225 | 0.9 | 4.3 | 0.00 | 0.00 | 0.00 | 1001.3 | |
| 20260507023250 | 0 | 225 | 0.9 | 4.3 | 0.00 | 0.00 | 0.00 | 1001.2 | |
| 20260507023240 | 0 | 180 | 0.9 | 4.3 | 0.00 | 0.00 | 0.00 | 1001.3 | |
| 20260507023210 | 0 | 225 | 1.7 | 4.3 | 0.00 | 0.00 | 0.00 | 1001.2 | |
| 20260507023200 | 0 | 203 | 0.9 | 4.3 | 0.00 | 0.00 | 0.00 | 1001.2 | |
| 20260507023150 | 0 | 225 | 0.9 | 4.3 | 0.00 | 0.00 | 0.00 | 1001.2 | |
| 20260507023140 | 0 | 180 | 0.9 | 4.3 | 0.00 | 0.00 | 0.00 | 1001.2 | |
| 20260507023130 | 0 | 180 | 0.0 | 4.3 | 0.00 | 0.00 | 0.00 | 1001.2 | |
| 20260507023121 | 0 | 225 | 0.0 | 4.3 | 0.00 | 0.00 | 0.00 | 1001.2 | |
| 20260507023110 | 0 | 225 | 0.9 | 4.3 | 0.00 | 0.00 | 0.00 | 1001.3 | |
| 20260507023051 | 0 | 203 | 0.9 | 4.3 | 0.00 | 0.00 | 0.00 | 1001.2 | |
| 20260507023041 | 0 | 225 | 0.9 | 4.3 | 0.00 | 0.00 | 0.00 | 1001.2 | |
| 20260507023031 | 0 | 225 | 1.7 | 4.3 | 0.00 | 0.00 | 0.00 | 1001.2 | |
| 20260507022951 | 0 | 225 | 1.7 | 4.3 | 0.00 | 0.00 | 0.00 | 1001.2 | |
| 20260507022941 | 0 | 225 | 2.6 | 4.3 | 0.00 | 0.00 | 0.00 | 1001.2 | |
| 20260507022901 | 0 | 225 | 2.6 | 4.3 | 0.00 | 0.00 | 0.00 | 1001.2 | |
| 20260507022851 | 0 | 225 | 1.7 | 5.2 | 0.00 | 0.00 | 0.00 | 1001.2 | |
| 20260507022811 | 0 | 225 | 1.7 | 5.2 | 0.00 | 0.00 | 0.00 | 1001.2 | |
| 20260507022731 | 0 | 225 | 1.7 | 5.2 | 0.00 | 0.00 | 0.00 | 1001.2 | |
| 20260507022651 | 0 | 225 | 2.6 | 5.2 | 0.00 | 0.00 | 0.00 | 1001.2 | |
| 20260507022631 | 0 | 225 | 3.5 | 5.2 | 0.00 | 0.00 | 0.00 | 1001.2 | |
| 20260507022621 | 0 | 225 | 2.6 | 5.2 | 0.00 | 0.00 | 0.00 | 1001.3 | |
| 20260507022601 | 0 | 225 | 3.5 | 5.2 | 0.00 | 0.00 | 0.00 | 1001.3 | |
| 20260507022531 | 0 | 225 | 3.5 | 5.2 | 0.00 | 0.00 | 0.00 | 1001.2 | |
| 20260507022511 | 0 | 225 | 3.5 | 5.2 | 0.00 | 0.00 | 0.00 | 1001.3 | |
| 20260507022451 | 0 | 225 | 3.5 | 5.2 | 0.00 | 0.00 | 0.00 | 1001.2 | |
| 20260507022422 | 0 | 225 | 3.5 | 5.2 | 0.00 | 0.00 | 0.00 | 1001.3 | |
| 20260507022401 | 0 | 225 | 3.5 | 5.2 | 0.00 | 0.00 | 0.00 | 1001.2 | |
| 20260507022352 | 0 | 225 | 3.5 | 4.3 | 0.00 | 0.00 | 0.00 | 1001.2 | |
| 20260507022341 | 0 | 225 | 2.6 | 4.3 | 0.00 | 0.00 | 0.00 | 1001.3 | |
| 20260507022332 | 0 | 225 | 1.7 | 4.3 | 0.00 | 0.00 | 0.00 | 1001.2 | |
| 20260507022312 | 0 | 225 | 1.7 | 4.3 | 0.00 | 0.00 | 0.00 | 1001.3 | |
| 20260507022302 | 0 | 225 | 1.7 | 5.2 | 0.00 | 0.00 | 0.00 | 1001.3 | |
| 20260507022222 | 0 | 225 | 1.7 | 6.1 | 0.00 | 0.00 | 0.00 | 1001.3 | |
| 20260507022202 | 0 | 225 | 1.7 | 6.1 | 0.00 | 0.00 | 0.00 | 1001.2 | |
| 20260507022142 | 0 | 225 | 1.7 | 6.1 | 0.00 | 0.00 | 0.00 | 1001.3 | |
| 20260507022122 | 0 | 225 | 1.7 | 6.1 | 0.00 | 0.00 | 0.00 | 1001.2 | |
| 20260507022112 | 0 | 225 | 0.9 | 6.1 | 0.00 | 0.00 | 0.00 | 1001.2 | |
| 20260507022042 | 0 | 225 | 1.7 | 6.1 | 0.00 | 0.00 | 0.00 | 1001.2 | |
| 20260507022022 | 0 | 225 | 1.7 | 6.1 | 0.00 | 0.00 | 0.00 | 1001.3 | |
| 20260507022002 | 0 | 225 | 1.7 | 6.1 | 0.00 | 0.00 | 0.00 | 1001.2 | |
| 20260507021932 | 0 | 225 | 1.7 | 6.1 | 0.00 | 0.00 | 0.00 | 1001.3 | |
| 20260507021922 | 0 | 203 | 1.7 | 7.0 | 0.00 | 0.00 | 0.00 | 1001.3 | |
| 20260507021902 | 0 | 225 | 1.7 | 7.0 | 0.00 | 0.00 | 0.00 | 1001.3 | |
| 20260507021842 | 0 | 225 | 2.6 | 7.0 | 0.00 | 0.00 | 0.00 | 1001.3 | |
| 20260507021832 | 0 | 203 | 2.6 | 7.0 | 0.00 | 0.00 | 0.00 | 1001.3 | |
| 20260507021802 | 0 | 225 | 2.6 | 7.0 | 0.00 | 0.00 | 0.00 | 1001.3 | |
| 20260507021732 | 0 | 225 | 1.7 | 7.0 | 0.00 | 0.00 | 0.00 | 1001.3 | |
| 20260507021652 | 0 | 225 | 1.7 | 7.0 | 0.00 | 0.00 | 0.00 | 1001.3 | |
| 20260507021622 | 0 | 225 | 1.7 | 7.0 | 0.00 | 0.00 | 0.00 | 1001.2 | |
| 20260507021613 | 0 | 225 | 1.7 | 7.0 | 0.00 | 0.00 | 0.00 | 1001.3 | |
| 20260507021553 | 0 | 180 | 1.7 | 7.0 | 0.00 | 0.00 | 0.00 | 1001.3 | |
| 20260507021533 | 0 | 225 | 1.7 | 7.0 | 0.00 | 0.00 | 0.00 | 1001.3 | |
| 20260507021523 | 0 | 225 | 2.6 | 7.0 | 0.00 | 0.00 | 0.00 | 1001.2 | |
| 20260507021503 | 0 | 225 | 3.5 | 7.0 | 0.00 | 0.00 | 0.00 | 1001.2 | |
| 20260507021453 | 0 | 225 | 3.5 | 7.0 | 0.00 | 0.00 | 0.00 | 1001.3 | |
| 20260507021433 | 0 | 225 | 4.3 | 7.0 | 0.00 | 0.00 | 0.00 | 1001.3 | |
| 20260507021423 | 0 | 270 | 3.5 | 7.0 | 0.00 | 0.00 | 0.00 | 1001.3 | |
| 20260507021413 | 0 | 270 | 3.5 | 6.1 | 0.00 | 0.00 | 0.00 | 1001.3 | |
| 20260507021404 | 0 | 225 | 2.6 | 6.1 | 0.00 | 0.00 | 0.00 | 1001.3 | |
| 20260507021353 | 0 | 270 | 1.7 | 6.1 | 0.00 | 0.00 | 0.00 | 1001.2 | |
| 20260507021323 | 0 | 225 | 1.7 | 4.3 | 0.00 | 0.00 | 0.00 | 1001.3 | |
| 20260507021313 | 0 | 225 | 1.7 | 4.3 | 0.00 | 0.00 | 0.00 | 1001.2 | |
| 20260507021303 | 0 | 225 | 2.6 | 6.1 | 0.00 | 0.00 | 0.00 | 1001.3 | |
| 20260507021223 | 0 | 225 | 2.6 | 7.0 | 0.00 | 0.00 | 0.00 | 1001.3 | |
| 20260507021213 | 0 | 225 | 2.6 | 7.0 | 0.00 | 0.00 | 0.00 | 1001.2 | |
| 20260507021133 | 0 | 225 | 2.6 | 7.0 | 0.00 | 0.00 | 0.00 | 1001.2 | |
| 20260507021123 | 0 | 225 | 2.6 | 7.0 | 0.00 | 0.00 | 0.00 | 1001.3 | |
| 20260507021103 | 0 | 225 | 1.7 | 7.0 | 0.00 | 0.00 | 0.00 | 1001.2 | |
| 20260507021043 | 0 | 225 | 1.7 | 7.0 | 0.00 | 0.00 | 0.00 | 1001.3 | |
| 20260507021023 | 0 | 225 | 1.7 | 7.0 | 0.00 | 0.00 | 0.00 | 1001.2 | |
| 20260507021013 | 0 | 180 | 1.7 | 7.0 | 0.00 | 0.00 | 0.00 | 1001.2 | |
| 20260507021003 | 0 | 225 | 1.7 | 7.0 | 0.00 | 0.00 | 0.00 | 1001.3 | |
| 20260507020923 | 0 | 225 | 1.7 | 7.0 | 0.00 | 0.00 | 0.00 | 1001.2 | |
| 20260507020914 | 0 | 225 | 2.6 | 7.0 | 0.00 | 0.00 | 0.00 | 1001.2 | |
| 20260507020903 | 0 | 225 | 3.5 | 7.0 | 0.00 | 0.00 | 0.00 | 1001.2 | |
| 20260507020824 | 0 | 225 | 3.5 | 7.0 | 0.00 | 0.00 | 0.00 | 1001.2 | |
| 20260507020814 | 0 | 270 | 3.5 | 7.0 | 0.00 | 0.00 | 0.00 | 1001.2 | |
| 20260507020754 | 0 | 225 | 2.6 | 7.0 | 0.00 | 0.00 | 0.00 | 1001.2 | |
| 20260507020734 | 0 | 225 | 1.7 | 7.0 | 0.00 | 0.00 | 0.00 | 1001.2 | |
| 20260507020714 | 0 | 135 | 2.6 | 7.0 | 0.00 | 0.00 | 0.00 | 1001.2 | |
| 20260507020704 | 0 | 225 | 2.6 | 7.0 | 0.00 | 0.00 | 0.00 | 1001.2 | |
| 20260507020644 | 0 | 225 | 3.5 | 7.0 | 0.00 | 0.00 | 0.00 | 1001.1 | |
| 20260507020624 | 0 | 225 | 3.5 | 7.0 | 0.00 | 0.00 | 0.00 | 1001.2 | |
| 20260507020614 | 0 | 225 | 4.3 | 7.0 | 0.00 | 0.00 | 0.00 | 1001.1 | |
| 20260507020554 | 0 | 225 | 4.3 | 7.0 | 0.00 | 0.00 | 0.00 | 1001.2 | |
| 20260507020534 | 0 | 225 | 3.5 | 7.0 | 0.00 | 0.00 | 0.00 | 1001.2 | |
| 20260507020504 | 0 | 225 | 3.5 | 7.8 | 0.00 | 0.00 | 0.00 | 1001.2 | |
| 20260507020454 | 0 | 225 | 4.3 | 7.8 | 0.00 | 0.00 | 0.00 | 1001.2 | |
| 20260507020444 | 0 | 225 | 5.2 | 7.8 | 0.00 | 0.00 | 0.00 | 1001.2 | |
| 20260507020404 | 0 | 225 | 5.2 | 7.8 | 0.00 | 0.00 | 0.00 | 1001.2 | |
| 20260507020354 | 0 | 248 | 5.2 | 7.8 | 0.00 | 0.00 | 0.00 | 1001.2 | |
| 20260507020344 | 0 | 225 | 5.2 | 7.8 | 0.00 | 0.00 | 0.00 | 1001.1 | |
| 20260507020304 | 0 | 225 | 5.2 | 7.8 | 0.00 | 0.00 | 0.00 | 1001.2 | |
| 20260507020224 | 0 | 225 | 4.3 | 7.8 | 0.00 | 0.00 | 0.00 | 1001.2 | |
| 20260507020145 | 0 | 225 | 4.3 | 7.8 | 0.00 | 0.00 | 0.00 | 1001.2 | |
| 20260507020115 | 0 | 225 | 5.2 | 7.8 | 0.00 | 0.00 | 0.00 | 1001.2 | |
| 20260507020105 | 0 | 225 | 4.3 | 7.8 | 0.00 | 0.00 | 0.00 | 1001.2 | |
| 20260507020035 | 0 | 225 | 5.2 | 7.8 | 0.00 | 0.00 | 0.00 | 1001.2 | |
| 20260507020025 | 0 | 225 | 4.3 | 7.8 | 0.00 | 0.00 | 0.00 | 1001.2 | |
| 20260507020005 | 0 | 270 | 4.3 | 8.7 | 0.00 | 0.00 | 0.00 | 1001.1 | |
| 20260507015945 | 0 | 225 | 4.3 | 8.7 | 0.00 | 0.00 | 0.00 | 1001.2 | |
| 20260507015925 | 0 | 225 | 5.2 | 8.7 | 0.00 | 0.00 | 0.00 | 1001.2 | |
| 20260507015905 | 0 | 225 | 4.3 | 8.7 | 0.00 | 0.00 | 0.00 | 1001.2 | |
| 20260507015835 | 0 | 225 | 4.3 | 8.7 | 0.00 | 0.00 | 0.00 | 1001.1 | |
| 20260507015825 | 0 | 225 | 4.3 | 8.7 | 0.00 | 0.00 | 0.00 | 1001.2 | |
| 20260507015805 | 0 | 225 | 5.2 | 8.7 | 0.00 | 0.00 | 0.00 | 1001.2 | |
| 20260507015755 | 0 | 225 | 5.2 | 9.6 | 0.00 | 0.00 | 0.00 | 1001.2 | |
| 20260507015725 | 0 | 225 | 5.2 | 9.6 | 0.00 | 0.00 | 0.00 | 1001.1 | |
| 20260507015705 | 0 | 225 | 4.3 | 9.6 | 0.00 | 0.00 | 0.00 | 1001.2 | |
| 20260507015655 | 0 | 225 | 4.3 | 9.6 | 0.00 | 0.00 | 0.00 | 1001.1 | |
| 20260507015635 | 52 | 225 | 4.3 | 9.6 | 0.00 | 0.00 | 0.00 | 80 | 1001.1 |
| 20260507015625 | 0 | 225 | 4.3 | 9.6 | 0.00 | 0.00 | 0.00 | 1001.2 | |
| 20260507015615 | 0 | 225 | 5.2 | 9.6 | 0.00 | 0.00 | 0.00 | 1001.2 | |
| 20260507015555 | 0 | 270 | 5.2 | 9.6 | 0.00 | 0.00 | 0.00 | 1001.1 | |
| 20260507015545 | 0 | 225 | 5.2 | 9.6 | 0.00 | 0.00 | 0.00 | 1001.1 | |
| 20260507015535 | 0 | 225 | 5.2 | 9.6 | 0.00 | 0.00 | 0.00 | 1001.2 | |
| 20260507015455 | 0 | 225 | 5.2 | 9.6 | 0.00 | 0.00 | 0.00 | 1001.1 | |
| 20260507015445 | 0 | 225 | 4.3 | 9.6 | 0.00 | 0.00 | 0.00 | 1001.1 | |
| 20260507015436 | 0 | 225 | 4.3 | 10.4 | 0.00 | 0.00 | 0.00 | 1001.1 | |
| 20260507015426 | 0 | 225 | 5.2 | 10.4 | 0.00 | 0.00 | 0.00 | 1001.2 | |
| 20260507015416 | 0 | 225 | 5.2 | 10.4 | 0.00 | 0.00 | 0.00 | 1001.1 | |
| 20260507015406 | 0 | 270 | 5.2 | 10.4 | 0.00 | 0.00 | 0.00 | 1001.1 | |
| 20260507015336 | 0 | 225 | 6.1 | 10.4 | 0.00 | 0.00 | 0.00 | 1001.1 | |
| 20260507015326 | 0 | 225 | 5.2 | 10.4 | 0.00 | 0.00 | 0.00 | 1001.1 | |
| 20260507015256 | 0 | 225 | 6.1 | 10.4 | 0.00 | 0.00 | 0.00 | 1001.1 | |
| 20260507015246 | 0 | 270 | 6.1 | 10.4 | 0.00 | 0.00 | 0.00 | 1001.0 | |
| 20260507015236 | 0 | 180 | 6.1 | 10.4 | 0.00 | 0.00 | 0.00 | 1001.1 | |
| 20260507015206 | 0 | 225 | 7.0 | 10.4 | 0.00 | 0.00 | 0.00 | 1001.1 | |
| 20260507015136 | 0 | 225 | 6.1 | 10.4 | 0.00 | 0.00 | 0.00 | 1001.0 | |
| 20260507015126 | 0 | 225 | 6.1 | 10.4 | 0.00 | 0.00 | 0.00 | 1001.1 | |
| 20260507015116 | 0 | 248 | 5.2 | 10.4 | 0.00 | 0.00 | 0.00 | 1001.1 | |
| 20260507015106 | 0 | 225 | 5.2 | 10.4 | 0.00 | 0.00 | 0.00 | 1001.1 | |
| 20260507015036 | 0 | 225 | 6.1 | 10.4 | 0.00 | 0.00 | 0.00 | 1001.1 | |
| 20260507015006 | 0 | 225 | 7.0 | 10.4 | 0.00 | 0.00 | 0.00 | 1001.1 | |
| 20260507014956 | 0 | 225 | 7.0 | 10.4 | 0.00 | 0.00 | 0.00 | 1001.0 | |
| 20260507014946 | 0 | 225 | 6.1 | 10.4 | 0.00 | 0.00 | 0.00 | 1001.0 | |
| 20260507014926 | 0 | 225 | 5.2 | 10.4 | 0.00 | 0.00 | 0.00 | 1001.0 | |
| 20260507014916 | 0 | 225 | 5.2 | 10.4 | 0.00 | 0.00 | 0.00 | 1001.1 | |
| 20260507014856 | 0 | 225 | 6.1 | 10.4 | 0.00 | 0.00 | 0.00 | 1001.0 | |
| 20260507014846 | 0 | 225 | 6.1 | 10.4 | 0.00 | 0.00 | 0.00 | 1001.1 | |
| 20260507014836 | 0 | 248 | 7.0 | 10.4 | 0.00 | 0.00 | 0.00 | 1001.1 | |
| 20260507014816 | 0 | 270 | 6.1 | 10.4 | 0.00 | 0.00 | 0.00 | 1001.1 | |
| 20260507014757 | 0 | 225 | 6.1 | 10.4 | 0.00 | 0.00 | 0.00 | 1001.1 | |
| 20260507014727 | 0 | 225 | 6.1 | 10.4 | 0.00 | 0.00 | 0.00 | 1001.0 | |
| 20260507014707 | 0 | 225 | 6.1 | 10.4 | 0.00 | 0.00 | 0.00 | 1001.1 | |
| 20260507014647 | 0 | 270 | 6.1 | 10.4 | 0.00 | 0.00 | 0.00 | 1001.0 | |
| 20260507014637 | 0 | 225 | 6.1 | 10.4 | 0.00 | 0.00 | 0.00 | 1001.0 | |
| 20260507014627 | 0 | 225 | 5.2 | 10.4 | 0.00 | 0.00 | 0.00 | 1001.1 | |
| 20260507014617 | 0 | 225 | 5.2 | 10.4 | 0.00 | 0.00 | 0.00 | 1001.0 | |
| 20260507014607 | 0 | 270 | 5.2 | 10.4 | 0.00 | 0.00 | 0.00 | 1001.0 | |
| 20260507014557 | 0 | 248 | 5.2 | 10.4 | 0.00 | 0.00 | 0.00 | 1001.0 | |
| 20260507014537 | 0 | 225 | 5.2 | 10.4 | 0.00 | 0.00 | 0.00 | 1000.9 | |
| 20260507014527 | 0 | 225 | 5.2 | 10.4 | 0.00 | 0.00 | 0.00 | 1001.0 | |
| 20260507014507 | 0 | 225 | 6.1 | 10.4 | 0.00 | 0.00 | 0.00 | 1001.0 | |
| 20260507014437 | 0 | 225 | 7.0 | 10.4 | 0.00 | 0.00 | 0.00 | 1001.0 | |
| 20260507014417 | 0 | 225 | 7.8 | 11.3 | 0.00 | 0.00 | 0.00 | 1001.0 | |
| 20260507014357 | 0 | 225 | 7.0 | 11.3 | 0.00 | 0.00 | 0.00 | 1001.0 | |
| 20260507014347 | 0 | 225 | 7.0 | 11.3 | 0.00 | 0.00 | 0.00 | 1000.9 | |
| 20260507014317 | 0 | 225 | 6.1 | 11.3 | 0.00 | 0.00 | 0.00 | 1001.0 | |
| 20260507014307 | 0 | 248 | 6.1 | 11.3 | 0.00 | 0.00 | 0.00 | 1001.0 | |
| 20260507014247 | 0 | 225 | 6.1 | 11.3 | 0.00 | 0.00 | 0.00 | 1000.9 | |
| 20260507014237 | 0 | 225 | 7.0 | 11.3 | 0.00 | 0.00 | 0.00 | 1001.0 | |
| 20260507014207 | 0 | 225 | 6.1 | 11.3 | 0.00 | 0.00 | 0.00 | 1001.0 | |
| 20260507014157 | 0 | 225 | 7.0 | 11.3 | 0.00 | 0.00 | 0.00 | 1001.0 | |
| 20260507014137 | 0 | 225 | 7.0 | 11.3 | 0.00 | 0.00 | 0.00 | 1000.9 | |
| 20260507014117 | 0 | 225 | 7.0 | 11.3 | 0.00 | 0.00 | 0.00 | 1001.0 | |
| 20260507014038 | 0 | 225 | 7.0 | 11.3 | 0.00 | 0.00 | 0.00 | 1001.0 | |
| 20260507014018 | 0 | 270 | 7.0 | 12.2 | 0.00 | 0.00 | 0.00 | 1001.0 | |
| 20260507014008 | 0 | 225 | 7.0 | 12.2 | 0.00 | 0.00 | 0.00 | 1001.0 | |
| 20260507013958 | 0 | 225 | 7.8 | 12.2 | 0.00 | 0.00 | 0.00 | 1001.0 | |
| 20260507013948 | 0 | 225 | 7.8 | 13.0 | 0.00 | 0.00 | 0.00 | 1000.9 | |
| 20260507013938 | 0 | 225 | 7.8 | 13.9 | 0.00 | 0.00 | 0.00 | 1000.9 | |
| 20260507013928 | 0 | 270 | 7.0 | 13.9 | 0.00 | 0.00 | 0.00 | 1001.0 | |
| 20260507013908 | 0 | 270 | 7.0 | 13.9 | 0.00 | 0.00 | 0.00 | 1000.9 | |
| 20260507013858 | 0 | 225 | 7.0 | 13.9 | 0.00 | 0.00 | 0.00 | 1000.9 | |
| 20260507013828 | 0 | 225 | 7.0 | 13.9 | 0.00 | 0.00 | 0.00 | 1001.0 | |
| 20260507013818 | 0 | 225 | 7.0 | 13.9 | 0.00 | 0.00 | 0.00 | 1000.9 | |
| 20260507013808 | 0 | 225 | 7.8 | 13.9 | 0.00 | 0.00 | 0.00 | 1000.9 | |
| 20260507013758 | 0 | 270 | 7.8 | 13.9 | 0.00 | 0.00 | 0.00 | 1001.0 | |
| 20260507013738 | 0 | 225 | 7.8 | 13.9 | 0.00 | 0.00 | 0.00 | 1001.0 | |
| 20260507013728 | 0 | 270 | 7.0 | 13.9 | 0.00 | 0.00 | 0.00 | 1001.0 | |
| 20260507013718 | 0 | 225 | 7.0 | 13.9 | 0.00 | 0.00 | 0.00 | 1000.9 | |
| 20260507013658 | 0 | 248 | 7.0 | 13.9 | 0.00 | 0.00 | 0.00 | 1001.0 | |
| 20260507013648 | 0 | 270 | 7.0 | 13.9 | 0.00 | 0.00 | 0.00 | 1000.9 | |
| 20260507013638 | 0 | 225 | 7.0 | 13.9 | 0.00 | 0.00 | 0.00 | 1001.0 | |
| 20260507013628 | 0 | 225 | 7.0 | 13.9 | 0.00 | 0.00 | 0.00 | 1000.9 | |
| 20260507013618 | 0 | 225 | 7.8 | 13.9 | 0.00 | 0.00 | 0.00 | 1001.0 | |
| 20260507013608 | 0 | 248 | 7.8 | 13.9 | 0.00 | 0.00 | 0.00 | 1001.0 | |
| 20260507013558 | 0 | 225 | 8.7 | 13.9 | 0.00 | 0.00 | 0.00 | 1001.0 | |
| 20260507013548 | 0 | 225 | 8.7 | 13.9 | 0.00 | 0.00 | 0.00 | 1000.9 | |
| 20260507013538 | 0 | 248 | 8.7 | 13.9 | 0.00 | 0.00 | 0.00 | 1001.0 | |
| 20260507013528 | 0 | 270 | 8.7 | 13.9 | 0.00 | 0.00 | 0.00 | 1001.0 | |
| 20260507013458 | 0 | 225 | 8.7 | 13.9 | 0.00 | 0.00 | 0.00 | 1001.0 | |
| 20260507013448 | 0 | 225 | 8.7 | 13.9 | 0.00 | 0.00 | 0.00 | 1000.9 | |
| 20260507013438 | 0 | 270 | 8.7 | 13.0 | 0.00 | 0.00 | 0.00 | 1000.9 | |
| 20260507013359 | 0 | 225 | 7.8 | 12.2 | 0.00 | 0.00 | 0.00 | 1000.9 | |
| 20260507013348 | 0 | 270 | 7.0 | 13.9 | 0.00 | 0.00 | 0.00 | 1000.9 | |
| 20260507013339 | 0 | 225 | 7.0 | 13.9 | 0.00 | 0.00 | 0.00 | 1000.9 | |
| 20260507013259 | 0 | 225 | 7.0 | 13.9 | 0.00 | 0.00 | 0.00 | 1000.9 | |
| 20260507013249 | 0 | 225 | 7.8 | 13.9 | 0.00 | 0.00 | 0.00 | 1000.9 | |
| 20260507013239 | 0 | 248 | 7.8 | 13.9 | 0.00 | 0.00 | 0.00 | 1000.9 | |
| 20260507013229 | 0 | 225 | 8.7 | 13.9 | 0.00 | 0.00 | 0.00 | 1000.9 | |
| 20260507013149 | 0 | 225 | 8.7 | 13.9 | 0.00 | 0.00 | 0.00 | 1001.0 | |
| 20260507013139 | 0 | 270 | 8.7 | 13.9 | 0.00 | 0.00 | 0.00 | 1000.9 | |
| 20260507013109 | 0 | 225 | 8.7 | 13.9 | 0.00 | 0.00 | 0.00 | 1000.9 | |
| 20260507013059 | 0 | 248 | 9.6 | 13.9 | 0.00 | 0.00 | 0.00 | 1001.0 | |
| 20260507013049 | 0 | 270 | 9.6 | 13.9 | 0.00 | 0.00 | 0.00 | 1000.8 | |
| 20260507013039 | 0 | 248 | 9.6 | 13.9 | 0.00 | 0.00 | 0.00 | ||
| 20260507013019 | 0 | 225 | 8.7 | 13.9 | 0.00 | 0.00 | 0.00 | 1000.9 | |
| 20260507013009 | 0 | 248 | 8.7 | 13.9 | 0.00 | 0.00 | 0.00 | 1001.0 | |
| 20260507012949 | 0 | 225 | 8.7 | 13.9 | 0.00 | 0.00 | 0.00 | 1001.0 | |
| 20260507012939 | 0 | 225 | 8.7 | 13.9 | 0.00 | 0.00 | 0.00 | 1000.9 | |
| 20260507012919 | 0 | 225 | 9.6 | 13.9 | 0.00 | 0.00 | 0.00 | 1000.9 | |
| 20260507012859 | 0 | 270 | 9.6 | 13.9 | 0.00 | 0.00 | 0.00 | 1000.9 | |
| 20260507012849 | 0 | 270 | 9.6 | 13.0 | 0.00 | 0.00 | 0.00 | 1000.9 | |
| 20260507012839 | 0 | 225 | 8.7 | 12.2 | 0.00 | 0.00 | 0.00 | 1000.9 | |
| 20260507012819 | 0 | 270 | 8.7 | 12.2 | 0.00 | 0.00 | 0.00 | 1000.9 | |
| 20260507012809 | 0 | 270 | 7.8 | 12.2 | 0.00 | 0.00 | 0.00 | 1000.9 | |
| 20260507012749 | 0 | 225 | 7.0 | 12.2 | 0.00 | 0.00 | 0.00 | 1000.9 | |
| 20260507012739 | 0 | 225 | 7.0 | 12.2 | 0.00 | 0.00 | 0.00 | 1001.0 | |
| 20260507012729 | 0 | 270 | 7.0 | 12.2 | 0.00 | 0.00 | 0.00 | 1001.0 | |
| 20260507012719 | 0 | 248 | 7.0 | 12.2 | 0.00 | 0.00 | 0.00 | 1001.0 | |
| 20260507012709 | 0 | 225 | 7.8 | 12.2 | 0.00 | 0.00 | 0.00 | 1000.9 | |
| 20260507012659 | 0 | 225 | 8.7 | 12.2 | 0.00 | 0.00 | 0.00 | 1000.9 | |
| 20260507012649 | 0 | 225 | 8.7 | 12.2 | 0.00 | 0.00 | 0.00 | 1001.0 | |
| 20260507012620 | 0 | 248 | 8.7 | 12.2 | 0.00 | 0.00 | 0.00 | 1000.9 | |
| 20260507012610 | 0 | 225 | 8.7 | 12.2 | 0.00 | 0.00 | 0.00 | 1001.0 | |
| 20260507012530 | 0 | 225 | 8.7 | 12.2 | 0.00 | 0.00 | 0.00 | 1001.0 | |
| 20260507012510 | 0 | 248 | 8.7 | 12.2 | 0.00 | 0.00 | 0.00 | 1001.0 | |
| 20260507012500 | 0 | 270 | 8.7 | 12.2 | 0.00 | 0.00 | 0.00 | 1001.0 | |
| 20260507012450 | 0 | 270 | 7.8 | 12.2 | 0.00 | 0.00 | 0.00 | 1001.0 | |
| 20260507012430 | 0 | 225 | 7.8 | 12.2 | 0.00 | 0.00 | 0.00 | 1001.0 | |
| 20260507012420 | 0 | 225 | 7.0 | 12.2 | 0.00 | 0.00 | 0.00 | 1000.9 | |
| 20260507012400 | 0 | 225 | 7.0 | 12.2 | 0.00 | 0.00 | 0.00 | 1001.0 | |
| 20260507012350 | 0 | 225 | 7.8 | 12.2 | 0.00 | 0.00 | 0.00 | 1000.9 | |
| 20260507012340 | 0 | 270 | 7.8 | 12.2 | 0.00 | 0.00 | 0.00 | 1001.0 | |
| 20260507012330 | 0 | 248 | 7.8 | 12.2 | 0.00 | 0.00 | 0.00 | 1000.9 | |
| 20260507012310 | 0 | 270 | 7.0 | 12.2 | 0.00 | 0.00 | 0.00 | 1000.9 | |
| 20260507012250 | 0 | 225 | 7.0 | 12.2 | 0.00 | 0.00 | 0.00 | 1000.9 | |
| 20260507012220 | 0 | 270 | 7.0 | 12.2 | 0.00 | 0.00 | 0.00 | 1000.9 | |
| 20260507012210 | 0 | 225 | 7.0 | 12.2 | 0.00 | 0.00 | 0.00 | 1001.0 | |
| 20260507012200 | 0 | 225 | 7.0 | 12.2 | 0.00 | 0.00 | 0.00 | 1000.9 | |
| 20260507012150 | 0 | 225 | 7.8 | 12.2 | 0.00 | 0.00 | 0.00 | 1001.0 | |
| 20260507012140 | 0 | 248 | 7.8 | 12.2 | 0.00 | 0.00 | 0.00 | 1001.0 | |
| 20260507012130 | 0 | 270 | 7.8 | 12.2 | 0.00 | 0.00 | 0.00 | 1000.9 | |
| 20260507012110 | 0 | 248 | 8.7 | 12.2 | 0.00 | 0.00 | 0.00 | 1000.9 | |
| 20260507012100 | 0 | 270 | 8.7 | 12.2 | 0.00 | 0.00 | 0.00 | 1001.0 | |
| 20260507012050 | 0 | 225 | 7.8 | 12.2 | 0.00 | 0.00 | 0.00 | 1000.9 | |
| 20260507012040 | 53 | 225 | 7.8 | 12.2 | 0.00 | 0.00 | 0.00 | 79 | 1000.9 |
| 20260507012030 | 0 | 270 | 7.0 | 12.2 | 0.00 | 0.00 | 0.00 | 1000.9 | |
| 20260507012020 | 0 | 225 | 7.0 | 12.2 | 0.00 | 0.00 | 0.00 | 1000.9 | |
| 20260507012010 | 0 | 225 | 6.1 | 12.2 | 0.00 | 0.00 | 0.00 | 1000.9 | |
| 20260507012000 | 0 | 248 | 6.1 | 12.2 | 0.00 | 0.00 | 0.00 | 1000.9 | |
| 20260507011940 | 0 | 225 | 7.0 | 12.2 | 0.00 | 0.00 | 0.00 | 1001.0 | |
| 20260507011920 | 0 | 225 | 7.0 | 12.2 | 0.00 | 0.00 | 0.00 | 1000.9 | |
| 20260507011911 | 0 | 270 | 7.0 | 12.2 | 0.00 | 0.00 | 0.00 | 1000.8 | |
| 20260507011901 | 0 | 248 | 7.0 | 12.2 | 0.00 | 0.00 | 0.00 | 1000.9 | |
| 20260507011831 | 0 | 270 | 7.0 | 12.2 | 0.00 | 0.00 | 0.00 | 1000.9 | |
| 20260507011821 | 0 | 248 | 7.0 | 12.2 | 0.00 | 0.00 | 0.00 | 1000.9 | |
| 20260507011811 | 0 | 225 | 7.8 | 12.2 | 0.00 | 0.00 | 0.00 | 1000.9 | |
| 20260507011801 | 0 | 248 | 7.8 | 12.2 | 0.00 | 0.00 | 0.00 | 1000.9 | |
| 20260507011741 | 0 | 270 | 7.8 | 12.2 | 0.00 | 0.00 | 0.00 | 1000.9 | |
| 20260507011731 | 0 | 225 | 7.8 | 12.2 | 0.00 | 0.00 | 0.00 | 1000.9 | |
| 20260507011721 | 0 | 248 | 7.0 | 12.2 | 0.00 | 0.00 | 0.00 | 1000.9 | |
| 20260507011711 | 0 | 270 | 7.0 | 9.6 | 0.00 | 0.00 | 0.00 | 1000.9 | |
| 20260507011701 | 0 | 225 | 7.0 | 9.6 | 0.00 | 0.00 | 0.00 | 1000.9 | |
| 20260507011631 | 0 | 270 | 6.1 | 9.6 | 0.00 | 0.00 | 0.00 | 1000.9 | |
| 20260507011611 | 0 | 225 | 6.1 | 9.6 | 0.00 | 0.00 | 0.00 | 1000.9 | |
| 20260507011551 | 0 | 270 | 5.2 | 9.6 | 0.00 | 0.00 | 0.00 | 1000.8 | |
| 20260507011531 | 0 | 270 | 5.2 | 9.6 | 0.00 | 0.00 | 0.00 | 1000.9 | |
| 20260507011521 | 0 | 225 | 5.2 | 9.6 | 0.00 | 0.00 | 0.00 | 1000.8 | |
| 20260507011511 | 0 | 270 | 4.3 | 8.7 | 0.00 | 0.00 | 0.00 | 1000.9 | |
| 20260507011501 | 0 | 270 | 3.5 | 8.7 | 0.00 | 0.00 | 0.00 | 1000.9 | |
| 20260507011441 | 0 | 225 | 3.5 | 8.7 | 0.00 | 0.00 | 0.00 | 1000.9 | |
| 20260507011431 | 0 | 225 | 4.3 | 8.7 | 0.00 | 0.00 | 0.00 | 1000.9 | |
| 20260507011421 | 0 | 225 | 4.3 | 8.7 | 0.00 | 0.00 | 0.00 | 1000.8 | |
| 20260507011411 | 0 | 270 | 5.2 | 9.6 | 0.00 | 0.00 | 0.00 | 1000.9 | |
| 20260507011401 | 0 | 225 | 5.2 | 9.6 | 0.00 | 0.00 | 0.00 | 1000.8 | |
| 20260507011341 | 0 | 225 | 5.2 | 9.6 | 0.00 | 0.00 | 0.00 | 1000.9 | |
| 20260507011331 | 0 | 225 | 6.1 | 9.6 | 0.00 | 0.00 | 0.00 | 1000.8 | |
| 20260507011311 | 0 | 225 | 6.1 | 9.6 | 0.00 | 0.00 | 0.00 | 1000.9 | |
| 20260507011251 | 0 | 270 | 6.1 | 9.6 | 0.00 | 0.00 | 0.00 | 1000.9 | |
| 20260507011241 | 0 | 270 | 6.1 | 9.6 | 0.00 | 0.00 | 0.00 | 1000.8 | |
| 20260507011231 | 0 | 270 | 5.2 | 9.6 | 0.00 | 0.00 | 0.00 | 1000.9 | |
| 20260507011152 | 0 | 270 | 5.2 | 9.6 | 0.00 | 0.00 | 0.00 | 1000.9 | |
| 20260507011142 | 0 | 248 | 5.2 | 9.6 | 0.00 | 0.00 | 0.00 | 1000.9 | |
| 20260507011102 | 0 | 225 | 4.3 | 9.6 | 0.00 | 0.00 | 0.00 | 1000.8 | |
| 20260507011022 | 0 | 225 | 5.2 | 9.6 | 0.00 | 0.00 | 0.00 | 1000.8 | |
| 20260507011012 | 0 | 270 | 6.1 | 9.6 | 0.00 | 0.00 | 0.00 | 1000.8 | |
| 20260507010932 | 0 | 225 | 6.1 | 9.6 | 0.00 | 0.00 | 0.00 | 1000.8 | |
| 20260507010922 | 0 | 270 | 7.0 | 9.6 | 0.00 | 0.00 | 0.00 | 1000.9 | |
| 20260507010912 | 0 | 248 | 7.0 | 9.6 | 0.00 | 0.00 | 0.00 | 1000.9 | |
| 20260507010842 | 0 | 225 | 7.0 | 9.6 | 0.00 | 0.00 | 0.00 | 1000.9 | |
| 20260507010832 | 0 | 225 | 7.0 | 9.6 | 0.00 | 0.00 | 0.00 | 1000.8 | |
| 20260507010822 | 0 | 225 | 6.1 | 9.6 | 0.00 | 0.00 | 0.00 | 1000.8 | |
| 20260507010812 | 0 | 270 | 6.1 | 8.7 | 0.00 | 0.00 | 0.00 | ||
| 20260507010802 | 0 | 225 | 6.1 | 8.7 | 0.00 | 0.00 | 0.00 | 1000.9 | |
| 20260507010752 | 0 | 225 | 5.2 | 8.7 | 0.00 | 0.00 | 0.00 | 1000.9 | |
| 20260507010732 | 0 | 248 | 5.2 | 8.7 | 0.00 | 0.00 | 0.00 | 1000.9 | |
| 20260507010722 | 0 | 225 | 5.2 | 8.7 | 0.00 | 0.00 | 0.00 | 1000.8 | |
| 20260507010712 | 0 | 270 | 5.2 | 8.7 | 0.00 | 0.00 | 0.00 | 1000.9 | |
| 20260507010642 | 0 | 225 | 5.2 | 8.7 | 0.00 | 0.00 | 0.00 | 1000.9 | |
| 20260507010602 | 0 | 225 | 5.2 | 8.7 | 0.00 | 0.00 | 0.00 | 1000.8 | |
| 20260507010552 | 0 | 225 | 5.2 | 8.7 | 0.00 | 0.00 | 0.00 | 1000.9 | |
| 20260507010513 | 0 | 225 | 5.2 | 7.8 | 0.00 | 0.00 | 0.00 | 1000.8 | |
| 20260507010503 | 0 | 225 | 5.2 | 7.8 | 0.00 | 0.00 | 0.00 | 1000.9 | |
| 20260507010453 | 0 | 225 | 5.2 | 9.6 | 0.00 | 0.00 | 0.00 | 1000.8 | |
| 20260507010443 | 0 | 225 | 5.2 | 9.6 | 0.00 | 0.00 | 0.00 | 1000.9 | |
| 20260507010413 | 0 | 270 | 5.2 | 9.6 | 0.00 | 0.00 | 0.00 | 1000.8 | |
| 20260507010403 | 0 | 225 | 5.2 | 9.6 | 0.00 | 0.00 | 0.00 | 1000.9 | |
| 20260507010353 | 0 | 225 | 5.2 | 9.6 | 0.00 | 0.00 | 0.00 | 1000.8 | |
| 20260507010333 | 0 | 270 | 5.2 | 9.6 | 0.00 | 0.00 | 0.00 | 1000.8 | |
| 20260507010313 | 0 | 248 | 5.2 | 9.6 | 0.00 | 0.00 | 0.00 | 1000.8 | |
| 20260507010253 | 0 | 225 | 5.2 | 9.6 | 0.00 | 0.00 | 0.00 | 1000.8 | |
| 20260507010213 | 0 | 270 | 5.2 | 9.6 | 0.00 | 0.00 | 0.00 | 1000.8 | |
| 20260507010153 | 0 | 225 | 5.2 | 9.6 | 0.00 | 0.00 | 0.00 | 1000.8 | |
| 20260507010113 | 0 | 225 | 5.2 | 9.6 | 0.00 | 0.00 | 0.00 | 1000.8 | |
| 20260507010033 | 0 | 225 | 5.2 | 9.6 | 0.00 | 0.00 | 0.00 | 1000.8 | |
| 20260507010023 | 0 | 225 | 6.1 | 9.6 | 0.00 | 0.00 | 0.00 | 1000.8 | |
| 20260507010013 | 0 | 225 | 7.0 | 9.6 | 0.00 | 0.00 | 0.00 | 1000.8 | |
| 20260507010004 | 0 | 248 | 7.0 | 9.6 | 0.00 | 0.00 | 0.00 | 1000.8 | |
| 20260507005933 | 0 | 225 | 7.0 | 9.6 | 0.00 | 0.00 | 0.00 | 1000.8 | |
| 20260507005913 | 0 | 248 | 6.1 | 9.6 | 0.00 | 0.00 | 0.00 | 1000.8 | |
| 20260507005854 | 0 | 225 | 7.0 | 9.6 | 0.00 | 0.00 | 0.00 | 1000.8 | |
| 20260507005824 | 0 | 270 | 7.0 | 9.6 | 0.00 | 0.00 | 0.00 | 1000.7 | |
| 20260507005814 | 0 | 225 | 7.0 | 9.6 | 0.00 | 0.00 | 0.00 | 1000.8 | |
| 20260507005804 | 0 | 270 | 7.0 | 9.6 | 0.00 | 0.00 | 0.00 | 1000.8 | |
| 20260507005734 | 0 | 225 | 7.0 | 10.4 | 0.00 | 0.00 | 0.00 | 1000.8 | |
| 20260507005714 | 0 | 248 | 7.0 | 10.4 | 0.00 | 0.00 | 0.00 | 1000.9 | |
| 20260507005704 | 0 | 270 | 7.0 | 10.4 | 0.00 | 0.00 | 0.00 | 1000.8 | |
| 20260507005644 | 0 | 248 | 7.0 | 10.4 | 0.00 | 0.00 | 0.00 | 1000.8 | |
| 20260507005634 | 0 | 225 | 7.0 | 10.4 | 0.00 | 0.00 | 0.00 | 1000.8 | |
| 20260507005624 | 0 | 225 | 7.0 | 10.4 | 0.00 | 0.00 | 0.00 | 1000.7 | |
| 20260507005604 | 0 | 270 | 7.0 | 10.4 | 0.00 | 0.00 | 0.00 | 1000.8 | |
| 20260507005534 | 0 | 248 | 7.0 | 10.4 | 0.00 | 0.00 | 0.00 | 1000.8 | |
| 20260507005524 | 0 | 270 | 7.0 | 10.4 | 0.00 | 0.00 | 0.00 | 1000.8 | |
| 20260507005444 | 0 | 270 | 7.0 | 10.4 | 0.00 | 0.00 | 0.00 | 1000.8 | |
| 20260507005424 | 0 | 225 | 6.1 | 10.4 | 0.00 | 0.00 | 0.00 | 1000.8 | |
| 20260507005414 | 0 | 270 | 6.1 | 10.4 | 0.00 | 0.00 | 0.00 | 1000.8 | |
| 20260507005404 | 0 | 270 | 7.0 | 10.4 | 0.00 | 0.00 | 0.00 | 1000.8 | |
| 20260507005354 | 0 | 225 | 7.0 | 10.4 | 0.00 | 0.00 | 0.00 | 1000.8 | |
| 20260507005334 | 0 | 225 | 7.0 | 10.4 | 0.00 | 0.00 | 0.00 | 1000.7 | |
| 20260507005324 | 0 | 270 | 7.0 | 10.4 | 0.00 | 0.00 | 0.00 | 1000.8 | |
| 20260507005315 | 0 | 248 | 7.0 | 10.4 | 0.00 | 0.00 | 0.00 | 1000.8 | |
| 20260507005306 | 0 | 225 | 7.0 | 10.4 | 0.00 | 0.00 | 0.00 | 1000.8 | |
| 20260507005244 | 0 | 248 | 7.0 | 10.4 | 0.00 | 0.00 | 0.00 | 1000.7 | |
| 20260507005234 | 0 | 270 | 7.0 | 10.4 | 0.00 | 0.00 | 0.00 | 1000.7 | |
| 20260507005225 | 0 | 225 | 7.0 | 10.4 | 0.00 | 0.00 | 0.00 | 1000.8 | |
| 20260507005215 | 0 | 270 | 7.0 | 10.4 | 0.00 | 0.00 | 0.00 | 1000.8 | |
| 20260507005155 | 0 | 270 | 7.0 | 10.4 | 0.00 | 0.00 | 0.00 | 1000.7 | |
| 20260507005145 | 0 | 225 | 7.0 | 10.4 | 0.00 | 0.00 | 0.00 | 1000.8 | |
| 20260507005105 | 0 | 225 | 7.0 | 10.4 | 0.00 | 0.00 | 0.00 | 1000.7 | |
| 20260507005045 | 0 | 225 | 7.0 | 10.4 | 0.00 | 0.00 | 0.00 | 1000.8 | |
| 20260507005015 | 0 | 270 | 6.1 | 9.6 | 0.00 | 0.00 | 0.00 | 1000.7 | |
| 20260507005005 | 0 | 270 | 6.1 | 9.6 | 0.00 | 0.00 | 0.00 | 1000.8 | |
| 20260507004955 | 0 | 225 | 6.1 | 9.6 | 0.00 | 0.00 | 0.00 | 1000.8 | |
| 20260507004945 | 0 | 0 | 7.0 | 9.6 | 0.00 | 0.00 | 0.00 | 1000.8 | |
| 20260507004915 | 0 | 225 | 7.0 | 9.6 | 0.00 | 0.00 | 0.00 | 1000.8 | |
| 20260507004855 | 0 | 248 | 7.0 | 9.6 | 0.00 | 0.00 | 0.00 | 1000.8 | |
| 20260507004845 | 0 | 270 | 7.0 | 9.6 | 0.00 | 0.00 | 0.00 | 1000.8 | |
| 20260507004835 | 0 | 225 | 6.1 | 9.6 | 0.00 | 0.00 | 0.00 | 1000.8 | |
| 20260507004815 | 0 | 225 | 6.1 | 9.6 | 0.00 | 0.00 | 0.00 | 1000.7 | |
| 20260507004805 | 0 | 270 | 5.2 | 9.6 | 0.00 | 0.00 | 0.00 | 1000.8 | |
| 20260507004745 | 0 | 225 | 5.2 | 9.6 | 0.00 | 0.00 | 0.00 | 1000.7 | |
| 20260507004725 | 0 | 270 | 5.2 | 9.6 | 0.00 | 0.00 | 0.00 | 1000.7 | |
| 20260507004715 | 0 | 225 | 5.2 | 9.6 | 0.00 | 0.00 | 0.00 | 1000.8 | |
| 20260507004705 | 0 | 225 | 6.1 | 9.6 | 0.00 | 0.00 | 0.00 | 1000.7 | |
| 20260507004655 | 0 | 248 | 5.2 | 9.6 | 0.00 | 0.00 | 0.00 | 1000.7 | |
| 20260507004635 | 0 | 225 | 5.2 | 9.6 | 0.00 | 0.00 | 0.00 | 1000.7 | |
| 20260507004625 | 0 | 225 | 5.2 | 9.6 | 0.00 | 0.00 | 0.00 | 1000.6 | |
| 20260507004616 | 0 | 270 | 5.2 | 9.6 | 0.00 | 0.00 | 0.00 | 1000.7 | |
| 20260507004605 | 0 | 248 | 5.2 | 9.6 | 0.00 | 0.00 | 0.00 | 1000.8 | |
| 20260507004536 | 0 | 225 | 5.2 | 9.6 | 0.00 | 0.00 | 0.00 | 1000.8 | |
| 20260507004526 | 0 | 225 | 5.2 | 9.6 | 0.00 | 0.00 | 0.00 | 1000.7 | |
| 20260507004516 | 0 | 225 | 6.1 | 9.6 | 0.00 | 0.00 | 0.00 | 1000.8 | |
| 20260507004446 | 0 | 225 | 7.0 | 9.6 | 0.00 | 0.00 | 0.00 | 1000.8 | |
| 20260507004436 | 0 | 225 | 7.0 | 9.6 | 0.00 | 0.00 | 0.00 | 1000.7 | |
| 20260507004356 | 0 | 225 | 7.0 | 9.6 | 0.00 | 0.00 | 0.00 | 1000.8 | |
| 20260507004346 | 0 | 248 | 7.0 | 9.6 | 0.00 | 0.00 | 0.00 | 1000.7 | |
| 20260507004336 | 0 | 225 | 7.0 | 9.6 | 0.00 | 0.00 | 0.00 | 1000.7 | |
| 20260507004326 | 0 | 225 | 7.0 | 9.6 | 0.00 | 0.00 | 0.00 | 1000.6 | |
| 20260507004306 | 0 | 248 | 7.0 | 9.6 | 0.00 | 0.00 | 0.00 | 1000.7 | |
| 20260507004256 | 0 | 248 | 7.0 | 9.6 | 0.00 | 0.00 | 0.00 | 1000.8 | |
| 20260507004246 | 0 | 225 | 7.0 | 9.6 | 0.00 | 0.00 | 0.00 | 1000.7 | |
| 20260507004226 | 0 | 225 | 6.1 | 9.6 | 0.00 | 0.00 | 0.00 | 1000.7 | |
| 20260507004206 | 0 | 270 | 6.1 | 9.6 | 0.00 | 0.00 | 0.00 | 1000.8 | |
| 20260507004156 | 0 | 270 | 6.1 | 9.6 | 0.00 | 0.00 | 0.00 | 1000.7 | |
| 20260507004146 | 0 | 225 | 6.1 | 9.6 | 0.00 | 0.00 | 0.00 | 1000.8 | |
| 20260507004126 | 0 | 225 | 7.0 | 9.6 | 0.00 | 0.00 | 0.00 | 1000.8 | |
| 20260507004116 | 0 | 225 | 7.0 | 9.6 | 0.00 | 0.00 | 0.00 | 1000.7 | |
| 20260507004056 | 0 | 225 | 6.1 | 8.7 | 0.00 | 0.00 | 0.00 | 1000.7 | |
| 20260507004036 | 0 | 225 | 6.1 | 8.7 | 0.00 | 0.00 | 0.00 | 1000.8 | |
| 20260507004016 | 0 | 270 | 5.2 | 8.7 | 0.00 | 0.00 | 0.00 | 1000.7 | |
| 20260507003956 | 0 | 225 | 6.1 | 8.7 | 0.00 | 0.00 | 0.00 | 1000.7 | |
| 20260507003936 | 0 | 248 | 6.1 | 8.7 | 0.00 | 0.00 | 0.00 | 1000.7 | |
| 20260507003926 | 0 | 270 | 6.1 | 8.7 | 0.00 | 0.00 | 0.00 | 1000.7 | |
| 20260507003906 | 0 | 225 | 6.1 | 8.7 | 0.00 | 0.00 | 0.00 | 1000.8 | |
| 20260507003856 | 0 | 225 | 6.1 | 8.7 | 0.00 | 0.00 | 0.00 | 1000.7 | |
| 20260507003847 | 0 | 248 | 6.1 | 8.7 | 0.00 | 0.00 | 0.00 | 1000.7 | |
| 20260507003837 | 0 | 225 | 5.2 | 8.7 | 0.00 | 0.00 | 0.00 | 1000.8 | |
| 20260507003757 | 0 | 270 | 5.2 | 9.6 | 0.00 | 0.00 | 0.00 | 1000.7 | |
| 20260507003747 | 0 | 248 | 5.2 | 9.6 | 0.00 | 0.00 | 0.00 | 1000.7 | |
| 20260507003727 | 0 | 225 | 5.2 | 11.3 | 0.00 | 0.00 | 0.00 | 1000.7 | |
| 20260507003717 | 0 | 270 | 5.2 | 12.2 | 0.00 | 0.00 | 0.00 | 1000.8 | |
| 20260507003707 | 0 | 270 | 5.2 | 12.2 | 0.00 | 0.00 | 0.00 | 1000.6 | |
| 20260507003647 | 0 | 270 | 5.2 | 12.2 | 0.00 | 0.00 | 0.00 | 1000.7 | |
| 20260507003617 | 0 | 270 | 5.2 | 12.2 | 0.00 | 0.00 | 0.00 | 1000.8 | |
| 20260507003607 | 0 | 225 | 5.2 | 12.2 | 0.00 | 0.00 | 0.00 | 1000.7 | |
| 20260507003557 | 0 | 248 | 6.1 | 12.2 | 0.00 | 0.00 | 0.00 | 1000.8 | |
| 20260507003547 | 0 | 270 | 6.1 | 12.2 | 0.00 | 0.00 | 0.00 | 1000.7 | |
| 20260507003537 | 0 | 270 | 5.2 | 12.2 | 0.00 | 0.00 | 0.00 | 1000.7 | |
| 20260507003527 | 0 | 248 | 5.2 | 12.2 | 0.00 | 0.00 | 0.00 | 1000.7 | |
| 20260507003517 | 0 | 225 | 5.2 | 12.2 | 0.00 | 0.00 | 0.00 | 1000.8 | |
| 20260507003507 | 0 | 270 | 5.2 | 12.2 | 0.00 | 0.00 | 0.00 | 1000.8 | |
| 20260507003447 | 0 | 270 | 5.2 | 12.2 | 0.00 | 0.00 | 0.00 | 1000.7 | |
| 20260507003427 | 0 | 225 | 6.1 | 12.2 | 0.00 | 0.00 | 0.00 | 1000.7 | |
| 20260507003417 | 0 | 225 | 7.0 | 12.2 | 0.00 | 0.00 | 0.00 | 1000.7 | |
| 20260507003347 | 0 | 225 | 7.0 | 12.2 | 0.00 | 0.00 | 0.00 | 1000.8 | |
| 20260507003337 | 0 | 248 | 7.8 | 12.2 | 0.00 | 0.00 | 0.00 | 1000.8 | |
| 20260507003327 | 0 | 225 | 7.8 | 12.2 | 0.00 | 0.00 | 0.00 | 1000.8 | |
| 20260507003317 | 0 | 225 | 7.8 | 12.2 | 0.00 | 0.00 | 0.00 | 1000.9 | |
| 20260507003307 | 0 | 270 | 8.7 | 12.2 | 0.00 | 0.00 | 0.00 | 1000.8 | |
| 20260507003257 | 0 | 225 | 8.7 | 12.2 | 0.00 | 0.00 | 0.00 | 1000.8 | |
| 20260507003247 | 0 | 225 | 9.6 | 12.2 | 0.00 | 0.00 | 0.00 | 1000.8 | |
| 20260507003237 | 0 | 248 | 9.6 | 12.2 | 0.00 | 0.00 | 0.00 | 1000.9 | |
| 20260507003227 | 0 | 248 | 8.7 | 12.2 | 0.00 | 0.00 | 0.00 | 1000.8 | |
| 20260507003217 | 0 | 225 | 8.7 | 12.2 | 0.00 | 0.00 | 0.00 | 1000.8 | |
| 20260507003157 | 0 | 225 | 7.8 | 12.2 | 0.00 | 0.00 | 0.00 | 1000.8 | |
| 20260507003148 | 0 | 225 | 7.0 | 12.2 | 0.00 | 0.00 | 0.00 | 1000.8 | |
| 20260507003137 | 0 | 225 | 7.0 | 11.3 | 0.00 | 0.00 | 0.00 | 1000.8 | |
| 20260507003128 | 0 | 270 | 7.0 | 11.3 | 0.00 | 0.00 | 0.00 | 1000.7 | |
| 20260507003118 | 0 | 270 | 7.0 | 11.3 | 0.00 | 0.00 | 0.00 | 1000.8 | |
| 20260507003058 | 0 | 225 | 7.0 | 11.3 | 0.00 | 0.00 | 0.00 | 1000.8 | |
| 20260507003048 | 0 | 270 | 7.0 | 11.3 | 0.00 | 0.00 | 0.00 | 1000.7 | |
| 20260507003038 | 0 | 270 | 7.0 | 11.3 | 0.00 | 0.00 | 0.00 | 1000.8 | |
| 20260507003008 | 0 | 225 | 7.0 | 11.3 | 0.00 | 0.00 | 0.00 | 1000.7 | |
| 20260507002958 | 0 | 225 | 6.1 | 11.3 | 0.00 | 0.00 | 0.00 | 1000.8 | |
| 20260507002928 | 0 | 225 | 6.1 | 11.3 | 0.00 | 0.00 | 0.00 | 1000.7 | |
| 20260507002918 | 0 | 248 | 6.1 | 11.3 | 0.00 | 0.00 | 0.00 | 1000.7 | |
| 20260507002908 | 0 | 270 | 6.1 | 11.3 | 0.00 | 0.00 | 0.00 | 1000.7 | |
| 20260507002838 | 0 | 248 | 7.0 | 11.3 | 0.00 | 0.00 | 0.00 | 1000.7 | |
| 20260507002828 | 0 | 225 | 7.0 | 11.3 | 0.00 | 0.00 | 0.00 | 1000.8 | |
| 20260507002758 | 0 | 270 | 7.0 | 11.3 | 0.00 | 0.00 | 0.00 | 1000.7 | |
| 20260507002738 | 0 | 225 | 7.0 | 11.3 | 0.00 | 0.00 | 0.00 | 1000.7 | |
| 20260507002718 | 0 | 225 | 7.8 | 11.3 | 0.00 | 0.00 | 0.00 | 1000.7 | |
| 20260507002708 | 0 | 270 | 7.0 | 11.3 | 0.00 | 0.00 | 0.00 | 1000.7 | |
| 20260507002638 | 0 | 225 | 7.8 | 11.3 | 0.00 | 0.00 | 0.00 | 1000.7 | |
| 20260507002618 | 0 | 270 | 7.8 | 11.3 | 0.00 | 0.00 | 0.00 | 1000.7 | |
| 20260507002558 | 0 | 225 | 7.8 | 11.3 | 0.00 | 0.00 | 0.00 | 1000.7 | |
| 20260507002538 | 0 | 270 | 7.0 | 11.3 | 0.00 | 0.00 | 0.00 | 1000.7 | |
| 20260507002528 | 0 | 270 | 7.0 | 12.2 | 0.00 | 0.00 | 0.00 | 1000.7 | |
| 20260507002518 | 0 | 270 | 6.1 | 12.2 | 0.00 | 0.00 | 0.00 | 1000.8 | |
| 20260507002459 | 0 | 225 | 6.1 | 12.2 | 0.00 | 0.00 | 0.00 | 1000.7 | |
| 20260507002429 | 0 | 270 | 7.0 | 12.2 | 0.00 | 0.00 | 0.00 | 1000.7 | |
| 20260507002419 | 0 | 270 | 7.8 | 12.2 | 0.00 | 0.00 | 0.00 | 1000.7 | |
| 20260507002409 | 0 | 225 | 8.7 | 12.2 | 0.00 | 0.00 | 0.00 | 1000.7 | |
| 20260507002359 | 0 | 248 | 7.8 | 12.2 | 0.00 | 0.00 | 0.00 | 1000.7 | |
| 20260507002349 | 0 | 225 | 7.0 | 12.2 | 0.00 | 0.00 | 0.00 | 1000.7 | |
| 20260507002339 | 0 | 225 | 7.0 | 12.2 | 0.00 | 0.00 | 0.00 | 1000.6 | |
| 20260507002329 | 0 | 270 | 7.0 | 12.2 | 0.00 | 0.00 | 0.00 | 1000.7 | |
| 20260507002319 | 0 | 225 | 6.1 | 12.2 | 0.00 | 0.00 | 0.00 | 1000.7 | |
| 20260507002309 | 0 | 248 | 5.2 | 12.2 | 0.00 | 0.00 | 0.00 | 1000.8 | |
| 20260507002259 | 0 | 225 | 5.2 | 12.2 | 0.00 | 0.00 | 0.00 | 706.5 | |
| 20260507002249 | 0 | 225 | 5.2 | 12.2 | 0.00 | 0.00 | 0.00 | 1000.7 | |
| 20260507002239 | 0 | 270 | 6.1 | 12.2 | 0.00 | 0.00 | 0.00 | 1000.7 | |
| 20260507002229 | 0 | 270 | 7.0 | 12.2 | 0.00 | 0.00 | 0.00 | 1000.7 | |
| 20260507002219 | 0 | 225 | 7.0 | 12.2 | 0.00 | 0.00 | 0.00 | 1000.8 | |
| 20260507002149 | 0 | 225 | 7.0 | 12.2 | 0.00 | 0.00 | 0.00 | 1000.7 | |
| 20260507002139 | 0 | 225 | 7.8 | 12.2 | 0.00 | 0.00 | 0.00 | 1000.7 | |
| 20260507002119 | 0 | 270 | 7.8 | 12.2 | 0.00 | 0.00 | 0.00 | 1000.7 | |
| 20260507002109 | 0 | 225 | 8.7 | 12.2 | 0.00 | 0.00 | 0.00 | 1000.8 | |
| 20260507002059 | 0 | 225 | 8.7 | 12.2 | 0.00 | 0.00 | 0.00 | 1000.7 | |
| 20260507002039 | 0 | 270 | 8.7 | 12.2 | 0.00 | 0.00 | 0.00 | 1000.7 | |
| 20260507002029 | 0 | 225 | 8.7 | 12.2 | 0.00 | 0.00 | 0.00 | 1000.8 | |
| 20260507002019 | 0 | 225 | 9.6 | 12.2 | 0.00 | 0.00 | 0.00 | 1000.7 | |
| 20260507001959 | 0 | 225 | 8.7 | 12.2 | 0.00 | 0.00 | 0.00 | 1000.7 | |
| 20260507001949 | 0 | 270 | 8.7 | 12.2 | 0.00 | 0.00 | 0.00 | 1000.7 | |
| 20260507001929 | 0 | 225 | 8.7 | 12.2 | 0.00 | 0.00 | 0.00 | 1000.8 | |
| 20260507001919 | 0 | 248 | 7.8 | 12.2 | 0.00 | 0.00 | 0.00 | 1000.8 | |
| 20260507001909 | 0 | 225 | 7.8 | 12.2 | 0.00 | 0.00 | 0.00 | 1000.8 | |
| 20260507001859 | 0 | 270 | 7.8 | 12.2 | 0.00 | 0.00 | 0.00 | 1000.8 | |
| 20260507001839 | 0 | 270 | 7.8 | 12.2 | 0.00 | 0.00 | 0.00 | 1000.7 | |
| 20260507001829 | 0 | 225 | 8.7 | 12.2 | 0.00 | 0.00 | 0.00 | 1000.7 | |
| 20260507001820 | 0 | 225 | 7.8 | 12.2 | 0.00 | 0.00 | 0.00 | 1000.8 | |
| 20260507001800 | 0 | 248 | 7.8 | 12.2 | 0.00 | 0.00 | 0.00 | 1000.7 | |
| 20260507001750 | 0 | 225 | 7.8 | 12.2 | 0.00 | 0.00 | 0.00 | 1000.7 | |
| 20260507001740 | 0 | 225 | 7.8 | 12.2 | 0.00 | 0.00 | 0.00 | 1000.8 | |
| 20260507001730 | 0 | 248 | 7.0 | 12.2 | 0.00 | 0.00 | 0.00 | 1000.8 | |
| 20260507001720 | 0 | 270 | 7.8 | 12.2 | 0.00 | 0.00 | 0.00 | 1000.8 | |
| 20260507001700 | 0 | 225 | 7.8 | 12.2 | 0.00 | 0.00 | 0.00 | 1000.7 | |
| 20260507001650 | 0 | 248 | 8.7 | 12.2 | 0.00 | 0.00 | 0.00 | 1000.7 | |
| 20260507001640 | 0 | 225 | 8.7 | 12.2 | 0.00 | 0.00 | 0.00 | 1000.7 | |
| 20260507001630 | 0 | 225 | 8.7 | 12.2 | 0.00 | 0.00 | 0.00 | 1000.8 | |
| 20260507001620 | 0 | 248 | 7.8 | 12.2 | 0.00 | 0.00 | 0.00 | 1000.7 | |
| 20260507001600 | 0 | 225 | 7.0 | 12.2 | 0.00 | 0.00 | 0.00 | 1000.7 | |
| 20260507001550 | 0 | 270 | 7.0 | 11.3 | 0.00 | 0.00 | 0.00 | 1000.7 | |
| 20260507001540 | 0 | 270 | 6.1 | 12.2 | 0.00 | 0.00 | 0.00 | 1000.7 | |
| 20260507001500 | 0 | 225 | 7.0 | 12.2 | 0.00 | 0.00 | 0.00 | 1000.7 | |
| 20260507001450 | 0 | 225 | 6.1 | 12.2 | 0.00 | 0.00 | 0.00 | 1000.7 | |
| 20260507001420 | 0 | 225 | 7.0 | 12.2 | 0.00 | 0.00 | 0.00 | 1000.7 | |
| 20260507001340 | 0 | 225 | 7.0 | 12.2 | 0.00 | 0.00 | 0.00 | 1000.7 | |
| 20260507001320 | 0 | 270 | 6.1 | 12.2 | 0.00 | 0.00 | 0.00 | 1000.7 | |
| 20260507001300 | 0 | 225 | 6.1 | 12.2 | 0.00 | 0.00 | 0.00 | 1000.7 | |
| 20260507001250 | 0 | 225 | 5.2 | 12.2 | 0.00 | 0.00 | 0.00 | 1000.8 | |
| 20260507001240 | 0 | 203 | 5.2 | 12.2 | 0.00 | 0.00 | 0.00 | 1000.7 | |
| 20260507001230 | 0 | 270 | 5.2 | 12.2 | 0.00 | 0.00 | 0.00 | 1000.7 | |
| 20260507001210 | 0 | 225 | 5.2 | 12.2 | 0.00 | 0.00 | 0.00 | 1000.7 | |
| 20260507001151 | 0 | 225 | 6.1 | 12.2 | 0.00 | 0.00 | 0.00 | 1000.7 | |
| 20260507001130 | 0 | 225 | 7.0 | 12.2 | 0.00 | 0.00 | 0.00 | 1000.7 | |
| 20260507001101 | 0 | 225 | 7.0 | 13.0 | 0.00 | 0.00 | 0.00 | 1000.7 | |
| 20260507001051 | 0 | 270 | 6.1 | 13.0 | 0.00 | 0.00 | 0.00 | 1000.8 | |
| 20260507001041 | 0 | 225 | 5.2 | 13.0 | 0.00 | 0.00 | 0.00 | 1000.7 | |
| 20260507001031 | 0 | 248 | 5.2 | 13.0 | 0.00 | 0.00 | 0.00 | 1000.7 | |
| 20260507001011 | 0 | 270 | 5.2 | 13.0 | 0.00 | 0.00 | 0.00 | 1000.7 | |
| 20260507001001 | 0 | 225 | 5.2 | 13.0 | 0.00 | 0.00 | 0.00 | 1000.7 | |
| 20260507000931 | 0 | 225 | 5.2 | 13.0 | 0.00 | 0.00 | 0.00 | 1000.8 | |
| 20260507000921 | 0 | 248 | 5.2 | 13.0 | 0.00 | 0.00 | 0.00 | 1000.8 | |
| 20260507000901 | 0 | 225 | 5.2 | 13.0 | 0.00 | 0.00 | 0.00 | 1000.7 | |
| 20260507000851 | 0 | 270 | 6.1 | 13.0 | 0.00 | 0.00 | 0.00 | 1000.7 | |
| 20260507000821 | 0 | 225 | 6.1 | 13.0 | 0.00 | 0.00 | 0.00 | 1000.8 | |
| 20260507000751 | 0 | 225 | 7.0 | 13.0 | 0.00 | 0.00 | 0.00 | 1000.8 | |
| 20260507000741 | 0 | 225 | 7.8 | 13.0 | 0.00 | 0.00 | 0.00 | 1000.8 | |
| 20260507000731 | 0 | 225 | 8.7 | 13.0 | 0.00 | 0.00 | 0.00 | 1000.8 | |
| 20260507000711 | 0 | 270 | 8.7 | 13.0 | 0.00 | 0.00 | 0.00 | 1000.8 | |
| 20260507000701 | 0 | 225 | 8.7 | 13.0 | 0.00 | 0.00 | 0.00 | 1000.7 | |
| 20260507000651 | 0 | 225 | 8.7 | 13.0 | 0.00 | 0.00 | 0.00 | 1000.8 | |
| 20260507000641 | 0 | 225 | 7.0 | 13.0 | 0.00 | 0.00 | 0.00 | 1000.7 | |
| 20260507000631 | 0 | 225 | 7.0 | 13.0 | 0.00 | 0.00 | 0.00 | 1000.8 | |
| 20260507000621 | 0 | 225 | 7.0 | 12.2 | 0.00 | 0.00 | 0.00 | 1000.8 | |
| 20260507000611 | 0 | 225 | 6.1 | 11.3 | 0.00 | 0.00 | 0.00 | 1000.8 | |
| 20260507000551 | 54 | 225 | 5.2 | 11.3 | 0.00 | 0.00 | 0.00 | 77 | 1000.7 |
| 20260507000541 | 0 | 225 | 5.2 | 11.3 | 0.00 | 0.00 | 0.00 | 1000.8 | |
| 20260507000531 | 54 | 225 | 5.2 | 11.3 | 0.00 | 0.00 | 0.00 | 76 | 1000.7 |
| 20260507000521 | 0 | 225 | 4.3 | 8.7 | 0.00 | 0.00 | 0.00 | 1000.8 | |
| 20260507000501 | 0 | 225 | 4.3 | 10.4 | 0.00 | 0.00 | 0.00 | 1000.8 | |
| 20260507000451 | 0 | 225 | 4.3 | 10.4 | 0.00 | 0.00 | 0.00 | 1000.7 | |
| 20260507000442 | 0 | 225 | 3.5 | 10.4 | 0.00 | 0.00 | 0.00 | 1000.8 | |
| 20260507000432 | 0 | 270 | 3.5 | 10.4 | 0.00 | 0.00 | 0.00 | 1000.8 | |
| 20260507000412 | 0 | 180 | 3.5 | 10.4 | 0.00 | 0.00 | 0.00 | 1000.8 | |
| 20260507000402 | 0 | 225 | 3.5 | 10.4 | 0.00 | 0.00 | 0.00 | 1000.7 | |
| 20260507000352 | 0 | 270 | 3.5 | 10.4 | 0.00 | 0.00 | 0.00 | 1000.7 | |
| 20260507000332 | 0 | 225 | 3.5 | 10.4 | 0.00 | 0.00 | 0.00 | 1000.8 | |
| 20260507000322 | 0 | 180 | 3.5 | 10.4 | 0.00 | 0.00 | 0.00 | 1000.7 | |
| 20260507000314 | 0 | 225 | 3.5 | 10.4 | 0.00 | 0.00 | 0.00 | 1000.7 | |
| 20260507000242 | 0 | 225 | 3.5 | 10.4 | 0.00 | 0.00 | 0.00 | 1000.8 | |
| 20260507000233 | 0 | 270 | 3.5 | 10.4 | 0.00 | 0.00 | 0.00 | 1000.8 | |
| 20260507000222 | 0 | 225 | 4.3 | 10.4 | 0.00 | 0.00 | 0.00 | 1000.7 | |
| 20260507000212 | 0 | 225 | 5.2 | 10.4 | 0.00 | 0.00 | 0.00 | 1000.8 | |
| 20260507000152 | 0 | 225 | 5.2 | 10.4 | 0.00 | 0.00 | 0.00 | 1000.7 | |
| 20260507000132 | 0 | 225 | 5.2 | 10.4 | 0.00 | 0.00 | 0.00 | 1000.8 | |
| 20260507000122 | 0 | 270 | 5.2 | 10.4 | 0.00 | 0.00 | 0.00 | 1000.7 | |
| 20260507000112 | 0 | 225 | 5.2 | 10.4 | 0.00 | 0.00 | 0.00 | 1000.7 | |
| 20260507000052 | 0 | 225 | 5.2 | 10.4 | 0.00 | 0.00 | 0.00 | 1000.8 | |
| 20260507000032 | 0 | 225 | 6.1 | 10.4 | 0.00 | 0.00 | 0.00 | 1000.7 | |
| 20260507000023 | 0 | 225 | 6.1 | 10.4 | 0.00 | 0.00 | 0.00 | 1000.8 | |
| 20260507000012 | 0 | 225 | 5.2 | 9.6 | 0.00 | 0.00 | 0.00 | 1000.7 | |
| 20260507000002 | 0 | 225 | 5.2 | 9.6 | 0.00 | 0.00 | 0.00 | 1000.8 | |
| 20260506235952 | 0 | 225 | 4.3 | 9.6 | 0.00 | 0.00 | 0.00 | 1000.8 | |
| 20260506235942 | 0 | 270 | 3.5 | 9.6 | 0.00 | 0.00 | 0.00 | 1000.7 | |
| 20260506235922 | 0 | 225 | 3.5 | 9.6 | 0.00 | 0.00 | 0.00 | 1000.7 | |
| 20260506235912 | 0 | 225 | 3.5 | 9.6 | 0.00 | 0.00 | 0.00 | 1000.8 | |
| 20260506235902 | 0 | 225 | 4.3 | 9.6 | 0.00 | 0.00 | 0.00 | 1000.7 | |
| 20260506235852 | 0 | 225 | 5.2 | 9.6 | 0.00 | 0.00 | 0.00 | 1000.8 | |
| 20260506235832 | 0 | 225 | 5.2 | 9.6 | 0.00 | 0.00 | 0.00 | 1000.7 | |
| 20260506235823 | 0 | 270 | 5.2 | 9.6 | 0.00 | 0.00 | 0.00 | 1000.7 | |
| 20260506235813 | 0 | 225 | 5.2 | 9.6 | 0.00 | 0.00 | 0.00 | 1000.8 | |
| 20260506235803 | 0 | 225 | 4.3 | 9.6 | 0.00 | 0.00 | 0.00 | 1000.8 | |
| 20260506235733 | 0 | 225 | 5.2 | 9.6 | 0.00 | 0.00 | 0.00 | 1000.8 | |
| 20260506235723 | 0 | 225 | 5.2 | 9.6 | 0.00 | 0.00 | 0.00 | 1000.7 | |
| 20260506235713 | 0 | 225 | 6.1 | 9.6 | 0.00 | 0.00 | 0.00 | 1000.7 | |
| 20260506235703 | 0 | 225 | 7.0 | 9.6 | 0.00 | 0.00 | 0.00 | 1000.8 | |
| 20260506235623 | 0 | 225 | 6.1 | 9.6 | 0.00 | 0.00 | 0.00 | 1000.8 | |
| 20260506235553 | 0 | 225 | 5.2 | 9.6 | 0.00 | 0.00 | 0.00 | 1000.7 | |
| 20260506235543 | 0 | 225 | 5.2 | 9.6 | 0.00 | 0.00 | 0.00 | 1000.8 | |
| 20260506235533 | 0 | 225 | 4.3 | 9.6 | 0.00 | 0.00 | 0.00 | 1000.8 | |
| 20260506235523 | 0 | 225 | 3.5 | 7.8 | 0.00 | 0.00 | 0.00 | 1000.7 | |
| 20260506235513 | 54 | 225 | 4.3 | 7.8 | 0.00 | 0.00 | 0.00 | 77 | 1000.7 |
| 20260506235453 | 0 | 225 | 5.2 | 7.8 | 0.00 | 0.00 | 0.00 | 1000.7 | |
| 20260506235443 | 0 | 270 | 5.2 | 7.8 | 0.00 | 0.00 | 0.00 | 1000.7 | |
| 20260506235423 | 0 | 225 | 6.1 | 7.8 | 0.00 | 0.00 | 0.00 | 1000.7 | |
| 20260506235403 | 0 | 225 | 5.2 | 7.8 | 0.00 | 0.00 | 0.00 | 1000.7 | |
| 20260506235353 | 0 | 248 | 5.2 | 7.8 | 0.00 | 0.00 | 0.00 | 1000.7 | |
| 20260506235343 | 0 | 225 | 4.3 | 7.8 | 0.00 | 0.00 | 0.00 | 1000.8 | |
| 20260506235313 | 0 | 225 | 3.5 | 7.0 | 0.00 | 0.00 | 0.00 | 1000.7 | |
| 20260506235243 | 0 | 270 | 3.5 | 7.0 | 0.00 | 0.00 | 0.00 | 1000.7 | |
| 20260506235233 | 0 | 225 | 3.5 | 7.0 | 0.00 | 0.00 | 0.00 | 1000.7 | |
| 20260506235223 | 0 | 248 | 3.5 | 7.0 | 0.00 | 0.00 | 0.00 | 1000.7 | |
| 20260506235153 | 0 | 225 | 3.5 | 7.0 | 0.00 | 0.00 | 0.00 | 1000.8 | |
| 20260506235143 | 0 | 225 | 3.5 | 7.0 | 0.00 | 0.00 | 0.00 | 1000.7 | |
| 20260506235114 | 0 | 225 | 3.5 | 7.0 | 0.00 | 0.00 | 0.00 | 1000.8 | |
| 20260506235104 | 0 | 225 | 3.5 | 7.0 | 0.00 | 0.00 | 0.00 | 1000.7 | |
| 20260506235034 | 0 | 225 | 3.5 | 7.0 | 0.00 | 0.00 | 0.00 | 1000.8 | |
| 20260506235024 | 0 | 225 | 3.5 | 7.0 | 0.00 | 0.00 | 0.00 | 1000.7 | |
| 20260506235014 | 0 | 225 | 3.5 | 7.8 | 0.00 | 0.00 | 0.00 | 1000.7 | |
| 20260506235004 | 0 | 225 | 3.5 | 8.7 | 0.00 | 0.00 | 0.00 | 1000.8 | |
| 20260506234954 | 0 | 225 | 2.6 | 8.7 | 0.00 | 0.00 | 0.00 | 1000.8 | |
| 20260506234924 | 0 | 225 | 1.7 | 8.7 | 0.00 | 0.00 | 0.00 | 1000.8 | |
| 20260506234914 | 0 | 225 | 1.7 | 8.7 | 0.00 | 0.00 | 0.00 | 1000.7 | |
| 20260506234904 | 0 | 180 | 1.7 | 8.7 | 0.00 | 0.00 | 0.00 | 1000.8 | |
| 20260506234854 | 0 | 180 | 2.6 | 9.6 | 0.00 | 0.00 | 0.00 | 1000.8 | |
| 20260506234834 | 0 | 225 | 3.5 | 9.6 | 0.00 | 0.00 | 0.00 | 1000.7 | |
| 20260506234824 | 0 | 225 | 3.5 | 9.6 | 0.00 | 0.00 | 0.00 | 1000.8 | |
| 20260506234814 | 0 | 248 | 4.3 | 9.6 | 0.00 | 0.00 | 0.00 | 1000.8 | |
| 20260506234755 | 0 | 180 | 4.3 | 9.6 | 0.00 | 0.00 | 0.00 | 1000.8 | |
| 20260506234744 | 0 | 225 | 4.3 | 9.6 | 0.00 | 0.00 | 0.00 | 1000.8 | |
| 20260506234734 | 0 | 225 | 3.5 | 9.6 | 0.00 | 0.00 | 0.00 | 1000.8 | |
| 20260506234724 | 0 | 225 | 3.5 | 9.6 | 0.00 | 0.00 | 0.00 | 1000.7 | |
| 20260506234714 | 0 | 225 | 3.5 | 11.3 | 0.00 | 0.00 | 0.00 | 1000.8 | |
| 20260506234644 | 0 | 225 | 4.3 | 11.3 | 0.00 | 0.00 | 0.00 | 1000.8 | |
| 20260506234634 | 0 | 248 | 4.3 | 11.3 | 0.00 | 0.00 | 0.00 | 1000.8 | |
| 20260506234614 | 0 | 225 | 5.2 | 11.3 | 0.00 | 0.00 | 0.00 | 1000.8 | |
| 20260506234534 | 0 | 225 | 5.2 | 11.3 | 0.00 | 0.00 | 0.00 | 1000.8 | |
| 20260506234505 | 0 | 248 | 5.2 | 11.3 | 0.00 | 0.00 | 0.00 | 1000.8 | |
| 20260506234455 | 0 | 225 | 5.2 | 11.3 | 0.00 | 0.00 | 0.00 | 1000.8 | |
| 20260506234425 | 0 | 270 | 7.0 | 11.3 | 0.00 | 0.00 | 0.00 | 1000.8 | |
| 20260506234415 | 0 | 225 | 6.1 | 11.3 | 0.00 | 0.00 | 0.00 | 1000.8 | |
| 20260506234405 | 0 | 225 | 7.0 | 11.3 | 0.00 | 0.00 | 0.00 | 1000.7 | |
| 20260506234355 | 0 | 225 | 7.0 | 11.3 | 0.00 | 0.00 | 0.00 | 1000.8 | |
| 20260506234345 | 0 | 270 | 6.1 | 11.3 | 0.00 | 0.00 | 0.00 | 1000.8 | |
| 20260506234335 | 0 | 270 | 5.2 | 11.3 | 0.00 | 0.00 | 0.00 | 1000.7 | |
| 20260506234315 | 0 | 225 | 5.2 | 11.3 | 0.00 | 0.00 | 0.00 | 1000.8 | |
| 20260506234245 | 0 | 225 | 5.2 | 11.3 | 0.00 | 0.00 | 0.00 | 1000.7 | |
| 20260506234235 | 0 | 225 | 6.1 | 11.3 | 0.00 | 0.00 | 0.00 | 1000.7 | |
| 20260506234225 | 0 | 270 | 6.1 | 11.3 | 0.00 | 0.00 | 0.00 | 1000.8 | |
| 20260506234215 | 0 | 270 | 6.1 | 9.6 | 0.00 | 0.00 | 0.00 | 1000.7 | |
| 20260506234205 | 0 | 270 | 5.2 | 9.6 | 0.00 | 0.00 | 0.00 | 1000.7 | |
| 20260506234135 | 0 | 225 | 5.2 | 9.6 | 0.00 | 0.00 | 0.00 | 1000.8 | |
| 20260506234125 | 0 | 225 | 5.2 | 9.6 | 0.00 | 0.00 | 0.00 | 1000.7 | |
| 20260506234105 | 0 | 225 | 5.2 | 8.7 | 0.00 | 0.00 | 0.00 | 1000.6 | |
| 20260506234055 | 0 | 225 | 5.2 | 8.7 | 0.00 | 0.00 | 0.00 | 1000.7 | |
| 20260506234045 | 0 | 225 | 6.1 | 8.7 | 0.00 | 0.00 | 0.00 | 1000.7 | |
| 20260506234035 | 0 | 270 | 6.1 | 8.7 | 0.00 | 0.00 | 0.00 | 1000.7 | |
| 20260506233955 | 0 | 225 | 6.1 | 8.7 | 0.00 | 0.00 | 0.00 | 1000.8 | |
| 20260506233945 | 0 | 225 | 5.2 | 8.7 | 0.00 | 0.00 | 0.00 | 1000.7 | |
| 20260506233935 | 0 | 248 | 5.2 | 8.7 | 0.00 | 0.00 | 0.00 | 1000.7 | |
| 20260506233925 | 0 | 270 | 6.1 | 8.7 | 0.00 | 0.00 | 0.00 | 1000.7 | |
| 20260506233915 | 0 | 225 | 6.1 | 8.7 | 0.00 | 0.00 | 0.00 | 1000.7 | |
| 20260506233835 | 0 | 225 | 6.1 | 8.7 | 0.00 | 0.00 | 0.00 | 1000.7 | |
| 20260506233825 | 0 | 270 | 6.1 | 8.7 | 0.00 | 0.00 | 0.00 | 1000.7 | |
| 20260506233815 | 0 | 225 | 6.1 | 8.7 | 0.00 | 0.00 | 0.00 | 1000.8 | |
| 20260506233756 | 0 | 225 | 6.1 | 8.7 | 0.00 | 0.00 | 0.00 | 1000.7 | |
| 20260506233716 | 0 | 270 | 6.1 | 8.7 | 0.00 | 0.00 | 0.00 | 1000.7 | |
| 20260506233706 | 0 | 248 | 6.1 | 8.7 | 0.00 | 0.00 | 0.00 | 1000.7 | |
| 20260506233646 | 0 | 225 | 6.1 | 8.7 | 0.00 | 0.00 | 0.00 | 1000.8 | |
| 20260506233636 | 0 | 225 | 6.1 | 8.7 | 0.00 | 0.00 | 0.00 | 1000.7 | |
| 20260506233626 | 0 | 248 | 6.1 | 8.7 | 0.00 | 0.00 | 0.00 | 1000.7 | |
| 20260506233606 | 0 | 225 | 6.1 | 9.6 | 0.00 | 0.00 | 0.00 | 1000.7 | |
| 20260506233556 | 0 | 270 | 5.2 | 9.6 | 0.00 | 0.00 | 0.00 | 1000.7 | |
| 20260506233546 | 0 | 225 | 5.2 | 9.6 | 0.00 | 0.00 | 0.00 | 1000.7 | |
| 20260506233516 | 0 | 270 | 5.2 | 9.6 | 0.00 | 0.00 | 0.00 | 1000.7 | |
| 20260506233506 | 0 | 248 | 5.2 | 9.6 | 0.00 | 0.00 | 0.00 | 1000.7 | |
| 20260506233436 | 0 | 225 | 5.2 | 9.6 | 0.00 | 0.00 | 0.00 | 1000.7 | |
| 20260506233406 | 0 | 270 | 5.2 | 9.6 | 0.00 | 0.00 | 0.00 | 1000.7 | |
| 20260506233356 | 0 | 225 | 5.2 | 9.6 | 0.00 | 0.00 | 0.00 | 1000.8 | |
| 20260506233347 | 0 | 225 | 5.2 | 9.6 | 0.00 | 0.00 | 0.00 | 1000.7 | |
| 20260506233326 | 0 | 225 | 6.1 | 9.6 | 0.00 | 0.00 | 0.00 | 1000.7 | |
| 20260506233306 | 0 | 225 | 5.2 | 9.6 | 0.00 | 0.00 | 0.00 | 1000.7 | |
| 20260506233256 | 0 | 270 | 5.2 | 9.6 | 0.00 | 0.00 | 0.00 | 1000.7 | |
| 20260506233236 | 0 | 225 | 4.3 | 9.6 | 0.00 | 0.00 | 0.00 | 1000.7 | |
| 20260506233216 | 0 | 225 | 5.2 | 9.6 | 0.00 | 0.00 | 0.00 | 1000.8 | |
| 20260506233206 | 0 | 225 | 5.2 | 9.6 | 0.00 | 0.00 | 0.00 | 1000.7 | |
| 20260506233136 | 0 | 225 | 6.1 | 9.6 | 0.00 | 0.00 | 0.00 | 1000.7 | |
| 20260506233126 | 0 | 225 | 6.1 | 9.6 | 0.00 | 0.00 | 0.00 | 1000.8 | |
| 20260506233116 | 0 | 248 | 6.1 | 9.6 | 0.00 | 0.00 | 0.00 | 1000.7 | |
| 20260506233047 | 0 | 225 | 6.1 | 9.6 | 0.00 | 0.00 | 0.00 | 1000.7 | |
| 20260506233027 | 0 | 225 | 7.0 | 9.6 | 0.00 | 0.00 | 0.00 | 1000.7 | |
| 20260506232947 | 0 | 225 | 7.0 | 9.6 | 0.00 | 0.00 | 0.00 | 1000.7 | |
| 20260506232937 | 0 | 225 | 6.1 | 9.6 | 0.00 | 0.00 | 0.00 | 1000.7 | |
| 20260506232917 | 0 | 225 | 5.2 | 9.6 | 0.00 | 0.00 | 0.00 | 1000.8 | |
| 20260506232907 | 0 | 248 | 5.2 | 9.6 | 0.00 | 0.00 | 0.00 | 1000.7 | |
| 20260506232857 | 0 | 225 | 5.2 | 9.6 | 0.00 | 0.00 | 0.00 | 1000.7 | |
| 20260506232837 | 0 | 225 | 6.1 | 9.6 | 0.00 | 0.00 | 0.00 | 1000.7 | |
| 20260506232827 | 0 | 180 | 6.1 | 9.6 | 0.00 | 0.00 | 0.00 | 1000.7 | |
| 20260506232817 | 0 | 225 | 7.0 | 9.6 | 0.00 | 0.00 | 0.00 | 1000.7 | |
| 20260506232757 | 0 | 225 | 6.1 | 9.6 | 0.00 | 0.00 | 0.00 | 1000.6 | |
| 20260506232707 | 0 | 225 | 6.1 | 9.6 | 0.00 | 0.00 | 0.00 | 1000.7 | |
| 20260506232627 | 0 | 225 | 5.2 | 9.6 | 0.00 | 0.00 | 0.00 | 1000.7 | |
| 20260506232617 | 0 | 225 | 5.2 | 10.4 | 0.00 | 0.00 | 0.00 | 1000.7 | |
| 20260506232607 | 0 | 248 | 6.1 | 11.3 | 0.00 | 0.00 | 0.00 | 1000.6 | |
| 20260506232557 | 0 | 248 | 7.0 | 11.3 | 0.00 | 0.00 | 0.00 | 1000.7 | |
| 20260506232527 | 0 | 225 | 7.0 | 11.3 | 0.00 | 0.00 | 0.00 | 1000.7 | |
| 20260506232517 | 0 | 225 | 6.1 | 11.3 | 0.00 | 0.00 | 0.00 | 1000.6 | |
| 20260506232507 | 0 | 225 | 6.1 | 11.3 | 0.00 | 0.00 | 0.00 | 1000.7 | |
| 20260506232457 | 0 | 225 | 5.2 | 11.3 | 0.00 | 0.00 | 0.00 | 1000.7 | |
| 20260506232427 | 0 | 225 | 5.2 | 11.3 | 0.00 | 0.00 | 0.00 | 1000.6 | |
| 20260506232358 | 0 | 248 | 5.2 | 11.3 | 0.00 | 0.00 | 0.00 | 1000.7 | |
| 20260506232348 | 0 | 225 | 5.2 | 11.3 | 0.00 | 0.00 | 0.00 | 1000.7 | |
| 20260506232338 | 0 | 225 | 5.2 | 11.3 | 0.00 | 0.00 | 0.00 | 1000.6 | |
| 20260506232308 | 0 | 225 | 4.3 | 11.3 | 0.00 | 0.00 | 0.00 | 1000.6 | |
| 20260506232258 | 0 | 225 | 4.3 | 11.3 | 0.00 | 0.00 | 0.00 | 1000.7 | |
| 20260506232248 | 0 | 180 | 4.3 | 11.3 | 0.00 | 0.00 | 0.00 | 1000.6 | |
| 20260506232228 | 0 | 225 | 5.2 | 11.3 | 0.00 | 0.00 | 0.00 | 1000.7 | |
| 20260506232218 | 0 | 225 | 6.1 | 11.3 | 0.00 | 0.00 | 0.00 | 1000.7 | |
| 20260506232208 | 0 | 225 | 7.0 | 11.3 | 0.00 | 0.00 | 0.00 | 1000.7 | |
| 20260506232128 | 0 | 225 | 7.0 | 11.3 | 0.00 | 0.00 | 0.00 | 1000.7 | |
| 20260506232118 | 0 | 225 | 6.1 | 11.3 | 0.00 | 0.00 | 0.00 | 1000.7 | |
| 20260506232108 | 0 | 270 | 6.1 | 10.4 | 0.00 | 0.00 | 0.00 | 1000.6 | |
| 20260506232058 | 0 | 225 | 5.2 | 9.6 | 0.00 | 0.00 | 0.00 | 1000.7 | |
| 20260506232048 | 0 | 225 | 6.1 | 9.6 | 0.00 | 0.00 | 0.00 | 1000.7 | |
| 20260506232028 | 0 | 225 | 7.0 | 9.6 | 0.00 | 0.00 | 0.00 | 1000.7 | |
| 20260506231958 | 0 | 225 | 6.1 | 9.6 | 0.00 | 0.00 | 0.00 | 1000.7 | |
| 20260506231948 | 0 | 225 | 5.2 | 9.6 | 0.00 | 0.00 | 0.00 | 1000.7 | |
| 20260506231938 | 0 | 203 | 5.2 | 9.6 | 0.00 | 0.00 | 0.00 | 1000.7 | |
| 20260506231928 | 0 | 248 | 4.3 | 9.6 | 0.00 | 0.00 | 0.00 | 1000.7 | |
| 20260506231918 | 0 | 225 | 4.3 | 10.4 | 0.00 | 0.00 | 0.00 | 1000.8 | |
| 20260506231908 | 0 | 225 | 4.3 | 10.4 | 0.00 | 0.00 | 0.00 | 1000.7 | |
| 20260506231858 | 0 | 225 | 3.5 | 10.4 | 0.00 | 0.00 | 0.00 | 1000.7 | |
| 20260506231848 | 0 | 225 | 3.5 | 11.3 | 0.00 | 0.00 | 0.00 | 1000.7 | |
| 20260506231838 | 0 | 203 | 3.5 | 11.3 | 0.00 | 0.00 | 0.00 | 1000.7 | |
| 20260506231818 | 0 | 203 | 3.5 | 11.3 | 0.00 | 0.00 | 0.00 | 1000.8 | |
| 20260506231808 | 0 | 225 | 3.5 | 11.3 | 0.00 | 0.00 | 0.00 | 1000.8 | |
| 20260506231758 | 0 | 225 | 3.5 | 11.3 | 0.00 | 0.00 | 0.00 | 1000.7 | |
| 20260506231738 | 0 | 225 | 3.5 | 11.3 | 0.00 | 0.00 | 0.00 | 1000.6 | |
| 20260506231728 | 0 | 270 | 3.5 | 11.3 | 0.00 | 0.00 | 0.00 | 1000.6 | |
| 20260506231718 | 0 | 225 | 3.5 | 11.3 | 0.00 | 0.00 | 0.00 | 1000.8 | |
| 20260506231708 | 0 | 225 | 3.5 | 11.3 | 0.00 | 0.00 | 0.00 | 1000.7 | |
| 20260506231639 | 0 | 225 | 3.5 | 11.3 | 0.00 | 0.00 | 0.00 | 1000.8 | |
| 20260506231629 | 0 | 225 | 4.3 | 11.3 | 0.00 | 0.00 | 0.00 | 1000.7 | |
| 20260506231559 | 0 | 225 | 3.5 | 11.3 | 0.00 | 0.00 | 0.00 | 1000.8 | |
| 20260506231539 | 0 | 225 | 3.5 | 11.3 | 0.00 | 0.00 | 0.00 | 1000.7 | |
| 20260506231529 | 0 | 180 | 3.5 | 11.3 | 0.00 | 0.00 | 0.00 | 1000.7 | |
| 20260506231519 | 0 | 225 | 3.5 | 11.3 | 0.00 | 0.00 | 0.00 | 1000.8 | |
| 20260506231509 | 0 | 225 | 4.3 | 11.3 | 0.00 | 0.00 | 0.00 | 1000.7 | |
| 20260506231459 | 0 | 225 | 5.2 | 11.3 | 0.00 | 0.00 | 0.00 | 1000.7 | |
| 20260506231439 | 0 | 225 | 7.0 | 11.3 | 0.00 | 0.00 | 0.00 | 1000.7 | |
| 20260506231429 | 0 | 225 | 7.0 | 11.3 | 0.00 | 0.00 | 0.00 | 1000.8 | |
| 20260506231419 | 0 | 225 | 6.1 | 11.3 | 0.00 | 0.00 | 0.00 | 1000.8 | |
| 20260506231409 | 0 | 225 | 5.2 | 11.3 | 0.00 | 0.00 | 0.00 | 1000.7 | |
| 20260506231359 | 0 | 225 | 5.2 | 11.3 | 0.00 | 0.00 | 0.00 | 1000.8 | |
| 20260506231349 | 0 | 203 | 4.3 | 9.6 | 0.00 | 0.00 | 0.00 | 1000.8 | |
| 20260506231339 | 0 | 270 | 4.3 | 9.6 | 0.00 | 0.00 | 0.00 | 1000.7 | |
| 20260506231329 | 0 | 225 | 4.3 | 9.6 | 0.00 | 0.00 | 0.00 | 1000.7 | |
| 20260506231309 | 0 | 225 | 5.2 | 9.6 | 0.00 | 0.00 | 0.00 | 1000.8 | |
| 20260506231249 | 0 | 225 | 5.2 | 9.6 | 0.00 | 0.00 | 0.00 | 1000.7 | |
| 20260506231239 | 0 | 180 | 4.3 | 9.6 | 0.00 | 0.00 | 0.00 | 1000.8 | |
| 20260506231209 | 0 | 225 | 3.5 | 9.6 | 0.00 | 0.00 | 0.00 | 1000.7 | |
| 20260506231159 | 0 | 225 | 3.5 | 9.6 | 0.00 | 0.00 | 0.00 | 1000.8 | |
| 20260506231119 | 0 | 225 | 3.5 | 9.6 | 0.00 | 0.00 | 0.00 | 1000.7 | |
| 20260506231109 | 0 | 135 | 3.5 | 9.6 | 0.00 | 0.00 | 0.00 | 1000.7 | |
| 20260506231059 | 0 | 180 | 3.5 | 9.6 | 0.00 | 0.00 | 0.00 | 1000.8 | |
| 20260506231039 | 0 | 225 | 3.5 | 9.6 | 0.00 | 0.00 | 0.00 | 1000.7 | |
| 20260506231029 | 0 | 225 | 2.6 | 9.6 | 0.00 | 0.00 | 0.00 | 1000.8 | |
| 20260506231019 | 0 | 248 | 3.5 | 9.6 | 0.00 | 0.00 | 0.00 | 1000.6 | |
| 20260506230959 | 0 | 225 | 3.5 | 9.6 | 0.00 | 0.00 | 0.00 | 1000.8 | |
| 20260506230949 | 0 | 270 | 3.5 | 9.6 | 0.00 | 0.00 | 0.00 | 1000.7 | |
| 20260506230940 | 0 | 203 | 4.3 | 9.6 | 0.00 | 0.00 | 0.00 | 1000.7 | |
| 20260506230930 | 0 | 270 | 5.2 | 9.6 | 0.00 | 0.00 | 0.00 | 1000.7 | |
| 20260506230910 | 0 | 225 | 5.2 | 10.4 | 0.00 | 0.00 | 0.00 | 1000.8 | |
| 20260506230900 | 0 | 203 | 6.1 | 10.4 | 0.00 | 0.00 | 0.00 | 1000.7 | |
| 20260506230830 | 0 | 225 | 7.0 | 10.4 | 0.00 | 0.00 | 0.00 | 1000.7 | |
| 20260506230820 | 0 | 225 | 7.0 | 10.4 | 0.00 | 0.00 | 0.00 | 1000.8 | |
| 20260506230800 | 0 | 225 | 6.1 | 10.4 | 0.00 | 0.00 | 0.00 | 1000.7 | |
| 20260506230740 | 0 | 225 | 6.1 | 10.4 | 0.00 | 0.00 | 0.00 | 1000.8 | |
| 20260506230730 | 0 | 225 | 5.2 | 10.4 | 0.00 | 0.00 | 0.00 | 1000.8 | |
| 20260506230720 | 0 | 225 | 5.2 | 12.2 | 0.00 | 0.00 | 0.00 | 1000.7 | |
| 20260506230710 | 0 | 270 | 4.3 | 12.2 | 0.00 | 0.00 | 0.00 | 1000.7 | |
| 20260506230700 | 0 | 225 | 4.3 | 12.2 | 0.00 | 0.00 | 0.00 | 1000.8 | |
| 20260506230640 | 0 | 225 | 3.5 | 13.9 | 0.00 | 0.00 | 0.00 | 1000.8 | |
| 20260506230630 | 0 | 270 | 3.5 | 13.9 | 0.00 | 0.00 | 0.00 | 1000.7 | |
| 20260506230620 | 0 | 225 | 3.5 | 13.9 | 0.00 | 0.00 | 0.00 | 1000.7 | |
| 20260506230610 | 0 | 203 | 4.3 | 13.9 | 0.00 | 0.00 | 0.00 | 1000.7 | |
| 20260506230550 | 0 | 225 | 5.2 | 13.9 | 0.00 | 0.00 | 0.00 | 1000.8 | |
| 20260506230531 | 0 | 225 | 5.2 | 13.9 | 0.00 | 0.00 | 0.00 | 1000.7 | |
| 20260506230520 | 0 | 225 | 6.1 | 13.9 | 0.00 | 0.00 | 0.00 | 1000.7 | |
| 20260506230500 | 0 | 225 | 6.1 | 13.9 | 0.00 | 0.00 | 0.00 | 1000.6 | |
| 20260506230440 | 0 | 225 | 7.0 | 13.9 | 0.00 | 0.00 | 0.00 | 1000.6 | |
| 20260506230430 | 0 | 225 | 7.0 | 13.9 | 0.00 | 0.00 | 0.00 | 1000.7 | |
| 20260506230350 | 0 | 225 | 6.1 | 13.9 | 0.00 | 0.00 | 0.00 | 1000.7 | |
| 20260506230340 | 0 | 270 | 6.1 | 13.9 | 0.00 | 0.00 | 0.00 | 1000.7 | |
| 20260506230331 | 0 | 225 | 6.1 | 13.9 | 0.00 | 0.00 | 0.00 | 1000.6 | |
| 20260506230320 | 0 | 270 | 7.0 | 13.9 | 0.00 | 0.00 | 0.00 | 1000.7 | |
| 20260506230311 | 0 | 225 | 7.0 | 13.9 | 0.00 | 0.00 | 0.00 | 1000.7 | |
| 20260506230301 | 0 | 248 | 7.8 | 13.9 | 0.00 | 0.00 | 0.00 | 1000.7 | |
| 20260506230251 | 0 | 225 | 7.8 | 13.9 | 0.00 | 0.00 | 0.00 | 1000.6 | |
| 20260506230241 | 0 | 225 | 8.7 | 13.9 | 0.00 | 0.00 | 0.00 | 1000.7 | |
| 20260506230231 | 0 | 248 | 8.7 | 13.9 | 0.00 | 0.00 | 0.00 | 1000.7 | |
| 20260506230221 | 0 | 225 | 7.0 | 13.9 | 0.00 | 0.00 | 0.00 | 1000.7 | |
| 20260506230211 | 0 | 225 | 7.0 | 13.9 | 0.00 | 0.00 | 0.00 | 1000.6 | |
| 20260506230201 | 0 | 225 | 6.1 | 13.9 | 0.00 | 0.00 | 0.00 | 1000.6 | |
| 20260506230141 | 0 | 225 | 5.2 | 12.2 | 0.00 | 0.00 | 0.00 | 1000.6 | |
| 20260506230121 | 0 | 180 | 4.3 | 12.2 | 0.00 | 0.00 | 0.00 | 1000.6 | |
| 20260506230111 | 0 | 225 | 4.3 | 12.2 | 0.00 | 0.00 | 0.00 | 1000.6 | |
| 20260506230051 | 0 | 248 | 3.5 | 12.2 | 0.00 | 0.00 | 0.00 | 1000.7 | |
| 20260506230031 | 0 | 225 | 3.5 | 12.2 | 0.00 | 0.00 | 0.00 | 1000.6 | |
| 20260506230021 | 0 | 225 | 4.3 | 12.2 | 0.00 | 0.00 | 0.00 | 1000.6 | |
| 20260506230011 | 0 | 248 | 4.3 | 12.2 | 0.00 | 0.00 | 0.00 | 1000.6 | |
| 20260506225951 | 0 | 225 | 5.2 | 12.2 | 0.00 | 0.00 | 0.00 | 1000.6 | |
| 20260506225941 | 0 | 225 | 7.0 | 12.2 | 0.00 | 0.00 | 0.00 | 1000.6 | |
| 20260506225931 | 0 | 180 | 7.0 | 12.2 | 0.00 | 0.00 | 0.00 | 1000.6 | |
| 20260506225921 | 0 | 270 | 7.0 | 12.2 | 0.00 | 0.00 | 0.00 | 1000.6 | |
| 20260506225851 | 0 | 270 | 7.8 | 12.2 | 0.00 | 0.00 | 0.00 | 1000.6 | |
| 20260506225831 | 0 | 225 | 7.8 | 12.2 | 0.00 | 0.00 | 0.00 | 1000.5 | |
| 20260506225821 | 0 | 225 | 7.8 | 12.2 | 0.00 | 0.00 | 0.00 | 1000.6 | |
| 20260506225811 | 0 | 270 | 8.7 | 12.2 | 0.00 | 0.00 | 0.00 | 1000.6 | |
| 20260506225751 | 0 | 248 | 8.7 | 12.2 | 0.00 | 0.00 | 0.00 | 1000.5 | |
| 20260506225741 | 0 | 248 | 8.7 | 12.2 | 0.00 | 0.00 | 0.00 | 1000.6 | |
| 20260506225731 | 0 | 248 | 7.8 | 12.2 | 0.00 | 0.00 | 0.00 | 1000.6 | |
| 20260506225721 | 0 | 225 | 7.8 | 12.2 | 0.00 | 0.00 | 0.00 | 1000.6 | |
| 20260506225651 | 0 | 225 | 8.7 | 12.2 | 0.00 | 0.00 | 0.00 | 1000.6 | |
| 20260506225641 | 0 | 225 | 7.8 | 12.2 | 0.00 | 0.00 | 0.00 | 1000.6 | |
| 20260506225632 | 0 | 225 | 7.8 | 12.2 | 0.00 | 0.00 | 0.00 | 1000.5 | |
| 20260506225621 | 0 | 248 | 7.0 | 12.2 | 0.00 | 0.00 | 0.00 | 1000.6 | |
| 20260506225611 | 0 | 225 | 7.0 | 11.3 | 0.00 | 0.00 | 0.00 | 1000.6 | |
| 20260506225602 | 0 | 225 | 6.1 | 11.3 | 0.00 | 0.00 | 0.00 | 1000.5 | |
| 20260506225552 | 0 | 225 | 5.2 | 10.4 | 0.00 | 0.00 | 0.00 | 1000.6 | |
| 20260506225542 | 0 | 270 | 6.1 | 10.4 | 0.00 | 0.00 | 0.00 | 1000.6 | |
| 20260506225532 | 0 | 270 | 6.1 | 10.4 | 0.00 | 0.00 | 0.00 | 1000.5 | |
| 20260506225522 | 0 | 225 | 6.1 | 10.4 | 0.00 | 0.00 | 0.00 | 1000.5 | |
| 20260506225452 | 0 | 270 | 6.1 | 10.4 | 0.00 | 0.00 | 0.00 | 1000.6 | |
| 20260506225442 | 0 | 225 | 6.1 | 10.4 | 0.00 | 0.00 | 0.00 | 1000.6 | |
| 20260506225432 | 0 | 225 | 6.1 | 10.4 | 0.00 | 0.00 | 0.00 | 1000.5 | |
| 20260506225422 | 0 | 225 | 5.2 | 10.4 | 0.00 | 0.00 | 0.00 | 1000.5 | |
| 20260506225412 | 0 | 270 | 6.1 | 10.4 | 0.00 | 0.00 | 0.00 | 1000.6 | |
| 20260506225352 | 0 | 180 | 6.1 | 10.4 | 0.00 | 0.00 | 0.00 | 1000.6 | |
| 20260506225332 | 0 | 225 | 6.1 | 10.4 | 0.00 | 0.00 | 0.00 | 1000.6 | |
| 20260506225305 | 0 | 248 | 6.1 | 10.4 | 0.00 | 0.00 | 0.00 | 1000.6 | |
| 20260506225252 | 0 | 225 | 6.1 | 10.4 | 0.00 | 0.00 | 0.00 | 1000.6 | |
| 20260506225232 | 0 | 225 | 5.2 | 10.4 | 0.00 | 0.00 | 0.00 | 1000.6 | |
| 20260506225222 | 0 | 270 | 5.2 | 10.4 | 0.00 | 0.00 | 0.00 | 1000.6 | |
| 20260506225212 | 0 | 225 | 5.2 | 10.4 | 0.00 | 0.00 | 0.00 | 1000.7 | |
| 20260506225202 | 0 | 225 | 4.3 | 9.6 | 0.00 | 0.00 | 0.00 | 1000.6 | |
| 20260506225152 | 0 | 225 | 4.3 | 9.6 | 0.00 | 0.00 | 0.00 | 1000.7 | |
| 20260506225122 | 0 | 225 | 3.5 | 9.6 | 0.00 | 0.00 | 0.00 | 1000.6 | |
| 20260506225102 | 0 | 203 | 3.5 | 9.6 | 0.00 | 0.00 | 0.00 | 1000.7 | |
| 20260506225052 | 0 | 225 | 4.3 | 9.6 | 0.00 | 0.00 | 0.00 | 1000.7 | |
| 20260506225042 | 0 | 225 | 5.2 | 9.6 | 0.00 | 0.00 | 0.00 | 1000.7 | |
| 20260506225032 | 0 | 270 | 5.2 | 9.6 | 0.00 | 0.00 | 0.00 | 1000.7 | |
| 20260506225022 | 0 | 135 | 5.2 | 9.6 | 0.00 | 0.00 | 0.00 | 1000.6 | |
| 20260506225012 | 0 | 225 | 5.2 | 9.6 | 0.00 | 0.00 | 0.00 | 1000.6 | |
| 20260506225002 | 0 | 225 | 5.2 | 9.6 | 0.00 | 0.00 | 0.00 | 1000.5 | |
| 20260506224952 | 0 | 225 | 4.3 | 9.6 | 0.00 | 0.00 | 0.00 | 1000.7 | |
| 20260506224943 | 0 | 225 | 3.5 | 9.6 | 0.00 | 0.00 | 0.00 | 1000.6 | |
| 20260506224913 | 0 | 225 | 3.5 | 9.6 | 0.00 | 0.00 | 0.00 | 1000.7 | |
| 20260506224903 | 0 | 203 | 3.5 | 9.6 | 0.00 | 0.00 | 0.00 | 1000.6 | |
| 20260506224853 | 0 | 180 | 2.6 | 9.6 | 0.00 | 0.00 | 0.00 | 1000.6 | |
| 20260506224823 | 0 | 225 | 3.5 | 9.6 | 0.00 | 0.00 | 0.00 | 1000.6 | |
| 20260506224813 | 0 | 225 | 4.3 | 9.6 | 0.00 | 0.00 | 0.00 | 1000.7 | |
| 20260506224733 | 0 | 225 | 5.2 | 9.6 | 0.00 | 0.00 | 0.00 | 1000.6 | |
| 20260506224723 | 0 | 225 | 5.2 | 9.6 | 0.00 | 0.00 | 0.00 | 1000.7 | |
| 20260506224703 | 0 | 248 | 3.5 | 9.6 | 0.00 | 0.00 | 0.00 | 1000.6 | |
| 20260506224653 | 0 | 248 | 4.3 | 9.6 | 0.00 | 0.00 | 0.00 | 1000.6 | |
| 20260506224643 | 0 | 225 | 4.3 | 9.6 | 0.00 | 0.00 | 0.00 | 1000.6 | |
| 20260506224633 | 0 | 225 | 4.3 | 9.6 | 0.00 | 0.00 | 0.00 | 1000.7 | |
| 20260506224623 | 0 | 225 | 5.2 | 9.6 | 0.00 | 0.00 | 0.00 | 1000.7 | |
| 20260506224603 | 0 | 180 | 5.2 | 9.6 | 0.00 | 0.00 | 0.00 | 1000.6 | |
| 20260506224543 | 0 | 225 | 5.2 | 9.6 | 0.00 | 0.00 | 0.00 | 1000.6 | |
| 20260506224533 | 0 | 225 | 4.3 | 8.7 | 0.00 | 0.00 | 0.00 | 1000.7 | |
| 20260506224523 | 0 | 225 | 4.3 | 8.7 | 0.00 | 0.00 | 0.00 | 1000.6 | |
| 20260506224513 | 0 | 225 | 3.5 | 8.7 | 0.00 | 0.00 | 0.00 | 1000.7 | |
| 20260506224503 | 0 | 203 | 3.5 | 8.7 | 0.00 | 0.00 | 0.00 | 1000.6 | |
| 20260506224453 | 0 | 270 | 3.5 | 9.6 | 0.00 | 0.00 | 0.00 | 1000.6 | |
| 20260506224443 | 0 | 225 | 3.5 | 9.6 | 0.00 | 0.00 | 0.00 | 1000.6 | |
| 20260506224423 | 0 | 225 | 3.5 | 10.4 | 0.00 | 0.00 | 0.00 | 1000.6 | |
| 20260506224413 | 0 | 225 | 3.5 | 10.4 | 0.00 | 0.00 | 0.00 | 1000.7 | |
| 20260506224403 | 0 | 248 | 3.5 | 10.4 | 0.00 | 0.00 | 0.00 | 1000.6 | |
| 20260506224353 | 0 | 225 | 2.6 | 10.4 | 0.00 | 0.00 | 0.00 | 1000.6 | |
| 20260506224343 | 0 | 180 | 2.6 | 10.4 | 0.00 | 0.00 | 0.00 | 1000.7 | |
| 20260506224333 | 0 | 203 | 1.7 | 10.4 | 0.00 | 0.00 | 0.00 | 1000.6 | |
| 20260506224323 | 0 | 203 | 2.6 | 10.4 | 0.00 | 0.00 | 0.00 | 1000.7 | |
| 20260506224313 | 0 | 225 | 2.6 | 13.9 | 0.00 | 0.00 | 0.00 | 1000.7 | |
| 20260506224244 | 0 | 225 | 2.6 | 13.9 | 0.00 | 0.00 | 0.00 | 1000.6 | |
| 20260506224234 | 0 | 270 | 2.6 | 15.6 | 0.00 | 0.00 | 0.00 | 1000.6 | |
| 20260506224224 | 0 | 225 | 2.6 | 15.6 | 0.00 | 0.00 | 0.00 | 1000.6 | |
| 20260506224214 | 0 | 135 | 3.5 | 15.6 | 0.00 | 0.00 | 0.00 | 1000.6 | |
| 20260506224204 | 0 | 180 | 3.5 | 15.6 | 0.00 | 0.00 | 0.00 | 1000.7 | |
| 20260506224154 | 0 | 180 | 3.5 | 15.6 | 0.00 | 0.00 | 0.00 | 1000.6 | |
| 20260506224144 | 0 | 270 | 3.5 | 15.6 | 0.00 | 0.00 | 0.00 | 1000.5 | |
| 20260506224134 | 0 | 270 | 4.3 | 15.6 | 0.00 | 0.00 | 0.00 | 1000.5 | |
| 20260506224114 | 0 | 225 | 5.2 | 15.6 | 0.00 | 0.00 | 0.00 | 1000.6 | |
| 20260506224104 | 0 | 270 | 5.2 | 15.6 | 0.00 | 0.00 | 0.00 | 1000.6 | |
| 20260506224054 | 0 | 225 | 6.1 | 15.6 | 0.00 | 0.00 | 0.00 | 1000.6 | |
| 20260506224034 | 0 | 225 | 7.0 | 15.6 | 0.00 | 0.00 | 0.00 | 1000.6 | |
| 20260506223954 | 0 | 225 | 7.0 | 15.6 | 0.00 | 0.00 | 0.00 | 1000.6 | |
| 20260506223944 | 0 | 225 | 7.0 | 15.6 | 0.00 | 0.00 | 0.00 | 1000.5 | |
| 20260506223924 | 0 | 225 | 6.1 | 15.6 | 0.00 | 0.00 | 0.00 | 1000.6 | |
| 20260506223914 | 0 | 225 | 7.0 | 15.6 | 0.00 | 0.00 | 0.00 | 1000.6 | |
| 20260506223904 | 0 | 270 | 7.8 | 15.6 | 0.00 | 0.00 | 0.00 | 1000.5 | |
| 20260506223854 | 0 | 225 | 8.7 | 15.6 | 0.00 | 0.00 | 0.00 | 1000.5 | |
| 20260506223844 | 0 | 225 | 9.6 | 15.6 | 0.00 | 0.00 | 0.00 | 1000.6 | |
| 20260506223824 | 0 | 225 | 11.3 | 15.6 | 0.00 | 0.00 | 0.00 | 1000.6 | |
| 20260506223814 | 0 | 225 | 10.4 | 15.6 | 0.00 | 0.00 | 0.00 | 1000.5 | |
| 20260506223804 | 0 | 225 | 10.4 | 15.6 | 0.00 | 0.00 | 0.00 | 1000.6 | |
| 20260506223754 | 0 | 270 | 9.6 | 15.6 | 0.00 | 0.00 | 0.00 | 1000.5 | |
| 20260506223744 | 0 | 225 | 8.7 | 15.6 | 0.00 | 0.00 | 0.00 | 1000.6 | |
| 20260506223734 | 0 | 225 | 8.7 | 14.8 | 0.00 | 0.00 | 0.00 | 1000.6 | |
| 20260506223724 | 0 | 270 | 7.0 | 13.0 | 0.00 | 0.00 | 0.00 | 1000.5 | |
| 20260506223714 | 0 | 225 | 7.0 | 13.0 | 0.00 | 0.00 | 0.00 | 1000.5 | |
| 20260506223654 | 0 | 248 | 7.0 | 13.0 | 0.00 | 0.00 | 0.00 | 1000.5 | |
| 20260506223644 | 0 | 225 | 7.8 | 13.0 | 0.00 | 0.00 | 0.00 | 1000.5 | |
| 20260506223634 | 0 | 225 | 7.8 | 13.0 | 0.00 | 0.00 | 0.00 | 1000.6 | |
| 20260506223615 | 0 | 225 | 8.7 | 13.0 | 0.00 | 0.00 | 0.00 | 1000.5 | |
| 20260506223605 | 0 | 225 | 7.8 | 13.0 | 0.00 | 0.00 | 0.00 | 1000.5 | |
| 20260506223555 | 0 | 225 | 7.0 | 13.0 | 0.00 | 0.00 | 0.00 | 1000.5 | |
| 20260506223545 | 0 | 225 | 7.0 | 13.0 | 0.00 | 0.00 | 0.00 | 1000.6 | |
| 20260506223535 | 0 | 225 | 6.1 | 13.0 | 0.00 | 0.00 | 0.00 | 1000.6 | |
| 20260506223505 | 0 | 248 | 5.2 | 13.0 | 0.00 | 0.00 | 0.00 | 1000.5 | |
| 20260506223455 | 0 | 225 | 5.2 | 13.0 | 0.00 | 0.00 | 0.00 | 1000.5 | |
| 20260506223445 | 0 | 270 | 6.1 | 13.0 | 0.00 | 0.00 | 0.00 | 1000.5 | |
| 20260506223425 | 0 | 225 | 7.0 | 13.0 | 0.00 | 0.00 | 0.00 | 1000.5 | |
| 20260506223415 | 0 | 180 | 8.7 | 13.0 | 0.00 | 0.00 | 0.00 | 1000.5 | |
| 20260506223405 | 0 | 225 | 8.7 | 13.0 | 0.00 | 0.00 | 0.00 | 1000.6 | |
| 20260506223335 | 0 | 225 | 9.6 | 13.0 | 0.00 | 0.00 | 0.00 | 1000.6 | |
| 20260506223325 | 0 | 270 | 9.6 | 13.0 | 0.00 | 0.00 | 0.00 | 1000.5 | |
| 20260506223315 | 0 | 225 | 8.7 | 13.0 | 0.00 | 0.00 | 0.00 | 1000.6 | |
| 20260506223305 | 0 | 270 | 8.7 | 13.0 | 0.00 | 0.00 | 0.00 | 1000.6 | |
| 20260506223245 | 0 | 225 | 8.7 | 13.9 | 0.00 | 0.00 | 0.00 | 1000.6 | |
| 20260506223235 | 0 | 270 | 8.7 | 13.9 | 0.00 | 0.00 | 0.00 | 1000.5 | |
| 20260506223225 | 0 | 225 | 7.8 | 14.8 | 0.00 | 0.00 | 0.00 | 1000.5 | |
| 20260506223215 | 0 | 203 | 7.8 | 14.8 | 0.00 | 0.00 | 0.00 | 1000.6 | |
| 20260506223155 | 0 | 225 | 8.7 | 14.8 | 0.00 | 0.00 | 0.00 | 1000.6 | |
| 20260506223145 | 0 | 270 | 8.7 | 14.8 | 0.00 | 0.00 | 0.00 | 1000.5 | |
| 20260506223115 | 0 | 248 | 8.7 | 14.8 | 0.00 | 0.00 | 0.00 | 1000.5 | |
| 20260506223105 | 0 | 225 | 8.7 | 14.8 | 0.00 | 0.00 | 0.00 | 1000.5 | |
| 20260506223035 | 0 | 270 | 7.0 | 14.8 | 0.00 | 0.00 | 0.00 | 1000.5 | |
| 20260506223025 | 0 | 225 | 7.0 | 14.8 | 0.00 | 0.00 | 0.00 | 1000.5 | |
| 20260506222956 | 0 | 225 | 7.8 | 14.8 | 0.00 | 0.00 | 0.00 | 1000.5 | |
| 20260506222946 | 0 | 270 | 7.8 | 14.8 | 0.00 | 0.00 | 0.00 | 1000.5 | |
| 20260506222936 | 0 | 225 | 8.7 | 14.8 | 0.00 | 0.00 | 0.00 | 1000.5 | |
| 20260506222926 | 0 | 270 | 8.7 | 14.8 | 0.00 | 0.00 | 0.00 | 1000.5 | |
| 20260506222916 | 0 | 225 | 7.8 | 14.8 | 0.00 | 0.00 | 0.00 | 1000.5 | |
| 20260506222906 | 0 | 225 | 7.8 | 14.8 | 0.00 | 0.00 | 0.00 | 1000.4 | |
| 20260506222856 | 0 | 225 | 8.7 | 14.8 | 0.00 | 0.00 | 0.00 | 1000.5 | |
| 20260506222836 | 0 | 270 | 8.7 | 14.8 | 0.00 | 0.00 | 0.00 | 1000.5 | |
| 20260506222826 | 0 | 225 | 9.6 | 14.8 | 0.00 | 0.00 | 0.00 | 1000.5 | |
| 20260506222816 | 0 | 225 | 10.4 | 14.8 | 0.00 | 0.00 | 0.00 | 1000.5 | |
| 20260506222806 | 0 | 225 | 10.4 | 16.5 | 0.00 | 0.00 | 0.00 | 1000.5 | |
| 20260506222746 | 0 | 225 | 9.6 | 16.5 | 0.00 | 0.00 | 0.00 | 1000.4 | |
| 20260506222736 | 0 | 225 | 9.6 | 16.5 | 0.00 | 0.00 | 0.00 | 1000.5 | |
| 20260506222726 | 0 | 225 | 8.7 | 16.5 | 0.00 | 0.00 | 0.00 | 1000.5 | |
| 20260506222656 | 0 | 225 | 7.8 | 16.5 | 0.00 | 0.00 | 0.00 | 1000.5 | |
| 20260506222646 | 0 | 225 | 7.0 | 16.5 | 0.00 | 0.00 | 0.00 | 1000.5 | |
| 20260506222626 | 0 | 225 | 7.0 | 16.5 | 0.00 | 0.00 | 0.00 | 1000.4 | |
| 20260506222606 | 0 | 225 | 7.8 | 16.5 | 0.00 | 0.00 | 0.00 | 1000.4 | |
| 20260506222556 | 0 | 225 | 8.7 | 16.5 | 0.00 | 0.00 | 0.00 | 1000.5 | |
| 20260506222536 | 0 | 225 | 8.7 | 16.5 | 0.00 | 0.00 | 0.00 | 1000.4 | |
| 20260506222526 | 0 | 225 | 8.7 | 16.5 | 0.00 | 0.00 | 0.00 | 1000.6 | |
| 20260506222516 | 0 | 225 | 8.7 | 16.5 | 0.00 | 0.00 | 0.00 | 1000.5 | |
| 20260506222456 | 0 | 248 | 8.7 | 16.5 | 0.00 | 0.00 | 0.00 | 1000.5 | |
| 20260506222446 | 0 | 270 | 8.7 | 16.5 | 0.00 | 0.00 | 0.00 | 1000.5 | |
| 20260506222436 | 0 | 225 | 8.7 | 16.5 | 0.00 | 0.00 | 0.00 | 1000.5 | |
| 20260506222426 | 0 | 270 | 9.6 | 16.5 | 0.00 | 0.00 | 0.00 | 1000.5 | |
| 20260506222416 | 0 | 270 | 9.6 | 16.5 | 0.00 | 0.00 | 0.00 | 1000.4 | |
| 20260506222406 | 0 | 270 | 10.4 | 16.5 | 0.00 | 0.00 | 0.00 | 1000.5 | |
| 20260506222346 | 0 | 225 | 9.6 | 16.5 | 0.00 | 0.00 | 0.00 | 1000.5 | |
| 20260506222337 | 0 | 270 | 9.6 | 16.5 | 0.00 | 0.00 | 0.00 | 1000.5 | |
| 20260506222327 | 0 | 248 | 9.6 | 16.5 | 0.00 | 0.00 | 0.00 | 1000.4 | |
| 20260506222317 | 0 | 225 | 9.6 | 16.5 | 0.00 | 0.00 | 0.00 | 1000.4 | |
| 20260506222307 | 0 | 225 | 8.7 | 15.6 | 0.00 | 0.00 | 0.00 | 1000.4 | |
| 20260506222257 | 0 | 203 | 8.7 | 15.6 | 0.00 | 0.00 | 0.00 | 1000.3 | |
| 20260506222247 | 0 | 248 | 8.7 | 15.6 | 0.00 | 0.00 | 0.00 | 1000.4 | |
| 20260506222217 | 0 | 270 | 8.7 | 15.6 | 0.00 | 0.00 | 0.00 | 1000.4 | |
| 20260506222207 | 0 | 225 | 8.7 | 15.6 | 0.00 | 0.00 | 0.00 | 1000.4 | |
| 20260506222147 | 0 | 270 | 7.8 | 15.6 | 0.00 | 0.00 | 0.00 | 1000.4 | |
| 20260506222107 | 0 | 270 | 8.7 | 15.6 | 0.00 | 0.00 | 0.00 | 1000.4 | |
| 20260506222057 | 0 | 225 | 9.6 | 15.6 | 0.00 | 0.00 | 0.00 | 1000.3 | |
| 20260506222047 | 0 | 270 | 10.4 | 15.6 | 0.00 | 0.00 | 0.00 | 1000.3 | |
| 20260506222037 | 0 | 225 | 10.4 | 15.6 | 0.00 | 0.00 | 0.00 | 1000.4 | |
| 20260506222027 | 0 | 225 | 9.6 | 15.6 | 0.00 | 0.00 | 0.00 | 1000.4 | |
| 20260506222017 | 0 | 248 | 9.6 | 15.6 | 0.00 | 0.00 | 0.00 | 1000.4 | |
| 20260506222007 | 0 | 248 | 8.7 | 13.9 | 0.00 | 0.00 | 0.00 | 1000.3 | |
| 20260506221957 | 0 | 225 | 8.7 | 13.9 | 0.00 | 0.00 | 0.00 | 1000.3 | |
| 20260506221947 | 0 | 0 | 8.7 | 13.9 | 0.00 | 0.00 | 0.00 | 1000.4 | |
| 20260506221927 | 0 | 225 | 8.7 | 13.9 | 0.00 | 0.00 | 0.00 | 1000.4 | |
| 20260506221917 | 0 | 270 | 8.7 | 13.9 | 0.00 | 0.00 | 0.00 | 1000.4 | |
| 20260506221907 | 0 | 225 | 7.8 | 13.9 | 0.00 | 0.00 | 0.00 | 1000.3 | |
| 20260506221857 | 0 | 225 | 7.0 | 13.9 | 0.00 | 0.00 | 0.00 | 1000.3 | |
| 20260506221837 | 0 | 270 | 7.0 | 13.9 | 0.00 | 0.00 | 0.00 | 1000.4 | |
| 20260506221827 | 0 | 225 | 7.0 | 13.9 | 0.00 | 0.00 | 0.00 | 1000.4 | |
| 20260506221817 | 0 | 248 | 6.1 | 13.9 | 0.00 | 0.00 | 0.00 | 1000.4 | |
| 20260506221807 | 0 | 225 | 6.1 | 13.9 | 0.00 | 0.00 | 0.00 | 1000.3 | |
| 20260506221757 | 0 | 225 | 6.1 | 13.9 | 0.00 | 0.00 | 0.00 | 1000.4 | |
| 20260506221747 | 0 | 248 | 7.0 | 13.9 | 0.00 | 0.00 | 0.00 | 1000.4 | |
| 20260506221738 | 0 | 248 | 7.0 | 13.9 | 0.00 | 0.00 | 0.00 | 1000.3 | |
| 20260506221728 | 0 | 225 | 7.8 | 13.9 | 0.00 | 0.00 | 0.00 | 1000.3 | |
| 20260506221708 | 0 | 225 | 8.7 | 13.9 | 0.00 | 0.00 | 0.00 | 1000.3 | |
| 20260506221658 | 0 | 270 | 8.7 | 13.9 | 0.00 | 0.00 | 0.00 | 1000.3 | |
| 20260506221638 | 0 | 270 | 7.8 | 13.9 | 0.00 | 0.00 | 0.00 | 1000.4 | |
| 20260506221628 | 0 | 225 | 7.0 | 13.9 | 0.00 | 0.00 | 0.00 | 1000.3 | |
| 20260506221618 | 0 | 270 | 7.0 | 13.9 | 0.00 | 0.00 | 0.00 | 1000.2 | |
| 20260506221608 | 0 | 225 | 7.0 | 13.9 | 0.00 | 0.00 | 0.00 | 1000.2 | |
| 20260506221558 | 0 | 225 | 6.1 | 13.9 | 0.00 | 0.00 | 0.00 | 1000.3 | |
| 20260506221548 | 0 | 225 | 7.0 | 13.9 | 0.00 | 0.00 | 0.00 | 1000.3 | |
| 20260506221538 | 0 | 270 | 7.0 | 14.8 | 0.00 | 0.00 | 0.00 | 1000.3 | |
| 20260506221528 | 0 | 225 | 6.1 | 16.5 | 0.00 | 0.00 | 0.00 | 1000.4 | |
| 20260506221518 | 0 | 180 | 6.1 | 16.5 | 0.00 | 0.00 | 0.00 | 1000.3 | |
| 20260506221458 | 0 | 270 | 7.0 | 16.5 | 0.00 | 0.00 | 0.00 | 1000.3 | |
| 20260506221448 | 0 | 270 | 6.1 | 16.5 | 0.00 | 0.00 | 0.00 | 1000.3 | |
| 20260506221438 | 0 | 225 | 6.1 | 16.5 | 0.00 | 0.00 | 0.00 | 1000.3 | |
| 20260506221428 | 0 | 225 | 7.0 | 16.5 | 0.00 | 0.00 | 0.00 | 1000.3 | |
| 20260506221418 | 0 | 225 | 7.0 | 16.5 | 0.00 | 0.00 | 0.00 | 1000.4 | |
| 20260506221408 | 0 | 270 | 7.0 | 16.5 | 0.00 | 0.00 | 0.00 | 1000.4 | |
| 20260506221358 | 0 | 225 | 6.1 | 16.5 | 0.00 | 0.00 | 0.00 | 1000.4 | |
| 20260506221348 | 0 | 225 | 7.0 | 16.5 | 0.00 | 0.00 | 0.00 | 1000.3 | |
| 20260506221338 | 0 | 270 | 7.8 | 16.5 | 0.00 | 0.00 | 0.00 | 1000.4 | |
| 20260506221328 | 0 | 225 | 8.7 | 16.5 | 0.00 | 0.00 | 0.00 | 1000.4 | |
| 20260506221318 | 0 | 270 | 8.7 | 16.5 | 0.00 | 0.00 | 0.00 | 1000.3 | |
| 20260506221308 | 0 | 270 | 9.6 | 16.5 | 0.00 | 0.00 | 0.00 | 1000.4 | |
| 20260506221258 | 0 | 270 | 10.4 | 16.5 | 0.00 | 0.00 | 0.00 | 1000.4 | |
| 20260506221238 | 0 | 225 | 9.6 | 16.5 | 0.00 | 0.00 | 0.00 | 1000.4 | |
| 20260506221208 | 0 | 248 | 8.7 | 16.5 | 0.00 | 0.00 | 0.00 | 1000.4 | |
| 20260506221158 | 0 | 270 | 7.8 | 16.5 | 0.00 | 0.00 | 0.00 | 1000.3 | |
| 20260506221148 | 0 | 225 | 8.7 | 16.5 | 0.00 | 0.00 | 0.00 | 1000.4 | |
| 20260506221129 | 0 | 225 | 8.7 | 16.5 | 0.00 | 0.00 | 0.00 | 1000.3 | |
| 20260506221119 | 0 | 270 | 9.6 | 16.5 | 0.00 | 0.00 | 0.00 | 1000.3 | |
| 20260506221109 | 0 | 225 | 10.4 | 16.5 | 0.00 | 0.00 | 0.00 | 1000.3 | |
| 20260506221059 | 0 | 225 | 10.4 | 16.5 | 0.00 | 0.00 | 0.00 | 1000.4 | |
| 20260506221039 | 0 | 225 | 9.6 | 16.5 | 0.00 | 0.00 | 0.00 | 1000.4 | |
| 20260506221029 | 0 | 270 | 8.7 | 13.9 | 0.00 | 0.00 | 0.00 | 1000.2 | |
| 20260506221019 | 0 | 270 | 8.7 | 13.9 | 0.00 | 0.00 | 0.00 | 1000.4 | |
| 20260506221009 | 0 | 225 | 8.7 | 13.9 | 0.00 | 0.00 | 0.00 | 1000.3 | |
| 20260506220959 | 0 | 225 | 8.7 | 13.9 | 0.00 | 0.00 | 0.00 | 1000.4 | |
| 20260506220949 | 0 | 248 | 9.6 | 13.9 | 0.00 | 0.00 | 0.00 | 1000.3 | |
| 20260506220939 | 0 | 270 | 9.6 | 13.9 | 0.00 | 0.00 | 0.00 | 671.2 | |
| 20260506220929 | 0 | 270 | 8.7 | 13.9 | 0.00 | 0.00 | 0.00 | 1000.4 | |
| 20260506220919 | 0 | 225 | 8.7 | 13.9 | 0.00 | 0.00 | 0.00 | 1000.4 | |
| 20260506220909 | 0 | 225 | 8.7 | 13.9 | 0.00 | 0.00 | 0.00 | 1000.3 | |
| 20260506220849 | 0 | 248 | 7.0 | 13.9 | 0.00 | 0.00 | 0.00 | 1000.3 | |
| 20260506220839 | 0 | 270 | 7.8 | 13.9 | 0.00 | 0.00 | 0.00 | 1000.3 | |
| 20260506220829 | 0 | 225 | 7.8 | 13.9 | 0.00 | 0.00 | 0.00 | 1000.4 | |
| 20260506220819 | 0 | 225 | 8.7 | 13.9 | 0.00 | 0.00 | 0.00 | 1000.4 | |
| 20260506220809 | 0 | 225 | 8.7 | 13.9 | 0.00 | 0.00 | 0.00 | 1000.3 | |
| 20260506220759 | 0 | 225 | 9.6 | 13.9 | 0.00 | 0.00 | 0.00 | 1000.3 | |
| 20260506220749 | 0 | 225 | 9.6 | 13.9 | 0.00 | 0.00 | 0.00 | 1000.4 | |
| 20260506220719 | 0 | 270 | 9.6 | 13.9 | 0.00 | 0.00 | 0.00 | 1000.4 | |
| 20260506220709 | 0 | 225 | 8.7 | 13.9 | 0.00 | 0.00 | 0.00 | 1000.4 | |
| 20260506220659 | 0 | 248 | 9.6 | 13.9 | 0.00 | 0.00 | 0.00 | 1000.3 | |
| 20260506220639 | 0 | 248 | 10.4 | 13.9 | 0.00 | 0.00 | 0.00 | 1000.3 | |
| 20260506220629 | 0 | 225 | 9.6 | 13.9 | 0.00 | 0.00 | 0.00 | 1000.3 | |
| 20260506220619 | 0 | 225 | 8.7 | 13.9 | 0.00 | 0.00 | 0.00 | 1000.2 | |
| 20260506220559 | 0 | 248 | 8.7 | 13.9 | 0.00 | 0.00 | 0.00 | 1000.3 | |
| 20260506220550 | 0 | 270 | 8.7 | 13.9 | 0.00 | 0.00 | 0.00 | 1000.3 | |
| 20260506220540 | 0 | 225 | 8.7 | 13.9 | 0.00 | 0.00 | 0.00 | 1000.3 | |
| 20260506220530 | 0 | 225 | 8.7 | 13.9 | 0.00 | 0.00 | 0.00 | 1000.4 | |
| 20260506220520 | 0 | 225 | 9.6 | 13.9 | 0.00 | 0.00 | 0.00 | 1000.3 | |
| 20260506220510 | 0 | 248 | 10.4 | 13.9 | 0.00 | 0.00 | 0.00 | 1000.3 | |
| 20260506220500 | 0 | 225 | 10.4 | 13.9 | 0.00 | 0.00 | 0.00 | 1000.4 | |
| 20260506220440 | 0 | 225 | 10.4 | 13.9 | 0.00 | 0.00 | 0.00 | 1000.3 | |
| 20260506220430 | 0 | 225 | 8.7 | 13.9 | 0.00 | 0.00 | 0.00 | 1000.3 | |
| 20260506220420 | 0 | 270 | 8.7 | 13.9 | 0.00 | 0.00 | 0.00 | 1000.3 | |
| 20260506220410 | 0 | 225 | 8.7 | 14.8 | 0.00 | 0.00 | 0.00 | 1000.4 | |
| 20260506220400 | 0 | 248 | 7.8 | 14.8 | 0.00 | 0.00 | 0.00 | 1000.2 | |
| 20260506220350 | 0 | 225 | 7.8 | 14.8 | 0.00 | 0.00 | 0.00 | 1000.3 | |
| 20260506220340 | 0 | 225 | 7.8 | 14.8 | 0.00 | 0.00 | 0.00 | 1000.2 | |
| 20260506220310 | 0 | 225 | 8.7 | 14.8 | 0.00 | 0.00 | 0.00 | 1000.3 | |
| 20260506220300 | 0 | 225 | 7.8 | 14.8 | 0.00 | 0.00 | 0.00 | 1000.3 | |
| 20260506220250 | 0 | 225 | 8.7 | 14.8 | 0.00 | 0.00 | 0.00 | 1000.4 | |
| 20260506220240 | 0 | 248 | 8.7 | 14.8 | 0.00 | 0.00 | 0.00 | 1000.3 | |
| 20260506220230 | 0 | 270 | 8.7 | 14.8 | 0.00 | 0.00 | 0.00 | 1000.3 | |
| 20260506220200 | 0 | 225 | 8.7 | 14.8 | 0.00 | 0.00 | 0.00 | 1000.3 | |
| 20260506220150 | 0 | 225 | 9.6 | 14.8 | 0.00 | 0.00 | 0.00 | 1000.3 | |
| 20260506220110 | 0 | 225 | 9.6 | 14.8 | 0.00 | 0.00 | 0.00 | 1000.3 | |
| 20260506220100 | 0 | 225 | 10.4 | 15.6 | 0.00 | 0.00 | 0.00 | 1000.3 | |
| 20260506220050 | 0 | 248 | 9.6 | 15.6 | 0.00 | 0.00 | 0.00 | 1000.3 | |
| 20260506220040 | 0 | 225 | 9.6 | 15.6 | 0.00 | 0.00 | 0.00 | 1000.4 | |
| 20260506220030 | 0 | 225 | 8.7 | 15.6 | 0.00 | 0.00 | 0.00 | 1000.3 | |
| 20260506220020 | 0 | 270 | 8.7 | 15.6 | 0.00 | 0.00 | 0.00 | 1000.4 | |
| 20260506220010 | 0 | 270 | 8.7 | 15.6 | 0.00 | 0.00 | 0.00 | 1000.3 | |
| 20260506215950 | 0 | 225 | 8.7 | 15.6 | 0.00 | 0.00 | 0.00 | 1000.3 | |
| 20260506215930 | 0 | 270 | 9.6 | 15.6 | 0.00 | 0.00 | 0.00 | 1000.3 | |
| 20260506215910 | 0 | 270 | 8.7 | 15.6 | 0.00 | 0.00 | 0.00 | 1000.3 | |
| 20260506215900 | 0 | 270 | 8.7 | 15.6 | 0.00 | 0.00 | 0.00 | 1000.2 | |
| 20260506215850 | 0 | 225 | 8.7 | 15.6 | 0.00 | 0.00 | 0.00 | 1000.3 | |
| 20260506215841 | 0 | 225 | 7.8 | 15.6 | 0.00 | 0.00 | 0.00 | 1000.2 | |
| 20260506215821 | 0 | 225 | 8.7 | 15.6 | 0.00 | 0.00 | 0.00 | 1000.2 | |
| 20260506215811 | 0 | 225 | 8.7 | 15.6 | 0.00 | 0.00 | 0.00 | 1000.3 | |
| 20260506215751 | 0 | 248 | 8.7 | 15.6 | 0.00 | 0.00 | 0.00 | 1000.3 | |
| 20260506215741 | 0 | 248 | 7.8 | 15.6 | 0.00 | 0.00 | 0.00 | 1000.3 | |
| 20260506215731 | 0 | 225 | 8.7 | 15.6 | 0.00 | 0.00 | 0.00 | 1000.3 | |
| 20260506215721 | 0 | 180 | 8.7 | 15.6 | 0.00 | 0.00 | 0.00 | 1000.2 | |
| 20260506215711 | 0 | 270 | 8.7 | 15.6 | 0.00 | 0.00 | 0.00 | 1000.3 | |
| 20260506215701 | 0 | 225 | 8.7 | 15.6 | 0.00 | 0.00 | 0.00 | 1000.4 | |
| 20260506215651 | 0 | 270 | 8.7 | 15.6 | 0.00 | 0.00 | 0.00 | 1000.2 | |
| 20260506215641 | 0 | 225 | 8.7 | 15.6 | 0.00 | 0.00 | 0.00 | 1000.3 | |
| 20260506215631 | 0 | 225 | 7.8 | 15.6 | 0.00 | 0.00 | 0.00 | 1000.2 | |
| 20260506215621 | 0 | 270 | 7.8 | 15.6 | 0.00 | 0.00 | 0.00 | 1000.4 | |
| 20260506215611 | 0 | 225 | 7.0 | 15.6 | 0.00 | 0.00 | 0.00 | 1000.3 | |
| 20260506215601 | 0 | 225 | 7.0 | 12.2 | 0.00 | 0.00 | 0.00 | 1000.4 | |
| 20260506215551 | 0 | 270 | 6.1 | 12.2 | 0.00 | 0.00 | 0.00 | 1000.3 | |
| 20260506215541 | 0 | 135 | 6.1 | 12.2 | 0.00 | 0.00 | 0.00 | 1000.3 | |
| 20260506215521 | 0 | 225 | 7.0 | 12.2 | 0.00 | 0.00 | 0.00 | 1000.3 | |
| 20260506215511 | 0 | 225 | 6.1 | 12.2 | 0.00 | 0.00 | 0.00 | 1000.3 | |
| 20260506215451 | 0 | 270 | 6.1 | 13.0 | 0.00 | 0.00 | 0.00 | 1000.3 | |
| 20260506215431 | 0 | 225 | 6.1 | 13.0 | 0.00 | 0.00 | 0.00 | 1000.3 | |
| 20260506215421 | 0 | 225 | 7.0 | 13.0 | 0.00 | 0.00 | 0.00 | 1000.3 | |
| 20260506215341 | 0 | 225 | 7.0 | 13.9 | 0.00 | 0.00 | 0.00 | 1000.3 | |
| 20260506215331 | 0 | 225 | 7.0 | 14.8 | 0.00 | 0.00 | 0.00 | 1000.3 | |
| 20260506215321 | 0 | 225 | 7.8 | 14.8 | 0.00 | 0.00 | 0.00 | 1000.3 | |
| 20260506215301 | 0 | 225 | 8.7 | 14.8 | 0.00 | 0.00 | 0.00 | 1000.3 | |
| 20260506215241 | 0 | 248 | 9.6 | 14.8 | 0.00 | 0.00 | 0.00 | 1000.2 | |
| 20260506215221 | 0 | 225 | 8.7 | 14.8 | 0.00 | 0.00 | 0.00 | 1000.3 | |
| 20260506215212 | 0 | 248 | 7.8 | 14.8 | 0.00 | 0.00 | 0.00 | 1000.3 | |
| 20260506215202 | 0 | 225 | 7.8 | 14.8 | 0.00 | 0.00 | 0.00 | 1000.3 | |
| 20260506215152 | 0 | 225 | 7.0 | 14.8 | 0.00 | 0.00 | 0.00 | 1000.3 | |
| 20260506215142 | 0 | 225 | 7.0 | 15.6 | 0.00 | 0.00 | 0.00 | 1000.3 | |
| 20260506215132 | 0 | 270 | 7.0 | 15.6 | 0.00 | 0.00 | 0.00 | 1000.3 | |
| 20260506215112 | 0 | 225 | 7.8 | 15.6 | 0.00 | 0.00 | 0.00 | 1000.3 | |
| 20260506215052 | 0 | 270 | 8.7 | 15.6 | 0.00 | 0.00 | 0.00 | 1000.2 | |
| 20260506215032 | 0 | 225 | 8.7 | 15.6 | 0.00 | 0.00 | 0.00 | 1000.2 | |
| 20260506215022 | 0 | 225 | 9.6 | 15.6 | 0.00 | 0.00 | 0.00 | 1000.2 | |
| 20260506215012 | 0 | 225 | 10.4 | 15.6 | 0.00 | 0.00 | 0.00 | 1000.2 | |
| 20260506214952 | 0 | 248 | 10.4 | 15.6 | 0.00 | 0.00 | 0.00 | 1000.3 | |
| 20260506214942 | 0 | 225 | 10.4 | 15.6 | 0.00 | 0.00 | 0.00 | 1000.3 | |
| 20260506214922 | 0 | 225 | 10.4 | 15.6 | 0.00 | 0.00 | 0.00 | 1000.2 | |
| 20260506214902 | 0 | 248 | 10.4 | 15.6 | 0.00 | 0.00 | 0.00 | 1000.2 | |
| 20260506214852 | 0 | 225 | 10.4 | 15.6 | 0.00 | 0.00 | 0.00 | 1000.3 | |
| 20260506214842 | 0 | 225 | 9.6 | 15.6 | 0.00 | 0.00 | 0.00 | 1000.3 | |
| 20260506214822 | 0 | 225 | 8.7 | 15.6 | 0.00 | 0.00 | 0.00 | 1000.2 | |
| 20260506214802 | 0 | 225 | 7.0 | 15.6 | 0.00 | 0.00 | 0.00 | 1000.1 | |
| 20260506214752 | 0 | 225 | 7.8 | 15.6 | 0.00 | 0.00 | 0.00 | 1000.2 | |
| 20260506214742 | 0 | 225 | 7.8 | 15.6 | 0.00 | 0.00 | 0.00 | 1000.1 | |
| 20260506214702 | 0 | 225 | 8.7 | 15.6 | 0.00 | 0.00 | 0.00 | 1000.2 | |
| 20260506214652 | 0 | 270 | 8.7 | 15.6 | 0.00 | 0.00 | 0.00 | 1000.2 | |
| 20260506214632 | 0 | 225 | 7.8 | 13.9 | 0.00 | 0.00 | 0.00 | 1000.1 | |
| 20260506214622 | 0 | 225 | 7.8 | 13.9 | 0.00 | 0.00 | 0.00 | 1000.2 | |
| 20260506214612 | 0 | 270 | 8.7 | 13.9 | 0.00 | 0.00 | 0.00 | 1000.2 | |
| 20260506214532 | 0 | 225 | 8.7 | 13.9 | 0.00 | 0.00 | 0.00 | 1000.2 | |
| 20260506214523 | 0 | 225 | 9.6 | 13.9 | 0.00 | 0.00 | 0.00 | 1000.1 | |
| 20260506214453 | 0 | 225 | 10.4 | 13.9 | 0.00 | 0.00 | 0.00 | 1000.1 | |
| 20260506214443 | 0 | 225 | 9.6 | 13.9 | 0.00 | 0.00 | 0.00 | 1000.2 | |
| 20260506214433 | 0 | 225 | 8.7 | 13.9 | 0.00 | 0.00 | 0.00 | 1000.2 | |
| 20260506214423 | 0 | 225 | 8.7 | 13.9 | 0.00 | 0.00 | 0.00 | 1000.3 | |
| 20260506214413 | 0 | 225 | 7.8 | 13.9 | 0.00 | 0.00 | 0.00 | 1000.1 | |
| 20260506214353 | 0 | 225 | 7.0 | 13.9 | 0.00 | 0.00 | 0.00 | 1000.2 | |
| 20260506214323 | 0 | 270 | 7.0 | 13.9 | 0.00 | 0.00 | 0.00 | 1000.2 | |
| 20260506214313 | 0 | 270 | 7.8 | 13.9 | 0.00 | 0.00 | 0.00 | 1000.2 | |
| 20260506214253 | 0 | 270 | 8.7 | 13.9 | 0.00 | 0.00 | 0.00 | 1000.2 | |
| 20260506214243 | 0 | 225 | 8.7 | 13.9 | 0.00 | 0.00 | 0.00 | 1000.2 | |
| 20260506214223 | 0 | 270 | 10.4 | 13.9 | 0.00 | 0.00 | 0.00 | 1000.2 | |
| 20260506214213 | 0 | 225 | 10.4 | 13.9 | 0.00 | 0.00 | 0.00 | 1000.2 | |
| 20260506214203 | 0 | 270 | 9.6 | 13.9 | 0.00 | 0.00 | 0.00 | 1000.1 | |
| 20260506214153 | 0 | 225 | 9.6 | 13.9 | 0.00 | 0.00 | 0.00 | 1000.2 | |
| 20260506214143 | 0 | 248 | 9.6 | 13.9 | 0.00 | 0.00 | 0.00 | 1000.2 | |
| 20260506214133 | 0 | 270 | 8.7 | 13.9 | 0.00 | 0.00 | 0.00 | 1000.1 | |
| 20260506214113 | 0 | 225 | 8.7 | 13.0 | 0.00 | 0.00 | 0.00 | 1000.2 | |
| 20260506214053 | 0 | 248 | 8.7 | 13.0 | 0.00 | 0.00 | 0.00 | 1000.2 | |
| 20260506214043 | 0 | 270 | 8.7 | 13.0 | 0.00 | 0.00 | 0.00 | 1000.2 | |
| 20260506214033 | 0 | 225 | 8.7 | 13.0 | 0.00 | 0.00 | 0.00 | 1000.2 | |
| 20260506214023 | 0 | 270 | 8.7 | 13.0 | 0.00 | 0.00 | 0.00 | 1000.1 | |
| 20260506213943 | 0 | 270 | 8.7 | 13.0 | 0.00 | 0.00 | 0.00 | 1000.2 | |
| 20260506213933 | 0 | 248 | 8.7 | 13.0 | 0.00 | 0.00 | 0.00 | 1000.2 | |
| 20260506213923 | 0 | 225 | 8.7 | 13.0 | 0.00 | 0.00 | 0.00 | 1000.2 | |
| 20260506213913 | 0 | 248 | 7.8 | 13.0 | 0.00 | 0.00 | 0.00 | 1000.1 | |
| 20260506213853 | 0 | 270 | 8.7 | 13.0 | 0.00 | 0.00 | 0.00 | 1000.1 | |
| 20260506213834 | 0 | 225 | 7.8 | 13.0 | 0.00 | 0.00 | 0.00 | 1000.2 | |
| 20260506213824 | 0 | 270 | 7.0 | 13.0 | 0.00 | 0.00 | 0.00 | 1000.2 | |
| 20260506213814 | 0 | 225 | 7.0 | 13.0 | 0.00 | 0.00 | 0.00 | 1000.1 | |
| 20260506213804 | 0 | 248 | 7.0 | 13.0 | 0.00 | 0.00 | 0.00 | 1000.1 | |
| 20260506213754 | 0 | 270 | 7.0 | 11.3 | 0.00 | 0.00 | 0.00 | 1000.2 | |
| 20260506213744 | 0 | 225 | 7.0 | 11.3 | 0.00 | 0.00 | 0.00 | 1000.2 | |
| 20260506213724 | 0 | 225 | 7.8 | 11.3 | 0.00 | 0.00 | 0.00 | 1000.1 | |
| 20260506213714 | 0 | 270 | 8.7 | 11.3 | 0.00 | 0.00 | 0.00 | 1000.1 | |
| 20260506213704 | 0 | 270 | 7.0 | 10.4 | 0.00 | 0.00 | 0.00 | 1000.2 | |
| 20260506213644 | 0 | 225 | 7.0 | 10.4 | 0.00 | 0.00 | 0.00 | 1000.1 | |
| 20260506213634 | 0 | 225 | 7.0 | 10.4 | 0.00 | 0.00 | 0.00 | 1000.2 | |
| 20260506213624 | 0 | 225 | 7.0 | 10.4 | 0.00 | 0.00 | 0.00 | 698.2 | |
| 20260506213604 | 0 | 225 | 7.0 | 11.3 | 0.00 | 0.00 | 0.00 | 1000.1 | |
| 20260506213554 | 0 | 225 | 7.0 | 11.3 | 0.00 | 0.00 | 0.00 | 1000.2 | |
| 20260506213544 | 0 | 248 | 7.0 | 11.3 | 0.00 | 0.00 | 0.00 | 1000.1 | |
| 20260506213454 | 0 | 270 | 7.0 | 11.3 | 0.00 | 0.00 | 0.00 | 1000.2 | |
| 20260506213444 | 0 | 225 | 7.0 | 11.3 | 0.00 | 0.00 | 0.00 | 1000.2 | |
| 20260506213434 | 0 | 225 | 7.0 | 11.3 | 0.00 | 0.00 | 0.00 | 1000.1 | |
| 20260506213414 | 0 | 248 | 7.0 | 11.3 | 0.00 | 0.00 | 0.00 | 1000.1 | |
| 20260506213404 | 0 | 225 | 7.0 | 11.3 | 0.00 | 0.00 | 0.00 | 1000.2 | |
| 20260506213354 | 0 | 225 | 6.1 | 11.3 | 0.00 | 0.00 | 0.00 | 1000.2 | |
| 20260506213344 | 0 | 225 | 6.1 | 11.3 | 0.00 | 0.00 | 0.00 | 1000.1 | |
| 20260506213324 | 0 | 225 | 5.2 | 11.3 | 0.00 | 0.00 | 0.00 | 1000.2 | |
| 20260506213314 | 0 | 225 | 6.1 | 11.3 | 0.00 | 0.00 | 0.00 | 1000.2 | |
| 20260506213304 | 0 | 248 | 6.1 | 11.3 | 0.00 | 0.00 | 0.00 | 1000.2 | |
| 20260506213254 | 0 | 225 | 7.0 | 11.3 | 0.00 | 0.00 | 0.00 | 1000.1 | |
| 20260506213244 | 0 | 248 | 7.0 | 11.3 | 0.00 | 0.00 | 0.00 | 1000.1 | |
| 20260506213234 | 0 | 225 | 7.8 | 11.3 | 0.00 | 0.00 | 0.00 | 1000.1 | |
| 20260506213224 | 0 | 248 | 7.8 | 11.3 | 0.00 | 0.00 | 0.00 | 1000.1 | |
| 20260506213215 | 0 | 270 | 7.8 | 11.3 | 0.00 | 0.00 | 0.00 | 1000.1 | |
| 20260506213205 | 0 | 270 | 8.7 | 11.3 | 0.00 | 0.00 | 0.00 | 1000.2 | |
| 20260506213155 | 0 | 225 | 8.7 | 11.3 | 0.00 | 0.00 | 0.00 | 1000.2 | |
| 20260506213145 | 0 | 0 | 8.7 | 12.2 | 0.00 | 0.00 | 0.00 | 1000.2 | |
| 20260506213135 | 0 | 225 | 7.8 | 12.2 | 0.00 | 0.00 | 0.00 | 1000.2 | |
| 20260506213125 | 0 | 270 | 7.8 | 12.2 | 0.00 | 0.00 | 0.00 | 1000.1 | |
| 20260506213115 | 0 | 270 | 7.0 | 12.2 | 0.00 | 0.00 | 0.00 | 1000.1 | |
| 20260506213105 | 0 | 248 | 7.0 | 12.2 | 0.00 | 0.00 | 0.00 | 1000.2 | |
| 20260506213045 | 0 | 225 | 6.1 | 12.2 | 0.00 | 0.00 | 0.00 | 1000.1 | |
| 20260506213035 | 0 | 225 | 7.0 | 12.2 | 0.00 | 0.00 | 0.00 | 1000.0 | |
| 20260506213025 | 0 | 270 | 7.0 | 12.2 | 0.00 | 0.00 | 0.00 | 1000.1 | |
| 20260506213015 | 0 | 225 | 7.0 | 12.2 | 0.00 | 0.00 | 0.00 | 1000.2 | |
| 20260506212945 | 0 | 248 | 8.7 | 12.2 | 0.00 | 0.00 | 0.00 | 1000.2 | |
| 20260506212935 | 0 | 225 | 7.8 | 12.2 | 0.00 | 0.00 | 0.00 | 1000.1 | |
| 20260506212915 | 0 | 248 | 7.8 | 12.2 | 0.00 | 0.00 | 0.00 | 1000.1 | |
| 20260506212905 | 0 | 270 | 7.8 | 12.2 | 0.00 | 0.00 | 0.00 | 1000.1 | |
| 20260506212855 | 0 | 225 | 7.8 | 12.2 | 0.00 | 0.00 | 0.00 | 1000.1 | |
| 20260506212835 | 0 | 270 | 7.0 | 12.2 | 0.00 | 0.00 | 0.00 | 1000.1 | |
| 20260506212825 | 0 | 225 | 7.0 | 12.2 | 0.00 | 0.00 | 0.00 | 1000.1 | |
| 20260506212755 | 0 | 225 | 7.8 | 12.2 | 0.00 | 0.00 | 0.00 | 1000.1 | |
| 20260506212745 | 0 | 248 | 8.7 | 12.2 | 0.00 | 0.00 | 0.00 | 1000.1 | |
| 20260506212735 | 0 | 225 | 8.7 | 12.2 | 0.00 | 0.00 | 0.00 | 1000.1 | |
| 20260506212725 | 0 | 270 | 8.7 | 12.2 | 0.00 | 0.00 | 0.00 | 1000.1 | |
| 20260506212715 | 0 | 225 | 7.8 | 12.2 | 0.00 | 0.00 | 0.00 | 1000.1 | |
| 20260506212705 | 0 | 270 | 7.0 | 12.2 | 0.00 | 0.00 | 0.00 | 1000.0 | |
| 20260506212655 | 0 | 270 | 7.0 | 12.2 | 0.00 | 0.00 | 0.00 | 1000.1 | |
| 20260506212645 | 0 | 248 | 7.0 | 11.3 | 0.00 | 0.00 | 0.00 | 1000.1 | |
| 20260506212635 | 0 | 270 | 7.0 | 11.3 | 0.00 | 0.00 | 0.00 | 1000.1 | |
| 20260506212625 | 0 | 225 | 7.0 | 11.3 | 0.00 | 0.00 | 0.00 | 1000.0 | |
| 20260506212605 | 0 | 270 | 7.0 | 11.3 | 0.00 | 0.00 | 0.00 | 1000.0 | |
| 20260506212555 | 0 | 225 | 7.0 | 11.3 | 0.00 | 0.00 | 0.00 | 1000.1 | |
| 20260506212545 | 0 | 225 | 7.0 | 11.3 | 0.00 | 0.00 | 0.00 | 1000.0 | |
| 20260506212536 | 0 | 270 | 7.8 | 11.3 | 0.00 | 0.00 | 0.00 | 1000.1 | |
| 20260506212525 | 0 | 225 | 7.8 | 11.3 | 0.00 | 0.00 | 0.00 | 1000.0 | |
| 20260506212516 | 0 | 270 | 7.8 | 11.3 | 0.00 | 0.00 | 0.00 | 1000.0 | |
| 20260506212506 | 0 | 270 | 7.0 | 11.3 | 0.00 | 0.00 | 0.00 | 1000.0 | |
| 20260506212456 | 0 | 270 | 7.0 | 11.3 | 0.00 | 0.00 | 0.00 | 1000.1 | |
| 20260506212446 | 0 | 225 | 7.0 | 11.3 | 0.00 | 0.00 | 0.00 | 1000.0 | |
| 20260506212436 | 0 | 225 | 6.1 | 11.3 | 0.00 | 0.00 | 0.00 | 1000.1 | |
| 20260506212416 | 0 | 270 | 6.1 | 11.3 | 0.00 | 0.00 | 0.00 | 1000.0 | |
| 20260506212406 | 0 | 248 | 7.0 | 11.3 | 0.00 | 0.00 | 0.00 | 1000.1 | |
| 20260506212346 | 0 | 225 | 7.0 | 11.3 | 0.00 | 0.00 | 0.00 | 1000.1 | |
| 20260506212336 | 0 | 225 | 7.8 | 11.3 | 0.00 | 0.00 | 0.00 | 1000.1 | |
| 20260506212326 | 0 | 225 | 7.8 | 12.2 | 0.00 | 0.00 | 0.00 | 1000.1 | |
| 20260506212316 | 0 | 270 | 7.8 | 12.2 | 0.00 | 0.00 | 0.00 | 1000.0 | |
| 20260506212236 | 0 | 270 | 7.0 | 12.2 | 0.00 | 0.00 | 0.00 | 1000.0 | |
| 20260506212226 | 0 | 270 | 7.0 | 12.2 | 0.00 | 0.00 | 0.00 | 1000.1 | |
| 20260506212216 | 0 | 225 | 7.0 | 12.2 | 0.00 | 0.00 | 0.00 | 1000.1 | |
| 20260506212206 | 0 | 225 | 7.8 | 12.2 | 0.00 | 0.00 | 0.00 | 1000.0 | |
| 20260506212156 | 0 | 225 | 7.8 | 12.2 | 0.00 | 0.00 | 0.00 | 1000.1 | |
| 20260506212146 | 0 | 270 | 8.7 | 12.2 | 0.00 | 0.00 | 0.00 | 1000.0 | |
| 20260506212136 | 0 | 270 | 8.7 | 12.2 | 0.00 | 0.00 | 0.00 | 1000.1 | |
| 20260506212126 | 0 | 225 | 8.7 | 12.2 | 0.00 | 0.00 | 0.00 | 1000.1 | |
| 20260506212116 | 0 | 225 | 8.7 | 12.2 | 0.00 | 0.00 | 0.00 | 1000.0 | |
| 20260506212106 | 0 | 248 | 7.8 | 13.0 | 0.00 | 0.00 | 0.00 | 1000.1 | |
| 20260506212056 | 0 | 248 | 7.8 | 13.0 | 0.00 | 0.00 | 0.00 | 1000.0 | |
| 20260506212046 | 0 | 270 | 7.8 | 13.0 | 0.00 | 0.00 | 0.00 | 1000.0 | |
| 20260506212036 | 0 | 225 | 7.8 | 13.0 | 0.00 | 0.00 | 0.00 | 1000.1 | |
| 20260506212026 | 0 | 270 | 8.7 | 13.0 | 0.00 | 0.00 | 0.00 | 1000.0 | |
| 20260506212006 | 0 | 225 | 8.7 | 13.0 | 0.00 | 0.00 | 0.00 | 1000.1 | |
| 20260506211946 | 0 | 225 | 8.7 | 13.0 | 0.00 | 0.00 | 0.00 | 1000.0 | |
| 20260506211936 | 0 | 248 | 8.7 | 13.0 | 0.00 | 0.00 | 0.00 | 1000.1 | |
| 20260506211916 | 0 | 270 | 8.7 | 13.0 | 0.00 | 0.00 | 0.00 | 1000.0 | |
| 20260506211906 | 0 | 248 | 8.7 | 13.0 | 0.00 | 0.00 | 0.00 | 1000.0 | |
| 20260506211847 | 0 | 225 | 7.8 | 13.0 | 0.00 | 0.00 | 0.00 | 1000.0 | |
| 20260506211837 | 0 | 270 | 7.8 | 13.9 | 0.00 | 0.00 | 0.00 | 1000.0 | |
| 20260506211826 | 0 | 225 | 7.0 | 13.9 | 0.00 | 0.00 | 0.00 | 1000.0 | |
| 20260506211817 | 0 | 225 | 7.8 | 13.9 | 0.00 | 0.00 | 0.00 | 1000.0 | |
| 20260506211807 | 0 | 248 | 8.7 | 13.9 | 0.00 | 0.00 | 0.00 | 1000.0 | |
| 20260506211757 | 0 | 225 | 8.7 | 13.9 | 0.00 | 0.00 | 0.00 | 999.9 | |
| 20260506211747 | 0 | 270 | 8.7 | 13.9 | 0.00 | 0.00 | 0.00 | 999.9 | |
| 20260506211737 | 0 | 270 | 8.7 | 16.5 | 0.00 | 0.00 | 0.00 | 1000.0 | |
| 20260506211727 | 0 | 225 | 8.7 | 16.5 | 0.00 | 0.00 | 0.00 | 999.9 | |
| 20260506211717 | 0 | 270 | 8.7 | 16.5 | 0.00 | 0.00 | 0.00 | 999.9 | |
| 20260506211707 | 0 | 270 | 9.6 | 16.5 | 0.00 | 0.00 | 0.00 | 999.9 | |
| 20260506211657 | 0 | 225 | 9.6 | 16.5 | 0.00 | 0.00 | 0.00 | 999.9 | |
| 20260506211647 | 0 | 225 | 8.7 | 16.5 | 0.00 | 0.00 | 0.00 | 999.9 | |
| 20260506211627 | 0 | 270 | 8.7 | 16.5 | 0.00 | 0.00 | 0.00 | 862.1 | |
| 20260506211617 | 0 | 248 | 8.7 | 16.5 | 0.00 | 0.00 | 0.00 | 999.9 | |
| 20260506211607 | 0 | 225 | 8.7 | 16.5 | 0.00 | 0.00 | 0.00 | 999.9 | |
| 20260506211547 | 0 | 225 | 8.7 | 16.5 | 0.00 | 0.00 | 0.00 | 999.8 | |
| 20260506211537 | 56 | 270 | 9.6 | 16.5 | 0.00 | 0.00 | 0.00 | 78 | 999.8 |
| 20260506211527 | 0 | 225 | 9.6 | 16.5 | 0.00 | 0.00 | 0.00 | 999.9 | |
| 20260506211517 | 0 | 270 | 9.6 | 16.5 | 0.00 | 0.00 | 0.00 | 999.8 | |
| 20260506211457 | 0 | 270 | 8.7 | 16.5 | 0.00 | 0.00 | 0.00 | 999.8 | |
| 20260506211437 | 0 | 225 | 8.7 | 16.5 | 0.00 | 0.00 | 0.00 | 999.8 | |
| 20260506211427 | 0 | 270 | 9.6 | 16.5 | 0.00 | 0.00 | 0.00 | 999.8 | |
| 20260506211417 | 0 | 225 | 9.6 | 16.5 | 0.00 | 0.00 | 0.00 | 999.8 | |
| 20260506211407 | 0 | 270 | 10.4 | 17.4 | 0.00 | 0.00 | 0.00 | 999.8 | |
| 20260506211347 | 0 | 270 | 10.4 | 17.4 | 0.00 | 0.00 | 0.00 | 999.9 | |
| 20260506211327 | 0 | 270 | 10.4 | 17.4 | 0.00 | 0.00 | 0.00 | 999.8 | |
| 20260506211307 | 0 | 225 | 11.3 | 17.4 | 0.00 | 0.00 | 0.00 | 999.8 | |
| 20260506211247 | 0 | 270 | 11.3 | 17.4 | 0.00 | 0.00 | 0.00 | 999.8 | |
| 20260506211227 | 0 | 225 | 10.4 | 17.4 | 0.00 | 0.00 | 0.00 | 999.8 | |
| 20260506211207 | 0 | 270 | 10.4 | 17.4 | 0.00 | 0.00 | 0.00 | 999.8 | |
| 20260506211147 | 0 | 225 | 10.4 | 17.4 | 0.00 | 0.00 | 0.00 | 999.7 | |
| 20260506211137 | 0 | 225 | 10.4 | 17.4 | 0.00 | 0.00 | 0.00 | 999.8 | |
| 20260506211127 | 0 | 270 | 10.4 | 17.4 | 0.00 | 0.00 | 0.00 | 999.8 | |
| 20260506211118 | 0 | 270 | 10.4 | 17.4 | 0.00 | 0.00 | 0.00 | 999.7 | |
| 20260506211058 | 0 | 225 | 10.4 | 17.4 | 0.00 | 0.00 | 0.00 | 999.8 | |
| 20260506211048 | 0 | 270 | 10.4 | 17.4 | 0.00 | 0.00 | 0.00 | 999.8 | |
| 20260506211038 | 0 | 270 | 11.3 | 17.4 | 0.00 | 0.00 | 0.00 | 999.8 | |
| 20260506211028 | 0 | 248 | 11.3 | 17.4 | 0.00 | 0.00 | 0.00 | 999.8 | |
| 20260506211008 | 0 | 248 | 12.2 | 17.4 | 0.00 | 0.00 | 0.00 | 999.8 | |
| 20260506210938 | 0 | 270 | 12.2 | 17.4 | 0.00 | 0.00 | 0.00 | 999.8 | |
| 20260506210918 | 0 | 270 | 12.2 | 17.4 | 0.00 | 0.00 | 0.00 | 999.7 | |
| 20260506210908 | 0 | 270 | 11.3 | 14.8 | 0.00 | 0.00 | 0.00 | 999.7 | |
| 20260506210858 | 0 | 225 | 12.2 | 14.8 | 0.00 | 0.00 | 0.00 | 999.7 | |
| 20260506210848 | 0 | 225 | 11.3 | 14.8 | 0.00 | 0.00 | 0.00 | 999.7 | |
| 20260506210838 | 0 | 225 | 11.3 | 14.8 | 0.00 | 0.00 | 0.00 | 999.8 | |
| 20260506210828 | 0 | 225 | 10.4 | 14.8 | 0.00 | 0.00 | 0.00 | 999.8 | |
| 20260506210818 | 0 | 270 | 10.4 | 14.8 | 0.00 | 0.00 | 0.00 | 999.7 | |
| 20260506210758 | 0 | 270 | 8.7 | 14.8 | 0.00 | 0.00 | 0.00 | 999.8 | |
| 20260506210728 | 0 | 225 | 8.7 | 14.8 | 0.00 | 0.00 | 0.00 | 999.8 | |
| 20260506210718 | 0 | 225 | 8.7 | 14.8 | 0.00 | 0.00 | 0.00 | 999.7 | |
| 20260506210708 | 0 | 270 | 9.6 | 16.5 | 0.00 | 0.00 | 0.00 | 999.8 | |
| 20260506210628 | 0 | 270 | 9.6 | 17.4 | 0.00 | 0.00 | 0.00 | 999.8 | |
| 20260506210618 | 0 | 225 | 9.6 | 17.4 | 0.00 | 0.00 | 0.00 | 4566.5 | |
| 20260506210608 | 0 | 248 | 10.4 | 17.4 | 0.00 | 0.00 | 0.00 | 999.8 | |
| 20260506210558 | 0 | 270 | 10.4 | 17.4 | 0.00 | 0.00 | 0.00 | 999.8 | |
| 20260506210548 | 0 | 225 | 10.4 | 17.4 | 0.00 | 0.00 | 0.00 | 999.8 | |
| 20260506210508 | 0 | 225 | 10.4 | 17.4 | 0.00 | 0.00 | 0.00 | 999.8 | |
| 20260506210448 | 0 | 248 | 10.4 | 17.4 | 0.00 | 0.00 | 0.00 | 999.8 | |
| 20260506210419 | 0 | 225 | 10.4 | 17.4 | 0.00 | 0.00 | 0.00 | 999.8 | |
| 20260506210409 | 0 | 270 | 10.4 | 19.1 | 0.00 | 0.00 | 0.00 | 999.7 | |
| 20260506210359 | 0 | 248 | 10.4 | 19.1 | 0.00 | 0.00 | 0.00 | 999.8 | |
| 20260506210329 | 0 | 225 | 8.7 | 19.1 | 0.00 | 0.00 | 0.00 | 999.8 | |
| 20260506210319 | 0 | 225 | 9.6 | 19.1 | 0.00 | 0.00 | 0.00 | 999.8 | |
| 20260506210259 | 0 | 225 | 10.4 | 19.1 | 0.00 | 0.00 | 0.00 | 999.9 | |
| 20260506210249 | 0 | 270 | 11.3 | 19.1 | 0.00 | 0.00 | 0.00 | 999.8 | |
| 20260506210239 | 0 | 225 | 12.2 | 19.1 | 0.00 | 0.00 | 0.00 | 999.8 | |
| 20260506210229 | 0 | 225 | 11.3 | 19.1 | 0.00 | 0.00 | 0.00 | 999.9 | |
| 20260506210219 | 0 | 225 | 10.4 | 19.1 | 0.00 | 0.00 | 0.00 | 999.8 | |
| 20260506210209 | 0 | 225 | 8.7 | 19.1 | 0.00 | 0.00 | 0.00 | 999.8 | |
| 20260506210159 | 0 | 225 | 7.8 | 19.1 | 0.00 | 0.00 | 0.00 | 999.8 | |
| 20260506210149 | 0 | 225 | 7.8 | 19.1 | 0.00 | 0.00 | 0.00 | 999.7 | |
| 20260506210139 | 0 | 225 | 7.8 | 19.1 | 0.00 | 0.00 | 0.00 | 999.9 | |
| 20260506210129 | 0 | 225 | 8.7 | 19.1 | 0.00 | 0.00 | 0.00 | 999.8 | |
| 20260506210119 | 0 | 225 | 9.6 | 19.1 | 0.00 | 0.00 | 0.00 | 999.9 | |
| 20260506210109 | 0 | 225 | 10.4 | 19.1 | 0.00 | 0.00 | 0.00 | 999.8 | |
| 20260506210059 | 0 | 225 | 11.3 | 19.1 | 0.00 | 0.00 | 0.00 | 999.8 | |
| 20260506210039 | 0 | 225 | 10.4 | 19.1 | 0.00 | 0.00 | 0.00 | 999.9 | |
| 20260506210019 | 0 | 225 | 10.4 | 19.1 | 0.00 | 0.00 | 0.00 | 999.8 | |
| 20260506210009 | 0 | 225 | 9.6 | 19.1 | 0.00 | 0.00 | 0.00 | 999.8 | |
| 20260506205959 | 0 | 270 | 10.4 | 19.1 | 0.00 | 0.00 | 0.00 | 999.8 | |
| 20260506205949 | 0 | 225 | 10.4 | 19.1 | 0.00 | 0.00 | 0.00 | 999.7 | |
| 20260506205929 | 0 | 225 | 10.4 | 19.1 | 0.00 | 0.00 | 0.00 | 999.6 | |
| 20260506205909 | 0 | 225 | 10.4 | 19.1 | 0.00 | 0.00 | 0.00 | 999.8 | |
| 20260506205849 | 0 | 225 | 10.4 | 18.2 | 0.00 | 0.00 | 0.00 | 999.9 | |
| 20260506205829 | 0 | 225 | 11.3 | 18.2 | 0.00 | 0.00 | 0.00 | 999.8 | |
| 20260506205819 | 0 | 248 | 12.2 | 18.2 | 0.00 | 0.00 | 0.00 | 999.9 | |
| 20260506205809 | 0 | 270 | 11.3 | 18.2 | 0.00 | 0.00 | 0.00 | 999.9 | |
| 20260506205749 | 0 | 225 | 10.4 | 18.2 | 0.00 | 0.00 | 0.00 | 999.9 | |
| 20260506205730 | 0 | 225 | 8.7 | 18.2 | 0.00 | 0.00 | 0.00 | 999.9 | |
| 20260506205720 | 0 | 225 | 7.8 | 18.2 | 0.00 | 0.00 | 0.00 | 999.8 | |
| 20260506205710 | 0 | 225 | 8.7 | 18.2 | 0.00 | 0.00 | 0.00 | 999.6 | |
| 20260506205650 | 0 | 225 | 8.7 | 18.2 | 0.00 | 0.00 | 0.00 | 999.8 | |
| 20260506205640 | 0 | 225 | 10.4 | 18.2 | 0.00 | 0.00 | 0.00 | 999.9 | |
| 20260506205620 | 0 | 203 | 10.4 | 18.2 | 0.00 | 0.00 | 0.00 | 999.8 | |
| 20260506205610 | 0 | 225 | 11.3 | 18.2 | 0.00 | 0.00 | 0.00 | 999.8 | |
| 20260506205600 | 0 | 225 | 11.3 | 18.2 | 0.00 | 0.00 | 0.00 | 999.7 | |
| 20260506205550 | 0 | 270 | 12.2 | 18.2 | 0.00 | 0.00 | 0.00 | 999.9 | |
| 20260506205540 | 0 | 270 | 11.3 | 18.2 | 0.00 | 0.00 | 0.00 | 999.8 | |
| 20260506205530 | 0 | 225 | 10.4 | 18.2 | 0.00 | 0.00 | 0.00 | 999.9 | |
| 20260506205520 | 0 | 225 | 9.6 | 17.4 | 0.00 | 0.00 | 0.00 | 999.9 | |
| 20260506205510 | 0 | 225 | 8.7 | 15.6 | 0.00 | 0.00 | 0.00 | 999.9 | |
| 20260506205500 | 0 | 225 | 7.8 | 15.6 | 0.00 | 0.00 | 0.00 | 999.8 | |
| 20260506205450 | 0 | 225 | 7.8 | 15.6 | 0.00 | 0.00 | 0.00 | 999.7 | |
| 20260506205430 | 0 | 225 | 8.7 | 15.6 | 0.00 | 0.00 | 0.00 | 999.9 | |
| 20260506205420 | 0 | 225 | 9.6 | 15.6 | 0.00 | 0.00 | 0.00 | 999.9 | |
| 20260506205410 | 0 | 225 | 8.7 | 16.5 | 0.00 | 0.00 | 0.00 | 999.7 | |
| 20260506205400 | 0 | 225 | 8.7 | 16.5 | 0.00 | 0.00 | 0.00 | 999.8 | |
| 20260506205350 | 0 | 225 | 7.8 | 16.5 | 0.00 | 0.00 | 0.00 | 999.9 | |
| 20260506205340 | 0 | 225 | 7.0 | 16.5 | 0.00 | 0.00 | 0.00 | 999.8 | |
| 20260506205330 | 0 | 225 | 7.0 | 16.5 | 0.00 | 0.00 | 0.00 | 999.9 | |
| 20260506205320 | 0 | 225 | 7.0 | 16.5 | 0.00 | 0.00 | 0.00 | 999.7 | |
| 20260506205310 | 0 | 270 | 7.0 | 16.5 | 0.00 | 0.00 | 0.00 | 999.7 | |
| 20260506205250 | 0 | 225 | 7.0 | 16.5 | 0.00 | 0.00 | 0.00 | 999.8 | |
| 20260506205240 | 0 | 225 | 6.1 | 16.5 | 0.00 | 0.00 | 0.00 | 999.8 | |
| 20260506205220 | 0 | 225 | 5.2 | 16.5 | 0.00 | 0.00 | 0.00 | 999.9 | |
| 20260506205210 | 0 | 225 | 6.1 | 16.5 | 0.00 | 0.00 | 0.00 | 999.7 | |
| 20260506205200 | 0 | 225 | 7.0 | 16.5 | 0.00 | 0.00 | 0.00 | 999.8 | |
| 20260506205150 | 0 | 225 | 7.0 | 16.5 | 0.00 | 0.00 | 0.00 | 999.9 | |
| 20260506205140 | 0 | 225 | 8.7 | 16.5 | 0.00 | 0.00 | 0.00 | 999.9 | |
| 20260506205130 | 0 | 225 | 7.8 | 16.5 | 0.00 | 0.00 | 0.00 | 999.8 | |
| 20260506205110 | 0 | 225 | 8.7 | 16.5 | 0.00 | 0.00 | 0.00 | 999.8 | |
| 20260506205101 | 0 | 225 | 7.0 | 16.5 | 0.00 | 0.00 | 0.00 | 999.9 | |
| 20260506205041 | 0 | 270 | 7.0 | 16.5 | 0.00 | 0.00 | 0.00 | 999.8 | |
| 20260506205031 | 0 | 270 | 7.0 | 16.5 | 0.00 | 0.00 | 0.00 | 999.9 | |
| 20260506205021 | 0 | 225 | 7.8 | 16.5 | 0.00 | 0.00 | 0.00 | 999.8 | |
| 20260506205001 | 0 | 225 | 7.8 | 16.5 | 0.00 | 0.00 | 0.00 | 999.7 | |
| 20260506204931 | 0 | 225 | 7.8 | 16.5 | 0.00 | 0.00 | 0.00 | 999.6 | |
| 20260506204921 | 0 | 225 | 7.8 | 16.5 | 0.00 | 0.00 | 0.00 | 999.8 | |
| 20260506204911 | 0 | 225 | 7.0 | 13.9 | 0.00 | 0.00 | 0.00 | 999.7 | |
| 20260506204901 | 0 | 270 | 7.0 | 13.9 | 0.00 | 0.00 | 0.00 | 999.6 | |
| 20260506204851 | 0 | 158 | 7.0 | 13.9 | 0.00 | 0.00 | 0.00 | 999.7 | |
| 20260506204841 | 0 | 270 | 6.1 | 13.0 | 0.00 | 0.00 | 0.00 | 999.6 | |
| 20260506204831 | 0 | 225 | 6.1 | 13.0 | 0.00 | 0.00 | 0.00 | 999.8 | |
| 20260506204821 | 0 | 225 | 5.2 | 13.0 | 0.00 | 0.00 | 0.00 | 999.8 | |
| 20260506204811 | 0 | 270 | 5.2 | 13.0 | 0.00 | 0.00 | 0.00 | 999.5 | |
| 20260506204801 | 0 | 225 | 6.1 | 14.8 | 0.00 | 0.00 | 0.00 | 999.7 | |
| 20260506204741 | 0 | 180 | 6.1 | 16.5 | 0.00 | 0.00 | 0.00 | 999.7 | |
| 20260506204731 | 0 | 225 | 6.1 | 16.5 | 0.00 | 0.00 | 0.00 | 999.7 | |
| 20260506204721 | 0 | 248 | 6.1 | 16.5 | 0.00 | 0.00 | 0.00 | 999.7 | |
| 20260506204711 | 0 | 225 | 7.0 | 16.5 | 0.00 | 0.00 | 0.00 | 999.7 | |
| 20260506204701 | 0 | 180 | 7.0 | 16.5 | 0.00 | 0.00 | 0.00 | 999.7 | |
| 20260506204651 | 0 | 180 | 7.0 | 16.5 | 0.00 | 0.00 | 0.00 | 999.6 | |
| 20260506204641 | 0 | 270 | 6.1 | 16.5 | 0.00 | 0.00 | 0.00 | ||
| 20260506204631 | 0 | 248 | 7.0 | 16.5 | 0.00 | 0.00 | 0.00 | 999.8 | |
| 20260506204621 | 0 | 225 | 7.0 | 16.5 | 0.00 | 0.00 | 0.00 | 999.7 | |
| 20260506204601 | 0 | 203 | 5.2 | 16.5 | 0.00 | 0.00 | 0.00 | 999.7 | |
| 20260506204551 | 0 | 225 | 5.2 | 16.5 | 0.00 | 0.00 | 0.00 | 999.5 | |
| 20260506204541 | 0 | 270 | 5.2 | 16.5 | 0.00 | 0.00 | 0.00 | 999.4 | |
| 20260506204531 | 0 | 225 | 5.2 | 16.5 | 0.00 | 0.00 | 0.00 | 999.6 | |
| 20260506204521 | 0 | 180 | 5.2 | 16.5 | 0.00 | 0.00 | 0.00 | 999.5 | |
| 20260506204511 | 0 | 180 | 5.2 | 16.5 | 0.00 | 0.00 | 0.00 | 999.6 | |
| 20260506204501 | 57 | 270 | 5.2 | 16.5 | 0.00 | 0.00 | 0.00 | 80 | 999.6 |
| 20260506204441 | 0 | 248 | 6.1 | 16.5 | 0.00 | 0.00 | 0.00 | 999.7 | |
| 20260506204431 | 0 | 225 | 6.1 | 16.5 | 0.00 | 0.00 | 0.00 | 999.7 | |
| 20260506204421 | 0 | 180 | 7.0 | 16.5 | 0.00 | 0.00 | 0.00 | 3487.9 | |
| 20260506204412 | 0 | 180 | 7.0 | 16.5 | 0.00 | 0.00 | 0.00 | 999.7 | |
| 20260506204402 | 0 | 225 | 7.0 | 16.5 | 0.00 | 0.00 | 0.00 | 999.6 | |
| 20260506204352 | 0 | 225 | 7.0 | 16.5 | 0.00 | 0.00 | 0.00 | 999.7 | |
| 20260506204332 | 0 | 225 | 7.8 | 16.5 | 0.00 | 0.00 | 0.00 | 999.7 | |
| 20260506204322 | 0 | 248 | 7.0 | 16.5 | 0.00 | 0.00 | 0.00 | 999.6 | |
| 20260506204312 | 0 | 225 | 7.0 | 16.5 | 0.00 | 0.00 | 0.00 | 999.7 | |
| 20260506204302 | 0 | 225 | 7.0 | 16.5 | 0.00 | 0.00 | 0.00 | 999.5 | |
| 20260506204252 | 0 | 225 | 7.0 | 14.8 | 0.00 | 0.00 | 0.00 | 999.6 | |
| 20260506204242 | 0 | 270 | 7.0 | 14.8 | 0.00 | 0.00 | 0.00 | 999.4 | |
| 20260506204232 | 0 | 158 | 7.0 | 14.8 | 0.00 | 0.00 | 0.00 | 706.5 | |
| 20260506204212 | 0 | 225 | 7.0 | 14.8 | 0.00 | 0.00 | 0.00 | 999.6 | |
| 20260506204202 | 0 | 225 | 7.0 | 14.8 | 0.00 | 0.00 | 0.00 | 999.7 | |
| 20260506204152 | 0 | 203 | 7.0 | 14.8 | 0.00 | 0.00 | 0.00 | 999.6 | |
| 20260506204142 | 0 | 225 | 7.0 | 14.8 | 0.00 | 0.00 | 0.00 | 999.4 | |
| 20260506204132 | 0 | 225 | 7.0 | 14.8 | 0.00 | 0.00 | 0.00 | 999.6 | |
| 20260506204122 | 0 | 293 | 7.8 | 14.8 | 0.00 | 0.00 | 0.00 | 807.0 | |
| 20260506204112 | 0 | 225 | 7.8 | 14.8 | 0.00 | 0.00 | 0.00 | 999.7 | |
| 20260506204042 | 0 | 248 | 6.1 | 14.8 | 0.00 | 0.00 | 0.00 | 999.6 | |
| 20260506204032 | 0 | 225 | 7.0 | 14.8 | 0.00 | 0.00 | 0.00 | 999.6 | |
| 20260506204022 | 0 | 225 | 5.2 | 14.8 | 0.00 | 0.00 | 0.00 | 999.6 | |
| 20260506204013 | 0 | 225 | 6.1 | 14.8 | 0.00 | 0.00 | 0.00 | 999.7 | |
| 20260506204002 | 57 | 180 | 6.1 | 14.8 | 0.00 | 0.00 | 0.00 | 80 | 999.6 |
| 20260506203952 | 0 | 270 | 6.1 | 14.8 | 0.00 | 0.00 | 0.00 | 999.6 | |
| 20260506203942 | 0 | 225 | 6.1 | 14.8 | 0.00 | 0.00 | 0.00 | 999.6 | |
| 20260506203932 | 0 | 225 | 5.2 | 13.0 | 0.00 | 0.00 | 0.00 | 999.6 | |
| 20260506203922 | 0 | 225 | 6.1 | 13.0 | 0.00 | 0.00 | 0.00 | 999.6 | |
| 20260506203912 | 0 | 180 | 6.1 | 13.0 | 0.00 | 0.00 | 0.00 | 999.5 | |
| 20260506203902 | 0 | 180 | 7.0 | 13.0 | 0.00 | 0.00 | 0.00 | 999.7 | |
| 20260506203852 | 0 | 225 | 7.0 | 13.0 | 0.00 | 0.00 | 0.00 | 999.7 | |
| 20260506203832 | 0 | 270 | 7.0 | 13.0 | 0.00 | 0.00 | 0.00 | 999.6 | |
| 20260506203822 | 0 | 225 | 6.1 | 13.0 | 0.00 | 0.00 | 0.00 | 999.6 | |
| 20260506203812 | 0 | 225 | 5.2 | 13.0 | 0.00 | 0.00 | 0.00 | 773.0 | |
| 20260506203802 | 0 | 180 | 5.2 | 13.0 | 0.00 | 0.00 | 0.00 | 999.6 | |
| 20260506203742 | 0 | 180 | 5.2 | 13.0 | 0.00 | 0.00 | 0.00 | 999.5 | |
| 20260506203732 | 0 | 225 | 5.2 | 13.0 | 0.00 | 0.00 | 0.00 | 999.6 | |
| 20260506203722 | 0 | 180 | 7.0 | 13.9 | 0.00 | 0.00 | 0.00 | 999.6 | |
| 20260506203713 | 0 | 225 | 7.0 | 14.8 | 0.00 | 0.00 | 0.00 | 999.6 | |
| 20260506203703 | 0 | 248 | 7.0 | 14.8 | 0.00 | 0.00 | 0.00 | 999.7 | |
| 20260506203653 | 0 | 225 | 6.1 | 14.8 | 0.00 | 0.00 | 0.00 | 999.7 | |
| 20260506203643 | 0 | 180 | 6.1 | 14.8 | 0.00 | 0.00 | 0.00 | 999.6 | |
| 20260506203623 | 0 | 225 | 5.2 | 14.8 | 0.00 | 0.00 | 0.00 | 999.6 | |
| 20260506203613 | 0 | 225 | 4.3 | 14.8 | 0.00 | 0.00 | 0.00 | 999.5 | |
| 20260506203543 | 0 | 203 | 5.2 | 14.8 | 0.00 | 0.00 | 0.00 | 999.6 | |
| 20260506203533 | 0 | 225 | 5.2 | 14.8 | 0.00 | 0.00 | 0.00 | 999.5 | |
| 20260506203523 | 0 | 225 | 5.2 | 14.8 | 0.00 | 0.00 | 0.00 | 999.6 | |
| 20260506203513 | 0 | 203 | 4.3 | 14.8 | 0.00 | 0.00 | 0.00 | 999.5 | |
| 20260506203453 | 0 | 225 | 4.3 | 14.8 | 0.00 | 0.00 | 0.00 | 999.6 | |
| 20260506203443 | 0 | 225 | 5.2 | 14.8 | 0.00 | 0.00 | 0.00 | 999.5 | |
| 20260506203433 | 0 | 225 | 5.2 | 14.8 | 0.00 | 0.00 | 0.00 | 999.6 | |
| 20260506203423 | 0 | 180 | 5.2 | 14.8 | 0.00 | 0.00 | 0.00 | 807.0 | |
| 20260506203413 | 0 | 315 | 7.0 | 14.8 | 0.00 | 0.00 | 0.00 | 999.4 | |
| 20260506203353 | 57 | 225 | 7.0 | 14.8 | 0.00 | 0.00 | 0.00 | 81 | 999.6 |
| 20260506203333 | 0 | 225 | 7.0 | 14.8 | 0.00 | 0.00 | 0.00 | 999.5 | |
| 20260506203323 | 0 | 225 | 8.7 | 14.8 | 0.00 | 0.00 | 0.00 | 999.6 | |
| 20260506203313 | 0 | 225 | 8.7 | 14.8 | 0.00 | 0.00 | 0.00 | 999.5 | |
| 20260506203303 | 0 | 225 | 8.7 | 14.8 | 0.00 | 0.00 | 0.00 | ||
| 20260506203253 | 58 | 270 | 8.7 | 14.8 | 0.00 | 0.00 | 0.00 | 80 | 999.5 |
| 20260506203243 | 0 | 225 | 8.7 | 14.8 | 0.00 | 0.00 | 0.00 | 999.7 | |
| 20260506203233 | 0 | 225 | 7.8 | 14.8 | 0.00 | 0.00 | 0.00 | 999.6 | |
| 20260506203223 | 0 | 225 | 7.0 | 14.8 | 0.00 | 0.00 | 0.00 | 999.5 | |
| 20260506203213 | 0 | 225 | 7.0 | 14.8 | 0.00 | 0.00 | 0.00 | 999.6 | |
| 20260506203203 | 0 | 225 | 6.1 | 13.9 | 0.00 | 0.00 | 0.00 | 999.5 | |
| 20260506203143 | 0 | 225 | 7.0 | 13.9 | 0.00 | 0.00 | 0.00 | 999.6 | |
| 20260506203133 | 0 | 225 | 7.8 | 14.8 | 0.00 | 0.00 | 0.00 | 999.5 | |
| 20260506203123 | 0 | 225 | 7.8 | 14.8 | 0.00 | 0.00 | 0.00 | 999.6 | |
| 20260506203113 | 0 | 225 | 8.7 | 14.8 | 0.00 | 0.00 | 0.00 | 999.5 | |
| 20260506203103 | 0 | 225 | 8.7 | 14.8 | 0.00 | 0.00 | 0.00 | 999.6 | |
| 20260506203053 | 0 | 225 | 7.8 | 14.8 | 0.00 | 0.00 | 0.00 | 999.5 | |
| 20260506203043 | 0 | 270 | 7.8 | 14.8 | 0.00 | 0.00 | 0.00 | 999.5 | |
| 20260506203033 | 0 | 180 | 7.0 | 14.8 | 0.00 | 0.00 | 0.00 | 999.5 | |
| 20260506203024 | 0 | 248 | 7.8 | 14.8 | 0.00 | 0.00 | 0.00 | 999.6 | |
| 20260506202944 | 0 | 225 | 7.8 | 14.8 | 0.00 | 0.00 | 0.00 | 999.5 | |
| 20260506202934 | 0 | 270 | 8.7 | 14.8 | 0.00 | 0.00 | 0.00 | 999.5 | |
| 20260506202924 | 0 | 225 | 8.7 | 14.8 | 0.00 | 0.00 | 0.00 | 999.5 | |
| 20260506202914 | 0 | 270 | 7.8 | 14.8 | 0.00 | 0.00 | 0.00 | 999.5 | |
| 20260506202904 | 0 | 225 | 7.8 | 14.8 | 0.00 | 0.00 | 0.00 | 999.5 | |
| 20260506202844 | 0 | 225 | 8.7 | 14.8 | 0.00 | 0.00 | 0.00 | 999.4 | |
| 20260506202834 | 0 | 225 | 8.7 | 14.8 | 0.00 | 0.00 | 0.00 | 999.5 | |
| 20260506202824 | 0 | 225 | 8.7 | 14.8 | 0.00 | 0.00 | 0.00 | 999.6 | |
| 20260506202814 | 0 | 270 | 9.6 | 14.8 | 0.00 | 0.00 | 0.00 | 999.5 | |
| 20260506202804 | 0 | 248 | 9.6 | 14.8 | 0.00 | 0.00 | 0.00 | 999.5 | |
| 20260506202754 | 0 | 225 | 10.4 | 14.8 | 0.00 | 0.00 | 0.00 | 999.5 | |
| 20260506202724 | 0 | 270 | 10.4 | 14.8 | 0.00 | 0.00 | 0.00 | 999.5 | |
| 20260506202714 | 0 | 225 | 10.4 | 14.8 | 0.00 | 0.00 | 0.00 | 999.5 | |
| 20260506202704 | 0 | 270 | 9.6 | 14.8 | 0.00 | 0.00 | 0.00 | 999.5 | |
| 20260506202654 | 0 | 225 | 9.6 | 14.8 | 0.00 | 0.00 | 0.00 | 999.5 | |
| 20260506202644 | 0 | 270 | 8.7 | 14.8 | 0.00 | 0.00 | 0.00 | 999.4 | |
| 20260506202634 | 0 | 225 | 8.7 | 13.9 | 0.00 | 0.00 | 0.00 | 999.5 | |
| 20260506202624 | 0 | 225 | 7.8 | 12.2 | 0.00 | 0.00 | 0.00 | 999.5 | |
| 20260506202604 | 0 | 270 | 7.0 | 12.2 | 0.00 | 0.00 | 0.00 | 999.5 | |
| 20260506202544 | 0 | 270 | 7.0 | 12.2 | 0.00 | 0.00 | 0.00 | 999.4 | |
| 20260506202534 | 0 | 225 | 7.0 | 12.2 | 0.00 | 0.00 | 0.00 | 999.5 | |
| 20260506202524 | 0 | 270 | 7.0 | 12.2 | 0.00 | 0.00 | 0.00 | 999.5 | |
| 20260506202514 | 0 | 225 | 7.8 | 12.2 | 0.00 | 0.00 | 0.00 | 999.4 | |
| 20260506202504 | 0 | 225 | 8.7 | 12.2 | 0.00 | 0.00 | 0.00 | 999.4 | |
| 20260506202454 | 0 | 270 | 8.7 | 12.2 | 0.00 | 0.00 | 0.00 | 999.4 | |
| 20260506202444 | 0 | 225 | 8.7 | 12.2 | 0.00 | 0.00 | 0.00 | 999.5 | |
| 20260506202424 | 0 | 270 | 7.8 | 12.2 | 0.00 | 0.00 | 0.00 | 999.4 | |
| 20260506202354 | 0 | 0 | 7.0 | 12.2 | 0.00 | 0.00 | 0.00 | 999.4 | |
| 20260506202344 | 0 | 270 | 7.0 | 12.2 | 0.00 | 0.00 | 0.00 | 999.4 | |
| 20260506202334 | 0 | 225 | 7.0 | 12.2 | 0.00 | 0.00 | 0.00 | 999.4 | |
| 20260506202324 | 0 | 270 | 7.8 | 12.2 | 0.00 | 0.00 | 0.00 | 999.4 | |
| 20260506202314 | 0 | 270 | 8.7 | 12.2 | 0.00 | 0.00 | 0.00 | 999.4 | |
| 20260506202235 | 0 | 270 | 8.7 | 12.2 | 0.00 | 0.00 | 0.00 | 999.4 | |
| 20260506202215 | 0 | 225 | 8.7 | 12.2 | 0.00 | 0.00 | 0.00 | 999.4 | |
| 20260506202145 | 0 | 270 | 8.7 | 12.2 | 0.00 | 0.00 | 0.00 | 999.4 | |
| 20260506202125 | 0 | 225 | 8.7 | 12.2 | 0.00 | 0.00 | 0.00 | 999.4 | |
| 20260506202045 | 0 | 225 | 8.7 | 12.2 | 0.00 | 0.00 | 0.00 | 999.4 | |
| 20260506202035 | 0 | 270 | 8.7 | 12.2 | 0.00 | 0.00 | 0.00 | 999.4 | |
| 20260506202015 | 0 | 225 | 8.7 | 12.2 | 0.00 | 0.00 | 0.00 | 999.3 | |
| 20260506201955 | 0 | 225 | 8.7 | 12.2 | 0.00 | 0.00 | 0.00 | 999.4 | |
| 20260506201945 | 0 | 225 | 7.8 | 12.2 | 0.00 | 0.00 | 0.00 | 999.5 | |
| 20260506201925 | 0 | 225 | 7.8 | 12.2 | 0.00 | 0.00 | 0.00 | 999.4 | |
| 20260506201905 | 0 | 270 | 7.8 | 12.2 | 0.00 | 0.00 | 0.00 | 999.4 | |
| 20260506201845 | 0 | 225 | 8.7 | 12.2 | 0.00 | 0.00 | 0.00 | 999.4 | |
| 20260506201835 | 0 | 270 | 8.7 | 12.2 | 0.00 | 0.00 | 0.00 | 999.4 | |
| 20260506201825 | 0 | 270 | 8.7 | 12.2 | 0.00 | 0.00 | 0.00 | 999.3 | |
| 20260506201745 | 0 | 225 | 7.8 | 12.2 | 0.00 | 0.00 | 0.00 | 999.4 | |
| 20260506201735 | 0 | 225 | 7.8 | 12.2 | 0.00 | 0.00 | 0.00 | 999.3 | |
| 20260506201725 | 0 | 225 | 8.7 | 12.2 | 0.00 | 0.00 | 0.00 | 999.3 | |
| 20260506201715 | 0 | 248 | 8.7 | 13.0 | 0.00 | 0.00 | 0.00 | 999.3 | |
| 20260506201705 | 0 | 225 | 8.7 | 13.0 | 0.00 | 0.00 | 0.00 | 999.4 | |
| 20260506201645 | 0 | 225 | 8.7 | 13.9 | 0.00 | 0.00 | 0.00 | 999.3 | |
| 20260506201606 | 0 | 225 | 8.7 | 13.9 | 0.00 | 0.00 | 0.00 | 999.3 | |
| 20260506201556 | 0 | 270 | 8.7 | 13.9 | 0.00 | 0.00 | 0.00 | 999.3 | |
| 20260506201546 | 0 | 248 | 8.7 | 13.9 | 0.00 | 0.00 | 0.00 | 999.4 | |
| 20260506201536 | 0 | 225 | 7.8 | 13.9 | 0.00 | 0.00 | 0.00 | 999.3 | |
| 20260506201526 | 0 | 248 | 7.8 | 13.9 | 0.00 | 0.00 | 0.00 | 999.4 | |
| 20260506201516 | 0 | 225 | 7.0 | 13.9 | 0.00 | 0.00 | 0.00 | 999.3 | |
| 20260506201506 | 0 | 225 | 7.0 | 13.9 | 0.00 | 0.00 | 0.00 | 999.2 | |
| 20260506201436 | 0 | 225 | 7.0 | 13.9 | 0.00 | 0.00 | 0.00 | 999.3 | |
| 20260506201426 | 0 | 225 | 7.8 | 13.9 | 0.00 | 0.00 | 0.00 | 999.3 | |
| 20260506201406 | 0 | 225 | 7.8 | 13.9 | 0.00 | 0.00 | 0.00 | 999.2 | |
| 20260506201356 | 0 | 270 | 7.8 | 13.9 | 0.00 | 0.00 | 0.00 | 999.3 | |
| 20260506201346 | 0 | 270 | 8.7 | 13.9 | 0.00 | 0.00 | 0.00 | 999.2 | |
| 20260506201336 | 0 | 248 | 8.7 | 13.9 | 0.00 | 0.00 | 0.00 | 999.3 | |
| 20260506201326 | 0 | 270 | 8.7 | 13.9 | 0.00 | 0.00 | 0.00 | 999.3 | |
| 20260506201316 | 0 | 225 | 9.6 | 13.9 | 0.00 | 0.00 | 0.00 | 999.3 | |
| 20260506201306 | 0 | 270 | 9.6 | 13.9 | 0.00 | 0.00 | 0.00 | 999.2 | |
| 20260506201246 | 0 | 270 | 10.4 | 13.9 | 0.00 | 0.00 | 0.00 | 999.2 | |
| 20260506201236 | 0 | 270 | 10.4 | 13.9 | 0.00 | 0.00 | 0.00 | 999.3 | |
| 20260506201226 | 0 | 225 | 10.4 | 13.9 | 0.00 | 0.00 | 0.00 | 999.3 | |
| 20260506201216 | 0 | 225 | 10.4 | 13.9 | 0.00 | 0.00 | 0.00 | 999.2 | |
| 20260506201206 | 0 | 225 | 9.6 | 13.9 | 0.00 | 0.00 | 0.00 | 999.2 | |
| 20260506201156 | 0 | 270 | 9.6 | 13.9 | 0.00 | 0.00 | 0.00 | 999.2 | |
| 20260506201146 | 0 | 225 | 8.7 | 13.9 | 0.00 | 0.00 | 0.00 | 999.2 | |
| 20260506201136 | 0 | 225 | 8.7 | 13.9 | 0.00 | 0.00 | 0.00 | 999.3 | |
| 20260506201126 | 0 | 248 | 8.7 | 13.9 | 0.00 | 0.00 | 0.00 | 999.2 | |
| 20260506201116 | 0 | 270 | 7.8 | 13.9 | 0.00 | 0.00 | 0.00 | 999.2 | |
| 20260506201106 | 0 | 225 | 7.8 | 13.9 | 0.00 | 0.00 | 0.00 | 999.3 | |
| 20260506201056 | 0 | 225 | 7.8 | 13.9 | 0.00 | 0.00 | 0.00 | 999.2 | |
| 20260506201046 | 0 | 225 | 7.0 | 13.9 | 0.00 | 0.00 | 0.00 | 999.2 | |
| 20260506201036 | 0 | 270 | 7.8 | 13.9 | 0.00 | 0.00 | 0.00 | 999.2 | |
| 20260506200956 | 0 | 270 | 8.7 | 13.9 | 0.00 | 0.00 | 0.00 | 999.2 | |
| 20260506200936 | 0 | 270 | 9.6 | 13.9 | 0.00 | 0.00 | 0.00 | 999.2 | |
| 20260506200926 | 0 | 270 | 8.7 | 16.5 | 0.00 | 0.00 | 0.00 | 999.2 | |
| 20260506200856 | 0 | 248 | 10.4 | 16.5 | 0.00 | 0.00 | 0.00 | 999.2 | |
| 20260506200846 | 0 | 225 | 9.6 | 16.5 | 0.00 | 0.00 | 0.00 | 999.2 | |
| 20260506200816 | 0 | 225 | 8.7 | 16.5 | 0.00 | 0.00 | 0.00 | 999.2 | |
| 20260506200807 | 0 | 225 | 7.8 | 16.5 | 0.00 | 0.00 | 0.00 | 999.3 | |
| 20260506200747 | 0 | 270 | 7.0 | 16.5 | 0.00 | 0.00 | 0.00 | 999.3 | |
| 20260506200737 | 0 | 270 | 7.8 | 16.5 | 0.00 | 0.00 | 0.00 | 999.2 | |
| 20260506200727 | 0 | 225 | 7.8 | 16.5 | 0.00 | 0.00 | 0.00 | 999.2 | |
| 20260506200717 | 0 | 248 | 8.7 | 16.5 | 0.00 | 0.00 | 0.00 | 999.2 | |
| 20260506200707 | 0 | 270 | 8.7 | 16.5 | 0.00 | 0.00 | 0.00 | 999.2 | |
| 20260506200657 | 0 | 225 | 8.7 | 16.5 | 0.00 | 0.00 | 0.00 | 999.2 | |
| 20260506200647 | 0 | 270 | 9.6 | 16.5 | 0.00 | 0.00 | 0.00 | 999.2 | |
| 20260506200637 | 0 | 225 | 9.6 | 16.5 | 0.00 | 0.00 | 0.00 | 999.2 | |
| 20260506200627 | 0 | 270 | 10.4 | 16.5 | 0.00 | 0.00 | 0.00 | 999.3 | |
| 20260506200607 | 0 | 225 | 10.4 | 16.5 | 0.00 | 0.00 | 0.00 | 999.2 | |
| 20260506200557 | 0 | 248 | 10.4 | 16.5 | 0.00 | 0.00 | 0.00 | 999.2 | |
| 20260506200527 | 0 | 270 | 10.4 | 16.5 | 0.00 | 0.00 | 0.00 | 999.2 | |
| 20260506200517 | 0 | 225 | 10.4 | 16.5 | 0.00 | 0.00 | 0.00 | 999.2 | |
| 20260506200507 | 0 | 225 | 11.3 | 16.5 | 0.00 | 0.00 | 0.00 | 999.3 | |
| 20260506200457 | 0 | 270 | 12.2 | 16.5 | 0.00 | 0.00 | 0.00 | 999.2 | |
| 20260506200447 | 0 | 248 | 11.3 | 16.5 | 0.00 | 0.00 | 0.00 | 999.2 | |
| 20260506200437 | 0 | 270 | 11.3 | 16.5 | 0.00 | 0.00 | 0.00 | 999.2 | |
| 20260506200407 | 0 | 270 | 10.4 | 15.6 | 0.00 | 0.00 | 0.00 | 999.2 | |
| 20260506200357 | 0 | 270 | 9.6 | 13.0 | 0.00 | 0.00 | 0.00 | 999.1 | |
| 20260506200327 | 0 | 270 | 8.7 | 13.0 | 0.00 | 0.00 | 0.00 | 999.2 | |
| 20260506200317 | 0 | 270 | 7.8 | 12.2 | 0.00 | 0.00 | 0.00 | 999.1 | |
| 20260506200307 | 0 | 270 | 7.8 | 12.2 | 0.00 | 0.00 | 0.00 | 999.2 | |
| 20260506200237 | 0 | 225 | 7.8 | 12.2 | 0.00 | 0.00 | 0.00 | 671.2 | |
| 20260506200227 | 0 | 270 | 7.8 | 12.2 | 0.00 | 0.00 | 0.00 | 999.1 | |
| 20260506200217 | 0 | 248 | 7.8 | 12.2 | 0.00 | 0.00 | 0.00 | ||
| 20260506200157 | 0 | 225 | 7.0 | 12.2 | 0.00 | 0.00 | 0.00 | 999.2 | |
| 20260506200137 | 0 | 225 | 7.0 | 12.2 | 0.00 | 0.00 | 0.00 | 999.1 | |
| 20260506200127 | 0 | 270 | 7.0 | 13.0 | 0.00 | 0.00 | 0.00 | ||
| 20260506200117 | 0 | 225 | 7.0 | 14.8 | 0.00 | 0.00 | 0.00 | 999.2 | |
| 20260506200108 | 0 | 270 | 7.0 | 14.8 | 0.00 | 0.00 | 0.00 | 999.2 | |
| 20260506200058 | 0 | 248 | 7.0 | 16.5 | 0.00 | 0.00 | 0.00 | 999.1 | |
| 20260506200048 | 0 | 225 | 7.0 | 16.5 | 0.00 | 0.00 | 0.00 | 918.4 | |
| 20260506200038 | 0 | 270 | 7.8 | 16.5 | 0.00 | 0.00 | 0.00 | 999.1 | |
| 20260506200028 | 0 | 248 | 8.7 | 19.1 | 0.00 | 0.00 | 0.00 | 999.1 | |
| 20260506200018 | 0 | 270 | 8.7 | 19.1 | 0.00 | 0.00 | 0.00 | 999.2 | |
| 20260506195948 | 0 | 225 | 8.7 | 19.1 | 0.00 | 0.00 | 0.00 | 999.1 | |
| 20260506195938 | 0 | 270 | 8.7 | 19.1 | 0.00 | 0.00 | 0.00 | 999.1 | |
| 20260506195928 | 0 | 270 | 7.8 | 19.1 | 0.00 | 0.00 | 0.00 | 852.7 | |
| 20260506195918 | 0 | 248 | 7.8 | 19.1 | 0.00 | 0.00 | 0.00 | 999.1 | |
| 20260506195908 | 0 | 270 | 7.8 | 19.1 | 0.00 | 0.00 | 0.00 | 999.1 | |
| 20260506195858 | 0 | 270 | 8.7 | 19.1 | 0.00 | 0.00 | 0.00 | 999.1 | |
| 20260506195848 | 0 | 225 | 8.7 | 19.1 | 0.00 | 0.00 | 0.00 | 999.1 | |
| 20260506195818 | 0 | 270 | 8.7 | 19.1 | 0.00 | 0.00 | 0.00 | 999.2 | |
| 20260506195808 | 0 | 248 | 9.6 | 19.1 | 0.00 | 0.00 | 0.00 | 999.2 | |
| 20260506195758 | 0 | 270 | 9.6 | 19.1 | 0.00 | 0.00 | 0.00 | 999.2 | |
| 20260506195728 | 0 | 270 | 8.7 | 19.1 | 0.00 | 0.00 | 0.00 | 999.2 | |
| 20260506195718 | 0 | 225 | 9.6 | 19.1 | 0.00 | 0.00 | 0.00 | 999.2 | |
| 20260506195708 | 0 | 270 | 9.6 | 19.1 | 0.00 | 0.00 | 0.00 | 999.2 | |
| 20260506195658 | 0 | 270 | 10.4 | 19.1 | 0.00 | 0.00 | 0.00 | 999.1 | |
| 20260506195648 | 0 | 225 | 11.3 | 19.1 | 0.00 | 0.00 | 0.00 | 999.2 | |
| 20260506195638 | 0 | 225 | 11.3 | 19.1 | 0.00 | 0.00 | 0.00 | 999.3 | |
| 20260506195628 | 0 | 270 | 12.2 | 19.1 | 0.00 | 0.00 | 0.00 | 999.1 | |
| 20260506195608 | 0 | 270 | 11.3 | 19.1 | 0.00 | 0.00 | 0.00 | 999.2 | |
| 20260506195558 | 0 | 225 | 10.4 | 19.1 | 0.00 | 0.00 | 0.00 | 999.2 | |
| 20260506195548 | 0 | 248 | 10.4 | 19.1 | 0.00 | 0.00 | 0.00 | 999.2 | |
| 20260506195538 | 0 | 270 | 10.4 | 19.1 | 0.00 | 0.00 | 0.00 | 999.2 | |
| 20260506195528 | 0 | 248 | 10.4 | 16.5 | 0.00 | 0.00 | 0.00 | 999.2 | |
| 20260506195518 | 0 | 270 | 10.4 | 16.5 | 0.00 | 0.00 | 0.00 | 999.2 | |
| 20260506195508 | 0 | 225 | 11.3 | 16.5 | 0.00 | 0.00 | 0.00 | 999.2 | |
| 20260506195458 | 0 | 270 | 12.2 | 16.5 | 0.00 | 0.00 | 0.00 | 999.2 | |
| 20260506195448 | 0 | 270 | 12.2 | 16.5 | 0.00 | 0.00 | 0.00 | 999.3 | |
| 20260506195408 | 0 | 225 | 12.2 | 16.5 | 0.00 | 0.00 | 0.00 | 999.3 | |
| 20260506195358 | 0 | 248 | 12.2 | 16.5 | 0.00 | 0.00 | 0.00 | 999.3 | |
| 20260506195339 | 0 | 225 | 11.3 | 16.5 | 0.00 | 0.00 | 0.00 | 999.3 | |
| 20260506195329 | 0 | 270 | 9.6 | 16.5 | 0.00 | 0.00 | 0.00 | 999.3 | |
| 20260506195319 | 0 | 225 | 9.6 | 16.5 | 0.00 | 0.00 | 0.00 | 999.3 | |
| 20260506195309 | 0 | 225 | 9.6 | 16.5 | 0.00 | 0.00 | 0.00 | 999.2 | |
| 20260506195259 | 0 | 180 | 9.6 | 16.5 | 0.00 | 0.00 | 0.00 | 999.3 | |
| 20260506195249 | 0 | 270 | 8.7 | 16.5 | 0.00 | 0.00 | 0.00 | 999.3 | |
| 20260506195239 | 0 | 225 | 9.6 | 16.5 | 0.00 | 0.00 | 0.00 | 999.3 | |
| 20260506195219 | 0 | 225 | 10.4 | 16.5 | 0.00 | 0.00 | 0.00 | 999.3 | |
| 20260506195209 | 0 | 225 | 10.4 | 16.5 | 0.00 | 0.00 | 0.00 | 999.2 | |
| 20260506195159 | 0 | 248 | 8.7 | 16.5 | 0.00 | 0.00 | 0.00 | 999.3 | |
| 20260506195119 | 0 | 225 | 8.7 | 16.5 | 0.00 | 0.00 | 0.00 | 999.3 | |
| 20260506195109 | 0 | 225 | 9.6 | 16.5 | 0.00 | 0.00 | 0.00 | 999.2 | |
| 20260506195039 | 0 | 225 | 10.4 | 16.5 | 0.00 | 0.00 | 0.00 | 999.3 | |
| 20260506195019 | 0 | 225 | 10.4 | 16.5 | 0.00 | 0.00 | 0.00 | 999.2 | |
| 20260506195009 | 0 | 225 | 9.6 | 13.9 | 0.00 | 0.00 | 0.00 | 999.2 | |
| 20260506194959 | 0 | 225 | 10.4 | 13.9 | 0.00 | 0.00 | 0.00 | 999.3 | |
| 20260506194939 | 0 | 225 | 10.4 | 13.9 | 0.00 | 0.00 | 0.00 | 999.2 | |
| 20260506194919 | 0 | 225 | 10.4 | 13.9 | 0.00 | 0.00 | 0.00 | 999.3 | |
| 20260506194909 | 0 | 248 | 10.4 | 13.9 | 0.00 | 0.00 | 0.00 | 999.3 | |
| 20260506194859 | 0 | 270 | 9.6 | 13.9 | 0.00 | 0.00 | 0.00 | 999.3 | |
| 20260506194849 | 0 | 270 | 8.7 | 13.9 | 0.00 | 0.00 | 0.00 | 999.3 | |
| 20260506194829 | 0 | 225 | 8.7 | 13.9 | 0.00 | 0.00 | 0.00 | 999.2 | |
| 20260506194809 | 0 | 270 | 8.7 | 13.9 | 0.00 | 0.00 | 0.00 | 999.2 | |
| 20260506194759 | 0 | 180 | 8.7 | 13.9 | 0.00 | 0.00 | 0.00 | 999.2 | |
| 20260506194749 | 0 | 225 | 9.6 | 13.9 | 0.00 | 0.00 | 0.00 | 999.2 | |
| 20260506194739 | 0 | 270 | 8.7 | 16.5 | 0.00 | 0.00 | 0.00 | 999.2 | |
| 20260506194729 | 0 | 248 | 8.7 | 16.5 | 0.00 | 0.00 | 0.00 | 999.2 | |
| 20260506194719 | 0 | 225 | 8.7 | 16.5 | 0.00 | 0.00 | 0.00 | 999.2 | |
| 20260506194709 | 0 | 225 | 9.6 | 16.5 | 0.00 | 0.00 | 0.00 | 999.2 | |
| 20260506194700 | 0 | 225 | 10.4 | 16.5 | 0.00 | 0.00 | 0.00 | 999.1 | |
| 20260506194620 | 0 | 225 | 10.4 | 16.5 | 0.00 | 0.00 | 0.00 | 999.2 | |
| 20260506194610 | 0 | 225 | 10.4 | 16.5 | 0.00 | 0.00 | 0.00 | 999.1 | |
| 20260506194600 | 0 | 225 | 9.6 | 16.5 | 0.00 | 0.00 | 0.00 | 999.1 | |
| 20260506194540 | 0 | 225 | 8.7 | 16.5 | 0.00 | 0.00 | 0.00 | 999.2 | |
| 20260506194530 | 0 | 270 | 8.7 | 16.5 | 0.00 | 0.00 | 0.00 | 999.2 | |
| 20260506194500 | 0 | 225 | 8.7 | 16.5 | 0.00 | 0.00 | 0.00 | 999.2 | |
| 20260506194450 | 0 | 225 | 8.7 | 16.5 | 0.00 | 0.00 | 0.00 | 999.1 | |
| 20260506194430 | 0 | 270 | 8.7 | 16.5 | 0.00 | 0.00 | 0.00 | 999.2 | |
| 20260506194420 | 0 | 270 | 8.7 | 16.5 | 0.00 | 0.00 | 0.00 | 999.1 | |
| 20260506194410 | 0 | 225 | 9.6 | 16.5 | 0.00 | 0.00 | 0.00 | 999.2 | |
| 20260506194400 | 0 | 225 | 8.7 | 16.5 | 0.00 | 0.00 | 0.00 | 999.1 | |
| 20260506194350 | 0 | 270 | 8.7 | 16.5 | 0.00 | 0.00 | 0.00 | 999.2 | |
| 20260506194340 | 0 | 270 | 9.6 | 16.5 | 0.00 | 0.00 | 0.00 | 807.0 | |
| 20260506194310 | 0 | 225 | 10.4 | 16.5 | 0.00 | 0.00 | 0.00 | 999.2 | |
| 20260506194300 | 0 | 225 | 10.4 | 16.5 | 0.00 | 0.00 | 0.00 | 999.1 | |
| 20260506194250 | 0 | 270 | 11.3 | 16.5 | 0.00 | 0.00 | 0.00 | 999.2 | |
| 20260506194210 | 0 | 225 | 10.4 | 16.5 | 0.00 | 0.00 | 0.00 | 999.2 | |
| 20260506194150 | 0 | 225 | 11.3 | 16.5 | 0.00 | 0.00 | 0.00 | 999.2 | |
| 20260506194120 | 0 | 225 | 10.4 | 16.5 | 0.00 | 0.00 | 0.00 | 999.1 | |
| 20260506194100 | 0 | 270 | 9.6 | 16.5 | 0.00 | 0.00 | 0.00 | 999.2 | |
| 20260506194050 | 0 | 225 | 9.6 | 16.5 | 0.00 | 0.00 | 0.00 | 999.0 | |
| 20260506194041 | 0 | 225 | 10.4 | 16.5 | 0.00 | 0.00 | 0.00 | 999.2 | |
| 20260506194031 | 0 | 248 | 11.3 | 16.5 | 0.00 | 0.00 | 0.00 | 999.1 | |
| 20260506194021 | 0 | 270 | 11.3 | 16.5 | 0.00 | 0.00 | 0.00 | 999.0 | |
| 20260506193941 | 0 | 225 | 12.2 | 16.5 | 0.00 | 0.00 | 0.00 | 999.1 | |
| 20260506193921 | 0 | 225 | 10.4 | 16.5 | 0.00 | 0.00 | 0.00 | 999.1 | |
| 20260506193911 | 0 | 270 | 10.4 | 16.5 | 0.00 | 0.00 | 0.00 | 999.1 | |
| 20260506193901 | 0 | 225 | 10.4 | 16.5 | 0.00 | 0.00 | 0.00 | 999.0 | |
| 20260506193851 | 0 | 225 | 10.4 | 16.5 | 0.00 | 0.00 | 0.00 | 999.2 | |
| 20260506193841 | 0 | 248 | 10.4 | 16.5 | 0.00 | 0.00 | 0.00 | 999.1 | |
| 20260506193831 | 0 | 225 | 11.3 | 16.5 | 0.00 | 0.00 | 0.00 | 999.2 | |
| 20260506193821 | 0 | 225 | 12.2 | 16.5 | 0.00 | 0.00 | 0.00 | 998.9 | |
| 20260506193811 | 0 | 270 | 12.2 | 16.5 | 0.00 | 0.00 | 0.00 | 999.1 | |
| 20260506193801 | 0 | 270 | 12.2 | 16.5 | 0.00 | 0.00 | 0.00 | 999.2 | |
| 20260506193741 | 0 | 225 | 12.2 | 16.5 | 0.00 | 0.00 | 0.00 | 999.1 | |
| 20260506193721 | 0 | 225 | 12.2 | 16.5 | 0.00 | 0.00 | 0.00 | 999.2 | |
| 20260506193701 | 0 | 248 | 11.3 | 16.5 | 0.00 | 0.00 | 0.00 | 999.1 | |
| 20260506193651 | 0 | 225 | 11.3 | 16.5 | 0.00 | 0.00 | 0.00 | 999.2 | |
| 20260506193641 | 0 | 225 | 10.4 | 16.5 | 0.00 | 0.00 | 0.00 | 999.1 | |
| 20260506193631 | 0 | 248 | 10.4 | 16.5 | 0.00 | 0.00 | 0.00 | 999.1 | |
| 20260506193621 | 0 | 270 | 10.4 | 16.5 | 0.00 | 0.00 | 0.00 | 999.1 | |
| 20260506193611 | 0 | 225 | 9.6 | 16.5 | 0.00 | 0.00 | 0.00 | 999.1 | |
| 20260506193601 | 0 | 270 | 8.7 | 16.5 | 0.00 | 0.00 | 0.00 | 999.1 | |
| 20260506193551 | 0 | 225 | 8.7 | 16.5 | 0.00 | 0.00 | 0.00 | 999.2 | |
| 20260506193541 | 0 | 270 | 8.7 | 16.5 | 0.00 | 0.00 | 0.00 | 999.2 | |
| 20260506193521 | 0 | 225 | 8.7 | 16.5 | 0.00 | 0.00 | 0.00 | 999.1 | |
| 20260506193511 | 0 | 225 | 9.6 | 16.5 | 0.00 | 0.00 | 0.00 | 999.2 | |
| 20260506193501 | 0 | 248 | 10.4 | 16.5 | 0.00 | 0.00 | 0.00 | 999.1 | |
| 20260506193441 | 0 | 225 | 10.4 | 16.5 | 0.00 | 0.00 | 0.00 | 999.2 | |
| 20260506193431 | 0 | 225 | 9.6 | 16.5 | 0.00 | 0.00 | 0.00 | 999.1 | |
| 20260506193421 | 0 | 270 | 9.6 | 16.5 | 0.00 | 0.00 | 0.00 | 999.1 | |
| 20260506193411 | 0 | 225 | 9.6 | 16.5 | 0.00 | 0.00 | 0.00 | 999.2 | |
| 20260506193402 | 0 | 270 | 8.7 | 16.5 | 0.00 | 0.00 | 0.00 | 999.1 | |
| 20260506193352 | 0 | 225 | 8.7 | 16.5 | 0.00 | 0.00 | 0.00 | 999.2 | |
| 20260506193342 | 0 | 225 | 8.7 | 16.5 | 0.00 | 0.00 | 0.00 | 999.1 | |
| 20260506193332 | 0 | 225 | 9.6 | 16.5 | 0.00 | 0.00 | 0.00 | 999.1 | |
| 20260506193322 | 0 | 225 | 10.4 | 16.5 | 0.00 | 0.00 | 0.00 | 999.0 | |
| 20260506193312 | 0 | 225 | 10.4 | 16.5 | 0.00 | 0.00 | 0.00 | 999.1 | |
| 20260506193302 | 0 | 248 | 10.4 | 16.5 | 0.00 | 0.00 | 0.00 | 999.1 | |
| 20260506193252 | 0 | 225 | 11.3 | 16.5 | 0.00 | 0.00 | 0.00 | 999.1 | |
| 20260506193242 | 0 | 248 | 12.2 | 16.5 | 0.00 | 0.00 | 0.00 | 999.1 | |
| 20260506193232 | 0 | 270 | 11.3 | 16.5 | 0.00 | 0.00 | 0.00 | 999.0 | |
| 20260506193222 | 0 | 225 | 10.4 | 16.5 | 0.00 | 0.00 | 0.00 | 999.1 | |
| 20260506193212 | 0 | 225 | 10.4 | 16.5 | 0.00 | 0.00 | 0.00 | 998.9 | |
| 20260506193202 | 0 | 225 | 9.6 | 16.5 | 0.00 | 0.00 | 0.00 | 999.1 | |
| 20260506193152 | 0 | 225 | 8.7 | 16.5 | 0.00 | 0.00 | 0.00 | 999.0 | |
| 20260506193142 | 0 | 225 | 7.8 | 13.9 | 0.00 | 0.00 | 0.00 | 999.0 | |
| 20260506193132 | 0 | 225 | 7.0 | 13.9 | 0.00 | 0.00 | 0.00 | 999.0 | |
| 20260506193122 | 0 | 135 | 7.8 | 13.9 | 0.00 | 0.00 | 0.00 | 999.0 | |
| 20260506193112 | 0 | 270 | 8.7 | 13.9 | 0.00 | 0.00 | 0.00 | 999.0 | |
| 20260506193102 | 0 | 225 | 8.7 | 13.9 | 0.00 | 0.00 | 0.00 | 999.0 | |
| 20260506193042 | 0 | 225 | 10.4 | 13.9 | 0.00 | 0.00 | 0.00 | 999.1 | |
| 20260506193032 | 0 | 225 | 10.4 | 13.9 | 0.00 | 0.00 | 0.00 | 999.0 | |
| 20260506193022 | 0 | 225 | 9.6 | 13.9 | 0.00 | 0.00 | 0.00 | 999.1 | |
| 20260506193012 | 0 | 248 | 8.7 | 13.9 | 0.00 | 0.00 | 0.00 | 999.0 | |
| 20260506193002 | 0 | 225 | 7.8 | 13.9 | 0.00 | 0.00 | 0.00 | 999.0 | |
| 20260506192932 | 0 | 225 | 7.0 | 13.9 | 0.00 | 0.00 | 0.00 | 999.0 | |
| 20260506192912 | 0 | 225 | 6.1 | 13.9 | 0.00 | 0.00 | 0.00 | 999.0 | |
| 20260506192902 | 0 | 270 | 6.1 | 13.9 | 0.00 | 0.00 | 0.00 | 999.0 | |
| 20260506192822 | 0 | 225 | 5.2 | 13.9 | 0.00 | 0.00 | 0.00 | 998.9 | |
| 20260506192802 | 0 | 225 | 6.1 | 13.9 | 0.00 | 0.00 | 0.00 | 999.0 | |
| 20260506192743 | 0 | 225 | 7.0 | 13.9 | 0.00 | 0.00 | 0.00 | 998.9 | |
| 20260506192732 | 0 | 180 | 8.7 | 13.9 | 0.00 | 0.00 | 0.00 | 999.0 | |
| 20260506192713 | 0 | 225 | 8.7 | 13.9 | 0.00 | 0.00 | 0.00 | 999.0 | |
| 20260506192703 | 0 | 270 | 7.8 | 13.9 | 0.00 | 0.00 | 0.00 | 999.0 | |
| 20260506192643 | 0 | 225 | 7.8 | 13.0 | 0.00 | 0.00 | 0.00 | 999.0 | |
| 20260506192633 | 0 | 225 | 7.0 | 12.2 | 0.00 | 0.00 | 0.00 | 998.8 | |
| 20260506192613 | 0 | 203 | 7.0 | 12.2 | 0.00 | 0.00 | 0.00 | 998.9 | |
| 20260506192603 | 0 | 180 | 7.0 | 12.2 | 0.00 | 0.00 | 0.00 | 999.0 | |
| 20260506192553 | 0 | 225 | 7.0 | 12.2 | 0.00 | 0.00 | 0.00 | 999.0 | |
| 20260506192543 | 0 | 225 | 6.1 | 12.2 | 0.00 | 0.00 | 0.00 | 998.9 | |
| 20260506192513 | 0 | 225 | 6.1 | 12.2 | 0.00 | 0.00 | 0.00 | 999.0 | |
| 20260506192503 | 0 | 225 | 7.0 | 12.2 | 0.00 | 0.00 | 0.00 | 999.0 | |
| 20260506192453 | 0 | 270 | 6.1 | 12.2 | 0.00 | 0.00 | 0.00 | 998.9 | |
| 20260506192443 | 0 | 225 | 7.0 | 12.2 | 0.00 | 0.00 | 0.00 | 998.9 | |
| 20260506192433 | 0 | 225 | 6.1 | 11.3 | 0.00 | 0.00 | 0.00 | 998.9 | |
| 20260506192423 | 0 | 225 | 7.0 | 11.3 | 0.00 | 0.00 | 0.00 | 999.0 | |
| 20260506192413 | 0 | 225 | 6.1 | 11.3 | 0.00 | 0.00 | 0.00 | 999.0 | |
| 20260506192403 | 0 | 225 | 6.1 | 10.4 | 0.00 | 0.00 | 0.00 | 999.0 | |
| 20260506192353 | 0 | 225 | 6.1 | 10.4 | 0.00 | 0.00 | 0.00 | 998.9 | |
| 20260506192333 | 0 | 225 | 6.1 | 9.6 | 0.00 | 0.00 | 0.00 | 999.0 | |
| 20260506192323 | 0 | 225 | 5.2 | 9.6 | 0.00 | 0.00 | 0.00 | 999.0 | |
| 20260506192313 | 0 | 225 | 5.2 | 9.6 | 0.00 | 0.00 | 0.00 | 998.9 | |
| 20260506192305 | 0 | 225 | 4.3 | 10.4 | 0.00 | 0.00 | 0.00 | 999.0 | |
| 20260506192243 | 0 | 225 | 3.5 | 10.4 | 0.00 | 0.00 | 0.00 | 999.0 | |
| 20260506192233 | 0 | 225 | 2.6 | 10.4 | 0.00 | 0.00 | 0.00 | 999.0 | |
| 20260506192223 | 0 | 270 | 1.7 | 10.4 | 0.00 | 0.00 | 0.00 | 999.0 | |
| 20260506192213 | 0 | 203 | 1.7 | 10.4 | 0.00 | 0.00 | 0.00 | 999.0 | |
| 20260506192203 | 0 | 225 | 1.7 | 10.4 | 0.00 | 0.00 | 0.00 | 998.9 | |
| 20260506192153 | 0 | 225 | 1.7 | 10.4 | 0.00 | 0.00 | 0.00 | 999.0 | |
| 20260506192144 | 0 | 225 | 2.6 | 10.4 | 0.00 | 0.00 | 0.00 | 884.0 | |
| 20260506192133 | 0 | 225 | 2.6 | 10.4 | 0.00 | 0.00 | 0.00 | 998.9 | |
| 20260506192124 | 0 | 180 | 2.6 | 10.4 | 0.00 | 0.00 | 0.00 | 998.9 | |
| 20260506192114 | 0 | 135 | 2.6 | 10.4 | 0.00 | 0.00 | 0.00 | 998.9 | |
| 20260506192104 | 0 | 158 | 3.5 | 10.4 | 0.00 | 0.00 | 0.00 | 999.0 | |
| 20260506192054 | 0 | 225 | 3.5 | 10.4 | 0.00 | 0.00 | 0.00 | 999.0 | |
| 20260506192044 | 0 | 225 | 3.5 | 10.4 | 0.00 | 0.00 | 0.00 | 998.9 | |
| 20260506192024 | 0 | 225 | 4.3 | 10.4 | 0.00 | 0.00 | 0.00 | 998.9 | |
| 20260506192014 | 0 | 180 | 5.2 | 10.4 | 0.00 | 0.00 | 0.00 | 999.0 | |
| 20260506191944 | 0 | 225 | 5.2 | 10.4 | 0.00 | 0.00 | 0.00 | 998.9 | |
| 20260506191934 | 0 | 225 | 5.2 | 10.4 | 0.00 | 0.00 | 0.00 | 999.0 | |
| 20260506191904 | 0 | 225 | 6.1 | 10.4 | 0.00 | 0.00 | 0.00 | 999.0 | |
| 20260506191854 | 0 | 225 | 6.1 | 10.4 | 0.00 | 0.00 | 0.00 | 998.9 | |
| 20260506191814 | 0 | 225 | 5.2 | 10.4 | 0.00 | 0.00 | 0.00 | 999.0 | |
| 20260506191804 | 0 | 225 | 5.2 | 9.6 | 0.00 | 0.00 | 0.00 | 999.0 | |
| 20260506191734 | 58 | 45 | 3.5 | 9.6 | 0.00 | 0.00 | 0.00 | 77 | 998.9 |
| 20260506191724 | 0 | 225 | 4.3 | 9.6 | 0.00 | 0.00 | 0.00 | 998.9 | |
| 20260506191714 | 0 | 225 | 3.5 | 9.6 | 0.00 | 0.00 | 0.00 | 999.0 | |
| 20260506191644 | 0 | 225 | 3.5 | 9.6 | 0.00 | 0.00 | 0.00 | 998.9 | |
| 20260506191634 | 0 | 270 | 4.3 | 9.6 | 0.00 | 0.00 | 0.00 | 998.9 | |
| 20260506191604 | 0 | 293 | 3.5 | 8.7 | 0.00 | 0.00 | 0.00 | 999.0 | |
| 20260506191554 | 0 | 225 | 3.5 | 8.7 | 0.00 | 0.00 | 0.00 | 998.9 | |
| 20260506191544 | 0 | 270 | 2.6 | 8.7 | 0.00 | 0.00 | 0.00 | 998.9 | |
| 20260506191534 | 0 | 225 | 2.6 | 9.6 | 0.00 | 0.00 | 0.00 | 998.8 | |
| 20260506191524 | 0 | 180 | 2.6 | 10.4 | 0.00 | 0.00 | 0.00 | 998.8 | |
| 20260506191505 | 0 | 225 | 2.6 | 11.3 | 0.00 | 0.00 | 0.00 | 998.9 | |
| 20260506191455 | 0 | 270 | 3.5 | 13.0 | 0.00 | 0.00 | 0.00 | 998.9 | |
| 20260506191445 | 0 | 45 | 3.5 | 13.0 | 0.00 | 0.00 | 0.00 | 998.8 | |
| 20260506191435 | 0 | 225 | 3.5 | 13.0 | 0.00 | 0.00 | 0.00 | 998.8 | |
| 20260506191425 | 0 | 225 | 4.3 | 13.0 | 0.00 | 0.00 | 0.00 | 998.8 | |
| 20260506191415 | 0 | 203 | 5.2 | 13.0 | 0.00 | 0.00 | 0.00 | 998.8 | |
| 20260506191405 | 0 | 90 | 5.2 | 13.0 | 0.00 | 0.00 | 0.00 | 998.9 | |
| 20260506191355 | 0 | 270 | 5.2 | 13.0 | 0.00 | 0.00 | 0.00 | 998.8 | |
| 20260506191345 | 0 | 180 | 4.3 | 13.0 | 0.00 | 0.00 | 0.00 | 998.9 | |
| 20260506191335 | 0 | 225 | 3.5 | 13.0 | 0.00 | 0.00 | 0.00 | 998.9 | |
| 20260506191325 | 0 | 225 | 3.5 | 13.0 | 0.00 | 0.00 | 0.00 | 998.8 | |
| 20260506191315 | 0 | 270 | 3.5 | 13.0 | 0.00 | 0.00 | 0.00 | 998.8 | |
| 20260506191305 | 0 | 135 | 3.5 | 13.0 | 0.00 | 0.00 | 0.00 | 998.9 | |
| 20260506191255 | 0 | 225 | 2.6 | 13.0 | 0.00 | 0.00 | 0.00 | 998.9 | |
| 20260506191245 | 0 | 225 | 3.5 | 13.0 | 0.00 | 0.00 | 0.00 | 998.9 | |
| 20260506191235 | 0 | 315 | 2.6 | 13.0 | 0.00 | 0.00 | 0.00 | 998.9 | |
| 20260506191225 | 0 | 180 | 2.6 | 13.0 | 0.00 | 0.00 | 0.00 | 998.9 | |
| 20260506191215 | 0 | 225 | 2.6 | 13.0 | 0.00 | 0.00 | 0.00 | 998.9 | |
| 20260506191155 | 0 | 225 | 3.5 | 13.0 | 0.00 | 0.00 | 0.00 | 998.8 | |
| 20260506191145 | 0 | 203 | 4.3 | 13.0 | 0.00 | 0.00 | 0.00 | 998.9 | |
| 20260506191135 | 0 | 225 | 5.2 | 13.0 | 0.00 | 0.00 | 0.00 | 998.9 | |
| 20260506191125 | 57 | 225 | 5.2 | 13.0 | 0.00 | 0.00 | 0.00 | 78 | 998.9 |
| 20260506191115 | 0 | 225 | 6.1 | 13.0 | 0.00 | 0.00 | 0.00 | 998.9 | |
| 20260506191105 | 0 | 180 | 6.1 | 13.0 | 0.00 | 0.00 | 0.00 | 998.9 | |
| 20260506191045 | 0 | 225 | 7.0 | 13.0 | 0.00 | 0.00 | 0.00 | 998.9 | |
| 20260506191035 | 0 | 225 | 6.1 | 13.0 | 0.00 | 0.00 | 0.00 | 998.9 | |
| 20260506191025 | 0 | 225 | 5.2 | 13.0 | 0.00 | 0.00 | 0.00 | 998.8 | |
| 20260506191005 | 0 | 225 | 5.2 | 13.0 | 0.00 | 0.00 | 0.00 | 998.9 | |
| 20260506190955 | 0 | 225 | 3.5 | 12.2 | 0.00 | 0.00 | 0.00 | 998.9 | |
| 20260506190935 | 0 | 225 | 3.5 | 11.3 | 0.00 | 0.00 | 0.00 | 998.9 | |
| 20260506190925 | 0 | 225 | 3.5 | 11.3 | 0.00 | 0.00 | 0.00 | 998.8 | |
| 20260506190905 | 0 | 225 | 3.5 | 11.3 | 0.00 | 0.00 | 0.00 | 998.7 | |
| 20260506190855 | 0 | 180 | 3.5 | 11.3 | 0.00 | 0.00 | 0.00 | 998.8 | |
| 20260506190835 | 0 | 225 | 3.5 | 11.3 | 0.00 | 0.00 | 0.00 | 998.8 | |
| 20260506190816 | 0 | 225 | 3.5 | 11.3 | 0.00 | 0.00 | 0.00 | 998.9 | |
| 20260506190756 | 0 | 225 | 4.3 | 11.3 | 0.00 | 0.00 | 0.00 | 998.8 | |
| 20260506190746 | 0 | 270 | 4.3 | 11.3 | 0.00 | 0.00 | 0.00 | 998.8 | |
| 20260506190736 | 0 | 270 | 5.2 | 11.3 | 0.00 | 0.00 | 0.00 | 998.8 | |
| 20260506190726 | 0 | 225 | 5.2 | 11.3 | 0.00 | 0.00 | 0.00 | 998.8 | |
| 20260506190656 | 0 | 225 | 7.0 | 11.3 | 0.00 | 0.00 | 0.00 | 998.8 | |
| 20260506190636 | 0 | 225 | 6.1 | 11.3 | 0.00 | 0.00 | 0.00 | 998.8 | |
| 20260506190616 | 0 | 225 | 5.2 | 11.3 | 0.00 | 0.00 | 0.00 | 998.8 | |
| 20260506190556 | 0 | 225 | 4.3 | 11.3 | 0.00 | 0.00 | 0.00 | 998.8 | |
| 20260506190546 | 0 | 225 | 4.3 | 11.3 | 0.00 | 0.00 | 0.00 | ||
| 20260506190536 | 0 | 225 | 4.3 | 11.3 | 0.00 | 0.00 | 0.00 | 998.7 | |
| 20260506190526 | 0 | 270 | 5.2 | 11.3 | 0.00 | 0.00 | 0.00 | 998.7 | |
| 20260506190516 | 0 | 225 | 5.2 | 11.3 | 0.00 | 0.00 | 0.00 | 998.7 | |
| 20260506190506 | 0 | 225 | 5.2 | 11.3 | 0.00 | 0.00 | 0.00 | 998.8 | |
| 20260506190456 | 0 | 225 | 6.1 | 11.3 | 0.00 | 0.00 | 0.00 | 998.8 | |
| 20260506190446 | 0 | 225 | 6.1 | 11.3 | 0.00 | 0.00 | 0.00 | ||
| 20260506190416 | 0 | 225 | 6.1 | 11.3 | 0.00 | 0.00 | 0.00 | 998.8 | |
| 20260506190406 | 0 | 180 | 6.1 | 11.3 | 0.00 | 0.00 | 0.00 | 998.8 | |
| 20260506190356 | 57 | 225 | 6.1 | 11.3 | 0.00 | 0.00 | 0.00 | 78 | 998.8 |
| 20260506190326 | 0 | 225 | 6.1 | 11.3 | 0.00 | 0.00 | 0.00 | 998.8 | |
| 20260506190316 | 0 | 225 | 5.2 | 11.3 | 0.00 | 0.00 | 0.00 | 998.7 | |
| 20260506190306 | 0 | 248 | 5.2 | 10.4 | 0.00 | 0.00 | 0.00 | 998.8 | |
| 20260506190256 | 0 | 270 | 4.3 | 9.6 | 0.00 | 0.00 | 0.00 | 998.7 | |
| 20260506190246 | 0 | 270 | 3.5 | 9.6 | 0.00 | 0.00 | 0.00 | 998.8 | |
| 20260506190226 | 0 | 225 | 4.3 | 9.6 | 0.00 | 0.00 | 0.00 | 998.8 | |
| 20260506190217 | 0 | 225 | 5.2 | 9.6 | 0.00 | 0.00 | 0.00 | 998.8 | |
| 20260506190206 | 0 | 180 | 5.2 | 10.4 | 0.00 | 0.00 | 0.00 | 800.2 | |
| 20260506190147 | 0 | 225 | 5.2 | 10.4 | 0.00 | 0.00 | 0.00 | 998.8 | |
| 20260506190127 | 0 | 225 | 3.5 | 10.4 | 0.00 | 0.00 | 0.00 | 998.8 | |
| 20260506190117 | 0 | 270 | 4.3 | 10.4 | 0.00 | 0.00 | 0.00 | 998.8 | |
| 20260506190107 | 0 | 225 | 4.3 | 10.4 | 0.00 | 0.00 | 0.00 | 998.7 | |
| 20260506190057 | 0 | 225 | 4.3 | 10.4 | 0.00 | 0.00 | 0.00 | 998.8 | |
| 20260506190047 | 0 | 180 | 4.3 | 10.4 | 0.00 | 0.00 | 0.00 | 998.8 | |
| 20260506190027 | 0 | 225 | 3.5 | 10.4 | 0.00 | 0.00 | 0.00 | ||
| 20260506190018 | 0 | 225 | 3.5 | 10.4 | 0.00 | 0.00 | 0.00 | 998.8 | |
| 20260506190007 | 0 | 225 | 3.5 | 10.4 | 0.00 | 0.00 | 0.00 | 998.7 | |
| 20260506185957 | 0 | 203 | 3.5 | 10.4 | 0.00 | 0.00 | 0.00 | 998.7 | |
| 20260506185947 | 0 | 203 | 3.5 | 12.2 | 0.00 | 0.00 | 0.00 | 998.8 | |
| 20260506185937 | 0 | 225 | 3.5 | 12.2 | 0.00 | 0.00 | 0.00 | 998.8 | |
| 20260506185917 | 0 | 225 | 3.5 | 12.2 | 0.00 | 0.00 | 0.00 | 998.7 | |
| 20260506185907 | 0 | 135 | 3.5 | 12.2 | 0.00 | 0.00 | 0.00 | 998.7 | |
| 20260506185857 | 0 | 225 | 3.5 | 12.2 | 0.00 | 0.00 | 0.00 | 998.8 | |
| 20260506185847 | 0 | 225 | 3.5 | 12.2 | 0.00 | 0.00 | 0.00 | 998.9 | |
| 20260506185837 | 0 | 180 | 3.5 | 12.2 | 0.00 | 0.00 | 0.00 | 998.7 | |
| 20260506185817 | 0 | 225 | 3.5 | 12.2 | 0.00 | 0.00 | 0.00 | 998.8 | |
| 20260506185737 | 0 | 225 | 4.3 | 12.2 | 0.00 | 0.00 | 0.00 | 998.8 | |
| 20260506185727 | 0 | 203 | 4.3 | 12.2 | 0.00 | 0.00 | 0.00 | 998.7 | |
| 20260506185717 | 57 | 225 | 3.5 | 12.2 | 0.00 | 0.00 | 0.00 | 79 | 998.8 |
| 20260506185657 | 0 | 180 | 3.5 | 12.2 | 0.00 | 0.00 | 0.00 | 998.8 | |
| 20260506185647 | 0 | 225 | 3.5 | 12.2 | 0.00 | 0.00 | 0.00 | 998.8 | |
| 20260506185637 | 0 | 180 | 3.5 | 12.2 | 0.00 | 0.00 | 0.00 | 998.7 | |
| 20260506185627 | 0 | 225 | 3.5 | 12.2 | 0.00 | 0.00 | 0.00 | ||
| 20260506185617 | 0 | 225 | 3.5 | 12.2 | 0.00 | 0.00 | 0.00 | 998.7 | |
| 20260506185607 | 0 | 225 | 4.3 | 12.2 | 0.00 | 0.00 | 0.00 | 998.7 | |
| 20260506185557 | 0 | 180 | 4.3 | 12.2 | 0.00 | 0.00 | 0.00 | ||
| 20260506185548 | 0 | 180 | 5.2 | 12.2 | 0.00 | 0.00 | 0.00 | 998.8 | |
| 20260506185538 | 0 | 225 | 5.2 | 12.2 | 0.00 | 0.00 | 0.00 | 998.6 | |
| 20260506185518 | 0 | 225 | 5.2 | 12.2 | 0.00 | 0.00 | 0.00 | 800.2 | |
| 20260506185508 | 0 | 203 | 5.2 | 12.2 | 0.00 | 0.00 | 0.00 | 998.7 | |
| 20260506185458 | 0 | 225 | 5.2 | 12.2 | 0.00 | 0.00 | 0.00 | 998.7 | |
| 20260506185448 | 0 | 225 | 4.3 | 10.4 | 0.00 | 0.00 | 0.00 | 809.3 | |
| 20260506185438 | 0 | 225 | 3.5 | 10.4 | 0.00 | 0.00 | 0.00 | 998.6 | |
| 20260506185428 | 0 | 270 | 3.5 | 10.4 | 0.00 | 0.00 | 0.00 | 998.7 | |
| 20260506185418 | 56 | 225 | 4.3 | 10.4 | 0.00 | 0.00 | 0.00 | 80 | 998.7 |
| 20260506185408 | 0 | 203 | 4.3 | 10.4 | 0.00 | 0.00 | 0.00 | 998.6 | |
| 20260506185358 | 0 | 270 | 5.2 | 10.4 | 0.00 | 0.00 | 0.00 | 998.7 | |
| 20260506185348 | 0 | 248 | 5.2 | 10.4 | 0.00 | 0.00 | 0.00 | 998.7 | |
| 20260506185338 | 0 | 180 | 5.2 | 10.4 | 0.00 | 0.00 | 0.00 | 998.7 | |
| 20260506185328 | 0 | 225 | 5.2 | 10.4 | 0.00 | 0.00 | 0.00 | 998.7 | |
| 20260506185318 | 0 | 225 | 5.2 | 10.4 | 0.00 | 0.00 | 0.00 | 998.8 | |
| 20260506185308 | 0 | 225 | 4.3 | 10.4 | 0.00 | 0.00 | 0.00 | 998.6 | |
| 20260506185248 | 0 | 225 | 4.3 | 10.4 | 0.00 | 0.00 | 0.00 | 998.7 | |
| 20260506185238 | 0 | 225 | 5.2 | 10.4 | 0.00 | 0.00 | 0.00 | 998.7 | |
| 20260506185228 | 56 | 225 | 4.3 | 10.4 | 0.00 | 0.00 | 0.00 | 80 | 998.6 |
| 20260506185218 | 0 | 225 | 4.3 | 10.4 | 0.00 | 0.00 | 0.00 | 998.6 | |
| 20260506185208 | 0 | 270 | 4.3 | 10.4 | 0.00 | 0.00 | 0.00 | 998.5 | |
| 20260506185158 | 0 | 225 | 4.3 | 10.4 | 0.00 | 0.00 | 0.00 | ||
| 20260506185148 | 0 | 225 | 4.3 | 10.4 | 0.00 | 0.00 | 0.00 | 998.7 | |
| 20260506185138 | 0 | 225 | 3.5 | 10.4 | 0.00 | 0.00 | 0.00 | 998.6 | |
| 20260506185118 | 0 | 203 | 4.3 | 10.4 | 0.00 | 0.00 | 0.00 | 998.5 | |
| 20260506185108 | 0 | 270 | 4.3 | 10.4 | 0.00 | 0.00 | 0.00 | 998.6 | |
| 20260506185058 | 0 | 225 | 4.3 | 10.4 | 0.00 | 0.00 | 0.00 | 998.6 | |
| 20260506185038 | 0 | 225 | 4.3 | 10.4 | 0.00 | 0.00 | 0.00 | 998.5 | |
| 20260506185018 | 0 | 225 | 3.5 | 10.4 | 0.00 | 0.00 | 0.00 | 998.6 | |
| 20260506185008 | 0 | 203 | 4.3 | 10.4 | 0.00 | 0.00 | 0.00 | 998.5 | |
| 20260506184958 | 0 | 180 | 4.3 | 10.4 | 0.00 | 0.00 | 0.00 | 998.4 | |
| 20260506184948 | 0 | 225 | 4.3 | 10.4 | 0.00 | 0.00 | 0.00 | 998.4 | |
| 20260506184938 | 0 | 225 | 4.3 | 13.0 | 0.00 | 0.00 | 0.00 | 998.5 | |
| 20260506184908 | 0 | 225 | 5.2 | 13.0 | 0.00 | 0.00 | 0.00 | 998.5 | |
| 20260506184858 | 56 | 225 | 5.2 | 13.0 | 0.00 | 0.00 | 0.00 | 81 | 998.4 |
| 20260506184829 | 0 | 225 | 5.2 | 13.0 | 0.00 | 0.00 | 0.00 | 998.5 | |
| 20260506184819 | 0 | 225 | 4.3 | 13.0 | 0.00 | 0.00 | 0.00 | 998.5 | |
| 20260506184809 | 0 | 225 | 4.3 | 13.0 | 0.00 | 0.00 | 0.00 | 998.4 | |
| 20260506184749 | 0 | 248 | 5.2 | 13.0 | 0.00 | 0.00 | 0.00 | 998.5 | |
| 20260506184729 | 0 | 225 | 5.2 | 13.0 | 0.00 | 0.00 | 0.00 | 998.4 | |
| 20260506184709 | 0 | 225 | 6.1 | 13.0 | 0.00 | 0.00 | 0.00 | 998.4 | |
| 20260506184649 | 0 | 225 | 5.2 | 13.0 | 0.00 | 0.00 | 0.00 | 998.3 | |
| 20260506184629 | 0 | 225 | 5.2 | 13.0 | 0.00 | 0.00 | 0.00 | 998.4 | |
| 20260506184609 | 0 | 225 | 6.1 | 13.0 | 0.00 | 0.00 | 0.00 | 998.3 | |
| 20260506184549 | 0 | 225 | 7.0 | 13.0 | 0.00 | 0.00 | 0.00 | 998.2 | |
| 20260506184539 | 0 | 225 | 7.0 | 13.0 | 0.00 | 0.00 | 0.00 | 998.3 | |
| 20260506184529 | 0 | 225 | 8.7 | 13.0 | 0.00 | 0.00 | 0.00 | 998.3 | |
| 20260506184519 | 0 | 270 | 8.7 | 13.0 | 0.00 | 0.00 | 0.00 | 998.2 | |
| 20260506184509 | 0 | 225 | 7.8 | 13.0 | 0.00 | 0.00 | 0.00 | 998.3 | |
| 20260506184459 | 0 | 225 | 7.8 | 13.0 | 0.00 | 0.00 | 0.00 | 998.2 | |
| 20260506184449 | 0 | 248 | 7.0 | 13.0 | 0.00 | 0.00 | 0.00 | 998.2 | |
| 20260506184429 | 0 | 225 | 7.0 | 12.2 | 0.00 | 0.00 | 0.00 | 998.2 | |
| 20260506184419 | 0 | 225 | 6.1 | 12.2 | 0.00 | 0.00 | 0.00 | 998.2 | |
| 20260506184409 | 0 | 180 | 7.0 | 12.2 | 0.00 | 0.00 | 0.00 | 998.2 | |
| 20260506184349 | 0 | 225 | 7.0 | 12.2 | 0.00 | 0.00 | 0.00 | 998.2 | |
| 20260506184339 | 0 | 225 | 7.8 | 12.2 | 0.00 | 0.00 | 0.00 | 877.7 | |
| 20260506184329 | 0 | 225 | 8.7 | 12.2 | 0.00 | 0.00 | 0.00 | 998.2 | |
| 20260506184309 | 0 | 225 | 8.7 | 12.2 | 0.00 | 0.00 | 0.00 | 827.8 | |
| 20260506184249 | 0 | 225 | 8.7 | 12.2 | 0.00 | 0.00 | 0.00 | 998.2 | |
| 20260506184239 | 0 | 225 | 8.7 | 12.2 | 0.00 | 0.00 | 0.00 | ||
| 20260506184210 | 0 | 225 | 7.8 | 12.2 | 0.00 | 0.00 | 0.00 | 998.1 | |
| 20260506184200 | 0 | 225 | 7.8 | 12.2 | 0.00 | 0.00 | 0.00 | 943.3 | |
| 20260506184150 | 0 | 225 | 7.8 | 12.2 | 0.00 | 0.00 | 0.00 | 998.2 | |
| 20260506184140 | 0 | 225 | 8.7 | 12.2 | 0.00 | 0.00 | 0.00 | 998.2 | |
| 20260506184130 | 56 | 225 | 8.7 | 12.2 | 0.00 | 0.00 | 0.00 | 82 | 998.1 |
| 20260506184110 | 0 | 225 | 8.7 | 12.2 | 0.00 | 0.00 | 0.00 | 998.1 | |
| 20260506184050 | 0 | 270 | 8.7 | 12.2 | 0.00 | 0.00 | 0.00 | 998.1 | |
| 20260506184040 | 0 | 225 | 7.8 | 12.2 | 0.00 | 0.00 | 0.00 | 998.2 | |
| 20260506184030 | 0 | 225 | 7.0 | 12.2 | 0.00 | 0.00 | 0.00 | 998.1 | |
| 20260506184010 | 0 | 225 | 7.8 | 12.2 | 0.00 | 0.00 | 0.00 | 998.1 | |
| 20260506184000 | 0 | 270 | 8.7 | 12.2 | 0.00 | 0.00 | 0.00 | 998.1 | |
| 20260506183950 | 0 | 225 | 8.7 | 12.2 | 0.00 | 0.00 | 0.00 | 998.1 | |
| 20260506183920 | 0 | 270 | 8.7 | 12.2 | 0.00 | 0.00 | 0.00 | 807.0 | |
| 20260506183910 | 0 | 270 | 8.7 | 12.2 | 0.00 | 0.00 | 0.00 | 998.1 | |
| 20260506183900 | 0 | 225 | 8.7 | 12.2 | 0.00 | 0.00 | 0.00 | 998.1 | |
| 20260506183850 | 0 | 225 | 7.8 | 12.2 | 0.00 | 0.00 | 0.00 | 998.0 | |
| 20260506183840 | 0 | 225 | 7.0 | 12.2 | 0.00 | 0.00 | 0.00 | 998.0 | |
| 20260506183830 | 0 | 270 | 7.0 | 12.2 | 0.00 | 0.00 | 0.00 | 998.1 | |
| 20260506183820 | 0 | 270 | 7.0 | 12.2 | 0.00 | 0.00 | 0.00 | 807.0 | |
| 20260506183810 | 0 | 248 | 7.8 | 12.2 | 0.00 | 0.00 | 0.00 | 998.0 | |
| 20260506183800 | 0 | 225 | 7.8 | 12.2 | 0.00 | 0.00 | 0.00 | 998.0 | |
| 20260506183750 | 0 | 270 | 8.7 | 12.2 | 0.00 | 0.00 | 0.00 | 998.0 | |
| 20260506183740 | 0 | 270 | 8.7 | 12.2 | 0.00 | 0.00 | 0.00 | 687.3 | |
| 20260506183730 | 0 | 225 | 8.7 | 12.2 | 0.00 | 0.00 | 0.00 | 998.0 | |
| 20260506183720 | 56 | 225 | 8.7 | 12.2 | 0.00 | 0.00 | 0.00 | 83 | 998.0 |
| 20260506183710 | 0 | 225 | 8.7 | 13.0 | 0.00 | 0.00 | 0.00 | 998.0 | |
| 20260506183640 | 0 | 270 | 7.8 | 13.0 | 0.00 | 0.00 | 0.00 | 998.0 | |
| 20260506183610 | 0 | 270 | 7.0 | 13.0 | 0.00 | 0.00 | 0.00 | 998.0 | |
| 20260506183600 | 56 | 270 | 7.0 | 13.9 | 0.00 | 0.00 | 0.00 | 83 | 998.0 |
| 20260506183550 | 0 | 248 | 7.8 | 13.9 | 0.00 | 0.00 | 0.00 | 998.0 | |
| 20260506183540 | 0 | 270 | 7.8 | 13.9 | 0.00 | 0.00 | 0.00 | 679.2 | |
| 20260506183531 | 0 | 270 | 7.8 | 13.9 | 0.00 | 0.00 | 0.00 | 998.0 | |
| 20260506183520 | 0 | 225 | 7.8 | 13.9 | 0.00 | 0.00 | 0.00 | 998.0 | |
| 20260506183511 | 0 | 270 | 8.7 | 13.9 | 0.00 | 0.00 | 0.00 | 998.0 | |
| 20260506183441 | 0 | 248 | 8.7 | 13.9 | 0.00 | 0.00 | 0.00 | 998.0 | |
| 20260506183421 | 0 | 270 | 8.7 | 13.9 | 0.00 | 0.00 | 0.00 | 998.0 | |
| 20260506183411 | 56 | 248 | 8.7 | 13.9 | 0.00 | 0.00 | 0.00 | 85 | 998.1 |
| 20260506183401 | 56 | 270 | 7.8 | 13.9 | 0.00 | 0.00 | 0.00 | 85 | 998.1 |
| 20260506183341 | 0 | 225 | 8.7 | 13.9 | 0.00 | 0.00 | 0.00 | 998.0 | |
| 20260506183331 | 0 | 225 | 8.7 | 13.9 | 0.00 | 0.00 | 0.00 | 998.1 | |
| 20260506183321 | 0 | 270 | 8.7 | 13.9 | 0.00 | 0.00 | 0.00 | 998.0 | |
| 20260506183311 | 0 | 225 | 9.6 | 13.9 | 0.00 | 0.00 | 0.00 | 998.1 | |
| 20260506183301 | 0 | 270 | 10.4 | 13.9 | 0.00 | 0.00 | 0.00 | 1075.3 | |
| 20260506183251 | 56 | 270 | 10.4 | 13.9 | 0.00 | 0.00 | 0.00 | 85 | 998.0 |
| 20260506183241 | 0 | 270 | 10.4 | 13.9 | 0.00 | 0.00 | 0.00 | ||
| 20260506183231 | 56 | 270 | 9.6 | 13.9 | 0.00 | 0.00 | 0.00 | 85 | 998.1 |
| 20260506183221 | 0 | 270 | 9.6 | 13.9 | 0.00 | 0.00 | 0.00 | ||
| 20260506183211 | 0 | 225 | 9.6 | 13.9 | 0.00 | 0.00 | 0.00 | 998.1 | |
| 20260506183201 | 0 | 225 | 9.6 | 13.9 | 0.00 | 0.00 | 0.00 | ||
| 20260506183151 | 0 | 270 | 9.6 | 13.9 | 0.00 | 0.00 | 0.00 | 955.5 | |
| 20260506183141 | 0 | 225 | 9.6 | 13.9 | 0.00 | 0.00 | 0.00 | 998.0 | |
| 20260506183131 | 0 | 248 | 9.6 | 13.9 | 0.00 | 0.00 | 0.00 | 998.1 | |
| 20260506183121 | 0 | 270 | 9.6 | 13.9 | 0.00 | 0.00 | 0.00 | 998.1 | |
| 20260506183111 | 56 | 248 | 9.6 | 13.9 | 0.00 | 0.00 | 0.00 | 86 | 998.0 |
| 20260506183101 | 0 | 248 | 9.6 | 13.9 | 0.00 | 0.00 | 0.00 | 998.0 | |
| 20260506183051 | 0 | 270 | 8.7 | 13.9 | 0.00 | 0.00 | 0.00 | 998.0 | |
| 20260506183031 | 56 | 225 | 8.7 | 13.9 | 0.00 | 0.00 | 0.00 | 86 | 998.0 |
| 20260506183021 | 0 | 225 | 8.7 | 13.9 | 0.00 | 0.00 | 0.00 | 998.0 | |
| 20260506183001 | 0 | 270 | 8.7 | 13.9 | 0.00 | 0.00 | 0.00 | 998.0 | |
| 20260506182931 | 0 | 225 | 8.7 | 13.9 | 0.00 | 0.00 | 0.00 | 998.1 | |
| 20260506182921 | 0 | 225 | 8.7 | 13.9 | 0.00 | 0.00 | 0.00 | 998.0 | |
| 20260506182901 | 0 | 225 | 8.7 | 13.9 | 0.00 | 0.00 | 0.00 | 997.9 | |
| 20260506182841 | 0 | 225 | 8.7 | 13.9 | 0.00 | 0.00 | 0.00 | 998.0 | |
| 20260506182832 | 0 | 248 | 8.7 | 13.9 | 0.00 | 0.00 | 0.00 | 998.0 | |
| 20260506182812 | 0 | 225 | 9.6 | 16.5 | 0.00 | 0.00 | 0.00 | 998.0 | |
| 20260506182802 | 0 | 248 | 9.6 | 16.5 | 0.00 | 0.00 | 0.00 | 998.0 | |
| 20260506182742 | 0 | 270 | 10.4 | 16.5 | 0.00 | 0.00 | 0.00 | 998.0 | |
| 20260506182732 | 0 | 270 | 9.6 | 16.5 | 0.00 | 0.00 | 0.00 | 998.0 | |
| 20260506182722 | 0 | 225 | 9.6 | 16.5 | 0.00 | 0.00 | 0.00 | 997.9 | |
| 20260506182712 | 0 | 225 | 8.7 | 16.5 | 0.00 | 0.00 | 0.00 | 998.0 | |
| 20260506182702 | 0 | 248 | 8.7 | 16.5 | 0.00 | 0.00 | 0.00 | 998.0 | |
| 20260506182642 | 0 | 225 | 7.0 | 16.5 | 0.00 | 0.00 | 0.00 | 998.0 | |
| 20260506182632 | 0 | 225 | 7.0 | 16.5 | 0.00 | 0.00 | 0.00 | 997.9 | |
| 20260506182622 | 0 | 270 | 7.0 | 16.5 | 0.00 | 0.00 | 0.00 | 998.0 | |
| 20260506182612 | 0 | 225 | 7.8 | 16.5 | 0.00 | 0.00 | 0.00 | 998.0 | |
| 20260506182602 | 0 | 225 | 8.7 | 16.5 | 0.00 | 0.00 | 0.00 | 998.0 | |
| 20260506182522 | 0 | 225 | 8.7 | 16.5 | 0.00 | 0.00 | 0.00 | 998.0 | |
| 20260506182442 | 0 | 225 | 8.7 | 16.5 | 0.00 | 0.00 | 0.00 | 998.0 | |
| 20260506182422 | 0 | 225 | 10.4 | 16.5 | 0.00 | 0.00 | 0.00 | 998.0 | |
| 20260506182402 | 0 | 225 | 9.6 | 16.5 | 0.00 | 0.00 | 0.00 | 998.0 | |
| 20260506182342 | 0 | 225 | 8.7 | 16.5 | 0.00 | 0.00 | 0.00 | 998.0 | |
| 20260506182332 | 0 | 225 | 7.8 | 16.5 | 0.00 | 0.00 | 0.00 | ||
| 20260506182312 | 0 | 225 | 6.1 | 11.3 | 0.00 | 0.00 | 0.00 | 998.0 | |
| 20260506182306 | 0 | 225 | 7.0 | 11.3 | 0.00 | 0.00 | 0.00 | 998.0 | |
| 20260506182252 | 0 | 225 | 7.0 | 12.2 | 0.00 | 0.00 | 0.00 | 998.0 | |
| 20260506182242 | 0 | 225 | 6.1 | 13.9 | 0.00 | 0.00 | 0.00 | 998.0 | |
| 20260506182232 | 0 | 225 | 6.1 | 14.8 | 0.00 | 0.00 | 0.00 | 998.0 | |
| 20260506182223 | 0 | 225 | 6.1 | 14.8 | 0.00 | 0.00 | 0.00 | 997.9 | |
| 20260506182213 | 0 | 225 | 7.0 | 14.8 | 0.00 | 0.00 | 0.00 | ||
| 20260506182203 | 0 | 225 | 7.0 | 14.8 | 0.00 | 0.00 | 0.00 | 998.0 | |
| 20260506182123 | 0 | 225 | 7.0 | 14.8 | 0.00 | 0.00 | 0.00 | 998.0 | |
| 20260506182113 | 0 | 225 | 6.1 | 14.8 | 0.00 | 0.00 | 0.00 | 998.0 | |
| 20260506182103 | 0 | 225 | 5.2 | 14.8 | 0.00 | 0.00 | 0.00 | 807.0 | |
| 20260506182053 | 0 | 180 | 5.2 | 14.8 | 0.00 | 0.00 | 0.00 | 997.9 | |
| 20260506182023 | 56 | 225 | 5.2 | 14.8 | 0.00 | 0.00 | 0.00 | 88 | 998.0 |
| 20260506182013 | 0 | 270 | 5.2 | 14.8 | 0.00 | 0.00 | 0.00 | 998.0 | |
| 20260506181943 | 0 | 225 | 5.2 | 14.8 | 0.00 | 0.00 | 0.00 | 997.9 | |
| 20260506181933 | 0 | 225 | 5.2 | 14.8 | 0.00 | 0.00 | 0.00 | 998.0 | |
| 20260506181923 | 0 | 225 | 5.2 | 14.8 | 0.00 | 0.00 | 0.00 | 997.8 | |
| 20260506181903 | 0 | 225 | 5.2 | 14.8 | 0.00 | 0.00 | 0.00 | 997.9 | |
| 20260506181854 | 0 | 225 | 7.0 | 14.8 | 0.00 | 0.00 | 0.00 | 998.0 | |
| 20260506181843 | 0 | 225 | 7.0 | 14.8 | 0.00 | 0.00 | 0.00 | 997.9 | |
| 20260506181813 | 0 | 225 | 8.7 | 14.8 | 0.00 | 0.00 | 0.00 | 997.9 | |
| 20260506181803 | 0 | 203 | 9.6 | 14.8 | 0.00 | 0.00 | 0.00 | 997.9 | |
| 20260506181753 | 0 | 225 | 9.6 | 14.8 | 0.00 | 0.00 | 0.00 | 997.8 | |
| 20260506181743 | 0 | 225 | 8.7 | 14.8 | 0.00 | 0.00 | 0.00 | 997.8 | |
| 20260506181723 | 0 | 225 | 7.8 | 13.0 | 0.00 | 0.00 | 0.00 | 997.8 | |
| 20260506181713 | 0 | 225 | 8.7 | 13.0 | 0.00 | 0.00 | 0.00 | 997.8 | |
| 20260506181703 | 0 | 248 | 7.8 | 13.0 | 0.00 | 0.00 | 0.00 | 997.8 | |
| 20260506181633 | 0 | 225 | 7.8 | 13.0 | 0.00 | 0.00 | 0.00 | 997.8 | |
| 20260506181623 | 0 | 225 | 8.7 | 13.0 | 0.00 | 0.00 | 0.00 | 997.8 | |
| 20260506181613 | 0 | 270 | 8.7 | 13.0 | 0.00 | 0.00 | 0.00 | 997.8 | |
| 20260506181543 | 0 | 225 | 8.7 | 13.0 | 0.00 | 0.00 | 0.00 | 997.8 | |
| 20260506181533 | 0 | 270 | 8.7 | 13.0 | 0.00 | 0.00 | 0.00 | 997.8 | |
| 20260506181504 | 0 | 225 | 8.7 | 12.2 | 0.00 | 0.00 | 0.00 | 997.8 | |
| 20260506181454 | 0 | 225 | 8.7 | 12.2 | 0.00 | 0.00 | 0.00 | 997.7 | |
| 20260506181444 | 0 | 225 | 7.8 | 12.2 | 0.00 | 0.00 | 0.00 | 997.7 | |
| 20260506181434 | 0 | 248 | 7.8 | 12.2 | 0.00 | 0.00 | 0.00 | 997.7 | |
| 20260506181424 | 0 | 225 | 7.0 | 12.2 | 0.00 | 0.00 | 0.00 | 997.7 | |
| 20260506181354 | 0 | 225 | 7.0 | 9.6 | 0.00 | 0.00 | 0.00 | 997.7 | |
| 20260506181344 | 0 | 248 | 7.0 | 9.6 | 0.00 | 0.00 | 0.00 | 997.7 | |
| 20260506181314 | 0 | 225 | 7.0 | 9.6 | 0.00 | 0.00 | 0.00 | 997.7 | |
| 20260506181304 | 0 | 225 | 6.1 | 9.6 | 0.00 | 0.00 | 0.00 | 997.7 | |
| 20260506181224 | 0 | 225 | 6.1 | 9.6 | 0.00 | 0.00 | 0.00 | 997.7 | |
| 20260506181214 | 0 | 225 | 6.1 | 9.6 | 0.00 | 0.00 | 0.00 | 997.6 | |
| 20260506181204 | 0 | 225 | 7.0 | 9.6 | 0.00 | 0.00 | 0.00 | 997.6 | |
| 20260506181154 | 0 | 248 | 7.0 | 9.6 | 0.00 | 0.00 | 0.00 | 997.6 | |
| 20260506181124 | 0 | 225 | 7.0 | 9.6 | 0.00 | 0.00 | 0.00 | 997.6 | |
| 20260506181114 | 0 | 225 | 6.1 | 9.6 | 0.00 | 0.00 | 0.00 | 997.6 | |
| 20260506181104 | 0 | 248 | 6.1 | 8.7 | 0.00 | 0.00 | 0.00 | 997.6 | |
| 20260506181054 | 0 | 225 | 6.1 | 9.6 | 0.00 | 0.00 | 0.00 | 997.5 | |
| 20260506181014 | 0 | 225 | 6.1 | 9.6 | 0.00 | 0.00 | 0.00 | 997.6 | |
| 20260506181004 | 0 | 270 | 6.1 | 9.6 | 0.00 | 0.00 | 0.00 | 997.6 | |
| 20260506180934 | 0 | 225 | 6.1 | 9.6 | 0.00 | 0.00 | 0.00 | 997.6 | |
| 20260506180904 | 0 | 225 | 6.1 | 9.6 | 0.00 | 0.00 | 0.00 | 997.5 | |
| 20260506180854 | 0 | 225 | 6.1 | 9.6 | 0.00 | 0.00 | 0.00 | 997.6 | |
| 20260506180844 | 0 | 270 | 5.2 | 9.6 | 0.00 | 0.00 | 0.00 | 997.5 | |
| 20260506180815 | 0 | 225 | 5.2 | 9.6 | 0.00 | 0.00 | 0.00 | 997.5 | |
| 20260506180805 | 0 | 270 | 5.2 | 9.6 | 0.00 | 0.00 | 0.00 | 997.5 | |
| 20260506180755 | 0 | 270 | 4.3 | 9.6 | 0.00 | 0.00 | 0.00 | 997.5 | |
| 20260506180745 | 0 | 225 | 4.3 | 9.6 | 0.00 | 0.00 | 0.00 | 997.5 | |
| 20260506180725 | 0 | 248 | 5.2 | 9.6 | 0.00 | 0.00 | 0.00 | 997.5 | |
| 20260506180715 | 0 | 270 | 5.2 | 9.6 | 0.00 | 0.00 | 0.00 | 997.5 | |
| 20260506180655 | 0 | 270 | 6.1 | 9.6 | 0.00 | 0.00 | 0.00 | 997.5 | |
| 20260506180645 | 0 | 225 | 5.2 | 9.6 | 0.00 | 0.00 | 0.00 | 997.5 | |
| 20260506180635 | 0 | 270 | 5.2 | 9.6 | 0.00 | 0.00 | 0.00 | 997.5 | |
| 20260506180625 | 0 | 225 | 4.3 | 9.6 | 0.00 | 0.00 | 0.00 | 997.5 | |
| 20260506180545 | 0 | 225 | 3.5 | 9.6 | 0.00 | 0.00 | 0.00 | 997.5 | |
| 20260506180525 | 0 | 225 | 4.3 | 9.6 | 0.00 | 0.00 | 0.00 | 997.5 | |
| 20260506180455 | 0 | 248 | 4.3 | 9.6 | 0.00 | 0.00 | 0.00 | 997.5 | |
| 20260506180445 | 0 | 225 | 4.3 | 9.6 | 0.00 | 0.00 | 0.00 | 997.5 | |
| 20260506180435 | 0 | 225 | 5.2 | 9.6 | 0.00 | 0.00 | 0.00 | 997.6 | |
| 20260506180415 | 0 | 225 | 5.2 | 9.6 | 0.00 | 0.00 | 0.00 | 997.5 | |
| 20260506180405 | 0 | 225 | 6.1 | 9.6 | 0.00 | 0.00 | 0.00 | 997.5 | |
| 20260506180355 | 0 | 225 | 6.1 | 10.4 | 0.00 | 0.00 | 0.00 | 997.5 | |
| 20260506180335 | 0 | 225 | 6.1 | 10.4 | 0.00 | 0.00 | 0.00 | 997.6 | |
| 20260506180325 | 0 | 225 | 5.2 | 10.4 | 0.00 | 0.00 | 0.00 | 997.5 | |
| 20260506180255 | 0 | 225 | 6.1 | 10.4 | 0.00 | 0.00 | 0.00 | 997.6 | |
| 20260506180245 | 0 | 225 | 5.2 | 10.4 | 0.00 | 0.00 | 0.00 | 997.5 | |
| 20260506180225 | 0 | 225 | 6.1 | 10.4 | 0.00 | 0.00 | 0.00 | 997.5 | |
| 20260506180215 | 0 | 270 | 7.0 | 10.4 | 0.00 | 0.00 | 0.00 | 997.5 | |
| 20260506180206 | 0 | 270 | 7.0 | 10.4 | 0.00 | 0.00 | 0.00 | 997.6 | |
| 20260506180156 | 0 | 225 | 7.0 | 10.4 | 0.00 | 0.00 | 0.00 | 997.5 | |
| 20260506180146 | 0 | 270 | 6.1 | 10.4 | 0.00 | 0.00 | 0.00 | 997.5 | |
| 20260506180136 | 0 | 270 | 6.1 | 11.3 | 0.00 | 0.00 | 0.00 | 997.5 | |
| 20260506180126 | 0 | 225 | 6.1 | 12.2 | 0.00 | 0.00 | 0.00 | 997.6 | |
| 20260506180116 | 55 | 270 | 6.1 | 13.9 | 0.00 | 0.00 | 0.00 | 82 | 997.5 |
| 20260506180056 | 0 | 270 | 6.1 | 14.8 | 0.00 | 0.00 | 0.00 | 997.6 | |
| 20260506180046 | 0 | 225 | 6.1 | 14.8 | 0.00 | 0.00 | 0.00 | 997.6 | |
| 20260506180026 | 0 | 270 | 6.1 | 14.8 | 0.00 | 0.00 | 0.00 | 997.5 | |
| 20260506180016 | 0 | 270 | 7.0 | 14.8 | 0.00 | 0.00 | 0.00 | 997.5 | |
| 20260506175936 | 0 | 270 | 7.0 | 15.6 | 0.00 | 0.00 | 0.00 | 997.5 | |
| 20260506175926 | 0 | 270 | 7.0 | 15.6 | 0.00 | 0.00 | 0.00 | 997.6 | |
| 20260506175916 | 0 | 248 | 7.0 | 15.6 | 0.00 | 0.00 | 0.00 | 997.5 | |
| 20260506175856 | 0 | 270 | 7.0 | 15.6 | 0.00 | 0.00 | 0.00 | 997.5 | |
| 20260506175816 | 0 | 270 | 7.0 | 15.6 | 0.00 | 0.00 | 0.00 | 997.5 | |
| 20260506175806 | 0 | 270 | 7.0 | 15.6 | 0.00 | 0.00 | 0.00 | 997.6 | |
| 20260506175756 | 0 | 225 | 7.0 | 15.6 | 0.00 | 0.00 | 0.00 | 997.6 | |
| 20260506175746 | 0 | 225 | 7.0 | 16.5 | 0.00 | 0.00 | 0.00 | 997.5 | |
| 20260506175726 | 0 | 270 | 7.8 | 16.5 | 0.00 | 0.00 | 0.00 | 997.6 | |
| 20260506175716 | 0 | 270 | 8.7 | 16.5 | 0.00 | 0.00 | 0.00 | 997.6 | |
| 20260506175706 | 0 | 270 | 9.6 | 17.4 | 0.00 | 0.00 | 0.00 | 997.5 | |
| 20260506175656 | 0 | 270 | 10.4 | 20.0 | 0.00 | 0.00 | 0.00 | 997.5 | |
| 20260506175646 | 0 | 270 | 10.4 | 20.0 | 0.00 | 0.00 | 0.00 | 997.6 | |
| 20260506175636 | 0 | 270 | 11.3 | 20.0 | 0.00 | 0.00 | 0.00 | 997.6 | |
| 20260506175626 | 0 | 270 | 11.3 | 20.0 | 0.00 | 0.00 | 0.00 | 997.5 | |
| 20260506175616 | 0 | 270 | 12.2 | 21.7 | 0.00 | 0.00 | 0.00 | 997.5 | |
| 20260506175606 | 0 | 248 | 12.2 | 21.7 | 0.00 | 0.00 | 0.00 | 997.6 | |
| 20260506175556 | 0 | 270 | 11.3 | 21.7 | 0.00 | 0.00 | 0.00 | 997.5 | |
| 20260506175527 | 0 | 225 | 10.4 | 21.7 | 0.00 | 0.00 | 0.00 | 997.5 | |
| 20260506175517 | 0 | 270 | 10.4 | 21.7 | 0.00 | 0.00 | 0.00 | 997.5 | |
| 20260506175507 | 0 | 270 | 9.6 | 21.7 | 0.00 | 0.00 | 0.00 | 997.5 | |
| 20260506175457 | 0 | 270 | 9.6 | 21.7 | 0.00 | 0.00 | 0.00 | 997.6 | |
| 20260506175447 | 0 | 248 | 10.4 | 21.7 | 0.00 | 0.00 | 0.00 | 997.5 | |
| 20260506175427 | 0 | 225 | 10.4 | 21.7 | 0.00 | 0.00 | 0.00 | 997.5 | |
| 20260506175417 | 0 | 270 | 10.4 | 21.7 | 0.00 | 0.00 | 0.00 | 997.6 | |
| 20260506175407 | 0 | 270 | 10.4 | 21.7 | 0.00 | 0.00 | 0.00 | 997.5 | |
| 20260506175357 | 0 | 225 | 11.3 | 21.7 | 0.00 | 0.00 | 0.00 | 997.5 | |
| 20260506175347 | 0 | 270 | 11.3 | 21.7 | 0.00 | 0.00 | 0.00 | 997.6 | |
| 20260506175337 | 0 | 270 | 11.3 | 21.7 | 0.00 | 0.00 | 0.00 | 997.5 | |
| 20260506175327 | 0 | 270 | 12.2 | 21.7 | 0.00 | 0.00 | 0.00 | 997.5 | |
| 20260506175317 | 0 | 248 | 12.2 | 21.7 | 0.00 | 0.00 | 0.00 | 997.6 | |
| 20260506175307 | 0 | 270 | 12.2 | 21.7 | 0.00 | 0.00 | 0.00 | 997.6 | |
| 20260506175257 | 0 | 270 | 13.0 | 21.7 | 0.00 | 0.00 | 0.00 | 997.6 | |
| 20260506175247 | 0 | 225 | 13.9 | 21.7 | 0.00 | 0.00 | 0.00 | 997.5 | |
| 20260506175227 | 0 | 270 | 13.9 | 21.7 | 0.00 | 0.00 | 0.00 | 997.5 | |
| 20260506175217 | 0 | 225 | 14.8 | 21.7 | 0.00 | 0.00 | 0.00 | 997.5 | |
| 20260506175207 | 0 | 270 | 15.6 | 21.7 | 0.00 | 0.00 | 0.00 | 997.6 | |
| 20260506175157 | 0 | 270 | 14.8 | 21.7 | 0.00 | 0.00 | 0.00 | 997.5 | |
| 20260506175137 | 0 | 270 | 15.6 | 21.7 | 0.00 | 0.00 | 0.00 | 997.5 | |
| 20260506175127 | 0 | 225 | 15.6 | 21.7 | 0.00 | 0.00 | 0.00 | 997.6 | |
| 20260506175117 | 0 | 270 | 14.8 | 21.7 | 0.00 | 0.00 | 0.00 | 997.5 | |
| 20260506175057 | 0 | 270 | 13.9 | 21.7 | 0.00 | 0.00 | 0.00 | 997.5 | |
| 20260506175047 | 0 | 270 | 13.9 | 20.0 | 0.00 | 0.00 | 0.00 | 997.5 | |
| 20260506175037 | 0 | 248 | 12.2 | 20.0 | 0.00 | 0.00 | 0.00 | 997.5 | |
| 20260506175027 | 0 | 270 | 12.2 | 20.0 | 0.00 | 0.00 | 0.00 | 997.5 | |
| 20260506175017 | 0 | 270 | 12.2 | 20.0 | 0.00 | 0.00 | 0.00 | 997.6 | |
| 20260506175007 | 0 | 270 | 13.0 | 22.6 | 0.00 | 0.00 | 0.00 | 997.6 | |
| 20260506174957 | 0 | 225 | 13.0 | 22.6 | 0.00 | 0.00 | 0.00 | 997.6 | |
| 20260506174947 | 0 | 248 | 13.0 | 22.6 | 0.00 | 0.00 | 0.00 | 997.5 | |
| 20260506174928 | 0 | 270 | 13.9 | 22.6 | 0.00 | 0.00 | 0.00 | 997.6 | |
| 20260506174918 | 0 | 225 | 14.8 | 22.6 | 0.00 | 0.00 | 0.00 | 997.6 | |
| 20260506174908 | 0 | 270 | 13.9 | 22.6 | 0.00 | 0.00 | 0.00 | 997.5 | |
| 20260506174858 | 0 | 270 | 13.9 | 22.6 | 0.00 | 0.00 | 0.00 | 997.4 | |
| 20260506174848 | 0 | 270 | 13.0 | 22.6 | 0.00 | 0.00 | 0.00 | 997.5 | |
| 20260506174838 | 0 | 270 | 13.0 | 24.3 | 0.00 | 0.00 | 0.00 | 997.5 | |
| 20260506174828 | 0 | 225 | 13.0 | 25.2 | 0.00 | 0.00 | 0.00 | 997.5 | |
| 20260506174818 | 0 | 270 | 13.0 | 26.9 | 0.00 | 0.00 | 0.00 | 997.5 | |
| 20260506174748 | 0 | 225 | 13.9 | 28.7 | 0.00 | 0.00 | 0.00 | 997.6 | |
| 20260506174738 | 0 | 270 | 13.0 | 28.7 | 0.00 | 0.00 | 0.00 | 997.5 | |
| 20260506174728 | 0 | 270 | 13.0 | 30.4 | 0.00 | 0.00 | 0.00 | 997.5 | |
| 20260506174718 | 0 | 270 | 13.0 | 31.3 | 0.00 | 0.00 | 0.00 | 997.4 | |
| 20260506174708 | 0 | 270 | 13.0 | 31.3 | 0.00 | 0.00 | 0.00 | 997.3 | |
| 20260506174658 | 0 | 225 | 13.0 | 31.3 | 0.00 | 0.00 | 0.00 | 874.6 | |
| 20260506174648 | 0 | 270 | 13.9 | 31.3 | 0.00 | 0.00 | 0.00 | 997.5 | |
| 20260506174638 | 0 | 270 | 14.8 | 31.3 | 0.00 | 0.00 | 0.00 | 997.5 | |
| 20260506174628 | 0 | 270 | 14.8 | 31.3 | 0.00 | 0.00 | 0.00 | 997.4 | |
| 20260506174618 | 0 | 248 | 15.6 | 31.3 | 0.00 | 0.00 | 0.00 | 997.4 | |
| 20260506174608 | 0 | 270 | 15.6 | 31.3 | 0.00 | 0.00 | 0.00 | 997.5 | |
| 20260506174558 | 0 | 248 | 15.6 | 31.3 | 0.00 | 0.00 | 0.00 | 997.2 | |
| 20260506174528 | 0 | 248 | 15.6 | 31.3 | 0.00 | 0.00 | 0.00 | 997.4 | |
| 20260506174518 | 0 | 270 | 15.6 | 31.3 | 0.00 | 0.00 | 0.00 | 997.4 | |
| 20260506174508 | 0 | 270 | 15.6 | 31.3 | 0.00 | 0.00 | 0.00 | 997.5 | |
| 20260506174458 | 0 | 270 | 16.5 | 31.3 | 0.00 | 0.00 | 0.00 | 997.4 | |
| 20260506174448 | 0 | 270 | 17.4 | 31.3 | 0.00 | 0.00 | 0.00 | 997.5 | |
| 20260506174438 | 0 | 270 | 17.4 | 31.3 | 0.00 | 0.00 | 0.00 | 997.4 | |
| 20260506174418 | 0 | 270 | 19.1 | 31.3 | 0.00 | 0.00 | 0.00 | 997.3 | |
| 20260506174408 | 0 | 225 | 20.9 | 31.3 | 0.00 | 0.00 | 0.00 | 997.3 | |
| 20260506174358 | 0 | 270 | 21.7 | 31.3 | 0.00 | 0.00 | 0.00 | 997.3 | |
| 20260506174339 | 0 | 270 | 22.6 | 31.3 | 0.00 | 0.00 | 0.00 | 997.2 | |
| 20260506174329 | 0 | 270 | 22.6 | 31.3 | 0.00 | 0.00 | 0.00 | 997.1 | |
| 20260506174319 | 0 | 270 | 23.5 | 31.3 | 0.00 | 0.00 | 0.00 | 997.3 | |
| 20260506174259 | 0 | 270 | 23.5 | 31.3 | 0.00 | 0.00 | 0.00 | 997.1 | |
| 20260506174249 | 0 | 270 | 22.6 | 31.3 | 0.00 | 0.00 | 0.00 | 997.2 | |
| 20260506174239 | 0 | 270 | 22.6 | 31.3 | 0.00 | 0.00 | 0.00 | 996.9 | |
| 20260506174229 | 0 | 248 | 21.7 | 31.3 | 0.00 | 0.00 | 0.00 | 997.0 | |
| 20260506174219 | 0 | 270 | 20.0 | 29.5 | 0.00 | 0.00 | 0.00 | 997.0 | |
| 20260506174209 | 0 | 270 | 20.0 | 26.9 | 0.00 | 0.00 | 0.00 | 997.0 | |
| 20260506174159 | 0 | 270 | 19.1 | 26.9 | 0.00 | 0.00 | 0.00 | 997.3 | |
| 20260506174149 | 0 | 270 | 18.2 | 26.9 | 0.00 | 0.00 | 0.00 | 997.3 | |
| 20260506174139 | 0 | 270 | 17.4 | 26.9 | 0.00 | 0.00 | 0.00 | 997.1 | |
| 20260506174129 | 0 | 225 | 17.4 | 26.9 | 0.00 | 0.00 | 0.00 | 997.3 | |
| 20260506174119 | 0 | 270 | 16.5 | 26.9 | 0.00 | 0.00 | 0.00 | 997.2 | |
| 20260506174109 | 0 | 270 | 15.6 | 25.2 | 0.00 | 0.00 | 0.00 | 996.9 | |
| 20260506174059 | 0 | 270 | 16.5 | 25.2 | 0.00 | 0.00 | 0.00 | 997.2 | |
| 20260506174049 | 0 | 270 | 16.5 | 25.2 | 0.00 | 0.00 | 0.00 | 997.1 | |
| 20260506174039 | 0 | 225 | 17.4 | 25.2 | 0.00 | 0.00 | 0.00 | 997.1 | |
| 20260506174029 | 0 | 225 | 17.4 | 28.7 | 0.00 | 0.00 | 0.00 | 997.2 | |
| 20260506174019 | 0 | 225 | 17.4 | 28.7 | 0.00 | 0.00 | 0.00 | 997.0 | |
| 20260506174009 | 0 | 270 | 16.5 | 28.7 | 0.00 | 0.00 | 0.00 | 997.1 | |
| 20260506173959 | 0 | 270 | 15.6 | 28.7 | 0.00 | 0.00 | 0.00 | 997.1 | |
| 20260506173949 | 0 | 225 | 14.8 | 28.7 | 0.00 | 0.00 | 0.00 | 997.0 | |
| 20260506173939 | 0 | 225 | 13.9 | 28.7 | 0.00 | 0.00 | 0.00 | 997.1 | |
| 20260506173929 | 0 | 270 | 13.9 | 28.7 | 0.00 | 0.00 | 0.00 | 997.2 | |
| 20260506173909 | 0 | 270 | 13.9 | 28.7 | 0.00 | 0.00 | 0.00 | 997.1 | |
| 20260506173859 | 0 | 225 | 13.9 | 28.7 | 0.00 | 0.00 | 0.00 | 997.1 | |
| 20260506173849 | 0 | 225 | 14.8 | 28.7 | 0.00 | 0.00 | 0.00 | 997.0 | |
| 20260506173839 | 0 | 225 | 14.8 | 28.7 | 0.00 | 0.00 | 0.00 | 996.9 | |
| 20260506173829 | 0 | 135 | 15.6 | 28.7 | 0.00 | 0.00 | 0.00 | 997.2 | |
| 20260506173819 | 0 | 248 | 14.8 | 28.7 | 0.00 | 0.00 | 0.00 | 997.0 | |
| 20260506173809 | 0 | 225 | 14.8 | 28.7 | 0.00 | 0.00 | 0.00 | 997.1 | |
| 20260506173750 | 0 | 270 | 15.6 | 28.7 | 0.00 | 0.00 | 0.00 | 996.9 | |
| 20260506173740 | 0 | 225 | 15.6 | 28.7 | 0.00 | 0.00 | 0.00 | 997.0 | |
| 20260506173730 | 0 | 225 | 15.6 | 28.7 | 0.00 | 0.00 | 0.00 | 997.1 | |
| 20260506173710 | 0 | 248 | 15.6 | 28.7 | 0.00 | 0.00 | 0.00 | 996.9 | |
| 20260506173700 | 0 | 270 | 15.6 | 28.7 | 0.00 | 0.00 | 0.00 | 997.0 | |
| 20260506173650 | 0 | 225 | 15.6 | 28.7 | 0.00 | 0.00 | 0.00 | 997.1 | |
| 20260506173640 | 0 | 270 | 15.6 | 28.7 | 0.00 | 0.00 | 0.00 | 996.9 | |
| 20260506173630 | 0 | 225 | 15.6 | 28.7 | 0.00 | 0.00 | 0.00 | 997.0 | |
| 20260506173610 | 0 | 225 | 17.4 | 28.7 | 0.00 | 0.00 | 0.00 | 997.0 | |
| 20260506173600 | 0 | 225 | 17.4 | 28.7 | 0.00 | 0.00 | 0.00 | 996.9 | |
| 20260506173550 | 0 | 270 | 15.6 | 28.7 | 0.00 | 0.00 | 0.00 | 997.0 | |
| 20260506173540 | 0 | 225 | 13.9 | 28.7 | 0.00 | 0.00 | 0.00 | 996.8 | |
| 20260506173530 | 0 | 225 | 12.2 | 27.8 | 0.00 | 0.00 | 0.00 | 997.0 | |
| 20260506173520 | 0 | 225 | 9.6 | 24.3 | 0.00 | 0.00 | 0.00 | 996.7 | |
| 20260506173510 | 0 | 90 | 8.7 | 17.4 | 0.00 | 0.00 | 0.00 | 996.6 | |
| 20260506173500 | 0 | 158 | 7.8 | 17.4 | 0.00 | 0.00 | 0.00 | 996.6 | |
| 20260506173450 | 0 | 203 | 7.8 | 17.4 | 0.00 | 0.00 | 0.00 | 997.0 | |
| 20260506173440 | 0 | 248 | 7.0 | 17.4 | 0.00 | 0.00 | 0.00 | 996.9 | |
| 20260506173430 | 0 | 180 | 7.0 | 17.4 | 0.00 | 0.00 | 0.00 | 996.8 | |
| 20260506173420 | 0 | 270 | 6.1 | 17.4 | 0.00 | 0.00 | 0.00 | 996.8 | |
| 20260506173400 | 0 | 225 | 5.2 | 17.4 | 0.00 | 0.00 | 0.00 | 996.8 | |
| 20260506173350 | 0 | 135 | 4.3 | 13.9 | 0.00 | 0.00 | 0.00 | 996.7 | |
| 20260506173330 | 0 | 180 | 5.2 | 13.9 | 0.00 | 0.00 | 0.00 | 996.8 | |
| 20260506173320 | 0 | 158 | 5.2 | 13.9 | 0.00 | 0.00 | 0.00 | 996.8 | |
| 20260506173310 | 0 | 225 | 5.2 | 13.9 | 0.00 | 0.00 | 0.00 | 996.8 | |
| 20260506173240 | 0 | 225 | 5.2 | 13.9 | 0.00 | 0.00 | 0.00 | 996.7 | |
| 20260506173230 | 0 | 180 | 5.2 | 13.9 | 0.00 | 0.00 | 0.00 | 996.8 | |
| 20260506173220 | 0 | 180 | 6.1 | 13.9 | 0.00 | 0.00 | 0.00 | 996.8 | |
| 20260506173201 | 0 | 180 | 7.0 | 13.9 | 0.00 | 0.00 | 0.00 | 996.6 | |
| 20260506173151 | 0 | 180 | 7.0 | 13.9 | 0.00 | 0.00 | 0.00 | 996.7 | |
| 20260506173141 | 0 | 225 | 7.0 | 13.9 | 0.00 | 0.00 | 0.00 | 996.7 | |
| 20260506173121 | 0 | 135 | 7.0 | 13.9 | 0.00 | 0.00 | 0.00 | 996.7 | |
| 20260506173111 | 0 | 225 | 7.0 | 13.9 | 0.00 | 0.00 | 0.00 | 996.6 | |
| 20260506173101 | 0 | 180 | 7.0 | 13.9 | 0.00 | 0.00 | 0.00 | 996.6 | |
| 20260506173051 | 0 | 180 | 7.8 | 13.9 | 0.00 | 0.00 | 0.00 | 996.6 | |
| 20260506173041 | 0 | 180 | 8.7 | 13.9 | 0.00 | 0.00 | 0.00 | 996.6 | |
| 20260506173031 | 0 | 180 | 7.8 | 13.9 | 0.00 | 0.00 | 0.00 | 996.5 | |
| 20260506173021 | 0 | 180 | 8.7 | 13.9 | 0.00 | 0.00 | 0.00 | 996.5 | |
| 20260506173001 | 0 | 135 | 8.7 | 13.9 | 0.00 | 0.00 | 0.00 | 996.5 | |
| 20260506172941 | 0 | 180 | 8.7 | 13.9 | 0.00 | 0.00 | 0.00 | 996.5 | |
| 20260506172931 | 0 | 135 | 9.6 | 13.9 | 0.00 | 0.00 | 0.00 | 996.5 | |
| 20260506172921 | 0 | 180 | 8.7 | 13.9 | 0.00 | 0.00 | 0.00 | 996.4 | |
| 20260506172911 | 0 | 180 | 9.6 | 13.9 | 0.00 | 0.00 | 0.00 | 996.4 | |
| 20260506172901 | 0 | 180 | 9.6 | 13.9 | 0.00 | 0.00 | 0.00 | 996.5 | |
| 20260506172831 | 0 | 180 | 8.7 | 13.9 | 0.00 | 0.00 | 0.00 | 996.4 | |
| 20260506172821 | 0 | 180 | 7.0 | 13.9 | 0.00 | 0.00 | 0.00 | 996.5 | |
| 20260506172801 | 0 | 180 | 7.0 | 13.9 | 0.00 | 0.00 | 0.00 | 996.4 | |
| 20260506172721 | 0 | 180 | 7.0 | 13.9 | 0.00 | 0.00 | 0.00 | 996.4 | |
| 20260506172711 | 0 | 158 | 7.0 | 13.9 | 0.00 | 0.00 | 0.00 | 996.5 | |
| 20260506172701 | 0 | 180 | 7.0 | 13.9 | 0.00 | 0.00 | 0.00 | 996.3 | |
| 20260506172641 | 0 | 180 | 7.0 | 13.0 | 0.00 | 0.00 | 0.00 | 996.4 | |
| 20260506172631 | 0 | 203 | 7.0 | 13.0 | 0.00 | 0.00 | 0.00 | 996.4 | |
| 20260506172551 | 0 | 180 | 7.0 | 13.0 | 0.00 | 0.00 | 0.00 | 996.4 | |
| 20260506172542 | 0 | 180 | 7.0 | 13.0 | 0.00 | 0.00 | 0.00 | 996.3 | |
| 20260506172512 | 0 | 180 | 7.0 | 13.0 | 0.00 | 0.00 | 0.00 | 996.4 | |
| 20260506172502 | 0 | 180 | 7.0 | 13.0 | 0.00 | 0.00 | 0.00 | 996.3 | |
| 20260506172452 | 0 | 225 | 7.8 | 13.0 | 0.00 | 0.00 | 0.00 | 996.4 | |
| 20260506172432 | 0 | 180 | 8.7 | 13.0 | 0.00 | 0.00 | 0.00 | 996.3 | |
| 20260506172422 | 0 | 0 | 7.8 | 13.0 | 0.00 | 0.00 | 0.00 | 996.3 | |
| 20260506172402 | 0 | 180 | 7.8 | 13.0 | 0.00 | 0.00 | 0.00 | 996.3 | |
| 20260506172352 | 0 | 180 | 7.0 | 13.0 | 0.00 | 0.00 | 0.00 | 996.4 | |
| 20260506172322 | 0 | 180 | 7.0 | 13.0 | 0.00 | 0.00 | 0.00 | 996.3 | |
| 20260506172312 | 0 | 180 | 7.8 | 13.0 | 0.00 | 0.00 | 0.00 | 996.3 | |
| 20260506172306 | 0 | 180 | 7.8 | 13.0 | 0.00 | 0.00 | 0.00 | 996.4 | |
| 20260506172252 | 0 | 180 | 8.7 | 13.0 | 0.00 | 0.00 | 0.00 | 996.4 | |
| 20260506172222 | 0 | 180 | 8.7 | 13.0 | 0.00 | 0.00 | 0.00 | 996.3 | |
| 20260506172202 | 0 | 180 | 8.7 | 13.0 | 0.00 | 0.00 | 0.00 | 996.2 | |
| 20260506172142 | 0 | 180 | 8.7 | 13.0 | 0.00 | 0.00 | 0.00 | 996.3 | |
| 20260506172112 | 0 | 203 | 8.7 | 13.0 | 0.00 | 0.00 | 0.00 | 996.2 | |
| 20260506172102 | 0 | 180 | 8.7 | 13.0 | 0.00 | 0.00 | 0.00 | 996.2 | |
| 20260506172052 | 0 | 180 | 8.7 | 12.2 | 0.00 | 0.00 | 0.00 | 996.3 | |
| 20260506172042 | 0 | 203 | 8.7 | 12.2 | 0.00 | 0.00 | 0.00 | 996.2 | |
| 20260506172022 | 0 | 180 | 8.7 | 12.2 | 0.00 | 0.00 | 0.00 | 996.2 | |
| 20260506172002 | 0 | 180 | 8.7 | 12.2 | 0.00 | 0.00 | 0.00 | 996.1 | |
| 20260506171952 | 0 | 180 | 8.7 | 12.2 | 0.00 | 0.00 | 0.00 | 996.0 | |
| 20260506171913 | 0 | 180 | 8.7 | 12.2 | 0.00 | 0.00 | 0.00 | 996.1 | |
| 20260506171843 | 0 | 180 | 8.7 | 12.2 | 0.00 | 0.00 | 0.00 | 996.0 | |
| 20260506171833 | 0 | 180 | 8.7 | 12.2 | 0.00 | 0.00 | 0.00 | 996.1 | |
| 20260506171803 | 0 | 180 | 8.7 | 13.9 | 0.00 | 0.00 | 0.00 | 996.1 | |
| 20260506171753 | 0 | 180 | 8.7 | 13.9 | 0.00 | 0.00 | 0.00 | 996.0 | |
| 20260506171723 | 0 | 180 | 8.7 | 13.9 | 0.00 | 0.00 | 0.00 | 996.1 | |
| 20260506171633 | 0 | 180 | 8.7 | 13.9 | 0.00 | 0.00 | 0.00 | 996.1 | |
| 20260506171613 | 0 | 180 | 8.7 | 13.9 | 0.00 | 0.00 | 0.00 | 996.0 | |
| 20260506171603 | 0 | 225 | 8.7 | 13.9 | 0.00 | 0.00 | 0.00 | 996.0 | |
| 20260506171553 | 64 | 180 | 8.7 | 13.9 | 0.00 | 0.00 | 0.00 | 62 | 996.0 |
| 20260506171523 | 0 | 180 | 8.7 | 13.9 | 0.00 | 0.00 | 0.00 | 996.0 | |
| 20260506171453 | 0 | 180 | 8.7 | 13.9 | 0.00 | 0.00 | 0.00 | 995.9 | |
| 20260506171443 | 0 | 180 | 8.7 | 13.9 | 0.00 | 0.00 | 0.00 | 996.0 | |
| 20260506171433 | 0 | 180 | 9.6 | 13.9 | 0.00 | 0.00 | 0.00 | 996.0 | |
| 20260506171413 | 0 | 180 | 10.4 | 13.9 | 0.00 | 0.00 | 0.00 | 996.0 | |
| 20260506171353 | 0 | 180 | 9.6 | 13.9 | 0.00 | 0.00 | 0.00 | 996.0 | |
| 20260506171343 | 0 | 180 | 9.6 | 13.9 | 0.00 | 0.00 | 0.00 | 995.9 | |
| 20260506171334 | 0 | 180 | 10.4 | 13.9 | 0.00 | 0.00 | 0.00 | 996.0 | |
| 20260506171304 | 0 | 180 | 9.6 | 13.9 | 0.00 | 0.00 | 0.00 | 996.0 | |
| 20260506171254 | 0 | 180 | 8.7 | 13.9 | 0.00 | 0.00 | 0.00 | 996.0 | |
| 20260506171244 | 0 | 180 | 8.7 | 13.9 | 0.00 | 0.00 | 0.00 | 995.9 | |
| 20260506171224 | 0 | 180 | 8.7 | 13.0 | 0.00 | 0.00 | 0.00 | 807.0 | |
| 20260506171214 | 0 | 180 | 8.7 | 13.0 | 0.00 | 0.00 | 0.00 | 996.0 | |
| 20260506171144 | 0 | 180 | 8.7 | 13.0 | 0.00 | 0.00 | 0.00 | 995.9 | |
| 20260506171134 | 0 | 180 | 7.8 | 13.0 | 0.00 | 0.00 | 0.00 | 995.9 | |
| 20260506171124 | 0 | 180 | 7.0 | 13.0 | 0.00 | 0.00 | 0.00 | 995.9 | |
| 20260506171114 | 0 | 180 | 7.0 | 13.0 | 0.00 | 0.00 | 0.00 | 996.0 | |
| 20260506171104 | 0 | 180 | 7.0 | 13.0 | 0.00 | 0.00 | 0.00 | 995.8 | |
| 20260506171054 | 0 | 180 | 7.8 | 13.0 | 0.00 | 0.00 | 0.00 | 996.0 | |
| 20260506171024 | 0 | 180 | 7.8 | 13.0 | 0.00 | 0.00 | 0.00 | 995.9 | |
| 20260506171014 | 0 | 180 | 7.8 | 13.0 | 0.00 | 0.00 | 0.00 | 995.8 | |
| 20260506171004 | 0 | 180 | 7.8 | 12.2 | 0.00 | 0.00 | 0.00 | 995.8 | |
| 20260506170954 | 0 | 180 | 7.0 | 11.3 | 0.00 | 0.00 | 0.00 | 995.8 | |
| 20260506170934 | 0 | 180 | 7.0 | 11.3 | 0.00 | 0.00 | 0.00 | 995.9 | |
| 20260506170914 | 0 | 180 | 6.1 | 11.3 | 0.00 | 0.00 | 0.00 | 995.8 | |
| 20260506170904 | 0 | 180 | 6.1 | 9.6 | 0.00 | 0.00 | 0.00 | 995.8 | |
| 20260506170854 | 0 | 180 | 5.2 | 9.6 | 0.00 | 0.00 | 0.00 | 995.8 | |
| 20260506170844 | 0 | 225 | 5.2 | 9.6 | 0.00 | 0.00 | 0.00 | 995.8 | |
| 20260506170824 | 0 | 180 | 6.1 | 9.6 | 0.00 | 0.00 | 0.00 | 995.8 | |
| 20260506170814 | 0 | 180 | 5.2 | 9.6 | 0.00 | 0.00 | 0.00 | 995.8 | |
| 20260506170735 | 0 | 180 | 5.2 | 9.6 | 0.00 | 0.00 | 0.00 | 995.8 | |
| 20260506170725 | 0 | 180 | 5.2 | 9.6 | 0.00 | 0.00 | 0.00 | 995.7 | |
| 20260506170715 | 0 | 203 | 5.2 | 9.6 | 0.00 | 0.00 | 0.00 | 995.8 | |
| 20260506170705 | 0 | 180 | 6.1 | 9.6 | 0.00 | 0.00 | 0.00 | 995.7 | |
| 20260506170655 | 0 | 203 | 5.2 | 9.6 | 0.00 | 0.00 | 0.00 | 995.7 | |
| 20260506170625 | 0 | 180 | 5.2 | 9.6 | 0.00 | 0.00 | 0.00 | 995.7 | |
| 20260506170615 | 0 | 180 | 5.2 | 9.6 | 0.00 | 0.00 | 0.00 | 995.8 | |
| 20260506170605 | 64 | 180 | 5.2 | 9.6 | 0.00 | 0.00 | 0.00 | 62 | 995.7 |
| 20260506170535 | 0 | 225 | 5.2 | 9.6 | 0.00 | 0.00 | 0.00 | 995.7 | |
| 20260506170525 | 0 | 180 | 5.2 | 9.6 | 0.00 | 0.00 | 0.00 | 995.7 | |
| 20260506170515 | 0 | 180 | 6.1 | 9.6 | 0.00 | 0.00 | 0.00 | 995.7 | |
| 20260506170505 | 0 | 180 | 5.2 | 8.7 | 0.00 | 0.00 | 0.00 | 995.6 | |
| 20260506170455 | 0 | 203 | 5.2 | 8.7 | 0.00 | 0.00 | 0.00 | 995.7 | |
| 20260506170445 | 0 | 180 | 6.1 | 9.6 | 0.00 | 0.00 | 0.00 | 995.6 | |
| 20260506170435 | 0 | 180 | 5.2 | 9.6 | 0.00 | 0.00 | 0.00 | 995.6 | |
| 20260506170425 | 0 | 180 | 5.2 | 9.6 | 0.00 | 0.00 | 0.00 | 995.7 | |
| 20260506170405 | 0 | 180 | 6.1 | 9.6 | 0.00 | 0.00 | 0.00 | 995.6 | |
| 20260506170335 | 0 | 180 | 5.2 | 9.6 | 0.00 | 0.00 | 0.00 | 995.6 | |
| 20260506170325 | 0 | 180 | 5.2 | 10.4 | 0.00 | 0.00 | 0.00 | ||
| 20260506170315 | 0 | 180 | 5.2 | 10.4 | 0.00 | 0.00 | 0.00 | 995.6 | |
| 20260506170255 | 0 | 180 | 5.2 | 11.3 | 0.00 | 0.00 | 0.00 | 995.6 | |
| 20260506170245 | 0 | 180 | 5.2 | 12.2 | 0.00 | 0.00 | 0.00 | 995.6 | |
| 20260506170235 | 0 | 180 | 5.2 | 12.2 | 0.00 | 0.00 | 0.00 | 995.5 | |
| 20260506170215 | 0 | 180 | 6.1 | 12.2 | 0.00 | 0.00 | 0.00 | 995.5 | |
| 20260506170136 | 0 | 180 | 6.1 | 12.2 | 0.00 | 0.00 | 0.00 | 995.5 | |
| 20260506170126 | 0 | 180 | 6.1 | 12.2 | 0.00 | 0.00 | 0.00 | 995.4 | |
| 20260506170056 | 0 | 180 | 7.0 | 12.2 | 0.00 | 0.00 | 0.00 | 995.5 | |
| 20260506170016 | 0 | 180 | 7.0 | 12.2 | 0.00 | 0.00 | 0.00 | 995.5 | |
| 20260506165946 | 0 | 180 | 7.0 | 12.2 | 0.00 | 0.00 | 0.00 | 995.4 | |
| 20260506165936 | 0 | 180 | 7.0 | 12.2 | 0.00 | 0.00 | 0.00 | 995.5 | |
| 20260506165906 | 0 | 180 | 7.8 | 12.2 | 0.00 | 0.00 | 0.00 | 995.5 | |
| 20260506165846 | 0 | 180 | 8.7 | 13.9 | 0.00 | 0.00 | 0.00 | 995.5 | |
| 20260506165816 | 0 | 180 | 8.7 | 13.9 | 0.00 | 0.00 | 0.00 | 995.4 | |
| 20260506165806 | 0 | 180 | 8.7 | 13.9 | 0.00 | 0.00 | 0.00 | 995.5 | |
| 20260506165736 | 0 | 180 | 8.7 | 13.9 | 0.00 | 0.00 | 0.00 | 995.4 | |
| 20260506165726 | 0 | 180 | 8.7 | 13.9 | 0.00 | 0.00 | 0.00 | 995.5 | |
| 20260506165646 | 0 | 180 | 8.7 | 13.9 | 0.00 | 0.00 | 0.00 | 995.5 | |
| 20260506165626 | 0 | 180 | 8.7 | 13.9 | 0.00 | 0.00 | 0.00 | 995.4 | |
| 20260506165547 | 0 | 180 | 9.6 | 13.9 | 0.00 | 0.00 | 0.00 | 995.5 | |
| 20260506165517 | 0 | 180 | 9.6 | 13.9 | 0.00 | 0.00 | 0.00 | 995.4 | |
| 20260506165507 | 0 | 180 | 9.6 | 13.9 | 0.00 | 0.00 | 0.00 | 995.5 | |
| 20260506165447 | 0 | 180 | 10.4 | 13.9 | 0.00 | 0.00 | 0.00 | 995.4 | |
| 20260506165417 | 0 | 180 | 9.6 | 13.9 | 0.00 | 0.00 | 0.00 | 995.5 | |
| 20260506165407 | 0 | 180 | 9.6 | 13.9 | 0.00 | 0.00 | 0.00 | 995.4 | |
| 20260506165347 | 0 | 180 | 9.6 | 12.2 | 0.00 | 0.00 | 0.00 | 995.4 | |
| 20260506165337 | 0 | 180 | 9.6 | 12.2 | 0.00 | 0.00 | 0.00 | 995.5 | |
| 20260506165327 | 0 | 180 | 8.7 | 12.2 | 0.00 | 0.00 | 0.00 | 995.4 | |
| 20260506165257 | 0 | 0 | 8.7 | 12.2 | 0.00 | 0.00 | 0.00 | 995.5 | |
| 20260506165247 | 0 | 180 | 8.7 | 12.2 | 0.00 | 0.00 | 0.00 | 995.5 | |
| 20260506165237 | 0 | 180 | 8.7 | 12.2 | 0.00 | 0.00 | 0.00 | 995.4 | |
| 20260506165227 | 0 | 180 | 9.6 | 12.2 | 0.00 | 0.00 | 0.00 | 995.5 | |
| 20260506165207 | 0 | 180 | 9.6 | 12.2 | 0.00 | 0.00 | 0.00 | 995.4 | |
| 20260506165147 | 0 | 180 | 9.6 | 12.2 | 0.00 | 0.00 | 0.00 | 995.5 | |
| 20260506165117 | 0 | 180 | 9.6 | 12.2 | 0.00 | 0.00 | 0.00 | 995.4 | |
| 20260506165107 | 0 | 180 | 9.6 | 12.2 | 0.00 | 0.00 | 0.00 | 995.5 | |
| 20260506165057 | 0 | 180 | 10.4 | 12.2 | 0.00 | 0.00 | 0.00 | 995.4 | |
| 20260506165047 | 0 | 180 | 10.4 | 12.2 | 0.00 | 0.00 | 0.00 | 995.5 | |
| 20260506165038 | 0 | 180 | 9.6 | 12.2 | 0.00 | 0.00 | 0.00 | 995.4 | |
| 20260506165028 | 0 | 180 | 9.6 | 12.2 | 0.00 | 0.00 | 0.00 | 995.5 | |
| 20260506165008 | 0 | 180 | 8.7 | 12.2 | 0.00 | 0.00 | 0.00 | 995.3 | |
| 20260506164948 | 0 | 180 | 8.7 | 12.2 | 0.00 | 0.00 | 0.00 | 995.4 | |
| 20260506164938 | 0 | 180 | 7.8 | 12.2 | 0.00 | 0.00 | 0.00 | 995.4 | |
| 20260506164918 | 0 | 180 | 8.7 | 12.2 | 0.00 | 0.00 | 0.00 | 995.5 | |
| 20260506164908 | 0 | 180 | 8.7 | 12.2 | 0.00 | 0.00 | 0.00 | 995.4 | |
| 20260506164858 | 0 | 158 | 8.7 | 12.2 | 0.00 | 0.00 | 0.00 | 995.4 | |
| 20260506164838 | 0 | 158 | 8.7 | 12.2 | 0.00 | 0.00 | 0.00 | 995.5 | |
| 20260506164828 | 0 | 180 | 8.7 | 12.2 | 0.00 | 0.00 | 0.00 | 995.4 | |
| 20260506164818 | 0 | 180 | 8.7 | 12.2 | 0.00 | 0.00 | 0.00 | 995.3 | |
| 20260506164808 | 0 | 158 | 7.8 | 12.2 | 0.00 | 0.00 | 0.00 | 995.4 | |
| 20260506164758 | 0 | 180 | 7.8 | 12.2 | 0.00 | 0.00 | 0.00 | 995.5 | |
| 20260506164748 | 0 | 180 | 7.8 | 12.2 | 0.00 | 0.00 | 0.00 | 995.4 | |
| 20260506164718 | 0 | 180 | 7.8 | 12.2 | 0.00 | 0.00 | 0.00 | 995.5 | |
| 20260506164708 | 0 | 158 | 7.8 | 12.2 | 0.00 | 0.00 | 0.00 | 995.5 | |
| 20260506164658 | 0 | 135 | 8.7 | 12.2 | 0.00 | 0.00 | 0.00 | 995.5 | |
| 20260506164648 | 0 | 180 | 8.7 | 12.2 | 0.00 | 0.00 | 0.00 | 995.5 | |
| 20260506164638 | 0 | 158 | 8.7 | 12.2 | 0.00 | 0.00 | 0.00 | 995.4 | |
| 20260506164628 | 0 | 158 | 8.7 | 12.2 | 0.00 | 0.00 | 0.00 | 995.5 | |
| 20260506164608 | 0 | 135 | 8.7 | 12.2 | 0.00 | 0.00 | 0.00 | 995.5 | |
| 20260506164558 | 0 | 135 | 8.7 | 12.2 | 0.00 | 0.00 | 0.00 | ||
| 20260506164548 | 0 | 158 | 8.7 | 12.2 | 0.00 | 0.00 | 0.00 | 995.5 | |
| 20260506164529 | 0 | 135 | 7.8 | 12.2 | 0.00 | 0.00 | 0.00 | 995.5 | |
| 20260506164519 | 0 | 135 | 7.0 | 12.2 | 0.00 | 0.00 | 0.00 | 995.4 | |
| 20260506164449 | 0 | 135 | 7.0 | 12.2 | 0.00 | 0.00 | 0.00 | 995.5 | |
| 20260506164439 | 0 | 135 | 7.0 | 12.2 | 0.00 | 0.00 | 0.00 | 995.4 | |
| 20260506164429 | 0 | 180 | 7.0 | 12.2 | 0.00 | 0.00 | 0.00 | 995.5 | |
| 20260506164409 | 0 | 135 | 7.0 | 12.2 | 0.00 | 0.00 | 0.00 | 995.5 | |
| 20260506164359 | 0 | 158 | 7.0 | 12.2 | 0.00 | 0.00 | 0.00 | 995.4 | |
| 20260506164349 | 0 | 180 | 7.0 | 12.2 | 0.00 | 0.00 | 0.00 | 995.5 | |
| 20260506164339 | 0 | 158 | 7.0 | 12.2 | 0.00 | 0.00 | 0.00 | 995.5 | |
| 20260506164309 | 69 | 158 | 7.0 | 12.2 | 0.00 | 0.00 | 0.00 | 52 | 995.5 |
| 20260506164259 | 0 | 180 | 7.0 | 12.2 | 0.00 | 0.00 | 0.00 | 995.5 | |
| 20260506164249 | 0 | 158 | 7.8 | 12.2 | 0.00 | 0.00 | 0.00 | 995.5 | |
| 20260506164239 | 0 | 180 | 8.7 | 12.2 | 0.00 | 0.00 | 0.00 | 995.6 | |
| 20260506164209 | 0 | 180 | 8.7 | 12.2 | 0.00 | 0.00 | 0.00 | 995.5 | |
| 20260506164159 | 0 | 180 | 7.8 | 12.2 | 0.00 | 0.00 | 0.00 | 995.6 | |
| 20260506164139 | 0 | 180 | 7.8 | 12.2 | 0.00 | 0.00 | 0.00 | 995.5 | |
| 20260506164119 | 0 | 180 | 7.0 | 12.2 | 0.00 | 0.00 | 0.00 | 995.6 | |
| 20260506164109 | 0 | 158 | 7.0 | 12.2 | 0.00 | 0.00 | 0.00 | 995.5 | |
| 20260506164100 | 0 | 135 | 7.0 | 12.2 | 0.00 | 0.00 | 0.00 | 995.5 | |
| 20260506164049 | 0 | 158 | 7.8 | 12.2 | 0.00 | 0.00 | 0.00 | 995.6 | |
| 20260506164039 | 0 | 180 | 7.8 | 12.2 | 0.00 | 0.00 | 0.00 | 995.5 | |
| 20260506164019 | 0 | 158 | 8.7 | 12.2 | 0.00 | 0.00 | 0.00 | 995.5 | |
| 20260506164009 | 0 | 135 | 8.7 | 12.2 | 0.00 | 0.00 | 0.00 | 995.5 | |
| 20260506163940 | 0 | 180 | 8.7 | 12.2 | 0.00 | 0.00 | 0.00 | 995.6 | |
| 20260506163930 | 0 | 135 | 8.7 | 12.2 | 0.00 | 0.00 | 0.00 | 995.6 | |
| 20260506163920 | 0 | 158 | 9.6 | 12.2 | 0.00 | 0.00 | 0.00 | 995.5 | |
| 20260506163910 | 0 | 135 | 9.6 | 12.2 | 0.00 | 0.00 | 0.00 | 995.6 | |
| 20260506163900 | 0 | 180 | 8.7 | 12.2 | 0.00 | 0.00 | 0.00 | 995.6 | |
| 20260506163850 | 0 | 158 | 8.7 | 12.2 | 0.00 | 0.00 | 0.00 | 995.5 | |
| 20260506163840 | 0 | 135 | 8.7 | 12.2 | 0.00 | 0.00 | 0.00 | 995.5 | |
| 20260506163830 | 0 | 180 | 8.7 | 12.2 | 0.00 | 0.00 | 0.00 | 995.5 | |
| 20260506163800 | 0 | 180 | 7.8 | 12.2 | 0.00 | 0.00 | 0.00 | 995.5 | |
| 20260506163750 | 0 | 180 | 8.7 | 12.2 | 0.00 | 0.00 | 0.00 | 995.6 | |
| 20260506163740 | 0 | 180 | 8.7 | 12.2 | 0.00 | 0.00 | 0.00 | 995.5 | |
| 20260506163730 | 0 | 135 | 8.7 | 12.2 | 0.00 | 0.00 | 0.00 | 995.6 | |
| 20260506163700 | 0 | 180 | 8.7 | 12.2 | 0.00 | 0.00 | 0.00 | 995.5 | |
| 20260506163650 | 0 | 180 | 8.7 | 12.2 | 0.00 | 0.00 | 0.00 | 995.6 | |
| 20260506163640 | 0 | 180 | 8.7 | 12.2 | 0.00 | 0.00 | 0.00 | 995.7 | |
| 20260506163600 | 0 | 180 | 8.7 | 12.2 | 0.00 | 0.00 | 0.00 | 995.6 | |
| 20260506163540 | 0 | 158 | 8.7 | 12.2 | 0.00 | 0.00 | 0.00 | 995.5 | |
| 20260506163530 | 0 | 180 | 8.7 | 12.2 | 0.00 | 0.00 | 0.00 | 995.5 | |
| 20260506163500 | 0 | 158 | 8.7 | 12.2 | 0.00 | 0.00 | 0.00 | 995.6 | |
| 20260506163450 | 0 | 158 | 9.6 | 12.2 | 0.00 | 0.00 | 0.00 | 995.6 | |
| 20260506163430 | 0 | 180 | 8.7 | 12.2 | 0.00 | 0.00 | 0.00 | 995.5 | |
| 20260506163411 | 0 | 158 | 9.6 | 12.2 | 0.00 | 0.00 | 0.00 | 995.6 | |
| 20260506163400 | 0 | 158 | 8.7 | 12.2 | 0.00 | 0.00 | 0.00 | 995.6 | |
| 20260506163351 | 0 | 180 | 8.7 | 12.2 | 0.00 | 0.00 | 0.00 | 995.6 | |
| 20260506163341 | 0 | 180 | 8.7 | 12.2 | 0.00 | 0.00 | 0.00 | 995.4 | |
| 20260506163331 | 0 | 158 | 8.7 | 12.2 | 0.00 | 0.00 | 0.00 | 995.5 | |
| 20260506163311 | 0 | 180 | 8.7 | 12.2 | 0.00 | 0.00 | 0.00 | 995.5 | |
| 20260506163301 | 0 | 180 | 8.7 | 11.3 | 0.00 | 0.00 | 0.00 | 740.6 | |
| 20260506163231 | 0 | 180 | 8.7 | 11.3 | 0.00 | 0.00 | 0.00 | 995.5 | |
| 20260506163221 | 0 | 158 | 8.7 | 11.3 | 0.00 | 0.00 | 0.00 | 995.5 | |
| 20260506163211 | 0 | 180 | 8.7 | 12.2 | 0.00 | 0.00 | 0.00 | 995.5 | |
| 20260506163201 | 0 | 158 | 7.8 | 12.2 | 0.00 | 0.00 | 0.00 | 995.5 | |
| 20260506163141 | 0 | 180 | 7.8 | 12.2 | 0.00 | 0.00 | 0.00 | 995.5 | |
| 20260506163121 | 0 | 180 | 7.0 | 12.2 | 0.00 | 0.00 | 0.00 | 995.5 | |
| 20260506163051 | 0 | 158 | 7.0 | 12.2 | 0.00 | 0.00 | 0.00 | 995.5 | |
| 20260506163041 | 0 | 180 | 7.0 | 12.2 | 0.00 | 0.00 | 0.00 | 995.5 | |
| 20260506163031 | 0 | 135 | 6.1 | 12.2 | 0.00 | 0.00 | 0.00 | 995.5 | |
| 20260506163011 | 0 | 158 | 6.1 | 12.2 | 0.00 | 0.00 | 0.00 | 995.5 | |
| 20260506163001 | 0 | 180 | 6.1 | 12.2 | 0.00 | 0.00 | 0.00 | 995.5 | |
| 20260506162951 | 0 | 158 | 7.0 | 13.9 | 0.00 | 0.00 | 0.00 | 995.5 | |
| 20260506162941 | 0 | 180 | 7.0 | 13.9 | 0.00 | 0.00 | 0.00 | 995.5 | |
| 20260506162931 | 0 | 158 | 7.8 | 13.9 | 0.00 | 0.00 | 0.00 | 995.5 | |
| 20260506162921 | 0 | 135 | 7.8 | 13.9 | 0.00 | 0.00 | 0.00 | 995.5 | |
| 20260506162851 | 0 | 180 | 8.7 | 13.9 | 0.00 | 0.00 | 0.00 | 995.5 | |
| 20260506162831 | 0 | 180 | 8.7 | 13.9 | 0.00 | 0.00 | 0.00 | 995.4 | |
| 20260506162811 | 0 | 180 | 8.7 | 13.9 | 0.00 | 0.00 | 0.00 | 995.5 | |
| 20260506162732 | 0 | 180 | 8.7 | 13.9 | 0.00 | 0.00 | 0.00 | 995.5 | |
| 20260506162712 | 0 | 180 | 8.7 | 13.9 | 0.00 | 0.00 | 0.00 | 995.6 | |
| 20260506162702 | 0 | 158 | 8.7 | 13.9 | 0.00 | 0.00 | 0.00 | 995.6 | |
| 20260506162632 | 0 | 180 | 8.7 | 13.9 | 0.00 | 0.00 | 0.00 | 995.5 | |
| 20260506162622 | 0 | 158 | 8.7 | 13.9 | 0.00 | 0.00 | 0.00 | 995.6 | |
| 20260506162612 | 0 | 180 | 8.7 | 13.9 | 0.00 | 0.00 | 0.00 | 995.7 | |
| 20260506162552 | 0 | 180 | 8.7 | 13.9 | 0.00 | 0.00 | 0.00 | 995.6 | |
| 20260506162532 | 0 | 180 | 8.7 | 13.9 | 0.00 | 0.00 | 0.00 | 995.7 | |
| 20260506162512 | 0 | 180 | 8.7 | 13.9 | 0.00 | 0.00 | 0.00 | 995.6 | |
| 20260506162502 | 0 | 180 | 7.8 | 13.9 | 0.00 | 0.00 | 0.00 | 995.7 | |
| 20260506162452 | 0 | 180 | 7.8 | 12.2 | 0.00 | 0.00 | 0.00 | 995.6 | |
| 20260506162442 | 0 | 180 | 7.8 | 12.2 | 0.00 | 0.00 | 0.00 | 995.7 | |
| 20260506162432 | 0 | 180 | 8.7 | 12.2 | 0.00 | 0.00 | 0.00 | 995.7 | |
| 20260506162422 | 0 | 158 | 8.7 | 12.2 | 0.00 | 0.00 | 0.00 | 995.7 | |
| 20260506162412 | 0 | 180 | 8.7 | 12.2 | 0.00 | 0.00 | 0.00 | 995.8 | |
| 20260506162402 | 0 | 180 | 7.8 | 12.2 | 0.00 | 0.00 | 0.00 | 995.8 | |
| 20260506162352 | 0 | 180 | 7.0 | 11.3 | 0.00 | 0.00 | 0.00 | 995.8 | |
| 20260506162332 | 0 | 180 | 7.0 | 9.6 | 0.00 | 0.00 | 0.00 | 995.8 | |
| 20260506162322 | 0 | 180 | 7.0 | 8.7 | 0.00 | 0.00 | 0.00 | 995.8 | |
| 20260506162312 | 0 | 158 | 7.0 | 8.7 | 0.00 | 0.00 | 0.00 | 995.8 | |
| 20260506162306 | 0 | 180 | 6.1 | 8.7 | 0.00 | 0.00 | 0.00 | 995.8 | |
| 20260506162252 | 0 | 158 | 6.1 | 8.7 | 0.00 | 0.00 | 0.00 | 995.9 | |
| 20260506162242 | 0 | 180 | 6.1 | 8.7 | 0.00 | 0.00 | 0.00 | 995.9 | |
| 20260506162222 | 0 | 180 | 6.1 | 8.7 | 0.00 | 0.00 | 0.00 | 995.8 | |
| 20260506162203 | 0 | 180 | 5.2 | 8.7 | 0.00 | 0.00 | 0.00 | 995.8 | |
| 20260506162143 | 0 | 180 | 6.1 | 8.7 | 0.00 | 0.00 | 0.00 | 995.8 | |
| 20260506162133 | 0 | 158 | 6.1 | 8.7 | 0.00 | 0.00 | 0.00 | 995.8 | |
| 20260506162103 | 0 | 180 | 6.1 | 8.7 | 0.00 | 0.00 | 0.00 | 995.8 | |
| 20260506162053 | 0 | 180 | 5.2 | 8.7 | 0.00 | 0.00 | 0.00 | 995.8 | |
| 20260506162023 | 0 | 180 | 5.2 | 8.7 | 0.00 | 0.00 | 0.00 | 995.7 | |
| 20260506162013 | 0 | 180 | 5.2 | 8.7 | 0.00 | 0.00 | 0.00 | 995.8 | |
| 20260506162003 | 0 | 180 | 6.1 | 8.7 | 0.00 | 0.00 | 0.00 | 995.7 | |
| 20260506161953 | 0 | 180 | 6.1 | 8.7 | 0.00 | 0.00 | 0.00 | 995.8 | |
| 20260506161913 | 0 | 180 | 7.0 | 8.7 | 0.00 | 0.00 | 0.00 | 995.8 | |
| 20260506161843 | 0 | 180 | 6.1 | 8.7 | 0.00 | 0.00 | 0.00 | 995.8 | |
| 20260506161833 | 0 | 180 | 6.1 | 8.7 | 0.00 | 0.00 | 0.00 | 995.7 | |
| 20260506161813 | 0 | 180 | 5.2 | 8.7 | 0.00 | 0.00 | 0.00 | 995.7 | |
| 20260506161803 | 0 | 180 | 5.2 | 8.7 | 0.00 | 0.00 | 0.00 | 995.8 | |
| 20260506161753 | 0 | 180 | 6.1 | 8.7 | 0.00 | 0.00 | 0.00 | 995.8 | |
| 20260506161743 | 0 | 180 | 6.1 | 9.6 | 0.00 | 0.00 | 0.00 | 995.8 | |
| 20260506161723 | 0 | 180 | 5.2 | 11.3 | 0.00 | 0.00 | 0.00 | 995.8 | |
| 20260506161713 | 0 | 180 | 6.1 | 11.3 | 0.00 | 0.00 | 0.00 | 995.8 | |
| 20260506161633 | 0 | 180 | 6.1 | 11.3 | 0.00 | 0.00 | 0.00 | 995.8 | |
| 20260506161614 | 0 | 180 | 5.2 | 11.3 | 0.00 | 0.00 | 0.00 | 995.8 | |
| 20260506161604 | 0 | 180 | 5.2 | 12.2 | 0.00 | 0.00 | 0.00 | 995.8 | |
| 20260506161544 | 0 | 180 | 5.2 | 13.9 | 0.00 | 0.00 | 0.00 | 995.8 | |
| 20260506161534 | 0 | 180 | 6.1 | 13.9 | 0.00 | 0.00 | 0.00 | 995.8 | |
| 20260506161524 | 0 | 158 | 6.1 | 13.9 | 0.00 | 0.00 | 0.00 | 995.9 | |
| 20260506161444 | 0 | 180 | 6.1 | 13.9 | 0.00 | 0.00 | 0.00 | 995.8 | |
| 20260506161424 | 0 | 180 | 6.1 | 13.9 | 0.00 | 0.00 | 0.00 | 995.9 | |
| 20260506161354 | 0 | 180 | 6.1 | 13.9 | 0.00 | 0.00 | 0.00 | 995.8 | |
| 20260506161345 | 0 | 180 | 6.1 | 13.9 | 0.00 | 0.00 | 0.00 | 995.9 | |
| 20260506161334 | 0 | 180 | 7.0 | 13.9 | 0.00 | 0.00 | 0.00 | 995.9 | |
| 20260506161324 | 0 | 180 | 7.0 | 13.9 | 0.00 | 0.00 | 0.00 | 995.8 | |
| 20260506161314 | 0 | 203 | 7.0 | 13.9 | 0.00 | 0.00 | 0.00 | 995.8 | |
| 20260506161304 | 0 | 180 | 7.8 | 13.9 | 0.00 | 0.00 | 0.00 | 995.8 | |
| 20260506161244 | 0 | 180 | 8.7 | 13.9 | 0.00 | 0.00 | 0.00 | 995.9 | |
| 20260506161214 | 0 | 180 | 8.7 | 13.9 | 0.00 | 0.00 | 0.00 | 995.8 | |
| 20260506161204 | 0 | 180 | 8.7 | 13.9 | 0.00 | 0.00 | 0.00 | 995.9 | |
| 20260506161144 | 0 | 180 | 9.6 | 13.9 | 0.00 | 0.00 | 0.00 | 995.9 | |
| 20260506161114 | 0 | 180 | 10.4 | 13.9 | 0.00 | 0.00 | 0.00 | 995.8 | |
| 20260506161054 | 0 | 180 | 10.4 | 13.9 | 0.00 | 0.00 | 0.00 | 995.9 | |
| 20260506161045 | 0 | 180 | 9.6 | 13.9 | 0.00 | 0.00 | 0.00 | 995.8 | |
| 20260506161025 | 0 | 180 | 9.6 | 13.9 | 0.00 | 0.00 | 0.00 | 995.9 | |
| 20260506161015 | 0 | 180 | 8.7 | 12.2 | 0.00 | 0.00 | 0.00 | 995.8 | |
| 20260506160955 | 0 | 180 | 8.7 | 12.2 | 0.00 | 0.00 | 0.00 | 995.9 | |
| 20260506160945 | 70 | 180 | 7.8 | 12.2 | 0.00 | 0.00 | 0.00 | 52 | 995.8 |
| 20260506160935 | 0 | 180 | 7.0 | 12.2 | 0.00 | 0.00 | 0.00 | 995.9 | |
| 20260506160925 | 0 | 180 | 7.0 | 12.2 | 0.00 | 0.00 | 0.00 | 995.8 | |
| 20260506160915 | 0 | 180 | 7.0 | 11.3 | 0.00 | 0.00 | 0.00 | 995.8 | |
| 20260506160905 | 0 | 180 | 6.1 | 11.3 | 0.00 | 0.00 | 0.00 | 995.8 | |
| 20260506160835 | 0 | 180 | 7.0 | 11.3 | 0.00 | 0.00 | 0.00 | 995.9 | |
| 20260506160825 | 0 | 180 | 7.0 | 11.3 | 0.00 | 0.00 | 0.00 | 995.8 | |
| 20260506160815 | 0 | 180 | 6.1 | 11.3 | 0.00 | 0.00 | 0.00 | 995.8 | |
| 20260506160805 | 0 | 180 | 6.1 | 9.6 | 0.00 | 0.00 | 0.00 | 995.8 | |
| 20260506160745 | 0 | 180 | 5.2 | 9.6 | 0.00 | 0.00 | 0.00 | 995.8 | |
| 20260506160735 | 0 | 180 | 4.3 | 9.6 | 0.00 | 0.00 | 0.00 | 995.9 | |
| 20260506160725 | 0 | 180 | 4.3 | 9.6 | 0.00 | 0.00 | 0.00 | 995.8 | |
| 20260506160715 | 0 | 180 | 3.5 | 9.6 | 0.00 | 0.00 | 0.00 | 995.8 | |
| 20260506160705 | 0 | 180 | 4.3 | 9.6 | 0.00 | 0.00 | 0.00 | 995.7 | |
| 20260506160655 | 0 | 158 | 4.3 | 9.6 | 0.00 | 0.00 | 0.00 | 995.8 | |
| 20260506160635 | 0 | 180 | 5.2 | 9.6 | 0.00 | 0.00 | 0.00 | 995.8 | |
| 20260506160625 | 0 | 225 | 5.2 | 9.6 | 0.00 | 0.00 | 0.00 | 995.8 | |
| 20260506160615 | 0 | 180 | 6.1 | 9.6 | 0.00 | 0.00 | 0.00 | 995.7 | |
| 20260506160605 | 0 | 180 | 5.2 | 8.7 | 0.00 | 0.00 | 0.00 | 995.7 | |
| 20260506160555 | 0 | 180 | 5.2 | 7.8 | 0.00 | 0.00 | 0.00 | 995.8 | |
| 20260506160545 | 0 | 180 | 5.2 | 7.8 | 0.00 | 0.00 | 0.00 | 995.7 | |
| 20260506160535 | 70 | 180 | 5.2 | 7.0 | 0.00 | 0.00 | 0.00 | 51 | 995.8 |
| 20260506160505 | 0 | 180 | 5.2 | 7.0 | 0.00 | 0.00 | 0.00 | 995.8 | |
| 20260506160445 | 0 | 180 | 4.3 | 7.0 | 0.00 | 0.00 | 0.00 | 995.8 | |
| 20260506160426 | 0 | 180 | 5.2 | 7.0 | 0.00 | 0.00 | 0.00 | 995.8 | |
| 20260506160406 | 0 | 180 | 4.3 | 7.0 | 0.00 | 0.00 | 0.00 | 995.8 | |
| 20260506160336 | 0 | 180 | 4.3 | 7.0 | 0.00 | 0.00 | 0.00 | 995.7 | |
| 20260506160326 | 0 | 180 | 4.3 | 7.0 | 0.00 | 0.00 | 0.00 | 995.8 | |
| 20260506160256 | 0 | 180 | 4.3 | 7.8 | 0.00 | 0.00 | 0.00 | 995.7 | |
| 20260506160226 | 0 | 180 | 4.3 | 7.8 | 0.00 | 0.00 | 0.00 | 995.8 | |
| 20260506160216 | 0 | 180 | 4.3 | 7.8 | 0.00 | 0.00 | 0.00 | 995.7 | |
| 20260506160156 | 0 | 180 | 5.2 | 7.8 | 0.00 | 0.00 | 0.00 | 995.7 | |
| 20260506160146 | 69 | 180 | 5.2 | 7.8 | 0.00 | 0.00 | 0.00 | 52 | 995.7 |
| 20260506160136 | 0 | 180 | 5.2 | 7.8 | 0.00 | 0.00 | 0.00 | 995.8 | |
| 20260506160106 | 0 | 180 | 5.2 | 7.8 | 0.00 | 0.00 | 0.00 | 995.7 | |
| 20260506160056 | 0 | 180 | 5.2 | 7.8 | 0.00 | 0.00 | 0.00 | 995.8 | |
| 20260506160016 | 0 | 180 | 5.2 | 7.8 | 0.00 | 0.00 | 0.00 | 995.7 | |
| 20260506155956 | 0 | 180 | 5.2 | 7.8 | 0.00 | 0.00 | 0.00 | 995.8 | |
| 20260506155936 | 0 | 180 | 4.3 | 7.8 | 0.00 | 0.00 | 0.00 | 995.8 | |
| 20260506155926 | 0 | 180 | 5.2 | 7.8 | 0.00 | 0.00 | 0.00 | 995.7 | |
| 20260506155906 | 0 | 158 | 5.2 | 7.8 | 0.00 | 0.00 | 0.00 | 995.7 | |
| 20260506155856 | 0 | 158 | 5.2 | 7.8 | 0.00 | 0.00 | 0.00 | 995.8 | |
| 20260506155846 | 0 | 180 | 5.2 | 7.8 | 0.00 | 0.00 | 0.00 | 995.7 | |
| 20260506155836 | 0 | 180 | 5.2 | 7.8 | 0.00 | 0.00 | 0.00 | 995.8 | |
| 20260506155807 | 0 | 180 | 5.2 | 7.8 | 0.00 | 0.00 | 0.00 | 995.7 | |
| 20260506155747 | 0 | 180 | 4.3 | 7.0 | 0.00 | 0.00 | 0.00 | 995.7 | |
| 20260506155727 | 0 | 180 | 4.3 | 6.1 | 0.00 | 0.00 | 0.00 | 995.7 | |
| 20260506155717 | 0 | 180 | 3.5 | 6.1 | 0.00 | 0.00 | 0.00 | 995.7 | |
| 20260506155637 | 0 | 180 | 3.5 | 5.2 | 0.00 | 0.00 | 0.00 | 995.7 | |
| 20260506155617 | 0 | 180 | 3.5 | 5.2 | 0.00 | 0.00 | 0.00 | 995.8 | |
| 20260506155557 | 0 | 180 | 3.5 | 5.2 | 0.00 | 0.00 | 0.00 | 995.7 | |
| 20260506155547 | 0 | 0 | 3.5 | 5.2 | 0.00 | 0.00 | 0.00 | 995.8 | |
| 20260506155537 | 0 | 180 | 3.5 | 5.2 | 0.00 | 0.00 | 0.00 | 995.8 | |
| 20260506155517 | 0 | 180 | 3.5 | 5.2 | 0.00 | 0.00 | 0.00 | 995.7 | |
| 20260506155457 | 0 | 180 | 3.5 | 5.2 | 0.00 | 0.00 | 0.00 | 995.8 | |
| 20260506155447 | 0 | 158 | 3.5 | 5.2 | 0.00 | 0.00 | 0.00 | 995.8 | |
| 20260506155417 | 0 | 180 | 3.5 | 5.2 | 0.00 | 0.00 | 0.00 | 995.8 | |
| 20260506155357 | 0 | 180 | 3.5 | 5.2 | 0.00 | 0.00 | 0.00 | 995.7 | |
| 20260506155348 | 0 | 180 | 3.5 | 4.3 | 0.00 | 0.00 | 0.00 | 995.8 | |
| 20260506155337 | 0 | 158 | 3.5 | 4.3 | 0.00 | 0.00 | 0.00 | 995.8 | |
| 20260506155307 | 0 | 180 | 2.6 | 4.3 | 0.00 | 0.00 | 0.00 | 995.8 | |
| 20260506155257 | 0 | 180 | 2.6 | 5.2 | 0.00 | 0.00 | 0.00 | 995.8 | |
| 20260506155218 | 0 | 180 | 2.6 | 5.2 | 0.00 | 0.00 | 0.00 | 995.8 | |
| 20260506155138 | 0 | 180 | 2.6 | 5.2 | 0.00 | 0.00 | 0.00 | 995.8 | |
| 20260506155058 | 0 | 180 | 2.6 | 5.2 | 0.00 | 0.00 | 0.00 | 995.8 | |
| 20260506155018 | 0 | 180 | 2.6 | 5.2 | 0.00 | 0.00 | 0.00 | 995.8 | |
| 20260506154958 | 0 | 180 | 2.6 | 5.2 | 0.00 | 0.00 | 0.00 | 995.7 | |
| 20260506154938 | 0 | 180 | 2.6 | 5.2 | 0.00 | 0.00 | 0.00 | 995.8 | |
| 20260506154918 | 0 | 180 | 2.6 | 5.2 | 0.00 | 0.00 | 0.00 | 995.7 | |
| 20260506154908 | 0 | 135 | 3.5 | 5.2 | 0.00 | 0.00 | 0.00 | 995.7 | |
| 20260506154858 | 0 | 180 | 3.5 | 5.2 | 0.00 | 0.00 | 0.00 | 995.7 | |
| 20260506154848 | 0 | 158 | 3.5 | 5.2 | 0.00 | 0.00 | 0.00 | 995.7 | |
| 20260506154838 | 0 | 135 | 3.5 | 6.1 | 0.00 | 0.00 | 0.00 | 995.7 | |
| 20260506154828 | 0 | 180 | 3.5 | 6.1 | 0.00 | 0.00 | 0.00 | 995.7 | |
| 20260506154808 | 0 | 135 | 2.6 | 6.1 | 0.00 | 0.00 | 0.00 | 995.7 | |
| 20260506154758 | 0 | 158 | 2.6 | 6.1 | 0.00 | 0.00 | 0.00 | 995.7 | |
| 20260506154748 | 0 | 180 | 2.6 | 6.1 | 0.00 | 0.00 | 0.00 | 995.7 | |
| 20260506154738 | 0 | 180 | 1.7 | 6.1 | 0.00 | 0.00 | 0.00 | 995.7 | |
| 20260506154708 | 0 | 135 | 2.6 | 6.1 | 0.00 | 0.00 | 0.00 | 995.7 | |
| 20260506154658 | 0 | 158 | 2.6 | 6.1 | 0.00 | 0.00 | 0.00 | 995.6 | |
| 20260506154648 | 0 | 135 | 2.6 | 6.1 | 0.00 | 0.00 | 0.00 | 995.6 | |
| 20260506154638 | 0 | 158 | 3.5 | 6.1 | 0.00 | 0.00 | 0.00 | 995.6 | |
| 20260506154559 | 0 | 135 | 3.5 | 6.1 | 0.00 | 0.00 | 0.00 | 995.6 | |
| 20260506154549 | 0 | 135 | 3.5 | 6.1 | 0.00 | 0.00 | 0.00 | 995.7 | |
| 20260506154509 | 0 | 135 | 3.5 | 6.1 | 0.00 | 0.00 | 0.00 | 995.6 | |
| 20260506154439 | 0 | 135 | 3.5 | 7.0 | 0.00 | 0.00 | 0.00 | 995.6 | |
| 20260506154429 | 0 | 135 | 4.3 | 7.0 | 0.00 | 0.00 | 0.00 | 995.6 | |
| 20260506154349 | 0 | 135 | 4.3 | 7.0 | 0.00 | 0.00 | 0.00 | 995.6 | |
| 20260506154329 | 0 | 135 | 3.5 | 7.0 | 0.00 | 0.00 | 0.00 | 995.5 | |
| 20260506154309 | 0 | 135 | 3.5 | 7.0 | 0.00 | 0.00 | 0.00 | 995.6 | |
| 20260506154259 | 0 | 135 | 4.3 | 7.0 | 0.00 | 0.00 | 0.00 | 995.6 | |
| 20260506154219 | 0 | 135 | 4.3 | 7.0 | 0.00 | 0.00 | 0.00 | 995.5 | |
| 20260506154209 | 0 | 135 | 4.3 | 7.8 | 0.00 | 0.00 | 0.00 | 995.6 | |
| 20260506154149 | 0 | 135 | 4.3 | 7.8 | 0.00 | 0.00 | 0.00 | 995.5 | |
| 20260506154109 | 0 | 135 | 4.3 | 7.8 | 0.00 | 0.00 | 0.00 | 995.5 | |
| 20260506154039 | 0 | 135 | 5.2 | 7.8 | 0.00 | 0.00 | 0.00 | 995.5 | |
| 20260506154030 | 0 | 135 | 5.2 | 7.8 | 0.00 | 0.00 | 0.00 | 995.4 | |
| 20260506154000 | 0 | 135 | 5.2 | 7.8 | 0.00 | 0.00 | 0.00 | 995.5 | |
| 20260506153950 | 0 | 135 | 5.2 | 7.8 | 0.00 | 0.00 | 0.00 | 995.4 | |
| 20260506153920 | 0 | 135 | 4.3 | 7.8 | 0.00 | 0.00 | 0.00 | 995.5 | |
| 20260506153910 | 0 | 135 | 5.2 | 7.8 | 0.00 | 0.00 | 0.00 | 995.4 | |
| 20260506153850 | 0 | 135 | 5.2 | 7.8 | 0.00 | 0.00 | 0.00 | 995.5 | |
| 20260506153830 | 0 | 135 | 5.2 | 7.8 | 0.00 | 0.00 | 0.00 | 995.4 | |
| 20260506153810 | 0 | 135 | 5.2 | 7.8 | 0.00 | 0.00 | 0.00 | 995.5 | |
| 20260506153730 | 0 | 135 | 5.2 | 7.8 | 0.00 | 0.00 | 0.00 | 995.5 | |
| 20260506153720 | 0 | 135 | 5.2 | 7.8 | 0.00 | 0.00 | 0.00 | 995.4 | |
| 20260506153710 | 0 | 135 | 5.2 | 7.0 | 0.00 | 0.00 | 0.00 | 995.5 | |
| 20260506153630 | 0 | 135 | 5.2 | 7.0 | 0.00 | 0.00 | 0.00 | 995.5 | |
| 20260506153550 | 0 | 135 | 5.2 | 7.0 | 0.00 | 0.00 | 0.00 | 995.5 | |
| 20260506153510 | 0 | 135 | 5.2 | 7.0 | 0.00 | 0.00 | 0.00 | 995.5 | |
| 20260506153430 | 0 | 135 | 5.2 | 7.0 | 0.00 | 0.00 | 0.00 | 995.5 | |
| 20260506153351 | 0 | 135 | 5.2 | 7.0 | 0.00 | 0.00 | 0.00 | 995.6 | |
| 20260506153331 | 0 | 135 | 4.3 | 7.0 | 0.00 | 0.00 | 0.00 | 995.6 | |
| 20260506153311 | 0 | 135 | 5.2 | 7.0 | 0.00 | 0.00 | 0.00 | 995.6 | |
| 20260506153241 | 0 | 135 | 4.3 | 7.0 | 0.00 | 0.00 | 0.00 | 995.6 | |
| 20260506153211 | 0 | 135 | 4.3 | 7.0 | 0.00 | 0.00 | 0.00 | 995.7 | |
| 20260506153201 | 0 | 135 | 5.2 | 7.0 | 0.00 | 0.00 | 0.00 | 995.7 | |
| 20260506153141 | 0 | 158 | 4.3 | 7.0 | 0.00 | 0.00 | 0.00 | 995.7 | |
| 20260506153131 | 0 | 135 | 4.3 | 7.0 | 0.00 | 0.00 | 0.00 | 995.7 | |
| 20260506153111 | 0 | 180 | 4.3 | 7.0 | 0.00 | 0.00 | 0.00 | 995.7 | |
| 20260506153051 | 0 | 158 | 4.3 | 7.0 | 0.00 | 0.00 | 0.00 | 995.7 | |
| 20260506153031 | 0 | 180 | 4.3 | 7.0 | 0.00 | 0.00 | 0.00 | 995.8 | |
| 20260506153021 | 83 | 180 | 4.3 | 7.0 | 0.00 | 0.00 | 0.00 | 34 | 995.8 |
| 20260506153011 | 0 | 180 | 4.3 | 7.0 | 0.00 | 0.00 | 0.00 | 995.7 | |
| 20260506153001 | 0 | 158 | 4.3 | 7.0 | 0.00 | 0.00 | 0.00 | 995.8 | |
| 20260506152921 | 0 | 158 | 4.3 | 7.0 | 0.00 | 0.00 | 0.00 | 995.8 | |
| 20260506152911 | 0 | 180 | 4.3 | 7.0 | 0.00 | 0.00 | 0.00 | 995.8 | |
| 20260506152831 | 0 | 180 | 4.3 | 7.0 | 0.00 | 0.00 | 0.00 | 995.8 | |
| 20260506152752 | 0 | 180 | 4.3 | 7.0 | 0.00 | 0.00 | 0.00 | 995.8 | |
| 20260506152712 | 0 | 180 | 5.2 | 7.0 | 0.00 | 0.00 | 0.00 | 995.8 | |
| 20260506152632 | 0 | 180 | 5.2 | 7.0 | 0.00 | 0.00 | 0.00 | 995.8 | |
| 20260506152622 | 0 | 180 | 4.3 | 7.0 | 0.00 | 0.00 | 0.00 | 995.8 | |
| 20260506152612 | 0 | 180 | 4.3 | 6.1 | 0.00 | 0.00 | 0.00 | 995.8 | |
| 20260506152542 | 0 | 180 | 3.5 | 6.1 | 0.00 | 0.00 | 0.00 | 995.8 | |
| 20260506152452 | 0 | 180 | 3.5 | 6.1 | 0.00 | 0.00 | 0.00 | 995.9 | |
| 20260506152442 | 0 | 180 | 3.5 | 6.1 | 0.00 | 0.00 | 0.00 | 995.8 | |
| 20260506152412 | 0 | 180 | 3.5 | 6.1 | 0.00 | 0.00 | 0.00 | 995.9 | |
| 20260506152402 | 0 | 180 | 3.5 | 6.1 | 0.00 | 0.00 | 0.00 | 995.8 | |
| 20260506152322 | 0 | 180 | 4.3 | 6.1 | 0.00 | 0.00 | 0.00 | 995.8 | |
| 20260506152252 | 0 | 158 | 4.3 | 6.1 | 0.00 | 0.00 | 0.00 | 995.8 | |
| 20260506152242 | 0 | 180 | 4.3 | 6.1 | 0.00 | 0.00 | 0.00 | 995.8 | |
| 20260506152232 | 0 | 180 | 3.5 | 6.1 | 0.00 | 0.00 | 0.00 | 995.8 | |
| 20260506152153 | 0 | 180 | 3.5 | 6.1 | 0.00 | 0.00 | 0.00 | 995.8 | |
| 20260506152113 | 0 | 180 | 4.3 | 6.1 | 0.00 | 0.00 | 0.00 | 995.8 | |
| 20260506152033 | 0 | 180 | 4.3 | 6.1 | 0.00 | 0.00 | 0.00 | 995.7 | |
| 20260506151953 | 0 | 180 | 4.3 | 6.1 | 0.00 | 0.00 | 0.00 | 995.7 | |
| 20260506151923 | 0 | 180 | 3.5 | 6.1 | 0.00 | 0.00 | 0.00 | 995.7 | |
| 20260506151913 | 0 | 158 | 3.5 | 6.1 | 0.00 | 0.00 | 0.00 | 995.6 | |
| 20260506151903 | 0 | 158 | 3.5 | 6.1 | 0.00 | 0.00 | 0.00 | 995.7 | |
| 20260506151853 | 0 | 135 | 3.5 | 6.1 | 0.00 | 0.00 | 0.00 | 995.7 | |
| 20260506151843 | 0 | 180 | 4.3 | 6.1 | 0.00 | 0.00 | 0.00 | 995.6 | |
| 20260506151823 | 0 | 158 | 4.3 | 6.1 | 0.00 | 0.00 | 0.00 | 995.7 | |
| 20260506151813 | 0 | 135 | 4.3 | 6.1 | 0.00 | 0.00 | 0.00 | 995.7 | |
| 20260506151803 | 0 | 158 | 4.3 | 6.1 | 0.00 | 0.00 | 0.00 | 995.6 | |
| 20260506151743 | 0 | 158 | 4.3 | 6.1 | 0.00 | 0.00 | 0.00 | 995.7 | |
| 20260506151733 | 0 | 158 | 4.3 | 5.2 | 0.00 | 0.00 | 0.00 | 995.6 | |
| 20260506151723 | 0 | 135 | 4.3 | 5.2 | 0.00 | 0.00 | 0.00 | 995.7 | |
| 20260506151713 | 0 | 158 | 4.3 | 5.2 | 0.00 | 0.00 | 0.00 | 995.7 | |
| 20260506151653 | 0 | 135 | 4.3 | 5.2 | 0.00 | 0.00 | 0.00 | 995.6 | |
| 20260506151643 | 0 | 135 | 4.3 | 5.2 | 0.00 | 0.00 | 0.00 | 995.7 | |
| 20260506151613 | 0 | 135 | 4.3 | 5.2 | 0.00 | 0.00 | 0.00 | 995.6 | |
| 20260506151604 | 0 | 135 | 3.5 | 5.2 | 0.00 | 0.00 | 0.00 | 995.6 | |
| 20260506151544 | 0 | 158 | 3.5 | 5.2 | 0.00 | 0.00 | 0.00 | 995.6 | |
| 20260506151534 | 0 | 135 | 3.5 | 5.2 | 0.00 | 0.00 | 0.00 | 995.7 | |
| 20260506151524 | 0 | 135 | 3.5 | 5.2 | 0.00 | 0.00 | 0.00 | 995.6 | |
| 20260506151514 | 0 | 158 | 3.5 | 4.3 | 0.00 | 0.00 | 0.00 | 995.6 | |
| 20260506151504 | 0 | 135 | 3.5 | 4.3 | 0.00 | 0.00 | 0.00 | 995.6 | |
| 20260506151424 | 0 | 135 | 3.5 | 4.3 | 0.00 | 0.00 | 0.00 | 995.6 | |
| 20260506151344 | 0 | 135 | 3.5 | 4.3 | 0.00 | 0.00 | 0.00 | 995.6 | |
| 20260506151324 | 0 | 135 | 3.5 | 4.3 | 0.00 | 0.01 | 0.00 | 995.6 | |
| 20260506151304 | 0 | 135 | 3.5 | 4.3 | 0.00 | 0.01 | 0.00 | 995.7 | |
| 20260506151234 | 0 | 135 | 3.5 | 4.3 | 0.00 | 0.01 | 0.00 | 995.6 | |
| 20260506151214 | 0 | 135 | 2.6 | 4.3 | 0.00 | 0.01 | 0.00 | 995.6 | |
| 20260506151134 | 0 | 135 | 2.6 | 4.3 | 0.00 | 0.01 | 0.00 | 995.6 | |
| 20260506151114 | 0 | 135 | 2.6 | 3.5 | 0.00 | 0.01 | 0.00 | 995.6 | |
| 20260506151054 | 0 | 135 | 2.6 | 3.5 | 0.00 | 0.01 | 0.00 | 995.7 | |
| 20260506151015 | 0 | 135 | 2.6 | 3.5 | 0.00 | 0.01 | 0.00 | 995.6 | |
| 20260506151005 | 0 | 135 | 2.6 | 3.5 | 0.00 | 0.01 | 0.00 | 995.7 | |
| 20260506150925 | 0 | 135 | 2.6 | 3.5 | 0.00 | 0.01 | 0.00 | 995.6 | |
| 20260506150845 | 0 | 135 | 2.6 | 3.5 | 0.00 | 0.01 | 0.00 | 995.6 | |
| 20260506150825 | 0 | 135 | 1.7 | 3.5 | 0.00 | 0.01 | 0.00 | 995.6 | |
| 20260506150805 | 0 | 135 | 1.7 | 3.5 | 0.00 | 0.01 | 0.00 | 995.7 | |
| 20260506150725 | 0 | 135 | 1.7 | 3.5 | 0.00 | 0.01 | 0.00 | 995.7 | |
| 20260506150655 | 0 | 135 | 1.7 | 4.3 | 0.00 | 0.01 | 0.00 | 995.7 | |
| 20260506150645 | 0 | 158 | 1.7 | 4.3 | 0.00 | 0.01 | 0.00 | 995.6 | |
| 20260506150615 | 0 | 158 | 1.7 | 4.3 | 0.00 | 0.01 | 0.00 | 995.7 | |
| 20260506150605 | 0 | 158 | 1.7 | 4.3 | 0.00 | 0.01 | 0.00 | 995.8 | |
| 20260506150525 | 0 | 180 | 1.7 | 4.3 | 0.00 | 0.01 | 0.00 | 995.7 | |
| 20260506150505 | 0 | 180 | 1.7 | 4.3 | 0.00 | 0.01 | 0.00 | 995.8 | |
| 20260506150436 | 0 | 180 | 1.7 | 4.3 | 0.00 | 0.01 | 0.00 | 995.7 | |
| 20260506150416 | 0 | 180 | 1.7 | 4.3 | 0.00 | 0.01 | 0.00 | 995.8 | |
| 20260506150406 | 0 | 180 | 2.6 | 4.3 | 0.00 | 0.01 | 0.00 | 995.8 | |
| 20260506150356 | 0 | 135 | 2.6 | 4.3 | 0.00 | 0.01 | 0.00 | 995.7 | |
| 20260506150346 | 0 | 135 | 2.6 | 4.3 | 0.00 | 0.01 | 0.00 | 995.8 | |
| 20260506150326 | 0 | 158 | 2.6 | 4.3 | 0.00 | 0.01 | 0.00 | 995.8 | |
| 20260506150302 | 0 | 135 | 2.6 | 4.3 | 0.00 | 0.01 | 0.00 | 995.8 | |
| 20260506150246 | 0 | 158 | 2.6 | 4.3 | 0.00 | 0.01 | 0.00 | 995.8 | |
| 20260506150226 | 0 | 180 | 2.6 | 4.3 | 0.00 | 0.01 | 0.00 | 995.8 | |
| 20260506150216 | 0 | 180 | 2.6 | 5.2 | 0.00 | 0.01 | 0.00 | 995.8 | |
| 20260506150156 | 0 | 158 | 2.6 | 6.1 | 0.00 | 0.01 | 0.00 | 995.8 | |
| 20260506150136 | 0 | 180 | 2.6 | 6.1 | 0.00 | 0.01 | 0.00 | 995.8 | |
| 20260506150056 | 0 | 180 | 2.6 | 6.1 | 0.00 | 0.01 | 0.00 | 995.8 | |
| 20260506150016 | 0 | 180 | 2.6 | 6.1 | 0.00 | 0.01 | 0.00 | 995.8 | |
| 20260506150006 | 0 | 180 | 1.7 | 6.1 | 0.00 | 0.01 | 0.00 | 995.8 | |
| 20260506145946 | 0 | 180 | 1.7 | 6.1 | 0.00 | 0.01 | 0.00 | 995.9 | |
| 20260506145906 | 0 | 180 | 1.7 | 6.1 | 0.00 | 0.01 | 0.00 | 995.9 | |
| 20260506145846 | 0 | 180 | 2.6 | 6.1 | 0.00 | 0.01 | 0.00 | 995.8 | |
| 20260506145827 | 0 | 180 | 2.6 | 6.1 | 0.00 | 0.01 | 0.00 | 995.9 | |
| 20260506145757 | 0 | 180 | 3.5 | 6.1 | 0.00 | 0.01 | 0.00 | 995.9 | |
| 20260506145717 | 0 | 180 | 3.5 | 6.1 | 0.00 | 0.01 | 0.00 | 995.9 | |
| 20260506145657 | 0 | 180 | 3.5 | 4.3 | 0.00 | 0.01 | 0.00 | 995.9 | |
| 20260506145647 | 0 | 180 | 2.6 | 4.3 | 0.00 | 0.01 | 0.00 | 995.9 | |
| 20260506145637 | 0 | 158 | 2.6 | 4.3 | 0.00 | 0.01 | 0.00 | 995.9 | |
| 20260506145557 | 0 | 180 | 2.6 | 4.3 | 0.00 | 0.01 | 0.00 | 995.9 | |
| 20260506145517 | 0 | 180 | 1.7 | 4.3 | 0.00 | 0.01 | 0.00 | 995.9 | |
| 20260506145507 | 0 | 135 | 1.7 | 4.3 | 0.00 | 0.01 | 0.00 | 995.9 | |
| 20260506145427 | 0 | 180 | 1.7 | 4.3 | 0.00 | 0.01 | 0.00 | 995.9 | |
| 20260506145407 | 0 | 180 | 1.7 | 3.5 | 0.00 | 0.01 | 0.00 | 995.8 | |
| 20260506145347 | 0 | 180 | 1.7 | 3.5 | 0.00 | 0.01 | 0.00 | 995.9 | |
| 20260506145337 | 0 | 158 | 1.7 | 3.5 | 0.00 | 0.01 | 0.00 | 995.9 | |
| 20260506145327 | 0 | 225 | 1.7 | 3.5 | 0.00 | 0.01 | 0.00 | 995.9 | |
| 20260506145257 | 0 | 203 | 1.7 | 3.5 | 0.00 | 0.01 | 0.00 | 995.9 | |
| 20260506145247 | 0 | 225 | 1.7 | 3.5 | 0.00 | 0.01 | 0.00 | 995.9 | |
| 20260506145238 | 0 | 270 | 1.7 | 3.5 | 0.00 | 0.01 | 0.00 | 995.9 | |
| 20260506145208 | 0 | 225 | 1.7 | 3.5 | 0.00 | 0.01 | 0.00 | 995.9 | |
| 20260506145158 | 0 | 293 | 1.7 | 3.5 | 0.00 | 0.01 | 0.00 | 995.9 | |
| 20260506145148 | 0 | 180 | 1.7 | 3.5 | 0.00 | 0.01 | 0.00 | 995.9 | |
| 20260506145128 | 0 | 270 | 1.7 | 4.3 | 0.00 | 0.01 | 0.00 | 995.9 | |
| 20260506145118 | 0 | 180 | 1.7 | 4.3 | 0.00 | 0.01 | 0.00 | 995.9 | |
| 20260506145108 | 0 | 203 | 1.7 | 4.3 | 0.00 | 0.01 | 0.00 | 995.9 | |
| 20260506145058 | 0 | 225 | 1.7 | 4.3 | 0.00 | 0.01 | 0.00 | 995.9 | |
| 20260506145038 | 0 | 180 | 1.7 | 4.3 | 0.00 | 0.01 | 0.00 | 995.9 | |
| 20260506145018 | 0 | 158 | 1.7 | 4.3 | 0.00 | 0.01 | 0.00 | 995.9 | |
| 20260506144958 | 0 | 180 | 1.7 | 4.3 | 0.00 | 0.01 | 0.00 | 995.9 | |
| 20260506144928 | 0 | 180 | 1.7 | 4.3 | 0.00 | 0.01 | 0.00 | 995.8 | |
| 20260506144918 | 0 | 180 | 1.7 | 4.3 | 0.00 | 0.01 | 0.00 | 995.9 | |
| 20260506144908 | 0 | 180 | 1.7 | 4.3 | 0.00 | 0.01 | 0.00 | 996.0 | |
| 20260506144838 | 0 | 180 | 1.7 | 4.3 | 0.00 | 0.01 | 0.00 | 995.9 | |
| 20260506144828 | 0 | 180 | 2.6 | 4.3 | 0.00 | 0.01 | 0.00 | 995.9 | |
| 20260506144748 | 0 | 180 | 2.6 | 4.3 | 0.00 | 0.01 | 0.00 | 995.9 | |
| 20260506144708 | 0 | 180 | 2.6 | 4.3 | 0.00 | 0.01 | 0.00 | 995.9 | |
| 20260506144629 | 0 | 180 | 2.6 | 4.3 | 0.00 | 0.01 | 0.00 | 995.9 | |
| 20260506144549 | 0 | 180 | 1.7 | 4.3 | 0.00 | 0.01 | 0.00 | 995.9 | |
| 20260506144509 | 0 | 180 | 1.7 | 4.3 | 0.00 | 0.01 | 0.00 | 995.9 | |
| 20260506144459 | 0 | 158 | 1.7 | 4.3 | 0.00 | 0.01 | 0.00 | 995.9 | |
| 20260506144429 | 0 | 180 | 1.7 | 4.3 | 0.00 | 0.01 | 0.00 | 995.9 | |
| 20260506144339 | 0 | 180 | 3.5 | 4.3 | 0.00 | 0.01 | 0.00 | 995.9 | |
| 20260506144329 | 0 | 180 | 2.6 | 4.3 | 0.00 | 0.01 | 0.00 | 995.9 | |
| 20260506144249 | 0 | 180 | 2.6 | 4.3 | 0.00 | 0.01 | 0.00 | 995.9 | |
| 20260506144239 | 0 | 180 | 2.6 | 5.2 | 0.00 | 0.01 | 0.00 | 995.9 | |
| 20260506144229 | 0 | 180 | 3.5 | 5.2 | 0.00 | 0.01 | 0.00 | 995.9 | |
| 20260506144219 | 0 | 180 | 3.5 | 5.2 | 0.00 | 0.01 | 0.00 | 995.8 | |
| 20260506144149 | 0 | 180 | 3.5 | 5.2 | 0.00 | 0.01 | 0.00 | 995.9 | |
| 20260506144110 | 0 | 180 | 3.5 | 5.2 | 0.00 | 0.01 | 0.00 | 995.9 | |
| 20260506144030 | 0 | 180 | 3.5 | 5.2 | 0.00 | 0.01 | 0.00 | 995.9 | |
| 20260506144020 | 0 | 180 | 2.6 | 5.2 | 0.00 | 0.01 | 0.00 | 995.8 | |
| 20260506143950 | 0 | 180 | 2.6 | 5.2 | 0.00 | 0.01 | 0.00 | 995.9 | |
| 20260506143910 | 0 | 180 | 2.6 | 5.2 | 0.00 | 0.01 | 0.00 | 995.9 | |
| 20260506143850 | 0 | 180 | 3.5 | 5.2 | 0.00 | 0.01 | 0.00 | 995.9 | |
| 20260506143820 | 0 | 180 | 3.5 | 5.2 | 0.00 | 0.01 | 0.00 | 995.8 | |
| 20260506143810 | 0 | 180 | 3.5 | 5.2 | 0.00 | 0.01 | 0.00 | 995.9 | |
| 20260506143800 | 0 | 180 | 2.6 | 5.2 | 0.00 | 0.01 | 0.00 | 995.8 | |
| 20260506143750 | 0 | 180 | 1.7 | 5.2 | 0.00 | 0.01 | 0.00 | 995.8 | |
| 20260506143740 | 0 | 180 | 1.7 | 4.3 | 0.00 | 0.01 | 0.00 | 995.8 | |
| 20260506143730 | 0 | 180 | 1.7 | 2.6 | 0.00 | 0.01 | 0.00 | 995.9 | |
| 20260506143720 | 0 | 180 | 0.9 | 2.6 | 0.00 | 0.01 | 0.00 | 995.9 | |
| 20260506143650 | 0 | 180 | 0.9 | 2.6 | 0.00 | 0.01 | 0.00 | 995.8 | |
| 20260506143640 | 0 | 180 | 0.9 | 2.6 | 0.00 | 0.01 | 0.00 | 995.9 | |
| 20260506143620 | 0 | 180 | 1.7 | 2.6 | 0.00 | 0.01 | 0.00 | 995.9 | |
| 20260506143551 | 0 | 180 | 0.9 | 2.6 | 0.00 | 0.01 | 0.00 | 995.9 | |
| 20260506143541 | 0 | 180 | 0.9 | 2.6 | 0.00 | 0.01 | 0.00 | 995.8 | |
| 20260506143501 | 0 | 180 | 0.9 | 2.6 | 0.00 | 0.01 | 0.00 | 995.8 | |
| 20260506143451 | 0 | 180 | 1.7 | 2.6 | 0.00 | 0.01 | 0.00 | 995.8 | |
| 20260506143441 | 0 | 135 | 1.7 | 2.6 | 0.00 | 0.01 | 0.00 | 995.8 | |
| 20260506143421 | 0 | 180 | 0.9 | 2.6 | 0.00 | 0.01 | 0.00 | 995.8 | |
| 20260506143401 | 0 | 180 | 0.0 | 2.6 | 0.00 | 0.01 | 0.00 | 995.8 | |
| 20260506143331 | 0 | 158 | 0.0 | 1.7 | 0.00 | 0.01 | 0.00 | 995.8 | |
| 20260506143321 | 0 | 180 | 0.0 | 1.7 | 0.00 | 0.01 | 0.00 | 995.8 | |
| 20260506143311 | 0 | 180 | 0.0 | 1.7 | 0.00 | 0.01 | 0.00 | 995.7 | |
| 20260506143301 | 0 | 203 | 0.0 | 1.7 | 0.00 | 0.01 | 0.00 | 995.8 | |
| 20260506143251 | 0 | 248 | 0.0 | 1.7 | 0.00 | 0.01 | 0.00 | 995.8 | |
| 20260506143221 | 0 | 180 | 0.0 | 1.7 | 0.00 | 0.01 | 0.00 | 995.7 | |
| 20260506143141 | 0 | 180 | 0.0 | 1.7 | 0.00 | 0.01 | 0.00 | 995.7 | |
| 20260506143131 | 0 | 315 | 0.0 | 1.7 | 0.00 | 0.01 | 0.00 | 995.7 | |
| 20260506143121 | 0 | 225 | 0.0 | 1.7 | 0.00 | 0.01 | 0.00 | 995.8 | |
| 20260506143101 | 0 | 225 | 0.0 | 1.7 | 0.00 | 0.01 | 0.00 | 995.7 | |
| 20260506143041 | 0 | 225 | 0.9 | 1.7 | 0.00 | 0.01 | 0.00 | 995.7 | |
| 20260506143012 | 0 | 225 | 0.0 | 1.7 | 0.00 | 0.01 | 0.00 | 995.7 | |
| 20260506142942 | 0 | 270 | 0.0 | 1.7 | 0.00 | 0.01 | 0.00 | 995.7 | |
| 20260506142902 | 0 | 270 | 0.0 | 1.7 | 0.00 | 0.01 | 0.00 | 995.7 | |
| 20260506142822 | 0 | 270 | 0.0 | 1.7 | 0.00 | 0.01 | 0.00 | 995.7 | |
| 20260506142752 | 0 | 270 | 0.0 | 1.7 | 0.00 | 0.01 | 0.00 | 995.6 | |
| 20260506142742 | 0 | 270 | 0.0 | 1.7 | 0.00 | 0.01 | 0.00 | 995.7 | |
| 20260506142732 | 0 | 270 | 0.0 | 0.9 | 0.00 | 0.01 | 0.00 | 995.7 | |
| 20260506142712 | 0 | 180 | 0.0 | 0.0 | 0.00 | 0.01 | 0.00 | 995.6 | |
| 20260506142702 | 0 | 225 | 0.0 | 0.0 | 0.00 | 0.01 | 0.00 | 995.6 | |
| 20260506142643 | 0 | 225 | 0.0 | 0.0 | 0.00 | 0.01 | 0.00 | 995.7 | |
| 20260506142602 | 0 | 225 | 0.0 | 0.0 | 0.00 | 0.01 | 0.00 | 995.7 | |
| 20260506142542 | 0 | 203 | 0.0 | 0.0 | 0.00 | 0.01 | 0.00 | 995.6 | |
| 20260506142532 | 0 | 225 | 0.0 | 0.0 | 0.00 | 0.01 | 0.00 | 995.6 | |
| 20260506142512 | 0 | 180 | 0.0 | 0.0 | 0.00 | 0.01 | 0.00 | 995.7 | |
| 20260506142452 | 0 | 180 | 0.0 | 0.0 | 0.00 | 0.01 | 0.00 | 995.6 | |
| 20260506142442 | 0 | 180 | 0.0 | 0.9 | 0.00 | 0.01 | 0.00 | 995.6 | |
| 20260506142433 | 0 | 90 | 0.0 | 0.9 | 0.00 | 0.01 | 0.00 | 995.6 | |
| 20260506142353 | 0 | 90 | 0.0 | 0.9 | 0.00 | 0.01 | 0.00 | 995.7 | |
| 20260506142343 | 0 | 90 | 0.0 | 0.9 | 0.00 | 0.01 | 0.00 | 995.6 | |
| 20260506142305 | 0 | 90 | 0.0 | 0.9 | 0.00 | 0.01 | 0.00 | 995.7 | |
| 20260506142253 | 0 | 90 | 0.0 | 0.9 | 0.00 | 0.01 | 0.00 | 995.6 | |
| 20260506142213 | 0 | 90 | 0.0 | 1.7 | 0.00 | 0.01 | 0.00 | 995.6 | |
| 20260506142153 | 0 | 90 | 0.0 | 1.7 | 0.00 | 0.01 | 0.00 | 995.7 | |
| 20260506142123 | 0 | 90 | 0.0 | 1.7 | 0.00 | 0.01 | 0.00 | 995.6 | |
| 20260506142113 | 0 | 0 | 0.0 | 1.7 | 0.00 | 0.01 | 0.00 | 995.7 | |
| 20260506142043 | 0 | 0 | 0.0 | 1.7 | 0.00 | 0.01 | 0.00 | 995.6 | |
| 20260506142023 | 0 | 0 | 0.0 | 2.6 | 0.00 | 0.01 | 0.00 | 995.6 | |
| 20260506142003 | 0 | 0 | 0.0 | 2.6 | 0.00 | 0.01 | 0.00 | 995.7 | |
| 20260506141933 | 0 | 0 | 0.0 | 2.6 | 0.00 | 0.01 | 0.00 | 995.6 | |
| 20260506141913 | 0 | 45 | 0.0 | 2.6 | 0.00 | 0.01 | 0.00 | 995.6 | |
| 20260506141844 | 0 | 0 | 0.0 | 2.6 | 0.00 | 0.01 | 0.00 | 995.6 | |
| 20260506141834 | 0 | 45 | 0.0 | 2.6 | 0.00 | 0.01 | 0.00 | 995.6 | |
| 20260506141804 | 0 | 45 | 0.9 | 2.6 | 0.00 | 0.01 | 0.00 | 995.7 | |
| 20260506141754 | 0 | 45 | 0.9 | 2.6 | 0.00 | 0.01 | 0.00 | 995.6 | |
| 20260506141734 | 0 | 45 | 1.7 | 2.6 | 0.00 | 0.01 | 0.00 | 995.6 | |
| 20260506141724 | 0 | 68 | 1.7 | 2.6 | 0.00 | 0.01 | 0.00 | 995.7 | |
| 20260506141714 | 0 | 45 | 0.9 | 2.6 | 0.00 | 0.01 | 0.00 | 995.7 | |
| 20260506141634 | 0 | 45 | 0.9 | 2.6 | 0.00 | 0.01 | 0.00 | 995.7 | |
| 20260506141624 | 0 | 90 | 1.7 | 2.6 | 0.00 | 0.01 | 0.00 | 995.6 | |
| 20260506141554 | 0 | 90 | 1.7 | 2.6 | 0.00 | 0.01 | 0.00 | 995.7 | |
| 20260506141524 | 0 | 90 | 1.7 | 2.6 | 0.00 | 0.01 | 0.00 | 995.6 | |
| 20260506141444 | 0 | 90 | 1.7 | 2.6 | 0.00 | 0.01 | 0.00 | 995.6 | |
| 20260506141434 | 0 | 90 | 1.7 | 2.6 | 0.00 | 0.01 | 0.00 | 995.7 | |
| 20260506141404 | 0 | 90 | 1.7 | 3.5 | 0.00 | 0.01 | 0.00 | 995.7 | |
| 20260506141354 | 0 | 90 | 0.9 | 3.5 | 0.00 | 0.01 | 0.00 | 995.7 | |
| 20260506141315 | 0 | 45 | 0.9 | 3.5 | 0.00 | 0.01 | 0.00 | 995.6 | |
| 20260506141255 | 0 | 45 | 0.9 | 3.5 | 0.00 | 0.01 | 0.00 | 995.7 | |
| 20260506141245 | 0 | 90 | 0.9 | 3.5 | 0.00 | 0.01 | 0.00 | 995.7 | |
| 20260506141215 | 0 | 90 | 1.7 | 3.5 | 0.00 | 0.01 | 0.00 | 995.7 | |
| 20260506141145 | 0 | 45 | 1.7 | 3.5 | 0.00 | 0.01 | 0.00 | 995.7 | |
| 20260506141135 | 0 | 90 | 0.9 | 3.5 | 0.00 | 0.01 | 0.00 | 995.7 | |
| 20260506141125 | 0 | 90 | 1.7 | 3.5 | 0.00 | 0.01 | 0.00 | 995.7 | |
| 20260506141115 | 0 | 68 | 1.7 | 3.5 | 0.00 | 0.01 | 0.00 | 995.7 | |
| 20260506141105 | 0 | 45 | 1.7 | 3.5 | 0.00 | 0.01 | 0.00 | 995.6 | |
| 20260506141055 | 0 | 45 | 1.7 | 3.5 | 0.00 | 0.01 | 0.00 | 995.7 | |
| 20260506141015 | 0 | 45 | 1.7 | 3.5 | 0.00 | 0.01 | 0.00 | 995.7 | |
| 20260506141005 | 0 | 0 | 1.7 | 3.5 | 0.00 | 0.01 | 0.00 | 995.7 | |
| 20260506140955 | 0 | 315 | 1.7 | 3.5 | 0.00 | 0.01 | 0.00 | 995.7 | |
| 20260506140915 | 0 | 0 | 1.7 | 3.5 | 0.00 | 0.01 | 0.00 | 995.7 | |
| 20260506140835 | 0 | 0 | 1.7 | 3.5 | 0.00 | 0.01 | 0.00 | 995.7 | |
| 20260506140825 | 0 | 45 | 1.7 | 3.5 | 0.00 | 0.01 | 0.00 | 995.7 | |
| 20260506140816 | 0 | 0 | 0.9 | 3.5 | 0.00 | 0.01 | 0.00 | 995.7 | |
| 20260506140736 | 0 | 0 | 0.9 | 3.5 | 0.00 | 0.01 | 0.00 | 995.7 | |
| 20260506140726 | 0 | 0 | 0.9 | 3.5 | 0.00 | 0.01 | 0.00 | 995.8 | |
| 20260506140716 | 0 | 0 | 1.7 | 3.5 | 0.00 | 0.01 | 0.00 | 995.7 | |
| 20260506140656 | 0 | 45 | 1.7 | 3.5 | 0.00 | 0.01 | 0.00 | 995.7 | |
| 20260506140616 | 0 | 45 | 1.7 | 3.5 | 0.00 | 0.01 | 0.00 | 995.7 | |
| 20260506140536 | 0 | 45 | 1.7 | 3.5 | 0.00 | 0.01 | 0.00 | 995.7 | |
| 20260506140526 | 0 | 45 | 0.9 | 3.5 | 0.00 | 0.01 | 0.00 | 995.7 | |
| 20260506140506 | 0 | 45 | 0.0 | 3.5 | 0.00 | 0.01 | 0.00 | 995.7 | |
| 20260506140456 | 0 | 45 | 0.0 | 3.5 | 0.00 | 0.01 | 0.00 | 995.8 | |
| 20260506140446 | 0 | 90 | 0.0 | 3.5 | 0.00 | 0.01 | 0.00 | 995.7 | |
| 20260506140436 | 0 | 135 | 0.0 | 3.5 | 0.00 | 0.01 | 0.00 | 995.7 | |
| 20260506140356 | 0 | 90 | 0.0 | 3.5 | 0.00 | 0.01 | 0.00 | 995.8 | |
| 20260506140346 | 0 | 90 | 0.0 | 3.5 | 0.00 | 0.01 | 0.00 | 995.7 | |
| 20260506140336 | 0 | 90 | 0.9 | 3.5 | 0.00 | 0.01 | 0.00 | 995.8 | |
| 20260506140316 | 0 | 90 | 0.9 | 3.5 | 0.00 | 0.01 | 0.00 | 995.7 | |
| 20260506140256 | 0 | 135 | 0.9 | 3.5 | 0.00 | 0.01 | 0.00 | 995.8 | |
| 20260506140247 | 0 | 135 | 0.0 | 3.5 | 0.00 | 0.01 | 0.00 | 995.7 | |
| 20260506140237 | 0 | 180 | 0.0 | 3.5 | 0.00 | 0.01 | 0.00 | 995.7 | |
| 20260506140217 | 0 | 90 | 0.9 | 3.5 | 0.00 | 0.01 | 0.00 | 995.7 | |
| 20260506140207 | 0 | 135 | 0.9 | 3.5 | 0.00 | 0.01 | 0.00 | 995.8 | |
| 20260506140157 | 0 | 135 | 1.7 | 3.5 | 0.00 | 0.01 | 0.00 | 995.7 | |
| 20260506140147 | 0 | 45 | 1.7 | 3.5 | 0.00 | 0.01 | 0.00 | 995.7 | |
| 20260506140137 | 0 | 45 | 1.7 | 3.5 | 0.00 | 0.01 | 0.00 | 995.8 | |
| 20260506140127 | 0 | 90 | 1.7 | 3.5 | 0.00 | 0.01 | 0.00 | 995.7 | |
| 20260506140117 | 0 | 90 | 1.7 | 3.5 | 0.00 | 0.01 | 0.00 | 995.8 | |
| 20260506140037 | 0 | 90 | 1.7 | 3.5 | 0.00 | 0.01 | 0.00 | 995.7 | |
| 20260506140027 | 0 | 135 | 1.7 | 3.5 | 0.00 | 0.01 | 0.00 | 995.7 | |
| 20260506140017 | 0 | 45 | 1.7 | 3.5 | 0.00 | 0.01 | 0.00 | 995.7 | |
| 20260506140007 | 0 | 68 | 1.7 | 3.5 | 0.00 | 0.01 | 0.00 | 995.7 | |
| 20260506135947 | 0 | 90 | 1.7 | 3.5 | 0.00 | 0.01 | 0.00 | 995.7 | |
| 20260506135937 | 0 | 45 | 1.7 | 3.5 | 0.00 | 0.01 | 0.00 | 995.7 | |
| 20260506135928 | 0 | 45 | 1.7 | 3.5 | 0.00 | 0.01 | 0.00 | 995.8 | |
| 20260506135907 | 0 | 68 | 1.7 | 3.5 | 0.00 | 0.01 | 0.00 | 995.7 | |
| 20260506135857 | 0 | 90 | 1.7 | 3.5 | 0.00 | 0.01 | 0.00 | 995.8 | |
| 20260506135847 | 0 | 90 | 1.7 | 3.5 | 0.00 | 0.01 | 0.00 | 995.7 | |
| 20260506135807 | 0 | 90 | 1.7 | 3.5 | 0.00 | 0.01 | 0.00 | 995.7 | |
| 20260506135728 | 0 | 90 | 1.7 | 3.5 | 0.00 | 0.01 | 0.00 | 995.7 | |
| 20260506135708 | 0 | 90 | 1.7 | 3.5 | 0.00 | 0.01 | 0.00 | 995.8 | |
| 20260506135648 | 0 | 90 | 1.7 | 3.5 | 0.00 | 0.01 | 0.00 | 995.7 | |
| 20260506135638 | 0 | 90 | 0.9 | 3.5 | 0.00 | 0.01 | 0.00 | 995.7 | |
| 20260506135628 | 0 | 90 | 0.9 | 2.6 | 0.00 | 0.01 | 0.00 | 995.7 | |
| 20260506135618 | 0 | 68 | 0.9 | 2.6 | 0.00 | 0.01 | 0.00 | 995.7 | |
| 20260506135558 | 0 | 45 | 1.7 | 2.6 | 0.00 | 0.01 | 0.00 | 995.7 | |
| 20260506135548 | 0 | 23 | 0.9 | 2.6 | 0.00 | 0.01 | 0.00 | 995.7 | |
| 20260506135538 | 0 | 45 | 0.9 | 2.6 | 0.00 | 0.01 | 0.00 | 995.7 | |
| 20260506135528 | 0 | 23 | 0.0 | 2.6 | 0.00 | 0.01 | 0.00 | 995.7 | |
| 20260506135458 | 0 | 45 | 0.0 | 2.6 | 0.00 | 0.01 | 0.00 | 995.7 | |
| 20260506135448 | 0 | 90 | 0.0 | 2.6 | 0.00 | 0.01 | 0.00 | 995.7 | |
| 20260506135438 | 0 | 180 | 0.0 | 2.6 | 0.00 | 0.01 | 0.00 | 995.7 | |
| 20260506135428 | 0 | 203 | 0.0 | 2.6 | 0.00 | 0.01 | 0.00 | 995.7 | |
| 20260506135418 | 0 | 315 | 0.0 | 2.6 | 0.00 | 0.01 | 0.00 | 995.7 | |
| 20260506135408 | 0 | 0 | 0.0 | 2.6 | 0.00 | 0.01 | 0.00 | 995.7 | |
| 20260506135358 | 0 | 0 | 0.9 | 2.6 | 0.00 | 0.01 | 0.00 | 995.7 | |
| 20260506135348 | 0 | 0 | 0.9 | 3.5 | 0.00 | 0.01 | 0.00 | 995.7 | |
| 20260506135338 | 0 | 0 | 1.7 | 4.3 | 0.00 | 0.01 | 0.00 | 995.7 | |
| 20260506135328 | 0 | 0 | 0.9 | 5.2 | 0.00 | 0.01 | 0.00 | 995.7 | |
| 20260506135318 | 0 | 315 | 0.9 | 5.2 | 0.00 | 0.01 | 0.00 | 995.7 | |
| 20260506135238 | 0 | 315 | 0.0 | 5.2 | 0.00 | 0.01 | 0.00 | 995.7 | |
| 20260506135209 | 0 | 90 | 0.0 | 5.2 | 0.00 | 0.01 | 0.00 | 995.7 | |
| 20260506135159 | 0 | 45 | 0.0 | 5.2 | 0.00 | 0.01 | 0.00 | 995.7 | |
| 20260506135149 | 0 | 0 | 0.0 | 5.2 | 0.00 | 0.01 | 0.00 | 995.7 | |
| 20260506135129 | 0 | 315 | 0.0 | 5.2 | 0.00 | 0.01 | 0.00 | 995.7 | |
| 20260506135109 | 0 | 45 | 0.0 | 5.2 | 0.00 | 0.01 | 0.00 | 995.7 | |
| 20260506135059 | 0 | 90 | 0.0 | 5.2 | 0.00 | 0.01 | 0.00 | 995.7 | |
| 20260506135049 | 0 | 315 | 0.0 | 5.2 | 0.00 | 0.01 | 0.00 | 995.7 | |
| 20260506135009 | 0 | 0 | 0.0 | 5.2 | 0.00 | 0.01 | 0.00 | 995.7 | |
| 20260506134949 | 0 | 0 | 0.9 | 5.2 | 0.00 | 0.01 | 0.00 | 995.7 | |
| 20260506134929 | 0 | 0 | 1.7 | 5.2 | 0.00 | 0.01 | 0.00 | 995.7 | |
| 20260506134919 | 0 | 45 | 2.6 | 5.2 | 0.00 | 0.01 | 0.00 | 995.7 | |
| 20260506134859 | 0 | 0 | 3.5 | 5.2 | 0.00 | 0.01 | 0.00 | 995.7 | |
| 20260506134849 | 0 | 45 | 3.5 | 5.2 | 0.00 | 0.01 | 0.00 | 995.7 | |
| 20260506134839 | 0 | 45 | 2.6 | 5.2 | 0.00 | 0.01 | 0.00 | 995.7 | |
| 20260506134819 | 0 | 45 | 1.7 | 5.2 | 0.00 | 0.01 | 0.00 | 995.7 | |
| 20260506134809 | 0 | 45 | 0.9 | 5.2 | 0.00 | 0.01 | 0.00 | 995.7 | |
| 20260506134759 | 0 | 45 | 0.0 | 3.5 | 0.00 | 0.01 | 0.00 | 995.7 | |
| 20260506134749 | 0 | 45 | 0.0 | 2.6 | 0.00 | 0.01 | 0.00 | 995.7 | |
| 20260506134739 | 0 | 0 | 0.0 | 2.6 | 0.00 | 0.01 | 0.00 | 995.8 | |
| 20260506134729 | 0 | 45 | 0.0 | 2.6 | 0.00 | 0.01 | 0.00 | 995.8 | |
| 20260506134719 | 0 | 90 | 0.0 | 3.5 | 0.00 | 0.01 | 0.00 | 995.8 | |
| 20260506134710 | 0 | 90 | 0.0 | 4.3 | 0.00 | 0.01 | 0.00 | 995.8 | |
| 20260506134700 | 0 | 225 | 0.9 | 4.3 | 0.00 | 0.01 | 0.00 | 995.8 | |
| 20260506134650 | 0 | 180 | 0.9 | 4.3 | 0.00 | 0.01 | 0.00 | 995.8 | |
| 20260506134640 | 0 | 90 | 0.9 | 4.3 | 0.00 | 0.01 | 0.00 | 995.8 | |
| 20260506134620 | 0 | 45 | 1.7 | 4.3 | 0.00 | 0.01 | 0.00 | 995.8 | |
| 20260506134610 | 0 | 45 | 1.7 | 4.3 | 0.00 | 0.01 | 0.00 | 995.7 | |
| 20260506134550 | 0 | 45 | 0.9 | 4.3 | 0.00 | 0.01 | 0.00 | 995.8 | |
| 20260506134540 | 0 | 23 | 0.0 | 4.3 | 0.00 | 0.01 | 0.00 | 995.8 | |
| 20260506134530 | 0 | 0 | 0.0 | 4.3 | 0.00 | 0.01 | 0.00 | 995.8 | |
| 20260506134520 | 0 | 45 | 0.0 | 5.2 | 0.00 | 0.01 | 0.00 | 995.8 | |
| 20260506134510 | 0 | 45 | 0.0 | 6.1 | 0.00 | 0.01 | 0.00 | 995.8 | |
| 20260506134500 | 0 | 0 | 0.0 | 7.0 | 0.00 | 0.01 | 0.00 | 995.8 | |
| 20260506134420 | 0 | 90 | 0.0 | 7.0 | 0.00 | 0.01 | 0.00 | 995.8 | |
| 20260506134350 | 0 | 90 | 0.9 | 7.0 | 0.00 | 0.01 | 0.00 | 995.8 | |
| 20260506134340 | 0 | 90 | 1.7 | 7.0 | 0.00 | 0.01 | 0.00 | 995.8 | |
| 20260506134310 | 0 | 45 | 1.7 | 7.0 | 0.00 | 0.01 | 0.00 | 995.8 | |
| 20260506134250 | 0 | 68 | 2.6 | 7.0 | 0.00 | 0.01 | 0.00 | 995.8 | |
| 20260506134240 | 0 | 45 | 2.6 | 7.0 | 0.00 | 0.01 | 0.00 | 995.8 | |
| 20260506134200 | 0 | 45 | 2.6 | 7.0 | 0.00 | 0.01 | 0.00 | 995.8 | |
| 20260506134150 | 0 | 90 | 2.6 | 7.0 | 0.00 | 0.01 | 0.00 | 995.8 | |
| 20260506134141 | 0 | 90 | 1.7 | 7.0 | 0.00 | 0.01 | 0.00 | 995.8 | |
| 20260506134121 | 0 | 135 | 2.6 | 7.0 | 0.00 | 0.01 | 0.00 | 995.8 | |
| 20260506134041 | 0 | 135 | 3.5 | 7.0 | 0.00 | 0.01 | 0.00 | 995.8 | |
| 20260506134031 | 0 | 90 | 4.3 | 7.0 | 0.00 | 0.01 | 0.00 | 995.8 | |
| 20260506134021 | 0 | 90 | 3.5 | 7.0 | 0.00 | 0.01 | 0.00 | 995.8 | |
| 20260506134011 | 0 | 90 | 3.5 | 7.0 | 0.00 | 0.01 | 0.00 | 995.7 | |
| 20260506134001 | 0 | 90 | 3.5 | 6.1 | 0.00 | 0.01 | 0.00 | 995.7 | |
| 20260506133951 | 0 | 90 | 3.5 | 6.1 | 0.00 | 0.01 | 0.00 | 995.8 | |
| 20260506133941 | 0 | 68 | 3.5 | 6.1 | 0.00 | 0.01 | 0.00 | 995.8 | |
| 20260506133911 | 0 | 45 | 2.6 | 6.1 | 0.00 | 0.01 | 0.00 | 995.8 | |
| 20260506133901 | 0 | 90 | 2.6 | 6.1 | 0.00 | 0.01 | 0.00 | 995.8 | |
| 20260506133851 | 0 | 45 | 1.7 | 6.1 | 0.00 | 0.01 | 0.00 | 995.7 | |
| 20260506133831 | 0 | 45 | 1.7 | 6.1 | 0.00 | 0.01 | 0.00 | 995.8 | |
| 20260506133821 | 0 | 68 | 1.7 | 6.1 | 0.00 | 0.01 | 0.00 | 995.8 | |
| 20260506133811 | 0 | 90 | 1.7 | 6.1 | 0.00 | 0.01 | 0.00 | 995.8 | |
| 20260506133801 | 0 | 90 | 2.6 | 6.1 | 0.00 | 0.01 | 0.00 | 995.8 | |
| 20260506133751 | 0 | 68 | 2.6 | 6.1 | 0.00 | 0.01 | 0.00 | 995.8 | |
| 20260506133741 | 0 | 90 | 3.5 | 6.1 | 0.00 | 0.01 | 0.00 | 995.8 | |
| 20260506133701 | 0 | 90 | 3.5 | 6.1 | 0.00 | 0.01 | 0.00 | 995.8 | |
| 20260506133651 | 0 | 45 | 2.6 | 6.1 | 0.00 | 0.01 | 0.00 | 995.8 | |
| 20260506133641 | 0 | 45 | 1.7 | 6.1 | 0.00 | 0.01 | 0.00 | 995.8 | |
| 20260506133622 | 0 | 90 | 1.7 | 6.1 | 0.00 | 0.01 | 0.00 | 995.8 | |
| 20260506133552 | 0 | 45 | 1.7 | 6.1 | 0.00 | 0.01 | 0.00 | 995.8 | |
| 20260506133542 | 0 | 90 | 1.7 | 6.1 | 0.00 | 0.01 | 0.00 | 995.8 | |
| 20260506133522 | 0 | 90 | 2.6 | 6.1 | 0.00 | 0.01 | 0.00 | 995.8 | |
| 20260506133452 | 0 | 45 | 3.5 | 6.1 | 0.00 | 0.01 | 0.00 | 995.8 | |
| 20260506133442 | 0 | 90 | 3.5 | 6.1 | 0.00 | 0.01 | 0.00 | 995.8 | |
| 20260506133412 | 0 | 45 | 3.5 | 5.2 | 0.00 | 0.01 | 0.00 | 995.8 | |
| 20260506133402 | 0 | 90 | 3.5 | 5.2 | 0.00 | 0.01 | 0.00 | 995.8 | |
| 20260506133352 | 0 | 68 | 2.6 | 4.3 | 0.00 | 0.01 | 0.00 | 995.8 | |
| 20260506133342 | 0 | 90 | 2.6 | 4.3 | 0.00 | 0.01 | 0.00 | 995.8 | |
| 20260506133332 | 0 | 90 | 1.7 | 4.3 | 0.00 | 0.01 | 0.00 | 995.8 | |
| 20260506133322 | 0 | 90 | 1.7 | 4.3 | 0.00 | 0.01 | 0.00 | 995.9 | |
| 20260506133312 | 0 | 90 | 0.9 | 3.5 | 0.00 | 0.01 | 0.00 | 995.8 | |
| 20260506133252 | 0 | 45 | 0.0 | 3.5 | 0.00 | 0.01 | 0.00 | 995.8 | |
| 20260506133212 | 0 | 45 | 0.0 | 3.5 | 0.00 | 0.01 | 0.00 | 995.8 | |
| 20260506133202 | 0 | 90 | 0.0 | 3.5 | 0.00 | 0.01 | 0.00 | 995.9 | |
| 20260506133152 | 0 | 90 | 0.0 | 3.5 | 0.00 | 0.01 | 0.00 | 995.8 | |
| 20260506133142 | 0 | 90 | 0.9 | 3.5 | 0.00 | 0.01 | 0.00 | 995.9 | |
| 20260506133132 | 0 | 90 | 0.9 | 3.5 | 0.00 | 0.01 | 0.00 | 995.8 | |
| 20260506133053 | 0 | 45 | 1.7 | 3.5 | 0.00 | 0.01 | 0.00 | 995.8 | |
| 20260506133033 | 0 | 90 | 1.7 | 3.5 | 0.00 | 0.01 | 0.00 | 995.8 | |
| 20260506133013 | 0 | 45 | 1.7 | 3.5 | 0.00 | 0.01 | 0.00 | 995.8 | |
| 20260506132943 | 0 | 90 | 1.7 | 3.5 | 0.00 | 0.01 | 0.00 | 995.8 | |
| 20260506132933 | 0 | 90 | 0.9 | 3.5 | 0.00 | 0.01 | 0.00 | 995.9 | |
| 20260506132923 | 0 | 90 | 0.9 | 3.5 | 0.00 | 0.01 | 0.00 | 995.8 | |
| 20260506132913 | 0 | 45 | 0.0 | 3.5 | 0.00 | 0.01 | 0.00 | 995.8 | |
| 20260506132903 | 0 | 90 | 0.0 | 2.6 | 0.00 | 0.01 | 0.00 | 995.9 | |
| 20260506132833 | 0 | 90 | 0.0 | 2.6 | 0.00 | 0.01 | 0.00 | 995.8 | |
| 20260506132823 | 0 | 225 | 0.0 | 2.6 | 0.00 | 0.01 | 0.00 | 995.9 | |
| 20260506132803 | 0 | 0 | 0.0 | 2.6 | 0.00 | 0.01 | 0.00 | 995.8 | |
| 20260506132753 | 0 | 0 | 0.9 | 2.6 | 0.00 | 0.01 | 0.00 | 995.8 | |
| 20260506132743 | 0 | 90 | 0.9 | 2.6 | 0.00 | 0.01 | 0.00 | 995.8 | |
| 20260506132733 | 0 | 90 | 1.7 | 3.5 | 0.00 | 0.01 | 0.00 | 995.8 | |
| 20260506132723 | 0 | 90 | 1.7 | 3.5 | 0.00 | 0.01 | 0.00 | 995.9 | |
| 20260506132713 | 0 | 113 | 1.7 | 3.5 | 0.00 | 0.01 | 0.00 | 995.8 | |
| 20260506132703 | 0 | 158 | 1.7 | 3.5 | 0.00 | 0.01 | 0.00 | 995.9 | |
| 20260506132643 | 0 | 180 | 0.9 | 4.3 | 0.00 | 0.01 | 0.00 | 995.8 | |
| 20260506132633 | 0 | 180 | 0.9 | 4.3 | 0.00 | 0.01 | 0.00 | 995.9 | |
| 20260506132623 | 0 | 225 | 0.9 | 4.3 | 0.00 | 0.01 | 0.00 | 995.9 | |
| 20260506132613 | 0 | 203 | 0.9 | 4.3 | 0.00 | 0.01 | 0.00 | 995.9 | |
| 20260506132543 | 0 | 180 | 0.9 | 4.3 | 0.00 | 0.01 | 0.00 | 995.9 | |
| 20260506132533 | 0 | 225 | 0.9 | 4.3 | 0.00 | 0.01 | 0.00 | 995.9 | |
| 20260506132523 | 0 | 270 | 0.9 | 4.3 | 0.00 | 0.01 | 0.00 | 995.9 | |
| 20260506132514 | 0 | 225 | 0.9 | 5.2 | 0.00 | 0.01 | 0.00 | 995.9 | |
| 20260506132504 | 0 | 180 | 1.7 | 5.2 | 0.00 | 0.01 | 0.00 | 995.9 | |
| 20260506132454 | 0 | 180 | 1.7 | 6.1 | 0.00 | 0.01 | 0.00 | 995.9 | |
| 20260506132424 | 0 | 180 | 1.7 | 7.0 | 0.00 | 0.01 | 0.00 | 995.9 | |
| 20260506132414 | 0 | 180 | 0.9 | 7.0 | 0.00 | 0.01 | 0.00 | 995.8 | |
| 20260506132354 | 0 | 90 | 1.7 | 7.0 | 0.00 | 0.01 | 0.00 | 995.9 | |
| 20260506132344 | 0 | 135 | 1.7 | 7.0 | 0.00 | 0.01 | 0.00 | 995.9 | |
| 20260506132324 | 0 | 113 | 1.7 | 7.0 | 0.00 | 0.01 | 0.00 | 995.9 | |
| 20260506132307 | 0 | 135 | 1.7 | 7.0 | 0.00 | 0.01 | 0.00 | 995.9 | |
| 20260506132244 | 0 | 135 | 2.6 | 7.0 | 0.00 | 0.01 | 0.00 | 996.0 | |
| 20260506132234 | 0 | 90 | 2.6 | 7.0 | 0.00 | 0.01 | 0.00 | 996.0 | |
| 20260506132224 | 0 | 90 | 2.6 | 7.0 | 0.00 | 0.01 | 0.00 | 995.9 | |
| 20260506132214 | 0 | 113 | 2.6 | 7.0 | 0.00 | 0.01 | 0.00 | 995.9 | |
| 20260506132144 | 0 | 135 | 3.5 | 7.0 | 0.00 | 0.01 | 0.00 | 995.9 | |
| 20260506132134 | 0 | 135 | 3.5 | 7.0 | 0.00 | 0.01 | 0.00 | 996.0 | |
| 20260506132054 | 0 | 135 | 3.5 | 7.0 | 0.00 | 0.01 | 0.00 | 995.9 | |
| 20260506132044 | 0 | 135 | 3.5 | 7.0 | 0.00 | 0.01 | 0.00 | 996.0 | |
| 20260506132034 | 0 | 135 | 4.3 | 7.0 | 0.00 | 0.01 | 0.00 | 996.0 | |
| 20260506132024 | 0 | 135 | 4.3 | 7.0 | 0.00 | 0.01 | 0.00 | 995.9 | |
| 20260506131945 | 0 | 135 | 4.3 | 7.0 | 0.00 | 0.01 | 0.00 | 996.0 | |
| 20260506131925 | 0 | 180 | 3.5 | 7.0 | 0.00 | 0.01 | 0.00 | 996.0 | |
| 20260506131905 | 0 | 158 | 4.3 | 7.0 | 0.00 | 0.01 | 0.00 | 996.0 | |
| 20260506131845 | 0 | 180 | 5.2 | 7.0 | 0.00 | 0.01 | 0.00 | 996.0 | |
| 20260506131835 | 0 | 180 | 5.2 | 7.0 | 0.00 | 0.01 | 0.00 | 995.9 | |
| 20260506131825 | 0 | 135 | 5.2 | 7.0 | 0.00 | 0.01 | 0.00 | 996.0 | |
| 20260506131815 | 0 | 135 | 5.2 | 7.0 | 0.00 | 0.01 | 0.00 | 995.9 | |
| 20260506131755 | 0 | 180 | 5.2 | 7.0 | 0.00 | 0.01 | 0.00 | 996.0 | |
| 20260506131735 | 0 | 180 | 5.2 | 7.0 | 0.00 | 0.01 | 0.00 | 995.9 | |
| 20260506131715 | 0 | 180 | 4.3 | 7.0 | 0.00 | 0.01 | 0.00 | 995.9 | |
| 20260506131705 | 0 | 135 | 4.3 | 6.1 | 0.00 | 0.01 | 0.00 | 996.0 | |
| 20260506131645 | 0 | 158 | 3.5 | 6.1 | 0.00 | 0.01 | 0.00 | 996.0 | |
| 20260506131635 | 0 | 135 | 3.5 | 6.1 | 0.00 | 0.01 | 0.00 | 996.0 | |
| 20260506131615 | 0 | 180 | 3.5 | 6.1 | 0.00 | 0.01 | 0.00 | 995.9 | |
| 20260506131605 | 0 | 135 | 3.5 | 4.3 | 0.00 | 0.01 | 0.00 | 995.9 | |
| 20260506131535 | 0 | 158 | 3.5 | 4.3 | 0.00 | 0.01 | 0.00 | 996.0 | |
| 20260506131525 | 0 | 135 | 3.5 | 4.3 | 0.00 | 0.01 | 0.00 | 996.0 | |
| 20260506131515 | 0 | 135 | 2.6 | 4.3 | 0.00 | 0.01 | 0.00 | 996.0 | |
| 20260506131446 | 0 | 135 | 1.7 | 4.3 | 0.00 | 0.01 | 0.00 | 996.0 | |
| 20260506131436 | 0 | 158 | 1.7 | 4.3 | 0.00 | 0.01 | 0.00 | 996.0 | |
| 20260506131406 | 0 | 113 | 1.7 | 4.3 | 0.00 | 0.01 | 0.00 | 996.0 | |
| 20260506131356 | 0 | 90 | 1.7 | 4.3 | 0.00 | 0.01 | 0.00 | 996.0 | |
| 20260506131346 | 0 | 90 | 0.9 | 4.3 | 0.00 | 0.01 | 0.00 | 996.0 | |
| 20260506131336 | 0 | 135 | 0.9 | 4.3 | 0.00 | 0.01 | 0.00 | 996.0 | |
| 20260506131316 | 0 | 135 | 0.0 | 4.3 | 0.00 | 0.01 | 0.00 | 996.0 | |
| 20260506131306 | 0 | 90 | 0.0 | 4.3 | 0.00 | 0.01 | 0.00 | 996.0 | |
| 20260506131256 | 0 | 180 | 0.0 | 4.3 | 0.00 | 0.01 | 0.00 | 996.0 | |
| 20260506131236 | 0 | 135 | 0.0 | 4.3 | 0.00 | 0.01 | 0.00 | 996.0 | |
| 20260506131226 | 0 | 158 | 0.0 | 4.3 | 0.00 | 0.01 | 0.00 | 996.0 | |
| 20260506131206 | 0 | 90 | 0.0 | 4.3 | 0.00 | 0.01 | 0.00 | 996.0 | |
| 20260506131156 | 0 | 135 | 0.0 | 4.3 | 0.00 | 0.01 | 0.00 | 996.0 | |
| 20260506131146 | 0 | 158 | 0.9 | 4.3 | 0.00 | 0.01 | 0.00 | 996.0 | |
| 20260506131106 | 0 | 135 | 1.7 | 5.2 | 0.00 | 0.01 | 0.00 | 996.0 | |
| 20260506131036 | 0 | 135 | 3.5 | 5.2 | 0.00 | 0.01 | 0.00 | 996.0 | |
| 20260506131026 | 0 | 135 | 2.6 | 5.2 | 0.00 | 0.01 | 0.00 | 996.0 | |
| 20260506131016 | 0 | 158 | 2.6 | 5.2 | 0.00 | 0.01 | 0.00 | 996.0 | |
| 20260506130956 | 0 | 135 | 1.7 | 5.2 | 0.00 | 0.01 | 0.00 | 996.0 | |
| 20260506130946 | 0 | 135 | 0.9 | 5.2 | 0.00 | 0.01 | 0.00 | 996.0 | |
| 20260506130937 | 0 | 158 | 0.0 | 5.2 | 0.00 | 0.01 | 0.00 | 996.0 | |
| 20260506130927 | 0 | 158 | 0.0 | 5.2 | 0.00 | 0.01 | 0.00 | 996.1 | |
| 20260506130917 | 0 | 180 | 0.0 | 5.2 | 0.00 | 0.01 | 0.00 | 996.1 | |
| 20260506130907 | 0 | 135 | 0.9 | 5.2 | 0.00 | 0.01 | 0.00 | 996.0 | |
| 20260506130857 | 0 | 135 | 1.7 | 5.2 | 0.00 | 0.01 | 0.00 | 996.0 | |
| 20260506130827 | 0 | 135 | 1.7 | 5.2 | 0.00 | 0.01 | 0.00 | 996.1 | |
| 20260506130807 | 0 | 90 | 1.7 | 5.2 | 0.00 | 0.01 | 0.00 | 996.1 | |
| 20260506130757 | 0 | 135 | 1.7 | 5.2 | 0.00 | 0.01 | 0.00 | 996.0 | |
| 20260506130747 | 0 | 135 | 1.7 | 5.2 | 0.00 | 0.01 | 0.00 | 996.1 | |
| 20260506130737 | 0 | 180 | 2.6 | 5.2 | 0.00 | 0.01 | 0.00 | 996.0 | |
| 20260506130727 | 0 | 180 | 3.5 | 5.2 | 0.00 | 0.01 | 0.00 | 996.1 | |
| 20260506130717 | 0 | 158 | 3.5 | 5.2 | 0.00 | 0.01 | 0.00 | 996.1 | |
| 20260506130707 | 0 | 158 | 3.5 | 5.2 | 0.00 | 0.01 | 0.00 | 996.0 | |
| 20260506130657 | 0 | 135 | 3.5 | 5.2 | 0.00 | 0.01 | 0.00 | 996.0 | |
| 20260506130647 | 0 | 135 | 2.6 | 5.2 | 0.00 | 0.01 | 0.00 | 996.1 | |
| 20260506130637 | 0 | 135 | 2.6 | 4.3 | 0.00 | 0.01 | 0.00 | 996.0 | |
| 20260506130627 | 0 | 135 | 1.7 | 4.3 | 0.00 | 0.01 | 0.00 | 996.1 | |
| 20260506130617 | 0 | 90 | 1.7 | 4.3 | 0.00 | 0.01 | 0.00 | 996.1 | |
| 20260506130547 | 0 | 135 | 1.7 | 4.3 | 0.00 | 0.01 | 0.00 | 996.1 | |
| 20260506130537 | 0 | 90 | 1.7 | 4.3 | 0.00 | 0.01 | 0.00 | 996.1 | |
| 20260506130527 | 0 | 68 | 1.7 | 3.5 | 0.00 | 0.01 | 0.00 | 996.1 | |
| 20260506130457 | 0 | 90 | 1.7 | 3.5 | 0.00 | 0.01 | 0.00 | 996.1 | |
| 20260506130447 | 0 | 135 | 1.7 | 3.5 | 0.00 | 0.01 | 0.00 | 996.1 | |
| 20260506130437 | 0 | 180 | 1.7 | 3.5 | 0.00 | 0.01 | 0.00 | 996.1 | |
| 20260506130418 | 0 | 225 | 1.7 | 3.5 | 0.00 | 0.01 | 0.00 | 996.1 | |
| 20260506130358 | 0 | 180 | 1.7 | 3.5 | 0.00 | 0.01 | 0.00 | 996.1 | |
| 20260506130338 | 0 | 135 | 1.7 | 4.3 | 0.00 | 0.01 | 0.00 | 996.1 | |
| 20260506130328 | 0 | 180 | 0.9 | 4.3 | 0.00 | 0.01 | 0.00 | 996.1 | |
| 20260506130318 | 0 | 135 | 0.9 | 5.2 | 0.00 | 0.01 | 0.00 | 996.1 | |
| 20260506130258 | 0 | 90 | 0.9 | 5.2 | 0.00 | 0.01 | 0.00 | 996.1 | |
| 20260506130248 | 0 | 90 | 1.7 | 5.2 | 0.00 | 0.01 | 0.00 | 996.1 | |
| 20260506130218 | 0 | 90 | 0.9 | 5.2 | 0.00 | 0.01 | 0.00 | 996.1 | |
| 20260506130208 | 0 | 90 | 0.0 | 5.2 | 0.00 | 0.01 | 0.00 | 996.1 | |
| 20260506130158 | 0 | 113 | 0.0 | 5.2 | 0.00 | 0.01 | 0.00 | 996.1 | |
| 20260506130128 | 0 | 113 | 0.0 | 5.2 | 0.00 | 0.01 | 0.00 | 996.2 | |
| 20260506130118 | 0 | 90 | 0.0 | 5.2 | 0.00 | 0.01 | 0.00 | 996.2 | |
| 20260506130058 | 0 | 135 | 0.9 | 5.2 | 0.00 | 0.01 | 0.00 | 996.2 | |
| 20260506130048 | 0 | 90 | 0.9 | 5.2 | 0.00 | 0.01 | 0.00 | 996.2 | |
| 20260506130038 | 0 | 135 | 1.7 | 5.2 | 0.00 | 0.01 | 0.00 | 996.2 | |
| 20260506130028 | 0 | 180 | 1.7 | 5.2 | 0.00 | 0.01 | 0.00 | 996.2 | |
| 20260506125958 | 0 | 135 | 1.7 | 5.2 | 0.00 | 0.01 | 0.00 | 996.2 | |
| 20260506125938 | 0 | 135 | 2.6 | 5.2 | 0.00 | 0.01 | 0.00 | 996.2 | |
| 20260506125928 | 0 | 158 | 2.6 | 5.2 | 0.00 | 0.01 | 0.00 | 996.2 | |
| 20260506125909 | 0 | 135 | 3.5 | 5.2 | 0.00 | 0.01 | 0.00 | 996.2 | |
| 20260506125829 | 0 | 135 | 3.5 | 5.2 | 0.00 | 0.01 | 0.00 | 996.2 | |
| 20260506125809 | 0 | 180 | 2.6 | 5.2 | 0.00 | 0.01 | 0.00 | 996.2 | |
| 20260506125749 | 0 | 158 | 3.5 | 5.2 | 0.00 | 0.01 | 0.00 | 996.2 | |
| 20260506125739 | 0 | 180 | 3.5 | 5.2 | 0.00 | 0.01 | 0.00 | 996.2 | |
| 20260506125719 | 0 | 135 | 3.5 | 5.2 | 0.00 | 0.01 | 0.00 | 996.2 | |
| 20260506125709 | 0 | 135 | 3.5 | 6.1 | 0.00 | 0.01 | 0.00 | 996.2 | |
| 20260506125659 | 0 | 135 | 3.5 | 7.0 | 0.00 | 0.01 | 0.00 | 996.3 | |
| 20260506125649 | 0 | 135 | 2.6 | 7.0 | 0.00 | 0.01 | 0.00 | 996.3 | |
| 20260506125639 | 0 | 135 | 1.7 | 7.0 | 0.00 | 0.01 | 0.00 | 996.3 | |
| 20260506125619 | 0 | 135 | 1.7 | 7.0 | 0.00 | 0.01 | 0.00 | 996.2 | |
| 20260506125609 | 0 | 90 | 1.7 | 7.0 | 0.00 | 0.01 | 0.00 | 996.3 | |
| 20260506125559 | 0 | 135 | 1.7 | 7.0 | 0.00 | 0.01 | 0.00 | 996.3 | |
| 20260506125549 | 0 | 158 | 1.7 | 7.0 | 0.00 | 0.01 | 0.00 | 996.3 | |
| 20260506125539 | 0 | 45 | 1.7 | 7.0 | 0.00 | 0.01 | 0.00 | 996.3 | |
| 20260506125529 | 0 | 90 | 2.6 | 7.0 | 0.00 | 0.01 | 0.00 | 996.3 | |
| 20260506125519 | 0 | 90 | 2.6 | 7.0 | 0.00 | 0.01 | 0.00 | 996.2 | |
| 20260506125509 | 0 | 45 | 2.6 | 7.0 | 0.00 | 0.01 | 0.00 | 996.3 | |
| 20260506125439 | 0 | 90 | 2.6 | 7.0 | 0.00 | 0.01 | 0.00 | 996.3 | |
| 20260506125429 | 0 | 135 | 2.6 | 7.0 | 0.00 | 0.01 | 0.00 | 996.3 | |
| 20260506125350 | 0 | 135 | 2.6 | 7.0 | 0.00 | 0.01 | 0.00 | 996.3 | |
| 20260506125330 | 0 | 113 | 3.5 | 7.0 | 0.00 | 0.01 | 0.00 | 996.3 | |
| 20260506125310 | 0 | 135 | 3.5 | 7.0 | 0.00 | 0.01 | 0.00 | 996.3 | |
| 20260506125300 | 0 | 135 | 4.3 | 7.0 | 0.00 | 0.01 | 0.00 | 996.3 | |
| 20260506125230 | 0 | 135 | 5.2 | 7.0 | 0.00 | 0.01 | 0.00 | 996.3 | |
| 20260506125220 | 0 | 135 | 4.3 | 7.0 | 0.00 | 0.01 | 0.00 | 996.2 | |
| 20260506125210 | 0 | 135 | 3.5 | 7.0 | 0.00 | 0.01 | 0.00 | 996.3 | |
| 20260506125200 | 0 | 135 | 3.5 | 7.0 | 0.00 | 0.01 | 0.00 | 996.2 | |
| 20260506125150 | 0 | 90 | 2.6 | 6.1 | 0.00 | 0.01 | 0.00 | 996.3 | |
| 20260506125130 | 0 | 135 | 2.6 | 6.1 | 0.00 | 0.01 | 0.00 | 996.2 | |
| 20260506125120 | 0 | 135 | 2.6 | 6.1 | 0.00 | 0.01 | 0.00 | 996.3 | |
| 20260506125110 | 0 | 135 | 3.5 | 6.1 | 0.00 | 0.01 | 0.00 | 996.2 | |
| 20260506125050 | 0 | 135 | 3.5 | 6.1 | 0.00 | 0.01 | 0.00 | 996.3 | |
| 20260506125040 | 0 | 135 | 2.6 | 6.1 | 0.00 | 0.01 | 0.00 | 996.3 | |
| 20260506125030 | 0 | 135 | 2.6 | 6.1 | 0.00 | 0.01 | 0.00 | 996.2 | |
| 20260506125020 | 0 | 135 | 1.7 | 7.0 | 0.00 | 0.01 | 0.00 | 996.3 | |
| 20260506125000 | 0 | 135 | 1.7 | 7.0 | 0.00 | 0.01 | 0.00 | 996.2 | |
| 20260506124950 | 0 | 90 | 1.7 | 7.0 | 0.00 | 0.01 | 0.00 | 996.2 | |
| 20260506124940 | 0 | 45 | 1.7 | 7.0 | 0.00 | 0.01 | 0.00 | 996.2 | |
| 20260506124930 | 0 | 113 | 1.7 | 7.0 | 0.00 | 0.01 | 0.00 | 996.2 | |
| 20260506124911 | 0 | 90 | 1.7 | 7.0 | 0.00 | 0.01 | 0.00 | 996.2 | |
| 20260506124901 | 0 | 135 | 1.7 | 7.0 | 0.00 | 0.01 | 0.00 | 996.2 | |
| 20260506124851 | 0 | 135 | 2.6 | 7.0 | 0.00 | 0.01 | 0.00 | 996.2 | |
| 20260506124841 | 0 | 113 | 3.5 | 7.0 | 0.00 | 0.01 | 0.00 | 996.2 | |
| 20260506124821 | 0 | 90 | 3.5 | 7.0 | 0.00 | 0.01 | 0.00 | 996.2 | |
| 20260506124801 | 0 | 135 | 3.5 | 7.0 | 0.00 | 0.01 | 0.00 | 996.2 | |
| 20260506124741 | 0 | 135 | 2.6 | 7.0 | 0.00 | 0.01 | 0.00 | 996.2 | |
| 20260506124731 | 0 | 90 | 2.6 | 7.0 | 0.00 | 0.01 | 0.00 | 996.2 | |
| 20260506124721 | 0 | 68 | 2.6 | 7.0 | 0.00 | 0.01 | 0.00 | 996.2 | |
| 20260506124651 | 0 | 135 | 1.7 | 7.0 | 0.00 | 0.01 | 0.00 | 996.2 | |
| 20260506124641 | 0 | 90 | 1.7 | 7.0 | 0.00 | 0.01 | 0.00 | 996.2 | |
| 20260506124631 | 0 | 90 | 2.6 | 7.0 | 0.00 | 0.01 | 0.00 | 996.2 | |
| 20260506124621 | 0 | 45 | 2.6 | 7.0 | 0.00 | 0.01 | 0.00 | 996.2 | |
| 20260506124551 | 0 | 90 | 3.5 | 7.0 | 0.00 | 0.01 | 0.00 | 996.2 | |
| 20260506124541 | 0 | 68 | 4.3 | 7.0 | 0.00 | 0.01 | 0.00 | 996.2 | |
| 20260506124521 | 0 | 90 | 4.3 | 7.0 | 0.00 | 0.01 | 0.00 | 996.2 | |
| 20260506124511 | 0 | 45 | 4.3 | 7.0 | 0.00 | 0.01 | 0.00 | 996.2 | |
| 20260506124501 | 0 | 68 | 5.2 | 7.0 | 0.00 | 0.01 | 0.00 | 996.2 | |
| 20260506124451 | 0 | 45 | 5.2 | 7.0 | 0.00 | 0.01 | 0.00 | 996.2 | |
| 20260506124431 | 0 | 45 | 4.3 | 7.0 | 0.00 | 0.01 | 0.00 | 996.2 | |
| 20260506124411 | 0 | 45 | 3.5 | 7.0 | 0.00 | 0.01 | 0.00 | 996.2 | |
| 20260506124401 | 0 | 45 | 2.6 | 7.0 | 0.00 | 0.01 | 0.00 | 996.2 | |
| 20260506124352 | 0 | 0 | 2.6 | 5.2 | 0.00 | 0.01 | 0.00 | 996.2 | |
| 20260506124332 | 0 | 45 | 2.6 | 5.2 | 0.00 | 0.01 | 0.00 | 996.2 | |
| 20260506124302 | 0 | 90 | 3.5 | 5.2 | 0.00 | 0.01 | 0.00 | 996.2 | |
| 20260506124252 | 0 | 45 | 3.5 | 5.2 | 0.00 | 0.01 | 0.00 | 996.2 | |
| 20260506124242 | 0 | 90 | 2.6 | 5.2 | 0.00 | 0.01 | 0.00 | 996.3 | |
| 20260506124232 | 0 | 45 | 1.7 | 5.2 | 0.00 | 0.01 | 0.00 | 996.2 | |
| 20260506124222 | 0 | 45 | 1.7 | 6.1 | 0.00 | 0.01 | 0.00 | 996.3 | |
| 20260506124212 | 0 | 45 | 0.9 | 6.1 | 0.00 | 0.01 | 0.00 | 996.3 | |
| 20260506124202 | 0 | 0 | 0.9 | 6.1 | 0.00 | 0.01 | 0.00 | 996.3 | |
| 20260506124142 | 0 | 135 | 0.9 | 6.1 | 0.00 | 0.01 | 0.00 | 996.3 | |
| 20260506124132 | 0 | 45 | 0.9 | 6.1 | 0.00 | 0.01 | 0.00 | 996.3 | |
| 20260506124122 | 0 | 180 | 0.9 | 6.1 | 0.00 | 0.01 | 0.00 | 996.3 | |
| 20260506124102 | 0 | 90 | 1.7 | 6.1 | 0.00 | 0.01 | 0.00 | 996.3 | |
| 20260506124052 | 0 | 68 | 1.7 | 6.1 | 0.00 | 0.01 | 0.00 | 996.3 | |
| 20260506124022 | 0 | 90 | 1.7 | 6.1 | 0.00 | 0.01 | 0.00 | 996.3 | |
| 20260506124002 | 0 | 45 | 1.7 | 6.1 | 0.00 | 0.01 | 0.00 | 996.3 | |
| 20260506123952 | 0 | 0 | 1.7 | 6.1 | 0.00 | 0.01 | 0.00 | 996.4 | |
| 20260506123922 | 0 | 0 | 1.7 | 6.1 | 0.00 | 0.01 | 0.00 | 996.3 | |
| 20260506123912 | 0 | 45 | 1.7 | 6.1 | 0.00 | 0.01 | 0.00 | 996.3 | |
| 20260506123902 | 0 | 0 | 2.6 | 6.1 | 0.00 | 0.01 | 0.00 | 996.3 | |
| 20260506123853 | 0 | 45 | 2.6 | 6.1 | 0.00 | 0.01 | 0.00 | 996.3 | |
| 20260506123843 | 0 | 45 | 3.5 | 6.1 | 0.00 | 0.01 | 0.00 | 996.3 | |
| 20260506123803 | 0 | 45 | 3.5 | 6.1 | 0.00 | 0.01 | 0.00 | 996.3 | |
| 20260506123733 | 0 | 90 | 3.5 | 6.1 | 0.00 | 0.01 | 0.00 | 996.3 | |
| 20260506123723 | 0 | 90 | 3.5 | 5.2 | 0.00 | 0.01 | 0.00 | 996.3 | |
| 20260506123713 | 0 | 90 | 2.6 | 5.2 | 0.00 | 0.01 | 0.00 | 996.3 | |
| 20260506123643 | 0 | 45 | 1.7 | 4.3 | 0.00 | 0.01 | 0.00 | 996.4 | |
| 20260506123633 | 0 | 0 | 1.7 | 4.3 | 0.00 | 0.01 | 0.00 | 996.3 | |
| 20260506123623 | 0 | 0 | 1.7 | 4.3 | 0.00 | 0.01 | 0.00 | 996.4 | |
| 20260506123553 | 0 | 45 | 1.7 | 4.3 | 0.00 | 0.01 | 0.00 | 996.3 | |
| 20260506123543 | 0 | 68 | 1.7 | 4.3 | 0.00 | 0.01 | 0.00 | 996.3 | |
| 20260506123533 | 0 | 45 | 1.7 | 4.3 | 0.00 | 0.01 | 0.00 | 996.4 | |
| 20260506123523 | 0 | 23 | 2.6 | 4.3 | 0.00 | 0.01 | 0.00 | 996.4 | |
| 20260506123513 | 0 | 45 | 2.6 | 4.3 | 0.00 | 0.01 | 0.00 | 996.3 | |
| 20260506123503 | 0 | 90 | 1.7 | 4.3 | 0.00 | 0.01 | 0.00 | 996.3 | |
| 20260506123433 | 0 | 45 | 1.7 | 4.3 | 0.00 | 0.01 | 0.00 | 996.3 | |
| 20260506123423 | 0 | 45 | 0.9 | 4.3 | 0.00 | 0.01 | 0.00 | 996.3 | |
| 20260506123413 | 0 | 23 | 0.9 | 4.3 | 0.00 | 0.01 | 0.00 | 996.4 | |
| 20260506123404 | 0 | 90 | 0.9 | 4.3 | 0.00 | 0.01 | 0.00 | 996.4 | |
| 20260506123354 | 0 | 113 | 0.0 | 4.3 | 0.00 | 0.01 | 0.00 | 996.3 | |
| 20260506123344 | 0 | 0 | 0.0 | 4.3 | 0.00 | 0.01 | 0.00 | 996.3 | |
| 20260506123324 | 0 | 45 | 0.0 | 4.3 | 0.00 | 0.01 | 0.00 | 996.4 | |
| 20260506123304 | 0 | 90 | 0.9 | 4.3 | 0.00 | 0.01 | 0.00 | 996.4 | |
| 20260506123254 | 0 | 90 | 1.7 | 4.3 | 0.00 | 0.01 | 0.00 | 996.4 | |
| 20260506123224 | 0 | 45 | 1.7 | 4.3 | 0.00 | 0.01 | 0.00 | 996.4 | |
| 20260506123214 | 0 | 45 | 2.6 | 4.3 | 0.00 | 0.01 | 0.00 | 996.3 | |
| 20260506123204 | 0 | 90 | 1.7 | 4.3 | 0.00 | 0.01 | 0.00 | 996.4 | |
| 20260506123144 | 0 | 45 | 1.7 | 4.3 | 0.00 | 0.01 | 0.00 | 996.4 | |
| 20260506123134 | 0 | 68 | 1.7 | 4.3 | 0.00 | 0.01 | 0.00 | 996.4 | |
| 20260506123124 | 0 | 90 | 1.7 | 4.3 | 0.00 | 0.01 | 0.00 | 996.4 | |
| 20260506123104 | 0 | 90 | 0.9 | 3.5 | 0.00 | 0.01 | 0.00 | 996.4 | |
| 20260506123024 | 0 | 90 | 0.9 | 3.5 | 0.00 | 0.01 | 0.00 | 996.4 | |
| 20260506123014 | 0 | 68 | 0.9 | 3.5 | 0.00 | 0.01 | 0.00 | 996.4 | |
| 20260506122954 | 0 | 90 | 1.7 | 3.5 | 0.00 | 0.01 | 0.00 | 996.4 | |
| 20260506122914 | 0 | 90 | 1.7 | 3.5 | 0.00 | 0.01 | 0.00 | 996.4 | |
| 20260506122905 | 0 | 45 | 1.7 | 3.5 | 0.00 | 0.01 | 0.00 | 996.4 | |
| 20260506122825 | 0 | 45 | 1.7 | 3.5 | 0.00 | 0.01 | 0.00 | 996.4 | |
| 20260506122805 | 0 | 90 | 1.7 | 3.5 | 0.00 | 0.01 | 0.00 | 996.4 | |
| 20260506122755 | 0 | 45 | 1.7 | 3.5 | 0.00 | 0.01 | 0.00 | 996.5 | |
| 20260506122745 | 0 | 158 | 1.7 | 3.5 | 0.00 | 0.01 | 0.00 | 996.5 | |
| 20260506122725 | 0 | 90 | 1.7 | 3.5 | 0.00 | 0.01 | 0.00 | 996.4 | |
| 20260506122715 | 0 | 135 | 1.7 | 3.5 | 0.00 | 0.01 | 0.00 | 996.4 | |
| 20260506122705 | 0 | 135 | 1.7 | 3.5 | 0.00 | 0.01 | 0.00 | 996.5 | |
| 20260506122655 | 0 | 113 | 1.7 | 3.5 | 0.00 | 0.01 | 0.00 | 996.4 | |
| 20260506122645 | 0 | 90 | 1.7 | 3.5 | 0.00 | 0.01 | 0.00 | 996.4 | |
| 20260506122625 | 0 | 135 | 1.7 | 3.5 | 0.00 | 0.01 | 0.00 | 996.5 | |
| 20260506122615 | 0 | 135 | 0.9 | 3.5 | 0.00 | 0.01 | 0.00 | 996.4 | |
| 20260506122605 | 0 | 135 | 0.9 | 3.5 | 0.00 | 0.01 | 0.00 | 996.5 | |
| 20260506122545 | 0 | 135 | 0.0 | 3.5 | 0.00 | 0.01 | 0.00 | 996.5 | |
| 20260506122535 | 0 | 135 | 0.0 | 3.5 | 0.00 | 0.01 | 0.00 | 996.4 | |
| 20260506122515 | 0 | 90 | 0.0 | 3.5 | 0.00 | 0.01 | 0.00 | 996.4 | |
| 20260506122505 | 0 | 90 | 0.0 | 3.5 | 0.00 | 0.01 | 0.00 | 996.5 | |
| 20260506122455 | 0 | 135 | 0.9 | 3.5 | 0.00 | 0.01 | 0.00 | 996.5 | |
| 20260506122445 | 0 | 135 | 1.7 | 3.5 | 0.00 | 0.01 | 0.00 | 996.5 | |
| 20260506122426 | 0 | 90 | 1.7 | 3.5 | 0.00 | 0.01 | 0.00 | 996.5 | |
| 20260506122416 | 0 | 135 | 1.7 | 3.5 | 0.00 | 0.01 | 0.00 | 996.4 | |
| 20260506122406 | 0 | 135 | 1.7 | 3.5 | 0.00 | 0.01 | 0.00 | 996.5 | |
| 20260506122346 | 0 | 180 | 1.7 | 3.5 | 0.00 | 0.01 | 0.00 | 996.4 | |
| 20260506122326 | 0 | 135 | 1.7 | 3.5 | 0.00 | 0.01 | 0.00 | 996.5 | |
| 20260506122306 | 0 | 90 | 0.9 | 3.5 | 0.00 | 0.01 | 0.00 | 996.5 | |
| 20260506122246 | 0 | 180 | 0.9 | 3.5 | 0.00 | 0.01 | 0.00 | 996.5 | |
| 20260506122216 | 0 | 135 | 0.9 | 3.5 | 0.00 | 0.01 | 0.00 | 996.5 | |
| 20260506122206 | 0 | 113 | 0.9 | 3.5 | 0.00 | 0.01 | 0.00 | 996.5 | |
| 20260506122156 | 0 | 45 | 0.9 | 3.5 | 0.00 | 0.01 | 0.00 | 996.5 | |
| 20260506122136 | 0 | 135 | 0.9 | 3.5 | 0.00 | 0.01 | 0.00 | 996.5 | |
| 20260506122126 | 0 | 90 | 0.9 | 3.5 | 0.00 | 0.01 | 0.00 | 996.5 | |
| 20260506122106 | 0 | 90 | 1.7 | 3.5 | 0.00 | 0.01 | 0.00 | 996.5 | |
| 20260506122036 | 0 | 135 | 0.9 | 3.5 | 0.00 | 0.01 | 0.00 | 996.5 | |
| 20260506122006 | 0 | 90 | 0.9 | 3.5 | 0.00 | 0.01 | 0.00 | 996.5 | |
| 20260506121956 | 0 | 90 | 1.7 | 3.5 | 0.00 | 0.01 | 0.00 | 996.5 | |
| 20260506121947 | 0 | 68 | 1.7 | 4.3 | 0.00 | 0.01 | 0.00 | 996.5 | |
| 20260506121937 | 0 | 45 | 1.7 | 6.1 | 0.00 | 0.01 | 0.00 | 996.5 | |
| 20260506121907 | 0 | 90 | 1.7 | 6.1 | 0.00 | 0.01 | 0.00 | 996.5 | |
| 20260506121857 | 0 | 45 | 1.7 | 6.1 | 0.00 | 0.01 | 0.00 | 996.5 | |
| 20260506121847 | 0 | 68 | 1.7 | 6.1 | 0.00 | 0.01 | 0.00 | 996.5 | |
| 20260506121837 | 0 | 0 | 1.7 | 7.0 | 0.00 | 0.01 | 0.00 | 996.5 | |
| 20260506121817 | 0 | 45 | 1.7 | 7.0 | 0.00 | 0.01 | 0.00 | 996.5 | |
| 20260506121757 | 0 | 0 | 1.7 | 7.0 | 0.00 | 0.01 | 0.00 | 996.6 | |
| 20260506121747 | 0 | 0 | 1.7 | 7.0 | 0.00 | 0.01 | 0.00 | 996.5 | |
| 20260506121737 | 0 | 68 | 1.7 | 7.0 | 0.00 | 0.01 | 0.00 | 996.6 | |
| 20260506121727 | 0 | 45 | 1.7 | 7.0 | 0.00 | 0.01 | 0.00 | 996.6 | |
| 20260506121717 | 0 | 68 | 1.7 | 7.0 | 0.00 | 0.01 | 0.00 | 996.5 | |
| 20260506121657 | 0 | 45 | 1.7 | 7.0 | 0.00 | 0.01 | 0.00 | 996.5 | |
| 20260506121647 | 0 | 45 | 1.7 | 7.0 | 0.00 | 0.01 | 0.00 | 996.6 | |
| 20260506121637 | 0 | 68 | 1.7 | 7.0 | 0.00 | 0.01 | 0.00 | 996.6 | |
| 20260506121627 | 0 | 135 | 1.7 | 7.0 | 0.00 | 0.01 | 0.00 | 996.6 | |
| 20260506121607 | 0 | 90 | 1.7 | 7.0 | 0.00 | 0.01 | 0.00 | 996.5 | |
| 20260506121557 | 0 | 113 | 1.7 | 7.0 | 0.00 | 0.01 | 0.00 | 996.6 | |
| 20260506121547 | 0 | 90 | 1.7 | 7.0 | 0.00 | 0.01 | 0.00 | 996.6 | |
| 20260506121537 | 0 | 45 | 2.6 | 7.0 | 0.00 | 0.01 | 0.00 | 996.6 | |
| 20260506121527 | 0 | 90 | 2.6 | 7.0 | 0.00 | 0.01 | 0.00 | 996.6 | |
| 20260506121507 | 0 | 45 | 3.5 | 7.0 | 0.00 | 0.01 | 0.00 | 996.5 | |
| 20260506121437 | 0 | 45 | 3.5 | 7.0 | 0.00 | 0.01 | 0.00 | 996.6 | |
| 20260506121418 | 0 | 45 | 3.5 | 7.0 | 0.00 | 0.01 | 0.00 | 996.5 | |
| 20260506121408 | 0 | 90 | 3.5 | 7.0 | 0.00 | 0.01 | 0.00 | 996.5 | |
| 20260506121338 | 0 | 45 | 3.5 | 7.0 | 0.00 | 0.01 | 0.00 | 996.5 | |
| 20260506121328 | 0 | 45 | 3.5 | 6.1 | 0.00 | 0.01 | 0.00 | 996.6 | |
| 20260506121308 | 0 | 45 | 3.5 | 7.0 | 0.00 | 0.01 | 0.00 | 996.6 | |
| 20260506121248 | 0 | 45 | 3.5 | 7.0 | 0.00 | 0.01 | 0.00 | 996.5 | |
| 20260506121238 | 0 | 45 | 2.6 | 7.0 | 0.00 | 0.01 | 0.00 | 996.5 | |
| 20260506121228 | 0 | 0 | 3.5 | 7.0 | 0.00 | 0.01 | 0.00 | 996.6 | |
| 20260506121218 | 0 | 68 | 3.5 | 7.0 | 0.00 | 0.01 | 0.00 | 996.6 | |
| 20260506121158 | 0 | 45 | 3.5 | 7.0 | 0.00 | 0.01 | 0.00 | 996.6 | |
| 20260506121138 | 0 | 45 | 2.6 | 7.0 | 0.00 | 0.01 | 0.00 | 996.6 | |
| 20260506121128 | 0 | 45 | 1.7 | 7.0 | 0.00 | 0.01 | 0.00 | 996.6 | |
| 20260506121108 | 0 | 23 | 1.7 | 7.0 | 0.00 | 0.01 | 0.00 | 996.6 | |
| 20260506121048 | 0 | 45 | 1.7 | 7.0 | 0.00 | 0.01 | 0.00 | 996.6 | |
| 20260506121038 | 0 | 90 | 1.7 | 7.0 | 0.00 | 0.01 | 0.00 | 996.6 | |
| 20260506121028 | 0 | 45 | 2.6 | 7.0 | 0.00 | 0.01 | 0.00 | 996.6 | |
| 20260506121018 | 0 | 45 | 3.5 | 7.0 | 0.00 | 0.01 | 0.00 | 996.6 | |
| 20260506121008 | 0 | 45 | 3.5 | 7.0 | 0.00 | 0.01 | 0.00 | 996.7 | |
| 20260506120948 | 0 | 0 | 3.5 | 7.0 | 0.00 | 0.01 | 0.00 | 996.7 | |
| 20260506120938 | 0 | 45 | 3.5 | 7.0 | 0.00 | 0.01 | 0.00 | 996.6 | |
| 20260506120929 | 0 | 0 | 3.5 | 7.0 | 0.00 | 0.01 | 0.00 | 996.6 | |
| 20260506120919 | 0 | 45 | 4.3 | 7.0 | 0.00 | 0.01 | 0.00 | 996.6 | |
| 20260506120849 | 0 | 90 | 3.5 | 7.0 | 0.00 | 0.01 | 0.00 | 996.6 | |
| 20260506120819 | 0 | 45 | 3.5 | 7.0 | 0.00 | 0.01 | 0.00 | 996.6 | |
| 20260506120739 | 0 | 45 | 3.5 | 7.0 | 0.00 | 0.01 | 0.00 | 996.6 | |
| 20260506120659 | 0 | 45 | 4.3 | 7.0 | 0.00 | 0.01 | 0.00 | 996.6 | |
| 20260506120649 | 0 | 45 | 4.3 | 7.0 | 0.00 | 0.01 | 0.00 | 996.7 | |
| 20260506120639 | 0 | 45 | 5.2 | 7.0 | 0.00 | 0.01 | 0.00 | 996.6 | |
| 20260506120619 | 0 | 45 | 5.2 | 7.0 | 0.00 | 0.01 | 0.00 | 996.7 | |
| 20260506120559 | 0 | 45 | 5.2 | 7.0 | 0.00 | 0.01 | 0.00 | 996.6 | |
| 20260506120549 | 0 | 90 | 3.5 | 7.0 | 0.00 | 0.01 | 0.00 | 996.6 | |
| 20260506120539 | 0 | 45 | 3.5 | 7.0 | 0.00 | 0.01 | 0.00 | 996.6 | |
| 20260506120529 | 0 | 90 | 2.6 | 7.0 | 0.00 | 0.01 | 0.00 | 996.6 | |
| 20260506120519 | 0 | 45 | 1.7 | 6.1 | 0.00 | 0.01 | 0.00 | 996.6 | |
| 20260506120509 | 0 | 90 | 1.7 | 6.1 | 0.00 | 0.01 | 0.00 | 996.6 | |
| 20260506120449 | 0 | 90 | 1.7 | 4.3 | 0.00 | 0.01 | 0.00 | 996.6 | |
| 20260506120429 | 0 | 45 | 2.6 | 4.3 | 0.00 | 0.01 | 0.00 | 996.6 | |
| 20260506120420 | 0 | 45 | 1.7 | 4.3 | 0.00 | 0.01 | 0.00 | 996.6 | |
| 20260506120340 | 0 | 90 | 1.7 | 4.3 | 0.00 | 0.01 | 0.00 | 996.6 | |
| 20260506120330 | 0 | 0 | 2.6 | 4.3 | 0.00 | 0.01 | 0.00 | 996.6 | |
| 20260506120250 | 0 | 45 | 2.6 | 4.3 | 0.00 | 0.01 | 0.00 | 996.6 | |
| 20260506120240 | 0 | 90 | 2.6 | 4.3 | 0.00 | 0.01 | 0.00 | 996.6 | |
| 20260506120220 | 0 | 23 | 2.6 | 4.3 | 0.00 | 0.01 | 0.00 | 996.6 | |
| 20260506120210 | 0 | 45 | 2.6 | 4.3 | 0.00 | 0.01 | 0.00 | 996.6 | |
| 20260506120200 | 0 | 23 | 1.7 | 4.3 | 0.00 | 0.01 | 0.00 | 996.6 | |
| 20260506120140 | 0 | 45 | 1.7 | 4.3 | 0.00 | 0.01 | 0.00 | 996.6 | |
| 20260506120130 | 0 | 45 | 0.9 | 4.3 | 0.00 | 0.01 | 0.00 | 996.6 | |
| 20260506120120 | 0 | 0 | 0.9 | 4.3 | 0.00 | 0.01 | 0.00 | 996.6 | |
| 20260506120100 | 0 | 0 | 0.0 | 6.1 | 0.00 | 0.01 | 0.00 | 996.6 | |
| 20260506120040 | 0 | 45 | 0.0 | 6.1 | 0.00 | 0.01 | 0.00 | 996.6 | |
| 20260506120030 | 0 | 270 | 0.0 | 6.1 | 0.00 | 0.01 | 0.00 | 996.6 | |
| 20260506120020 | 0 | 315 | 0.0 | 6.1 | 0.00 | 0.01 | 0.00 | 996.6 | |
| 20260506115950 | 0 | 0 | 0.0 | 6.1 | 0.00 | 0.01 | 0.00 | 996.6 | |
| 20260506115940 | 0 | 315 | 0.0 | 6.1 | 0.00 | 0.01 | 0.00 | 996.6 | |
| 20260506115921 | 0 | 0 | 0.9 | 6.1 | 0.00 | 0.01 | 0.00 | 996.6 | |
| 20260506115911 | 0 | 45 | 0.9 | 6.1 | 0.00 | 0.01 | 0.00 | 996.6 | |
| 20260506115901 | 0 | 0 | 0.9 | 7.0 | 0.00 | 0.01 | 0.00 | 996.6 | |
| 20260506115831 | 0 | 315 | 0.9 | 7.0 | 0.00 | 0.01 | 0.00 | 996.6 | |
| 20260506115821 | 0 | 0 | 0.9 | 7.0 | 0.00 | 0.01 | 0.00 | 996.6 | |
| 20260506115811 | 0 | 270 | 1.7 | 7.0 | 0.00 | 0.01 | 0.00 | 996.6 | |
| 20260506115801 | 0 | 315 | 1.7 | 7.0 | 0.00 | 0.01 | 0.00 | 996.7 | |
| 20260506115751 | 0 | 23 | 1.7 | 7.0 | 0.00 | 0.01 | 0.00 | 996.6 | |
| 20260506115741 | 0 | 0 | 2.6 | 7.0 | 0.00 | 0.01 | 0.00 | 996.6 | |
| 20260506115731 | 0 | 315 | 2.6 | 8.7 | 0.00 | 0.01 | 0.00 | 996.7 | |
| 20260506115721 | 0 | 45 | 3.5 | 8.7 | 0.00 | 0.01 | 0.00 | 996.7 | |
| 20260506115711 | 0 | 45 | 3.5 | 8.7 | 0.00 | 0.01 | 0.00 | 996.6 | |
| 20260506115701 | 0 | 23 | 3.5 | 8.7 | 0.00 | 0.01 | 0.00 | 996.7 | |
| 20260506115651 | 0 | 45 | 3.5 | 9.6 | 0.00 | 0.01 | 0.00 | 996.6 | |
| 20260506115631 | 0 | 0 | 3.5 | 9.6 | 0.00 | 0.01 | 0.00 | 996.6 | |
| 20260506115621 | 0 | 45 | 3.5 | 9.6 | 0.00 | 0.01 | 0.00 | 996.7 | |
| 20260506115611 | 0 | 45 | 3.5 | 9.6 | 0.00 | 0.01 | 0.00 | 996.6 | |
| 20260506115531 | 0 | 45 | 3.5 | 9.6 | 0.00 | 0.01 | 0.00 | 996.6 | |
| 20260506115501 | 0 | 45 | 4.3 | 9.6 | 0.00 | 0.01 | 0.00 | 996.6 | |
| 20260506115451 | 0 | 68 | 5.2 | 9.6 | 0.00 | 0.01 | 0.00 | 996.6 | |
| 20260506115441 | 0 | 90 | 5.2 | 9.6 | 0.00 | 0.01 | 0.00 | 996.6 | |
| 20260506115431 | 0 | 45 | 5.2 | 9.6 | 0.00 | 0.01 | 0.00 | 996.6 | |
| 20260506115421 | 0 | 0 | 5.2 | 9.6 | 0.00 | 0.01 | 0.00 | 996.6 | |
| 20260506115411 | 0 | 45 | 5.2 | 9.6 | 0.00 | 0.01 | 0.00 | 996.5 | |
| 20260506115342 | 0 | 45 | 5.2 | 9.6 | 0.00 | 0.01 | 0.00 | 996.6 | |
| 20260506115312 | 0 | 45 | 5.2 | 9.6 | 0.00 | 0.01 | 0.00 | 996.5 | |
| 20260506115306 | 0 | 45 | 5.2 | 9.6 | 0.00 | 0.01 | 0.00 | 996.6 | |
| 20260506115232 | 0 | 45 | 6.1 | 9.6 | 0.00 | 0.01 | 0.00 | 996.5 | |
| 20260506115212 | 0 | 45 | 6.1 | 9.6 | 0.00 | 0.01 | 0.00 | 996.6 | |
| 20260506115202 | 0 | 45 | 5.2 | 9.6 | 0.00 | 0.01 | 0.00 | 996.5 | |
| 20260506115152 | 0 | 45 | 5.2 | 7.8 | 0.00 | 0.01 | 0.00 | 996.6 | |
| 20260506115142 | 0 | 68 | 4.3 | 7.8 | 0.00 | 0.01 | 0.00 | 996.6 | |
| 20260506115132 | 0 | 90 | 3.5 | 7.8 | 0.00 | 0.01 | 0.00 | 996.6 | |
| 20260506115122 | 0 | 45 | 3.5 | 7.8 | 0.00 | 0.01 | 0.00 | 996.6 | |
| 20260506115112 | 0 | 90 | 2.6 | 7.0 | 0.00 | 0.01 | 0.00 | 996.6 | |
| 20260506115102 | 0 | 90 | 1.7 | 7.0 | 0.00 | 0.01 | 0.00 | 996.6 | |
| 20260506115052 | 0 | 68 | 1.7 | 7.0 | 0.00 | 0.01 | 0.00 | 996.6 | |
| 20260506115032 | 0 | 45 | 1.7 | 7.0 | 0.00 | 0.01 | 0.00 | 996.6 | |
| 20260506115022 | 0 | 90 | 1.7 | 7.0 | 0.00 | 0.01 | 0.00 | 996.7 | |
| 20260506115012 | 0 | 45 | 2.6 | 7.0 | 0.00 | 0.01 | 0.00 | 996.7 | |
| 20260506115002 | 0 | 45 | 2.6 | 7.0 | 0.00 | 0.01 | 0.00 | 996.6 | |
| 20260506114952 | 0 | 45 | 3.5 | 7.0 | 0.00 | 0.01 | 0.00 | 996.7 | |
| 20260506114942 | 0 | 45 | 3.5 | 7.0 | 0.00 | 0.01 | 0.00 | 996.6 | |
| 20260506114922 | 0 | 90 | 3.5 | 7.0 | 0.00 | 0.01 | 0.00 | 996.7 | |
| 20260506114912 | 0 | 90 | 3.5 | 7.0 | 0.00 | 0.01 | 0.00 | 996.6 | |
| 20260506114842 | 0 | 90 | 3.5 | 7.0 | 0.00 | 0.01 | 0.00 | 996.7 | |
| 20260506114833 | 0 | 45 | 3.5 | 7.0 | 0.00 | 0.01 | 0.00 | 996.7 | |
| 20260506114823 | 0 | 68 | 3.5 | 7.0 | 0.00 | 0.01 | 0.00 | 996.6 | |
| 20260506114813 | 0 | 90 | 3.5 | 7.0 | 0.00 | 0.01 | 0.00 | 996.6 | |
| 20260506114803 | 0 | 90 | 2.6 | 6.1 | 0.00 | 0.01 | 0.00 | 996.7 | |
| 20260506114753 | 0 | 90 | 1.7 | 5.2 | 0.00 | 0.01 | 0.00 | 996.7 | |
| 20260506114743 | 0 | 45 | 1.7 | 5.2 | 0.00 | 0.01 | 0.00 | 996.7 | |
| 20260506114733 | 0 | 90 | 1.7 | 4.3 | 0.00 | 0.01 | 0.00 | 996.7 | |
| 20260506114723 | 0 | 45 | 1.7 | 4.3 | 0.00 | 0.01 | 0.00 | 996.7 | |
| 20260506114703 | 0 | 45 | 2.6 | 4.3 | 0.00 | 0.01 | 0.00 | 996.6 | |
| 20260506114643 | 0 | 68 | 2.6 | 4.3 | 0.00 | 0.01 | 0.00 | 996.7 | |
| 20260506114633 | 0 | 45 | 2.6 | 4.3 | 0.00 | 0.01 | 0.00 | 996.7 | |
| 20260506114553 | 0 | 90 | 2.6 | 4.3 | 0.00 | 0.01 | 0.00 | 996.7 | |
| 20260506114523 | 0 | 45 | 2.6 | 4.3 | 0.00 | 0.01 | 0.00 | 996.7 | |
| 20260506114513 | 0 | 90 | 2.6 | 4.3 | 0.00 | 0.01 | 0.00 | 996.7 | |
| 20260506114503 | 0 | 90 | 2.6 | 5.2 | 0.00 | 0.01 | 0.00 | 996.7 | |
| 20260506114443 | 0 | 90 | 1.7 | 5.2 | 0.00 | 0.01 | 0.00 | 996.7 | |
| 20260506114433 | 0 | 68 | 1.7 | 5.2 | 0.00 | 0.01 | 0.00 | 996.7 | |
| 20260506114413 | 0 | 90 | 1.7 | 7.0 | 0.00 | 0.01 | 0.00 | 996.7 | |
| 20260506114353 | 0 | 135 | 1.7 | 7.0 | 0.00 | 0.01 | 0.00 | 996.7 | |
| 20260506114343 | 0 | 113 | 1.7 | 7.0 | 0.00 | 0.01 | 0.00 | 996.7 | |
| 20260506114333 | 0 | 90 | 1.7 | 7.0 | 0.00 | 0.01 | 0.00 | 996.7 | |
| 20260506114304 | 0 | 68 | 1.7 | 7.0 | 0.00 | 0.01 | 0.00 | 996.7 | |
| 20260506114254 | 0 | 90 | 1.7 | 7.0 | 0.00 | 0.01 | 0.00 | 996.7 | |
| 20260506114244 | 0 | 45 | 1.7 | 7.0 | 0.00 | 0.01 | 0.00 | 996.7 | |
| 20260506114234 | 0 | 90 | 2.6 | 7.0 | 0.00 | 0.01 | 0.00 | 996.7 | |
| 20260506114214 | 0 | 45 | 2.6 | 7.0 | 0.00 | 0.01 | 0.00 | 996.6 | |
| 20260506114204 | 0 | 45 | 2.6 | 7.0 | 0.00 | 0.01 | 0.00 | 996.7 | |
| 20260506114154 | 0 | 45 | 1.7 | 7.0 | 0.00 | 0.01 | 0.00 | 996.7 | |
| 20260506114144 | 0 | 90 | 1.7 | 7.0 | 0.00 | 0.01 | 0.00 | 996.7 | |
| 20260506114134 | 0 | 68 | 1.7 | 7.0 | 0.00 | 0.01 | 0.00 | 996.7 | |
| 20260506114114 | 0 | 45 | 1.7 | 7.0 | 0.00 | 0.01 | 0.00 | 996.7 | |
| 20260506114104 | 0 | 90 | 1.7 | 7.0 | 0.00 | 0.01 | 0.00 | 996.7 | |
| 20260506114054 | 0 | 45 | 2.6 | 7.0 | 0.00 | 0.01 | 0.00 | 996.7 | |
| 20260506114034 | 0 | 0 | 3.5 | 8.7 | 0.00 | 0.01 | 0.00 | 996.7 | |
| 20260506114024 | 0 | 23 | 3.5 | 8.7 | 0.00 | 0.01 | 0.00 | 996.7 | |
| 20260506114014 | 0 | 45 | 3.5 | 8.7 | 0.00 | 0.01 | 0.00 | 996.7 | |
| 20260506114005 | 0 | 45 | 4.3 | 8.7 | 0.00 | 0.01 | 0.00 | 996.7 | |
| 20260506113954 | 0 | 90 | 4.3 | 8.7 | 0.00 | 0.01 | 0.00 | 996.7 | |
| 20260506113944 | 0 | 45 | 5.2 | 8.7 | 0.00 | 0.01 | 0.00 | 996.6 | |
| 20260506113934 | 0 | 90 | 5.2 | 8.7 | 0.00 | 0.01 | 0.00 | 996.7 | |
| 20260506113924 | 0 | 90 | 5.2 | 8.7 | 0.00 | 0.01 | 0.00 | 996.6 | |
| 20260506113844 | 0 | 45 | 5.2 | 8.7 | 0.00 | 0.01 | 0.00 | 996.7 | |
| 20260506113834 | 0 | 45 | 5.2 | 8.7 | 0.00 | 0.01 | 0.00 | 996.6 | |
| 20260506113824 | 0 | 45 | 4.3 | 8.7 | 0.00 | 0.01 | 0.00 | 996.7 | |
| 20260506113814 | 0 | 23 | 4.3 | 8.7 | 0.00 | 0.01 | 0.00 | 996.6 | |
| 20260506113804 | 0 | 0 | 3.5 | 8.7 | 0.00 | 0.01 | 0.00 | 996.7 | |
| 20260506113755 | 0 | 45 | 3.5 | 8.7 | 0.00 | 0.01 | 0.00 | 996.6 | |
| 20260506113745 | 0 | 90 | 2.6 | 8.7 | 0.00 | 0.01 | 0.00 | 996.6 | |
| 20260506113735 | 0 | 45 | 1.7 | 8.7 | 0.00 | 0.01 | 0.00 | 996.7 | |
| 20260506113725 | 0 | 90 | 1.7 | 8.7 | 0.00 | 0.01 | 0.00 | 996.7 | |
| 20260506113715 | 0 | 113 | 1.7 | 8.7 | 0.00 | 0.01 | 0.00 | 996.7 | |
| 20260506113705 | 0 | 135 | 1.7 | 8.7 | 0.00 | 0.01 | 0.00 | 996.7 | |
| 20260506113655 | 0 | 90 | 2.6 | 8.7 | 0.00 | 0.01 | 0.00 | 996.7 | |
| 20260506113645 | 0 | 45 | 3.5 | 8.7 | 0.00 | 0.01 | 0.00 | 996.7 | |
| 20260506113635 | 0 | 90 | 3.5 | 8.7 | 0.00 | 0.01 | 0.00 | 996.7 | |
| 20260506113615 | 0 | 135 | 3.5 | 8.7 | 0.00 | 0.01 | 0.00 | 996.7 | |
| 20260506113555 | 0 | 90 | 3.5 | 8.7 | 0.00 | 0.01 | 0.00 | 996.7 | |
| 20260506113545 | 0 | 0 | 3.5 | 8.7 | 0.00 | 0.01 | 0.00 | 996.7 | |
| 20260506113535 | 0 | 0 | 3.5 | 8.7 | 0.00 | 0.01 | 0.00 | 996.8 | |
| 20260506113525 | 0 | 45 | 4.3 | 8.7 | 0.00 | 0.01 | 0.00 | 996.7 | |
| 20260506113515 | 0 | 90 | 5.2 | 8.7 | 0.00 | 0.01 | 0.00 | 996.8 | |
| 20260506113505 | 0 | 90 | 5.2 | 8.7 | 0.00 | 0.01 | 0.00 | 996.7 | |
| 20260506113445 | 0 | 45 | 5.2 | 8.7 | 0.00 | 0.01 | 0.00 | 996.8 | |
| 20260506113425 | 0 | 90 | 5.2 | 8.7 | 0.00 | 0.01 | 0.00 | 996.7 | |
| 20260506113415 | 0 | 90 | 5.2 | 8.7 | 0.00 | 0.01 | 0.00 | 996.8 | |
| 20260506113405 | 0 | 90 | 4.3 | 8.7 | 0.00 | 0.01 | 0.00 | 996.8 | |
| 20260506113345 | 0 | 90 | 5.2 | 8.7 | 0.00 | 0.01 | 0.00 | 996.7 | |
| 20260506113325 | 0 | 90 | 5.2 | 8.7 | 0.00 | 0.01 | 0.00 | 996.8 | |
| 20260506113315 | 0 | 90 | 4.3 | 8.7 | 0.00 | 0.01 | 0.00 | 996.7 | |
| 20260506113306 | 0 | 68 | 4.3 | 8.7 | 0.00 | 0.01 | 0.00 | 996.7 | |
| 20260506113256 | 0 | 68 | 3.5 | 8.7 | 0.00 | 0.01 | 0.00 | 996.7 | |
| 20260506113246 | 0 | 90 | 3.5 | 8.7 | 0.00 | 0.01 | 0.00 | 996.7 | |
| 20260506113226 | 0 | 68 | 1.7 | 8.7 | 0.00 | 0.01 | 0.00 | 996.8 | |
| 20260506113216 | 0 | 90 | 2.6 | 8.7 | 0.00 | 0.01 | 0.00 | 996.7 | |
| 20260506113206 | 0 | 45 | 3.5 | 8.7 | 0.00 | 0.01 | 0.00 | 996.8 | |
| 20260506113156 | 0 | 45 | 3.5 | 8.7 | 0.00 | 0.01 | 0.00 | 996.7 | |
| 20260506113146 | 0 | 90 | 5.2 | 8.7 | 0.00 | 0.01 | 0.00 | 996.8 | |
| 20260506113136 | 0 | 135 | 5.2 | 9.6 | 0.00 | 0.01 | 0.00 | 996.7 | |
| 20260506113126 | 0 | 68 | 5.2 | 9.6 | 0.00 | 0.01 | 0.00 | 996.7 | |
| 20260506113106 | 0 | 90 | 5.2 | 9.6 | 0.00 | 0.01 | 0.00 | 996.7 | |
| 20260506113056 | 0 | 90 | 4.3 | 9.6 | 0.00 | 0.01 | 0.00 | 996.7 | |
| 20260506113046 | 0 | 90 | 3.5 | 9.6 | 0.00 | 0.01 | 0.00 | 996.7 | |
| 20260506113036 | 0 | 90 | 3.5 | 9.6 | 0.00 | 0.01 | 0.00 | 996.8 | |
| 20260506113016 | 0 | 90 | 4.3 | 9.6 | 0.00 | 0.01 | 0.00 | 996.8 | |
| 20260506112946 | 0 | 90 | 5.2 | 9.6 | 0.00 | 0.01 | 0.00 | 996.7 | |
| 20260506112936 | 0 | 90 | 5.2 | 9.6 | 0.00 | 0.01 | 0.00 | 996.8 | |
| 20260506112926 | 0 | 90 | 3.5 | 9.6 | 0.00 | 0.01 | 0.00 | 996.8 | |
| 20260506112916 | 0 | 68 | 3.5 | 9.6 | 0.00 | 0.01 | 0.00 | 996.7 | |
| 20260506112846 | 0 | 90 | 3.5 | 9.6 | 0.00 | 0.01 | 0.00 | 996.8 | |
| 20260506112807 | 0 | 90 | 3.5 | 9.6 | 0.00 | 0.01 | 0.00 | 996.8 | |
| 20260506112757 | 0 | 90 | 3.5 | 9.6 | 0.00 | 0.01 | 0.00 | 996.9 | |
| 20260506112747 | 0 | 135 | 4.3 | 9.6 | 0.00 | 0.01 | 0.00 | 996.8 | |
| 20260506112727 | 0 | 90 | 5.2 | 9.6 | 0.00 | 0.01 | 0.00 | 996.8 | |
| 20260506112717 | 0 | 45 | 6.1 | 9.6 | 0.00 | 0.01 | 0.00 | 996.8 | |
| 20260506112707 | 0 | 45 | 6.1 | 9.6 | 0.00 | 0.01 | 0.00 | 996.9 | |
| 20260506112637 | 0 | 90 | 6.1 | 9.6 | 0.00 | 0.01 | 0.00 | 996.8 | |
| 20260506112627 | 0 | 45 | 6.1 | 9.6 | 0.00 | 0.01 | 0.00 | 996.8 | |
| 20260506112617 | 0 | 68 | 6.1 | 9.6 | 0.00 | 0.01 | 0.00 | 996.8 | |
| 20260506112607 | 0 | 45 | 5.2 | 9.6 | 0.00 | 0.01 | 0.00 | 996.8 | |
| 20260506112557 | 0 | 45 | 5.2 | 9.6 | 0.00 | 0.01 | 0.00 | 996.9 | |
| 20260506112547 | 0 | 45 | 4.3 | 9.6 | 0.00 | 0.01 | 0.00 | 996.8 | |
| 20260506112537 | 0 | 90 | 3.5 | 8.7 | 0.00 | 0.01 | 0.00 | 996.8 | |
| 20260506112527 | 0 | 90 | 3.5 | 7.0 | 0.00 | 0.01 | 0.00 | 996.9 | |
| 20260506112517 | 0 | 45 | 3.5 | 7.8 | 0.00 | 0.01 | 0.00 | 996.9 | |
| 20260506112507 | 0 | 113 | 3.5 | 7.8 | 0.00 | 0.01 | 0.00 | 996.9 | |
| 20260506112457 | 0 | 90 | 3.5 | 8.7 | 0.00 | 0.01 | 0.00 | 996.9 | |
| 20260506112447 | 0 | 45 | 3.5 | 8.7 | 0.00 | 0.01 | 0.00 | 996.9 | |
| 20260506112437 | 0 | 45 | 4.3 | 8.7 | 0.00 | 0.01 | 0.00 | 996.9 | |
| 20260506112427 | 0 | 45 | 4.3 | 9.6 | 0.00 | 0.01 | 0.00 | 996.9 | |
| 20260506112407 | 0 | 0 | 3.5 | 9.6 | 0.00 | 0.01 | 0.00 | 996.9 | |
| 20260506112347 | 0 | 45 | 3.5 | 9.6 | 0.00 | 0.01 | 0.00 | 997.0 | |
| 20260506112338 | 0 | 45 | 3.5 | 9.6 | 0.00 | 0.01 | 0.00 | 996.9 | |
| 20260506112327 | 0 | 45 | 2.6 | 9.6 | 0.00 | 0.01 | 0.00 | 996.9 | |
| 20260506112308 | 0 | 45 | 2.6 | 9.6 | 0.00 | 0.01 | 0.00 | 997.0 | |
| 20260506112248 | 0 | 23 | 1.7 | 9.6 | 0.00 | 0.01 | 0.00 | 997.0 | |
| 20260506112228 | 0 | 90 | 1.7 | 9.6 | 0.00 | 0.01 | 0.00 | 997.0 | |
| 20260506112208 | 0 | 135 | 1.7 | 9.6 | 0.00 | 0.01 | 0.00 | 997.0 | |
| 20260506112158 | 0 | 113 | 1.7 | 9.6 | 0.00 | 0.01 | 0.00 | 997.0 | |
| 20260506112148 | 0 | 90 | 1.7 | 9.6 | 0.00 | 0.01 | 0.00 | 997.0 | |
| 20260506112138 | 0 | 113 | 2.6 | 9.6 | 0.00 | 0.01 | 0.00 | 997.0 | |
| 20260506112128 | 0 | 90 | 2.6 | 9.6 | 0.00 | 0.01 | 0.00 | 997.0 | |
| 20260506112118 | 0 | 113 | 3.5 | 9.6 | 0.00 | 0.01 | 0.00 | 997.0 | |
| 20260506112108 | 0 | 90 | 3.5 | 9.6 | 0.00 | 0.01 | 0.00 | 997.0 | |
| 20260506112058 | 0 | 90 | 5.2 | 9.6 | 0.00 | 0.01 | 0.00 | 997.0 | |
| 20260506112048 | 0 | 68 | 5.2 | 9.6 | 0.00 | 0.01 | 0.00 | 997.0 | |
| 20260506112028 | 0 | 90 | 7.0 | 9.6 | 0.00 | 0.01 | 0.00 | 997.0 | |
| 20260506112008 | 0 | 90 | 6.1 | 9.6 | 0.00 | 0.01 | 0.00 | 997.0 | |
| 20260506111958 | 0 | 90 | 5.2 | 9.6 | 0.00 | 0.01 | 0.00 | 997.0 | |
| 20260506111938 | 0 | 45 | 5.2 | 9.6 | 0.00 | 0.01 | 0.00 | 997.0 | |
| 20260506111928 | 0 | 90 | 4.3 | 7.0 | 0.00 | 0.01 | 0.00 | 997.0 | |
| 20260506111918 | 0 | 45 | 3.5 | 7.0 | 0.00 | 0.01 | 0.00 | 997.0 | |
| 20260506111908 | 0 | 90 | 3.5 | 7.0 | 0.00 | 0.01 | 0.00 | 997.0 | |
| 20260506111858 | 0 | 45 | 2.6 | 7.0 | 0.00 | 0.01 | 0.00 | 997.0 | |
| 20260506111848 | 0 | 90 | 2.6 | 7.0 | 0.00 | 0.01 | 0.00 | 997.1 | |
| 20260506111838 | 0 | 45 | 1.7 | 7.0 | 0.00 | 0.01 | 0.00 | 997.1 | |
| 20260506111828 | 0 | 90 | 1.7 | 7.0 | 0.00 | 0.01 | 0.00 | 997.1 | |
| 20260506111818 | 0 | 68 | 1.7 | 7.0 | 0.00 | 0.01 | 0.00 | 997.1 | |
| 20260506111809 | 0 | 135 | 1.7 | 7.0 | 0.00 | 0.01 | 0.00 | 997.1 | |
| 20260506111759 | 0 | 90 | 2.6 | 7.0 | 0.00 | 0.01 | 0.00 | 997.1 | |
| 20260506111749 | 0 | 135 | 3.5 | 7.0 | 0.00 | 0.01 | 0.00 | 997.1 | |
| 20260506111739 | 0 | 68 | 3.5 | 7.0 | 0.00 | 0.01 | 0.00 | 997.1 | |
| 20260506111729 | 0 | 113 | 3.5 | 7.0 | 0.00 | 0.01 | 0.00 | 997.0 | |
| 20260506111709 | 0 | 135 | 4.3 | 7.0 | 0.00 | 0.01 | 0.00 | 997.1 | |
| 20260506111659 | 0 | 90 | 4.3 | 7.0 | 0.00 | 0.01 | 0.00 | 997.1 | |
| 20260506111649 | 0 | 90 | 3.5 | 6.1 | 0.00 | 0.01 | 0.00 | 997.1 | |
| 20260506111639 | 0 | 135 | 3.5 | 7.0 | 0.00 | 0.01 | 0.00 | 997.1 | |
| 20260506111629 | 0 | 135 | 2.6 | 7.0 | 0.00 | 0.01 | 0.00 | 997.1 | |
| 20260506111559 | 0 | 180 | 1.7 | 7.0 | 0.00 | 0.01 | 0.00 | 997.2 | |
| 20260506111549 | 0 | 135 | 1.7 | 7.0 | 0.00 | 0.01 | 0.00 | 997.1 | |
| 20260506111539 | 0 | 135 | 1.7 | 7.0 | 0.00 | 0.01 | 0.00 | 997.2 | |
| 20260506111519 | 0 | 113 | 1.7 | 7.0 | 0.00 | 0.01 | 0.00 | 997.2 | |
| 20260506111459 | 0 | 135 | 1.7 | 7.0 | 0.00 | 0.01 | 0.00 | 997.2 | |
| 20260506111449 | 0 | 135 | 2.6 | 7.0 | 0.00 | 0.01 | 0.00 | 997.2 | |
| 20260506111429 | 0 | 90 | 3.5 | 7.0 | 0.00 | 0.01 | 0.00 | 997.2 | |
| 20260506111419 | 0 | 113 | 3.5 | 7.0 | 0.00 | 0.01 | 0.00 | 997.2 | |
| 20260506111359 | 0 | 135 | 3.5 | 7.0 | 0.00 | 0.01 | 0.00 | 997.2 | |
| 20260506111339 | 0 | 90 | 3.5 | 7.0 | 0.00 | 0.01 | 0.00 | 997.2 | |
| 20260506111329 | 0 | 90 | 3.5 | 9.6 | 0.00 | 0.01 | 0.00 | 997.2 | |
| 20260506111319 | 0 | 135 | 3.5 | 9.6 | 0.00 | 0.01 | 0.00 | 997.3 | |
| 20260506111310 | 0 | 90 | 3.5 | 10.4 | 0.00 | 0.01 | 0.00 | 997.2 | |
| 20260506111240 | 0 | 68 | 3.5 | 10.4 | 0.00 | 0.01 | 0.00 | 997.3 | |
| 20260506111230 | 0 | 90 | 3.5 | 10.4 | 0.00 | 0.01 | 0.00 | 997.3 | |
| 20260506111220 | 0 | 0 | 3.5 | 10.4 | 0.00 | 0.01 | 0.00 | 997.3 | |
| 20260506111210 | 0 | 23 | 3.5 | 10.4 | 0.00 | 0.01 | 0.00 | 997.3 | |
| 20260506111200 | 0 | 68 | 3.5 | 10.4 | 0.00 | 0.01 | 0.00 | 997.2 | |
| 20260506111150 | 0 | 45 | 3.5 | 10.4 | 0.00 | 0.01 | 0.00 | 997.2 | |
| 20260506111140 | 0 | 90 | 2.6 | 10.4 | 0.00 | 0.01 | 0.00 | 997.3 | |
| 20260506111130 | 0 | 45 | 2.6 | 10.4 | 0.00 | 0.01 | 0.00 | 997.3 | |
| 20260506111120 | 0 | 90 | 1.7 | 10.4 | 0.00 | 0.01 | 0.00 | 997.3 | |
| 20260506111110 | 0 | 45 | 1.7 | 10.4 | 0.00 | 0.01 | 0.00 | 997.3 | |
| 20260506111100 | 0 | 0 | 2.6 | 10.4 | 0.00 | 0.01 | 0.00 | 997.3 | |
| 20260506111050 | 0 | 45 | 2.6 | 10.4 | 0.00 | 0.01 | 0.00 | 997.3 | |
| 20260506111030 | 0 | 90 | 3.5 | 10.4 | 0.00 | 0.01 | 0.00 | 997.3 | |
| 20260506111020 | 0 | 45 | 3.5 | 10.4 | 0.00 | 0.01 | 0.00 | 997.3 | |
| 20260506111010 | 0 | 68 | 4.3 | 10.4 | 0.00 | 0.01 | 0.00 | 997.3 | |
| 20260506111000 | 0 | 90 | 4.3 | 10.4 | 0.00 | 0.01 | 0.00 | 997.4 | |
| 20260506110950 | 0 | 45 | 5.2 | 10.4 | 0.00 | 0.01 | 0.00 | 997.4 | |
| 20260506110930 | 0 | 45 | 5.2 | 10.4 | 0.00 | 0.01 | 0.00 | 997.3 | |
| 20260506110920 | 0 | 45 | 6.1 | 10.4 | 0.00 | 0.01 | 0.00 | 997.3 | |
| 20260506110910 | 0 | 45 | 7.0 | 10.4 | 0.00 | 0.01 | 0.00 | 997.4 | |
| 20260506110840 | 0 | 45 | 7.0 | 10.4 | 0.00 | 0.01 | 0.00 | 997.3 | |
| 20260506110830 | 0 | 90 | 7.0 | 10.4 | 0.00 | 0.01 | 0.00 | 997.2 | |
| 20260506110821 | 0 | 90 | 6.1 | 10.4 | 0.00 | 0.01 | 0.00 | 997.3 | |
| 20260506110811 | 0 | 45 | 5.2 | 9.6 | 0.00 | 0.01 | 0.00 | 997.3 | |
| 20260506110801 | 0 | 45 | 5.2 | 9.6 | 0.00 | 0.01 | 0.00 | 997.2 | |
| 20260506110751 | 0 | 45 | 4.3 | 8.7 | 0.00 | 0.01 | 0.00 | 997.3 | |
| 20260506110721 | 0 | 90 | 5.2 | 8.7 | 0.00 | 0.01 | 0.00 | 997.3 | |
| 20260506110701 | 0 | 45 | 5.2 | 8.7 | 0.00 | 0.01 | 0.00 | 997.3 | |
| 20260506110641 | 0 | 45 | 3.5 | 8.7 | 0.00 | 0.01 | 0.00 | 997.3 | |
| 20260506110631 | 0 | 45 | 1.7 | 8.7 | 0.00 | 0.01 | 0.00 | 997.4 | |
| 20260506110621 | 0 | 90 | 1.7 | 8.7 | 0.00 | 0.01 | 0.00 | 997.3 | |
| 20260506110611 | 0 | 90 | 1.7 | 8.7 | 0.00 | 0.01 | 0.00 | 997.4 | |
| 20260506110601 | 0 | 270 | 1.7 | 8.7 | 0.00 | 0.01 | 0.00 | 997.4 | |
| 20260506110551 | 0 | 135 | 1.7 | 8.7 | 0.00 | 0.01 | 0.00 | 997.4 | |
| 20260506110541 | 0 | 90 | 2.6 | 8.7 | 0.00 | 0.01 | 0.00 | 997.4 | |
| 20260506110531 | 0 | 135 | 2.6 | 8.7 | 0.00 | 0.01 | 0.00 | 997.4 | |
| 20260506110511 | 0 | 113 | 2.6 | 8.7 | 0.00 | 0.01 | 0.00 | 997.4 | |
| 20260506110451 | 0 | 135 | 2.6 | 8.7 | 0.00 | 0.01 | 0.00 | 997.4 | |
| 20260506110441 | 0 | 135 | 3.5 | 8.7 | 0.00 | 0.01 | 0.00 | 997.4 | |
| 20260506110401 | 0 | 135 | 3.5 | 8.7 | 0.00 | 0.01 | 0.00 | 997.4 | |
| 20260506110351 | 0 | 135 | 2.6 | 8.7 | 0.00 | 0.01 | 0.00 | 997.4 | |
| 20260506110341 | 0 | 135 | 1.7 | 7.8 | 0.00 | 0.01 | 0.00 | 997.4 | |
| 20260506110331 | 0 | 135 | 0.9 | 7.8 | 0.00 | 0.01 | 0.00 | 997.4 | |
| 20260506110321 | 0 | 158 | 0.9 | 7.8 | 0.00 | 0.01 | 0.00 | 997.4 | |
| 20260506110311 | 0 | 180 | 0.9 | 7.8 | 0.00 | 0.01 | 0.00 | 997.4 | |
| 20260506110302 | 0 | 315 | 1.7 | 7.8 | 0.00 | 0.01 | 0.00 | 997.4 | |
| 20260506110252 | 0 | 45 | 1.7 | 7.8 | 0.00 | 0.01 | 0.00 | 997.4 | |
| 20260506110242 | 0 | 90 | 2.6 | 7.8 | 0.00 | 0.01 | 0.00 | 997.4 | |
| 20260506110232 | 0 | 90 | 3.5 | 7.8 | 0.00 | 0.01 | 0.00 | 997.4 | |
| 20260506110222 | 0 | 135 | 4.3 | 7.8 | 0.00 | 0.01 | 0.00 | 997.5 | |
| 20260506110212 | 0 | 135 | 5.2 | 7.8 | 0.00 | 0.01 | 0.00 | 997.4 | |
| 20260506110202 | 0 | 90 | 4.3 | 7.8 | 0.00 | 0.01 | 0.00 | 997.4 | |
| 20260506110152 | 0 | 135 | 4.3 | 7.8 | 0.00 | 0.01 | 0.00 | 997.4 | |
| 20260506110142 | 0 | 135 | 3.5 | 7.8 | 0.00 | 0.01 | 0.00 | 997.4 | |
| 20260506110132 | 0 | 135 | 2.6 | 7.0 | 0.00 | 0.01 | 0.00 | 997.4 | |
| 20260506110112 | 0 | 135 | 1.7 | 7.8 | 0.00 | 0.01 | 0.00 | 997.3 | |
| 20260506110052 | 0 | 135 | 1.7 | 7.8 | 0.00 | 0.01 | 0.00 | 997.4 | |
| 20260506110042 | 0 | 45 | 1.7 | 7.8 | 0.00 | 0.01 | 0.00 | 997.4 | |
| 20260506110032 | 0 | 135 | 0.9 | 7.8 | 0.00 | 0.01 | 0.00 | 997.4 | |
| 20260506110002 | 0 | 90 | 0.9 | 7.8 | 0.00 | 0.01 | 0.00 | 997.5 | |
| 20260506105952 | 0 | 135 | 0.9 | 7.8 | 0.00 | 0.01 | 0.00 | 997.4 | |
| 20260506105942 | 0 | 90 | 1.7 | 7.8 | 0.00 | 0.01 | 0.00 | 997.4 | |
| 20260506105932 | 0 | 135 | 1.7 | 7.8 | 0.00 | 0.01 | 0.00 | 997.5 | |
| 20260506105912 | 0 | 90 | 1.7 | 7.8 | 0.00 | 0.01 | 0.00 | 997.5 | |
| 20260506105902 | 0 | 90 | 2.6 | 7.8 | 0.00 | 0.01 | 0.00 | 997.5 | |
| 20260506105852 | 0 | 135 | 2.6 | 7.8 | 0.00 | 0.01 | 0.00 | 997.5 | |
| 20260506105842 | 0 | 90 | 3.5 | 7.8 | 0.00 | 0.01 | 0.00 | 997.5 | |
| 20260506105813 | 0 | 135 | 3.5 | 7.8 | 0.00 | 0.01 | 0.00 | 997.5 | |
| 20260506105753 | 0 | 135 | 4.3 | 7.8 | 0.00 | 0.01 | 0.00 | 997.5 | |
| 20260506105713 | 0 | 135 | 5.2 | 7.8 | 0.00 | 0.01 | 0.00 | 997.5 | |
| 20260506105633 | 0 | 135 | 5.2 | 7.8 | 0.00 | 0.01 | 0.00 | 997.5 | |
| 20260506105623 | 0 | 135 | 5.2 | 7.0 | 0.00 | 0.01 | 0.00 | 997.5 | |
| 20260506105613 | 0 | 135 | 4.3 | 7.0 | 0.00 | 0.01 | 0.00 | 997.5 | |
| 20260506105543 | 0 | 135 | 5.2 | 7.0 | 0.00 | 0.01 | 0.00 | 997.5 | |
| 20260506105533 | 0 | 135 | 4.3 | 7.0 | 0.00 | 0.01 | 0.00 | 997.5 | |
| 20260506105513 | 0 | 135 | 3.5 | 7.0 | 0.00 | 0.01 | 0.00 | 997.5 | |
| 20260506105503 | 0 | 135 | 2.6 | 7.0 | 0.00 | 0.01 | 0.00 | 997.5 | |
| 20260506105453 | 0 | 135 | 1.7 | 7.0 | 0.00 | 0.01 | 0.00 | 997.5 | |
| 20260506105443 | 0 | 135 | 1.7 | 4.3 | 0.00 | 0.01 | 0.00 | 997.6 | |
| 20260506105433 | 0 | 135 | 0.9 | 3.5 | 0.00 | 0.01 | 0.00 | 997.6 | |
| 20260506105423 | 0 | 135 | 0.0 | 1.7 | 0.00 | 0.01 | 0.00 | 997.6 | |
| 20260506105353 | 0 | 90 | 0.0 | 1.7 | 0.00 | 0.01 | 0.00 | 997.6 | |
| 20260506105343 | 0 | 68 | 0.0 | 1.7 | 0.00 | 0.01 | 0.00 | 997.6 | |
| 20260506105333 | 0 | 45 | 0.0 | 1.7 | 0.00 | 0.01 | 0.00 | 997.6 | |
| 20260506105323 | 0 | 135 | 0.0 | 1.7 | 0.00 | 0.01 | 0.00 | 997.6 | |
| 20260506105254 | 0 | 180 | 0.0 | 1.7 | 0.00 | 0.01 | 0.00 | 997.6 | |
| 20260506105244 | 0 | 135 | 0.0 | 1.7 | 0.00 | 0.01 | 0.00 | 997.6 | |
| 20260506105234 | 0 | 135 | 0.0 | 3.5 | 0.00 | 0.01 | 0.00 | 997.7 | |
| 20260506105224 | 0 | 180 | 0.0 | 3.5 | 0.00 | 0.01 | 0.00 | 997.7 | |
| 20260506105214 | 0 | 270 | 0.0 | 4.3 | 0.00 | 0.01 | 0.00 | 997.6 | |
| 20260506105154 | 0 | 180 | 0.0 | 4.3 | 0.00 | 0.01 | 0.00 | 997.6 | |
| 20260506105144 | 0 | 180 | 0.0 | 4.3 | 0.00 | 0.01 | 0.00 | 997.7 | |
| 20260506105114 | 0 | 225 | 0.0 | 4.3 | 0.00 | 0.01 | 0.00 | 997.7 | |
| 20260506105054 | 0 | 90 | 0.0 | 4.3 | 0.00 | 0.01 | 0.00 | 997.7 | |
| 20260506105034 | 0 | 180 | 0.0 | 4.3 | 0.00 | 0.01 | 0.00 | 997.7 | |
| 20260506105024 | 0 | 225 | 0.0 | 4.3 | 0.00 | 0.01 | 0.00 | 997.7 | |
| 20260506105004 | 0 | 135 | 0.0 | 4.3 | 0.00 | 0.01 | 0.00 | 997.7 | |
| 20260506104944 | 0 | 180 | 0.0 | 4.3 | 0.00 | 0.01 | 0.00 | 997.7 | |
| 20260506104934 | 0 | 180 | 0.0 | 5.2 | 0.00 | 0.01 | 0.00 | 997.7 | |
| 20260506104924 | 0 | 180 | 0.0 | 6.1 | 0.00 | 0.01 | 0.00 | 997.8 | |
| 20260506104914 | 0 | 180 | 0.0 | 6.1 | 0.00 | 0.01 | 0.00 | 997.7 | |
| 20260506104854 | 0 | 180 | 0.9 | 6.1 | 0.00 | 0.01 | 0.00 | 997.7 | |
| 20260506104844 | 0 | 135 | 0.9 | 6.1 | 0.00 | 0.01 | 0.00 | 997.7 | |
| 20260506104835 | 0 | 135 | 1.7 | 6.1 | 0.00 | 0.01 | 0.00 | 997.7 | |
| 20260506104824 | 0 | 158 | 1.7 | 6.1 | 0.00 | 0.01 | 0.00 | 997.8 | |
| 20260506104814 | 0 | 135 | 1.7 | 6.1 | 0.00 | 0.01 | 0.00 | 997.8 | |
| 20260506104804 | 0 | 90 | 2.6 | 6.1 | 0.00 | 0.01 | 0.00 | 997.8 | |
| 20260506104755 | 0 | 135 | 2.6 | 6.1 | 0.00 | 0.01 | 0.00 | 997.7 | |
| 20260506104745 | 0 | 113 | 2.6 | 6.1 | 0.00 | 0.01 | 0.00 | 997.7 | |
| 20260506104735 | 0 | 90 | 2.6 | 6.1 | 0.00 | 0.01 | 0.00 | 997.7 | |
| 20260506104725 | 0 | 113 | 2.6 | 6.1 | 0.00 | 0.01 | 0.00 | 997.6 | |
| 20260506104715 | 0 | 135 | 2.6 | 6.1 | 0.00 | 0.01 | 0.00 | 997.7 | |
| 20260506104705 | 0 | 135 | 1.7 | 6.1 | 0.00 | 0.01 | 0.00 | 997.6 | |
| 20260506104635 | 0 | 135 | 1.7 | 6.1 | 0.00 | 0.01 | 0.00 | 997.7 | |
| 20260506104615 | 0 | 90 | 1.7 | 6.1 | 0.00 | 0.01 | 0.00 | 997.7 | |
| 20260506104605 | 0 | 90 | 1.7 | 6.1 | 0.00 | 0.01 | 0.00 | 997.6 | |
| 20260506104555 | 0 | 45 | 1.7 | 6.1 | 0.00 | 0.01 | 0.00 | 997.7 | |
| 20260506104545 | 0 | 23 | 1.7 | 6.1 | 0.00 | 0.01 | 0.00 | 997.6 | |
| 20260506104535 | 0 | 0 | 2.6 | 6.1 | 0.00 | 0.01 | 0.00 | 997.6 | |
| 20260506104525 | 0 | 68 | 3.5 | 6.1 | 0.00 | 0.01 | 0.00 | 997.6 | |
| 20260506104515 | 0 | 45 | 3.5 | 6.1 | 0.00 | 0.01 | 0.00 | 997.5 | |
| 20260506104455 | 0 | 45 | 3.5 | 6.1 | 0.00 | 0.01 | 0.00 | 997.6 | |
| 20260506104435 | 0 | 45 | 2.6 | 6.1 | 0.00 | 0.01 | 0.00 | 997.6 | |
| 20260506104405 | 0 | 45 | 1.7 | 4.3 | 0.00 | 0.01 | 0.00 | 997.6 | |
| 20260506104325 | 0 | 45 | 0.9 | 4.3 | 0.00 | 0.01 | 0.00 | 997.6 | |
| 20260506104315 | 0 | 0 | 0.9 | 4.3 | 0.00 | 0.01 | 0.00 | 997.6 | |
| 20260506104255 | 0 | 90 | 0.9 | 4.3 | 0.00 | 0.01 | 0.00 | 997.6 | |
| 20260506104246 | 0 | 45 | 0.9 | 4.3 | 0.00 | 0.01 | 0.00 | 997.6 | |
| 20260506104216 | 0 | 0 | 1.7 | 4.3 | 0.00 | 0.01 | 0.00 | 997.6 | |
| 20260506104156 | 0 | 338 | 1.7 | 4.3 | 0.00 | 0.01 | 0.00 | 997.6 | |
| 20260506104146 | 0 | 315 | 1.7 | 4.3 | 0.00 | 0.01 | 0.00 | 997.6 | |
| 20260506104136 | 0 | 0 | 1.7 | 4.3 | 0.00 | 0.01 | 0.00 | 997.6 | |
| 20260506104056 | 0 | 0 | 1.7 | 4.3 | 0.00 | 0.01 | 0.00 | 997.6 | |
| 20260506104036 | 0 | 45 | 1.7 | 4.3 | 0.00 | 0.01 | 0.00 | 997.6 | |
| 20260506104026 | 0 | 45 | 1.7 | 4.3 | 0.00 | 0.01 | 0.00 | 997.7 | |
| 20260506104016 | 0 | 45 | 1.7 | 2.6 | 0.00 | 0.01 | 0.00 | 997.6 | |
| 20260506103946 | 0 | 45 | 0.9 | 2.6 | 0.00 | 0.01 | 0.00 | 997.6 | |
| 20260506103936 | 0 | 0 | 0.9 | 2.6 | 0.00 | 0.01 | 0.00 | 997.6 | |
| 20260506103926 | 0 | 0 | 0.0 | 2.6 | 0.00 | 0.01 | 0.00 | 997.7 | |
| 20260506103916 | 0 | 315 | 0.0 | 2.6 | 0.00 | 0.01 | 0.00 | 997.6 | |
| 20260506103856 | 0 | 135 | 0.0 | 2.6 | 0.00 | 0.01 | 0.00 | 997.6 | |
| 20260506103826 | 0 | 158 | 0.0 | 2.6 | 0.00 | 0.01 | 0.00 | 997.6 | |
| 20260506103816 | 0 | 90 | 0.0 | 2.6 | 0.00 | 0.01 | 0.00 | 997.6 | |
| 20260506103806 | 0 | 225 | 0.0 | 2.6 | 0.00 | 0.01 | 0.00 | 997.6 | |
| 20260506103756 | 0 | 248 | 0.0 | 2.6 | 0.00 | 0.01 | 0.00 | 997.6 | |
| 20260506103736 | 0 | 135 | 0.0 | 2.6 | 0.00 | 0.01 | 0.00 | 997.6 | |
| 20260506103726 | 0 | 135 | 0.9 | 2.6 | 0.00 | 0.01 | 0.00 | 997.6 | |
| 20260506103647 | 0 | 135 | 0.9 | 3.5 | 0.00 | 0.01 | 0.00 | 997.6 | |
| 20260506103617 | 0 | 135 | 0.0 | 4.3 | 0.00 | 0.01 | 0.00 | 997.6 | |
| 20260506103557 | 0 | 45 | 0.0 | 4.3 | 0.00 | 0.01 | 0.00 | 997.6 | |
| 20260506103527 | 0 | 90 | 0.0 | 4.3 | 0.00 | 0.01 | 0.00 | 997.6 | |
| 20260506103517 | 0 | 45 | 0.0 | 6.1 | 0.00 | 0.01 | 0.00 | 997.6 | |
| 20260506103507 | 0 | 113 | 0.0 | 6.1 | 0.00 | 0.01 | 0.00 | 997.6 | |
| 20260506103457 | 0 | 90 | 0.9 | 6.1 | 0.00 | 0.01 | 0.00 | 997.5 | |
| 20260506103437 | 0 | 90 | 0.9 | 6.1 | 0.00 | 0.01 | 0.00 | 997.6 | |
| 20260506103427 | 0 | 45 | 1.7 | 6.1 | 0.00 | 0.01 | 0.00 | 997.6 | |
| 20260506103417 | 0 | 45 | 1.7 | 6.1 | 0.00 | 0.01 | 0.00 | 997.5 | |
| 20260506103347 | 0 | 90 | 1.7 | 6.1 | 0.00 | 0.01 | 0.00 | 997.5 | |
| 20260506103327 | 0 | 90 | 0.9 | 6.1 | 0.00 | 0.01 | 0.00 | 997.5 | |
| 20260506103257 | 0 | 90 | 1.7 | 6.1 | 0.00 | 0.01 | 0.00 | 997.5 | |
| 20260506103247 | 0 | 135 | 1.7 | 6.1 | 0.00 | 0.01 | 0.00 | 997.5 | |
| 20260506103217 | 0 | 90 | 1.7 | 6.1 | 0.00 | 0.01 | 0.00 | 997.5 | |
| 20260506103207 | 0 | 135 | 1.7 | 6.1 | 0.00 | 0.01 | 0.00 | 997.5 | |
| 20260506103148 | 0 | 45 | 1.7 | 6.1 | 0.00 | 0.01 | 0.00 | 997.5 | |
| 20260506103128 | 0 | 90 | 1.7 | 6.1 | 0.00 | 0.01 | 0.00 | 997.5 | |
| 20260506103058 | 0 | 90 | 2.6 | 6.1 | 0.00 | 0.01 | 0.00 | 997.5 | |
| 20260506103028 | 0 | 90 | 3.5 | 6.1 | 0.00 | 0.01 | 0.00 | 997.5 | |
| 20260506103018 | 0 | 45 | 2.6 | 4.3 | 0.00 | 0.01 | 0.00 | 997.4 | |
| 20260506102958 | 0 | 90 | 2.6 | 4.3 | 0.00 | 0.01 | 0.00 | 997.5 | |
| 20260506102948 | 0 | 45 | 2.6 | 4.3 | 0.00 | 0.01 | 0.00 | 997.5 | |
| 20260506102928 | 0 | 45 | 1.7 | 4.3 | 0.00 | 0.01 | 0.00 | 997.5 | |
| 20260506102918 | 0 | 45 | 1.7 | 4.3 | 0.00 | 0.01 | 0.00 | 997.4 | |
| 20260506102858 | 0 | 0 | 1.7 | 4.3 | 0.00 | 0.01 | 0.00 | 997.5 | |
| 20260506102838 | 0 | 45 | 1.7 | 4.3 | 0.00 | 0.01 | 0.00 | 997.5 | |
| 20260506102818 | 0 | 45 | 0.9 | 4.3 | 0.00 | 0.01 | 0.00 | 997.5 | |
| 20260506102758 | 0 | 45 | 0.0 | 4.3 | 0.00 | 0.01 | 0.00 | 997.5 | |
| 20260506102748 | 0 | 90 | 0.0 | 4.3 | 0.00 | 0.01 | 0.00 | 997.5 | |
| 20260506102728 | 0 | 45 | 0.9 | 4.3 | 0.00 | 0.01 | 0.00 | 997.5 | |
| 20260506102718 | 0 | 0 | 0.9 | 4.3 | 0.00 | 0.01 | 0.00 | 997.5 | |
| 20260506102708 | 0 | 315 | 1.7 | 4.3 | 0.00 | 0.01 | 0.00 | 997.6 | |
| 20260506102648 | 0 | 45 | 1.7 | 4.3 | 0.00 | 0.01 | 0.00 | 997.5 | |
| 20260506102639 | 0 | 0 | 1.7 | 4.3 | 0.00 | 0.01 | 0.00 | 997.5 | |
| 20260506102629 | 0 | 0 | 1.7 | 4.3 | 0.00 | 0.01 | 0.00 | 997.6 | |
| 20260506102559 | 0 | 0 | 1.7 | 4.3 | 0.00 | 0.01 | 0.00 | 997.5 | |
| 20260506102549 | 0 | 45 | 1.7 | 4.3 | 0.00 | 0.01 | 0.00 | 997.5 | |
| 20260506102539 | 0 | 23 | 1.7 | 4.3 | 0.00 | 0.01 | 0.00 | 997.5 | |
| 20260506102529 | 0 | 0 | 1.7 | 4.3 | 0.00 | 0.01 | 0.00 | 997.6 | |
| 20260506102519 | 0 | 23 | 1.7 | 3.5 | 0.00 | 0.01 | 0.00 | 997.5 | |
| 20260506102449 | 0 | 45 | 1.7 | 3.5 | 0.00 | 0.01 | 0.00 | 997.6 | |
| 20260506102419 | 0 | 90 | 1.7 | 3.5 | 0.00 | 0.01 | 0.00 | 997.6 | |
| 20260506102339 | 0 | 90 | 1.7 | 3.5 | 0.00 | 0.01 | 0.00 | 997.6 | |
| 20260506102319 | 0 | 68 | 1.7 | 3.5 | 0.00 | 0.01 | 0.00 | 997.6 | |
| 20260506102309 | 0 | 45 | 1.7 | 3.5 | 0.00 | 0.01 | 0.00 | 997.6 | |
| 20260506102259 | 0 | 90 | 1.7 | 3.5 | 0.00 | 0.01 | 0.00 | 997.6 | |
| 20260506102249 | 0 | 90 | 0.9 | 1.7 | 0.00 | 0.01 | 0.00 | 997.6 | |
| 20260506102229 | 0 | 90 | 0.9 | 2.6 | 0.00 | 0.01 | 0.00 | 997.7 | |
| 20260506102220 | 0 | 113 | 1.7 | 3.5 | 0.00 | 0.01 | 0.00 | 997.7 | |
| 20260506102209 | 0 | 45 | 0.9 | 3.5 | 0.00 | 0.01 | 0.00 | 997.7 | |
| 20260506102159 | 0 | 135 | 0.9 | 3.5 | 0.00 | 0.01 | 0.00 | 997.7 | |
| 20260506102149 | 0 | 90 | 0.9 | 3.5 | 0.00 | 0.01 | 0.00 | 997.7 | |
| 20260506102139 | 0 | 90 | 0.0 | 4.3 | 0.00 | 0.01 | 0.00 | 997.7 | |
| 20260506102119 | 0 | 45 | 0.0 | 4.3 | 0.00 | 0.01 | 0.00 | 997.7 | |
| 20260506102059 | 0 | 90 | 0.0 | 4.3 | 0.00 | 0.01 | 0.00 | 997.7 | |
| 20260506102040 | 0 | 45 | 0.0 | 5.2 | 0.00 | 0.01 | 0.00 | 997.7 | |
| 20260506102030 | 0 | 135 | 0.0 | 6.1 | 0.00 | 0.01 | 0.00 | 997.7 | |
| 20260506101950 | 0 | 135 | 0.0 | 6.1 | 0.00 | 0.01 | 0.00 | 997.8 | |
| 20260506101910 | 0 | 135 | 0.0 | 6.1 | 0.00 | 0.01 | 0.00 | 997.8 | |
| 20260506101840 | 0 | 135 | 0.9 | 6.1 | 0.00 | 0.01 | 0.00 | 997.8 | |
| 20260506101830 | 0 | 135 | 1.7 | 6.1 | 0.00 | 0.01 | 0.00 | 997.8 | |
| 20260506101820 | 0 | 45 | 1.7 | 6.1 | 0.00 | 0.01 | 0.00 | 997.8 | |
| 20260506101750 | 0 | 90 | 1.7 | 6.1 | 0.00 | 0.01 | 0.00 | 997.8 | |
| 20260506101740 | 77 | 90 | 1.7 | 6.1 | 0.00 | 0.01 | 0.00 | 42 | 997.8 |
| 20260506101730 | 0 | 45 | 1.7 | 6.1 | 0.00 | 0.01 | 0.00 | 997.8 | |
| 20260506101710 | 0 | 90 | 1.7 | 6.1 | 0.00 | 0.01 | 0.00 | 997.8 | |
| 20260506101640 | 0 | 90 | 2.6 | 6.1 | 0.00 | 0.01 | 0.00 | 997.8 | |
| 20260506101630 | 0 | 90 | 3.5 | 6.1 | 0.00 | 0.01 | 0.00 | 997.9 | |
| 20260506101550 | 0 | 90 | 3.5 | 6.1 | 0.00 | 0.01 | 0.00 | 997.9 | |
| 20260506101540 | 0 | 90 | 2.6 | 6.1 | 0.00 | 0.01 | 0.00 | 997.9 | |
| 20260506101511 | 0 | 90 | 1.7 | 4.3 | 0.00 | 0.01 | 0.00 | 997.9 | |
| 20260506101441 | 0 | 90 | 0.9 | 4.3 | 0.00 | 0.01 | 0.00 | 997.9 | |
| 20260506101431 | 0 | 90 | 1.7 | 4.3 | 0.00 | 0.01 | 0.00 | 997.9 | |
| 20260506101411 | 0 | 90 | 1.7 | 4.3 | 0.00 | 0.01 | 0.00 | 998.0 | |
| 20260506101401 | 0 | 68 | 1.7 | 4.3 | 0.00 | 0.01 | 0.00 | 998.0 | |
| 20260506101351 | 0 | 135 | 1.7 | 4.3 | 0.00 | 0.01 | 0.00 | 997.9 | |
| 20260506101341 | 0 | 90 | 1.7 | 4.3 | 0.00 | 0.01 | 0.00 | 997.9 | |
| 20260506101311 | 0 | 45 | 1.7 | 4.3 | 0.00 | 0.01 | 0.00 | 997.9 | |
| 20260506101301 | 0 | 90 | 1.7 | 4.3 | 0.00 | 0.01 | 0.00 | 997.9 | |
| 20260506101251 | 0 | 68 | 1.7 | 4.3 | 0.00 | 0.01 | 0.00 | 997.9 | |
| 20260506101241 | 0 | 90 | 2.6 | 4.3 | 0.00 | 0.01 | 0.00 | 997.9 | |
| 20260506101231 | 0 | 90 | 2.6 | 4.3 | 0.00 | 0.01 | 0.00 | 998.0 | |
| 20260506101201 | 0 | 90 | 1.7 | 4.3 | 0.00 | 0.01 | 0.00 | 997.9 | |
| 20260506101141 | 0 | 90 | 1.7 | 3.5 | 0.00 | 0.01 | 0.00 | 997.9 | |
| 20260506101131 | 0 | 90 | 1.7 | 3.5 | 0.00 | 0.01 | 0.00 | 998.0 | |
| 20260506101111 | 0 | 113 | 1.7 | 3.5 | 0.00 | 0.01 | 0.00 | 998.0 | |
| 20260506101052 | 0 | 90 | 1.7 | 3.5 | 0.00 | 0.01 | 0.00 | 998.0 | |
| 20260506101042 | 0 | 90 | 1.7 | 3.5 | 0.00 | 0.01 | 0.00 | 997.9 | |
| 20260506101022 | 0 | 90 | 0.9 | 3.5 | 0.00 | 0.01 | 0.00 | 997.9 | |
| 20260506101012 | 0 | 68 | 0.9 | 3.5 | 0.00 | 0.01 | 0.00 | 997.9 | |
| 20260506101002 | 0 | 180 | 0.9 | 3.5 | 0.00 | 0.01 | 0.00 | 997.9 | |
| 20260506100952 | 0 | 135 | 0.9 | 3.5 | 0.00 | 0.01 | 0.00 | 997.9 | |
| 20260506100942 | 0 | 135 | 1.7 | 3.5 | 0.00 | 0.01 | 0.00 | 997.9 | |
| 20260506100922 | 0 | 135 | 1.7 | 3.5 | 0.00 | 0.01 | 0.00 | 998.0 | |
| 20260506100902 | 0 | 135 | 1.7 | 3.5 | 0.00 | 0.01 | 0.00 | 997.9 | |
| 20260506100822 | 0 | 135 | 1.7 | 3.5 | 0.00 | 0.01 | 0.00 | 997.9 | |
| 20260506100742 | 0 | 135 | 1.7 | 3.5 | 0.00 | 0.01 | 0.00 | 997.9 | |
| 20260506100732 | 0 | 135 | 0.9 | 3.5 | 0.00 | 0.01 | 0.00 | 997.8 | |
| 20260506100722 | 0 | 135 | 0.9 | 3.5 | 0.00 | 0.01 | 0.00 | 997.9 | |
| 20260506100712 | 0 | 180 | 0.9 | 3.5 | 0.00 | 0.01 | 0.00 | 997.9 | |
| 20260506100702 | 0 | 180 | 1.7 | 3.5 | 0.00 | 0.01 | 0.00 | 997.8 | |
| 20260506100652 | 0 | 180 | 1.7 | 3.5 | 0.00 | 0.01 | 0.00 | 997.9 | |
| 20260506100642 | 0 | 135 | 1.7 | 3.5 | 0.00 | 0.01 | 0.00 | 997.9 | |
| 20260506100632 | 0 | 90 | 1.7 | 3.5 | 0.00 | 0.01 | 0.00 | 997.8 | |
| 20260506100622 | 0 | 113 | 1.7 | 3.5 | 0.00 | 0.01 | 0.00 | 997.8 | |
| 20260506100612 | 0 | 135 | 1.7 | 3.5 | 0.00 | 0.01 | 0.00 | 997.8 | |
| 20260506100552 | 0 | 135 | 1.7 | 3.5 | 0.00 | 0.01 | 0.00 | 997.9 | |
| 20260506100523 | 0 | 135 | 1.7 | 2.6 | 0.00 | 0.01 | 0.00 | 997.9 | |
| 20260506100513 | 0 | 135 | 0.9 | 3.5 | 0.00 | 0.01 | 0.00 | 997.9 | |
| 20260506100453 | 0 | 135 | 0.9 | 3.5 | 0.00 | 0.01 | 0.00 | 997.8 | |
| 20260506100443 | 0 | 180 | 0.9 | 3.5 | 0.00 | 0.01 | 0.00 | 997.9 | |
| 20260506100433 | 0 | 135 | 0.9 | 3.5 | 0.00 | 0.01 | 0.00 | 997.9 | |
| 20260506100423 | 0 | 90 | 0.9 | 3.5 | 0.00 | 0.01 | 0.00 | 997.8 | |
| 20260506100413 | 0 | 45 | 0.9 | 3.5 | 0.00 | 0.01 | 0.00 | 997.9 | |
| 20260506100403 | 0 | 45 | 0.0 | 3.5 | 0.00 | 0.01 | 0.00 | 997.8 | |
| 20260506100353 | 0 | 0 | 0.0 | 3.5 | 0.00 | 0.01 | 0.00 | 997.8 | |
| 20260506100343 | 0 | 135 | 0.0 | 3.5 | 0.00 | 0.01 | 0.00 | 997.9 | |
| 20260506100333 | 0 | 270 | 0.0 | 3.5 | 0.00 | 0.01 | 0.00 | 997.9 | |
| 20260506100323 | 0 | 315 | 0.0 | 4.3 | 0.00 | 0.01 | 0.00 | 997.9 | |
| 20260506100313 | 0 | 270 | 0.0 | 5.2 | 0.00 | 0.01 | 0.00 | 997.9 | |
| 20260506100253 | 0 | 225 | 0.0 | 5.2 | 0.00 | 0.01 | 0.00 | 997.9 | |
| 20260506100243 | 0 | 90 | 0.0 | 5.2 | 0.00 | 0.01 | 0.00 | 997.9 | |
| 20260506100233 | 0 | 90 | 0.0 | 5.2 | 0.00 | 0.01 | 0.00 | 997.8 | |
| 20260506100213 | 0 | 90 | 0.0 | 6.1 | 0.00 | 0.01 | 0.00 | 997.8 | |
| 20260506100203 | 0 | 90 | 0.0 | 6.1 | 0.00 | 0.01 | 0.00 | 997.9 | |
| 20260506100153 | 0 | 135 | 0.0 | 6.1 | 0.00 | 0.01 | 0.00 | 997.9 | |
| 20260506100113 | 0 | 135 | 0.0 | 6.1 | 0.00 | 0.01 | 0.00 | 997.9 | |
| 20260506100103 | 0 | 135 | 0.9 | 6.1 | 0.00 | 0.01 | 0.00 | 997.9 | |
| 20260506100053 | 0 | 135 | 0.9 | 6.1 | 0.00 | 0.01 | 0.00 | 997.8 | |
| 20260506100043 | 0 | 90 | 1.7 | 6.1 | 0.00 | 0.01 | 0.00 | 997.9 | |
| 20260506100033 | 0 | 90 | 1.7 | 6.1 | 0.00 | 0.01 | 0.00 | 997.8 | |
| 20260506100023 | 0 | 68 | 1.7 | 6.1 | 0.00 | 0.01 | 0.00 | 997.9 | |
| 20260506100004 | 0 | 45 | 1.7 | 6.1 | 0.00 | 0.01 | 0.00 | 997.8 | |
| 20260506095944 | 0 | 135 | 1.7 | 6.1 | 0.00 | 0.01 | 0.00 | 997.8 | |
| 20260506095924 | 0 | 90 | 1.7 | 6.1 | 0.00 | 0.01 | 0.00 | 997.8 | |
| 20260506095914 | 0 | 90 | 2.6 | 6.1 | 0.00 | 0.01 | 0.00 | 997.8 | |
| 20260506095834 | 0 | 23 | 3.5 | 6.1 | 0.00 | 0.01 | 0.00 | 997.8 | |
| 20260506095824 | 0 | 45 | 3.5 | 6.1 | 0.00 | 0.01 | 0.00 | 997.8 | |
| 20260506095804 | 0 | 68 | 3.5 | 6.1 | 0.00 | 0.01 | 0.00 | 997.8 | |
| 20260506095744 | 0 | 45 | 3.5 | 6.1 | 0.00 | 0.01 | 0.00 | 997.8 | |
| 20260506095734 | 0 | 45 | 2.6 | 6.1 | 0.00 | 0.01 | 0.00 | 997.8 | |
| 20260506095714 | 0 | 45 | 2.6 | 4.3 | 0.00 | 0.01 | 0.00 | 997.8 | |
| 20260506095644 | 0 | 90 | 2.6 | 4.3 | 0.00 | 0.01 | 0.00 | 997.8 | |
| 20260506095634 | 0 | 45 | 2.6 | 4.3 | 0.00 | 0.01 | 0.00 | 997.8 | |
| 20260506095624 | 0 | 45 | 1.7 | 4.3 | 0.00 | 0.01 | 0.00 | 997.8 | |
| 20260506095604 | 0 | 45 | 1.7 | 3.5 | 0.00 | 0.01 | 0.00 | 997.8 | |
| 20260506095534 | 0 | 0 | 1.7 | 4.3 | 0.00 | 0.01 | 0.00 | 997.8 | |
| 20260506095524 | 0 | 45 | 1.7 | 4.3 | 0.00 | 0.01 | 0.00 | 997.8 | |
| 20260506095514 | 0 | 45 | 0.9 | 4.3 | 0.00 | 0.01 | 0.00 | 997.8 | |
| 20260506095505 | 0 | 90 | 0.9 | 5.2 | 0.00 | 0.01 | 0.00 | 997.8 | |
| 20260506095425 | 0 | 45 | 0.0 | 5.2 | 0.00 | 0.01 | 0.00 | 997.8 | |
| 20260506095415 | 0 | 90 | 0.0 | 5.2 | 0.00 | 0.01 | 0.00 | 997.8 | |
| 20260506095405 | 0 | 135 | 0.0 | 5.2 | 0.00 | 0.01 | 0.00 | 997.8 | |
| 20260506095325 | 0 | 90 | 0.0 | 5.2 | 0.00 | 0.01 | 0.00 | 997.8 | |
| 20260506095315 | 0 | 90 | 0.9 | 5.2 | 0.00 | 0.01 | 0.00 | 997.8 | |
| 20260506095306 | 0 | 0 | 0.9 | 5.2 | 0.00 | 0.01 | 0.00 | 997.8 | |
| 20260506095245 | 0 | 90 | 1.7 | 5.2 | 0.00 | 0.01 | 0.00 | 997.8 | |
| 20260506095235 | 0 | 90 | 1.7 | 5.2 | 0.00 | 0.01 | 0.00 | 997.9 | |
| 20260506095205 | 0 | 90 | 1.7 | 5.2 | 0.00 | 0.01 | 0.00 | 997.8 | |
| 20260506095155 | 0 | 45 | 1.7 | 5.2 | 0.00 | 0.01 | 0.00 | 997.8 | |
| 20260506095125 | 0 | 90 | 2.6 | 5.2 | 0.00 | 0.01 | 0.00 | 997.8 | |
| 20260506095115 | 0 | 90 | 3.5 | 5.2 | 0.00 | 0.01 | 0.00 | 997.9 | |
| 20260506095105 | 0 | 90 | 3.5 | 5.2 | 0.00 | 0.01 | 0.00 | 997.8 | |
| 20260506095055 | 0 | 45 | 3.5 | 5.2 | 0.00 | 0.01 | 0.00 | 997.9 | |
| 20260506095025 | 0 | 68 | 3.5 | 5.2 | 0.00 | 0.01 | 0.00 | 997.8 | |
| 20260506095005 | 0 | 45 | 3.5 | 5.2 | 0.00 | 0.01 | 0.00 | 997.8 | |
| 20260506094946 | 0 | 45 | 2.6 | 5.2 | 0.00 | 0.01 | 0.00 | 997.8 | |
| 20260506094936 | 0 | 0 | 1.7 | 4.3 | 0.00 | 0.01 | 0.00 | 997.8 | |
| 20260506094926 | 0 | 0 | 2.6 | 4.3 | 0.00 | 0.01 | 0.00 | 997.9 | |
| 20260506094916 | 0 | 0 | 2.6 | 4.3 | 0.00 | 0.01 | 0.00 | 997.8 | |
| 20260506094856 | 0 | 45 | 2.6 | 4.3 | 0.00 | 0.01 | 0.00 | 997.8 | |
| 20260506094846 | 0 | 45 | 2.6 | 4.3 | 0.00 | 0.01 | 0.00 | 997.9 | |
| 20260506094826 | 0 | 45 | 1.7 | 4.3 | 0.00 | 0.01 | 0.00 | 997.8 | |
| 20260506094816 | 0 | 23 | 1.7 | 4.3 | 0.00 | 0.01 | 0.00 | 997.9 | |
| 20260506094806 | 0 | 90 | 1.7 | 4.3 | 0.00 | 0.01 | 0.00 | 997.9 | |
| 20260506094746 | 0 | 0 | 1.7 | 4.3 | 0.00 | 0.01 | 0.00 | 997.8 | |
| 20260506094726 | 0 | 0 | 1.7 | 4.3 | 0.00 | 0.01 | 0.00 | 997.9 | |
| 20260506094646 | 0 | 0 | 2.6 | 4.3 | 0.00 | 0.01 | 0.00 | 997.8 | |
| 20260506094636 | 0 | 0 | 2.6 | 4.3 | 0.00 | 0.01 | 0.00 | 997.9 | |
| 20260506094626 | 0 | 45 | 2.6 | 4.3 | 0.00 | 0.01 | 0.00 | 997.9 | |
| 20260506094606 | 0 | 0 | 2.6 | 4.3 | 0.00 | 0.01 | 0.00 | 997.8 | |
| 20260506094536 | 0 | 0 | 2.6 | 4.3 | 0.00 | 0.01 | 0.00 | 997.9 | |
| 20260506094526 | 0 | 0 | 2.6 | 4.3 | 0.00 | 0.01 | 0.00 | 997.8 | |
| 20260506094457 | 0 | 0 | 1.7 | 4.3 | 0.00 | 0.01 | 0.00 | 997.9 | |
| 20260506094427 | 0 | 45 | 0.9 | 4.3 | 0.00 | 0.01 | 0.00 | 997.9 | |
| 20260506094417 | 0 | 0 | 0.9 | 4.3 | 0.00 | 0.01 | 0.00 | 997.9 | |
| 20260506094407 | 0 | 0 | 0.9 | 4.3 | 0.00 | 0.01 | 0.00 | 997.8 | |
| 20260506094357 | 0 | 45 | 1.7 | 4.3 | 0.00 | 0.01 | 0.00 | 997.9 | |
| 20260506094347 | 0 | 90 | 1.7 | 4.3 | 0.00 | 0.01 | 0.00 | 997.8 | |
| 20260506094317 | 0 | 45 | 1.7 | 4.3 | 0.00 | 0.01 | 0.00 | 997.9 | |
| 20260506094247 | 0 | 0 | 1.7 | 4.3 | 0.00 | 0.01 | 0.00 | 997.8 | |
| 20260506094237 | 0 | 45 | 1.7 | 4.3 | 0.00 | 0.01 | 0.00 | 997.9 | |
| 20260506094227 | 0 | 90 | 1.7 | 4.3 | 0.00 | 0.01 | 0.00 | 997.9 | |
| 20260506094207 | 0 | 68 | 1.7 | 4.3 | 0.00 | 0.01 | 0.00 | 997.8 | |
| 20260506094157 | 0 | 90 | 1.7 | 4.3 | 0.00 | 0.01 | 0.00 | 997.8 | |
| 20260506094137 | 0 | 45 | 1.7 | 4.3 | 0.00 | 0.01 | 0.00 | 997.9 | |
| 20260506094127 | 0 | 45 | 1.7 | 4.3 | 0.00 | 0.01 | 0.00 | 997.8 | |
| 20260506094117 | 0 | 45 | 2.6 | 4.3 | 0.00 | 0.01 | 0.00 | 997.9 | |
| 20260506094107 | 0 | 45 | 2.6 | 4.3 | 0.00 | 0.01 | 0.00 | 997.8 | |
| 20260506094057 | 0 | 23 | 2.6 | 4.3 | 0.00 | 0.01 | 0.00 | 997.8 | |
| 20260506094047 | 0 | 23 | 2.6 | 4.3 | 0.00 | 0.01 | 0.00 | 997.9 | |
| 20260506094027 | 0 | 45 | 2.6 | 4.3 | 0.00 | 0.01 | 0.00 | 997.8 | |
| 20260506094007 | 0 | 45 | 1.7 | 4.3 | 0.00 | 0.01 | 0.00 | 997.9 | |
| 20260506093957 | 0 | 45 | 1.7 | 4.3 | 0.00 | 0.01 | 0.00 | 997.8 | |
| 20260506093927 | 0 | 90 | 1.7 | 4.3 | 0.00 | 0.01 | 0.00 | 997.8 | |
| 20260506093917 | 0 | 45 | 1.7 | 4.3 | 0.00 | 0.01 | 0.00 | 997.8 | |
| 20260506093858 | 0 | 45 | 1.7 | 4.3 | 0.00 | 0.01 | 0.00 | 997.9 | |
| 20260506093838 | 0 | 45 | 2.6 | 4.3 | 0.00 | 0.01 | 0.00 | 997.9 | |
| 20260506093828 | 0 | 68 | 2.6 | 4.3 | 0.00 | 0.01 | 0.00 | 997.9 | |
| 20260506093748 | 0 | 45 | 2.6 | 4.3 | 0.00 | 0.01 | 0.00 | 997.9 | |
| 20260506093738 | 0 | 45 | 1.7 | 4.3 | 0.00 | 0.01 | 0.00 | 997.9 | |
| 20260506093718 | 0 | 45 | 1.7 | 4.3 | 0.00 | 0.01 | 0.00 | 997.8 | |
| 20260506093708 | 0 | 68 | 1.7 | 4.3 | 0.00 | 0.01 | 0.00 | 997.9 | |
| 20260506093628 | 0 | 45 | 1.7 | 4.3 | 0.00 | 0.01 | 0.00 | 997.8 | |
| 20260506093608 | 0 | 90 | 1.7 | 4.3 | 0.00 | 0.01 | 0.00 | 997.9 | |
| 20260506093558 | 0 | 45 | 1.7 | 4.3 | 0.00 | 0.01 | 0.00 | 997.9 | |
| 20260506093528 | 0 | 45 | 2.6 | 4.3 | 0.00 | 0.01 | 0.00 | 997.8 | |
| 20260506093518 | 0 | 45 | 2.6 | 4.3 | 0.00 | 0.01 | 0.00 | 997.9 | |
| 20260506093508 | 0 | 90 | 2.6 | 4.3 | 0.00 | 0.01 | 0.00 | 997.9 | |
| 20260506093458 | 0 | 90 | 2.6 | 4.3 | 0.00 | 0.01 | 0.00 | 997.8 | |
| 20260506093448 | 0 | 45 | 2.6 | 4.3 | 0.00 | 0.01 | 0.00 | 997.8 | |
| 20260506093438 | 0 | 68 | 2.6 | 4.3 | 0.00 | 0.01 | 0.00 | 997.9 | |
| 20260506093359 | 0 | 45 | 1.7 | 4.3 | 0.00 | 0.01 | 0.00 | 997.9 | |
| 20260506093339 | 0 | 90 | 1.7 | 4.3 | 0.00 | 0.01 | 0.00 | 997.8 | |
| 20260506093319 | 0 | 0 | 1.7 | 4.3 | 0.00 | 0.01 | 0.00 | 997.9 | |
| 20260506093249 | 0 | 0 | 0.9 | 4.3 | 0.00 | 0.01 | 0.00 | 997.9 | |
| 20260506093219 | 0 | 45 | 0.9 | 4.3 | 0.00 | 0.01 | 0.00 | 997.9 | |
| 20260506093209 | 0 | 0 | 1.7 | 4.3 | 0.00 | 0.01 | 0.00 | 997.8 | |
| 20260506093149 | 0 | 45 | 1.7 | 4.3 | 0.00 | 0.01 | 0.00 | 997.8 | |
| 20260506093129 | 0 | 0 | 1.7 | 4.3 | 0.00 | 0.01 | 0.00 | 997.9 | |
| 20260506093119 | 0 | 23 | 1.7 | 4.3 | 0.00 | 0.01 | 0.00 | 997.9 | |
| 20260506093109 | 0 | 45 | 1.7 | 4.3 | 0.00 | 0.01 | 0.00 | 997.8 | |
| 20260506093049 | 0 | 0 | 2.6 | 4.3 | 0.00 | 0.01 | 0.00 | 997.8 | |
| 20260506093039 | 0 | 45 | 2.6 | 4.3 | 0.00 | 0.01 | 0.00 | 997.8 | |
| 20260506093029 | 0 | 0 | 1.7 | 4.3 | 0.00 | 0.01 | 0.00 | 997.9 | |
| 20260506093019 | 0 | 0 | 1.7 | 4.3 | 0.00 | 0.01 | 0.00 | 997.8 | |
| 20260506092950 | 0 | 0 | 1.7 | 4.3 | 0.00 | 0.01 | 0.00 | 997.9 | |
| 20260506092929 | 0 | 45 | 1.7 | 4.3 | 0.00 | 0.01 | 0.00 | 997.9 | |
| 20260506092859 | 0 | 45 | 2.6 | 4.3 | 0.00 | 0.01 | 0.00 | 997.9 | |
| 20260506092849 | 0 | 0 | 2.6 | 4.3 | 0.00 | 0.01 | 0.00 | 997.9 | |
| 20260506092820 | 0 | 45 | 2.6 | 4.3 | 0.00 | 0.01 | 0.00 | 997.8 | |
| 20260506092810 | 0 | 45 | 2.6 | 4.3 | 0.00 | 0.01 | 0.00 | 997.9 | |
| 20260506092800 | 0 | 45 | 3.5 | 4.3 | 0.00 | 0.01 | 0.00 | 997.9 | |
| 20260506092750 | 0 | 0 | 3.5 | 4.3 | 0.00 | 0.01 | 0.00 | 997.9 | |
| 20260506092710 | 0 | 0 | 3.5 | 4.3 | 0.00 | 0.01 | 0.00 | 997.9 | |
| 20260506092700 | 0 | 0 | 2.6 | 4.3 | 0.00 | 0.01 | 0.00 | 997.8 | |
| 20260506092650 | 0 | 0 | 1.7 | 4.3 | 0.00 | 0.01 | 0.00 | 997.9 | |
| 20260506092630 | 0 | 45 | 1.7 | 4.3 | 0.00 | 0.01 | 0.00 | 997.9 | |
| 20260506092620 | 0 | 0 | 0.9 | 2.6 | 0.00 | 0.01 | 0.00 | 997.8 | |
| 20260506092610 | 0 | 45 | 0.0 | 2.6 | 0.00 | 0.01 | 0.00 | 997.9 | |
| 20260506092540 | 0 | 23 | 0.0 | 1.7 | 0.00 | 0.01 | 0.00 | 997.9 | |
| 20260506092530 | 0 | 0 | 0.0 | 1.7 | 0.00 | 0.01 | 0.00 | 997.9 | |
| 20260506092520 | 0 | 315 | 0.0 | 1.7 | 0.00 | 0.01 | 0.00 | 997.9 | |
| 20260506092510 | 0 | 90 | 0.0 | 1.7 | 0.00 | 0.01 | 0.00 | 997.9 | |
| 20260506092500 | 0 | 113 | 0.0 | 1.7 | 0.00 | 0.01 | 0.00 | 997.9 | |
| 20260506092450 | 0 | 225 | 0.0 | 1.7 | 0.00 | 0.01 | 0.00 | 997.9 | |
| 20260506092440 | 0 | 45 | 0.9 | 1.7 | 0.00 | 0.01 | 0.00 | 997.9 | |
| 20260506092430 | 0 | 135 | 0.9 | 1.7 | 0.00 | 0.01 | 0.00 | 997.9 | |
| 20260506092350 | 0 | 0 | 0.9 | 1.7 | 0.00 | 0.01 | 0.00 | 997.9 | |
| 20260506092340 | 0 | 315 | 0.9 | 1.7 | 0.00 | 0.01 | 0.00 | 997.9 | |
| 20260506092301 | 0 | 0 | 0.9 | 1.7 | 0.00 | 0.01 | 0.00 | 997.9 | |
| 20260506092241 | 0 | 225 | 0.9 | 1.7 | 0.00 | 0.01 | 0.00 | 998.0 | |
| 20260506092231 | 0 | 225 | 0.9 | 1.7 | 0.00 | 0.01 | 0.00 | 997.9 | |
| 20260506092221 | 0 | 315 | 0.9 | 1.7 | 0.00 | 0.01 | 0.00 | 997.9 | |
| 20260506092201 | 0 | 0 | 1.7 | 1.7 | 0.00 | 0.01 | 0.00 | 997.9 | |
| 20260506092151 | 0 | 0 | 0.9 | 1.7 | 0.00 | 0.01 | 0.00 | 997.9 | |
| 20260506092141 | 0 | 0 | 0.9 | 2.6 | 0.00 | 0.01 | 0.00 | 997.9 | |
| 20260506092131 | 0 | 0 | 0.0 | 2.6 | 0.00 | 0.01 | 0.00 | 998.0 | |
| 20260506092121 | 0 | 0 | 0.0 | 3.5 | 0.00 | 0.01 | 0.00 | 998.0 | |
| 20260506092111 | 0 | 45 | 0.0 | 3.5 | 0.00 | 0.01 | 0.00 | 997.9 | |
| 20260506092101 | 0 | 0 | 0.0 | 4.3 | 0.00 | 0.01 | 0.00 | 997.9 | |
| 20260506092051 | 0 | 23 | 0.0 | 4.3 | 0.00 | 0.01 | 0.00 | 997.9 | |
| 20260506092031 | 0 | 45 | 0.0 | 4.3 | 0.00 | 0.01 | 0.00 | 998.0 | |
| 20260506092021 | 0 | 0 | 0.0 | 4.3 | 0.00 | 0.01 | 0.00 | 997.9 | |
| 20260506092001 | 0 | 45 | 0.0 | 4.3 | 0.00 | 0.01 | 0.00 | 997.9 | |
| 20260506091951 | 0 | 135 | 0.0 | 4.3 | 0.00 | 0.01 | 0.00 | 997.9 | |
| 20260506091911 | 0 | 135 | 0.0 | 4.3 | 0.00 | 0.01 | 0.00 | 997.9 | |
| 20260506091841 | 0 | 90 | 0.0 | 4.3 | 0.00 | 0.01 | 0.00 | 997.9 | |
| 20260506091831 | 0 | 45 | 0.0 | 4.3 | 0.00 | 0.01 | 0.00 | 998.0 | |
| 20260506091752 | 0 | 45 | 0.9 | 4.3 | 0.00 | 0.01 | 0.00 | 998.0 | |
| 20260506091742 | 0 | 45 | 0.9 | 4.3 | 0.00 | 0.01 | 0.00 | 997.9 | |
| 20260506091712 | 0 | 45 | 1.7 | 4.3 | 0.00 | 0.01 | 0.00 | 997.9 | |
| 20260506091652 | 0 | 45 | 1.7 | 4.3 | 0.00 | 0.01 | 0.00 | 998.0 | |
| 20260506091632 | 0 | 45 | 2.6 | 4.3 | 0.00 | 0.01 | 0.00 | 998.0 | |
| 20260506091602 | 0 | 45 | 1.7 | 4.3 | 0.00 | 0.01 | 0.00 | 998.0 | |
| 20260506091542 | 0 | 90 | 1.7 | 4.3 | 0.00 | 0.01 | 0.00 | 998.0 | |
| 20260506091532 | 0 | 68 | 1.7 | 4.3 | 0.00 | 0.01 | 0.00 | 998.0 | |
| 20260506091502 | 0 | 45 | 2.6 | 4.3 | 0.00 | 0.01 | 0.00 | 998.0 | |
| 20260506091452 | 0 | 45 | 3.5 | 4.3 | 0.00 | 0.01 | 0.00 | 998.0 | |
| 20260506091442 | 0 | 68 | 3.5 | 4.3 | 0.00 | 0.01 | 0.00 | 997.9 | |
| 20260506091422 | 0 | 45 | 2.6 | 4.3 | 0.00 | 0.01 | 0.00 | 997.9 | |
| 20260506091412 | 0 | 90 | 2.6 | 4.3 | 0.00 | 0.01 | 0.00 | 998.0 | |
| 20260506091402 | 0 | 68 | 2.6 | 4.3 | 0.00 | 0.01 | 0.00 | 998.0 | |
| 20260506091352 | 0 | 68 | 1.7 | 4.3 | 0.00 | 0.01 | 0.00 | 997.9 | |
| 20260506091332 | 0 | 90 | 1.7 | 4.3 | 0.00 | 0.01 | 0.00 | 997.9 | |
| 20260506091322 | 0 | 90 | 1.7 | 4.3 | 0.00 | 0.01 | 0.00 | 998.0 | |
| 20260506091313 | 0 | 90 | 0.9 | 2.6 | 0.00 | 0.01 | 0.00 | 998.0 | |
| 20260506091253 | 0 | 45 | 0.0 | 2.6 | 0.00 | 0.01 | 0.00 | 998.0 | |
| 20260506091243 | 0 | 45 | 0.0 | 3.5 | 0.00 | 0.01 | 0.00 | 998.0 | |
| 20260506091233 | 0 | 68 | 0.0 | 4.3 | 0.00 | 0.01 | 0.00 | 998.0 | |
| 20260506091223 | 0 | 45 | 0.0 | 4.3 | 0.00 | 0.01 | 0.00 | 998.0 | |
| 20260506091153 | 0 | 0 | 0.0 | 4.3 | 0.00 | 0.01 | 0.00 | 998.0 | |
| 20260506091143 | 0 | 45 | 0.0 | 4.3 | 0.00 | 0.01 | 0.00 | 998.0 | |
| 20260506091133 | 0 | 0 | 0.9 | 4.3 | 0.00 | 0.01 | 0.00 | 998.0 | |
| 20260506091123 | 0 | 68 | 0.9 | 4.3 | 0.00 | 0.01 | 0.00 | 998.0 | |
| 20260506091043 | 0 | 0 | 0.9 | 4.3 | 0.00 | 0.01 | 0.00 | 998.0 | |
| 20260506091023 | 0 | 45 | 0.9 | 4.3 | 0.00 | 0.01 | 0.00 | 998.1 | |
| 20260506091003 | 0 | 45 | 0.9 | 4.3 | 0.00 | 0.01 | 0.00 | 998.0 | |
| 20260506090953 | 0 | 315 | 0.9 | 4.3 | 0.00 | 0.01 | 0.00 | 998.0 | |
| 20260506090923 | 0 | 0 | 0.9 | 4.3 | 0.00 | 0.01 | 0.00 | 998.0 | |
| 20260506090903 | 0 | 45 | 0.9 | 4.3 | 0.00 | 0.01 | 0.00 | 998.0 | |
| 20260506090853 | 0 | 315 | 0.9 | 4.3 | 0.00 | 0.01 | 0.00 | 998.0 | |
| 20260506090843 | 0 | 0 | 0.9 | 4.3 | 0.00 | 0.01 | 0.00 | 998.0 | |
| 20260506090823 | 0 | 0 | 1.7 | 4.3 | 0.00 | 0.01 | 0.00 | 998.0 | |
| 20260506090803 | 0 | 45 | 1.7 | 4.3 | 0.00 | 0.01 | 0.00 | 997.9 | |
| 20260506090744 | 0 | 45 | 1.7 | 4.3 | 0.00 | 0.01 | 0.00 | 998.0 | |
| 20260506090734 | 0 | 45 | 1.7 | 3.5 | 0.00 | 0.01 | 0.00 | 997.9 | |
| 20260506090654 | 0 | 0 | 1.7 | 3.5 | 0.00 | 0.01 | 0.00 | 998.0 | |
| 20260506090634 | 0 | 45 | 1.7 | 3.5 | 0.00 | 0.01 | 0.00 | 998.0 | |
| 20260506090604 | 0 | 90 | 1.7 | 3.5 | 0.00 | 0.01 | 0.00 | 998.0 | |
| 20260506090544 | 0 | 45 | 1.7 | 3.5 | 0.00 | 0.01 | 0.00 | 998.0 | |
| 20260506090524 | 0 | 90 | 1.7 | 3.5 | 0.00 | 0.01 | 0.00 | 998.0 | |
| 20260506090514 | 0 | 68 | 1.7 | 3.5 | 0.00 | 0.01 | 0.00 | 998.0 | |
| 20260506090454 | 0 | 90 | 1.7 | 3.5 | 0.00 | 0.01 | 0.00 | 997.9 | |
| 20260506090444 | 0 | 90 | 1.7 | 3.5 | 0.00 | 0.01 | 0.00 | 998.0 | |
| 20260506090434 | 0 | 45 | 0.9 | 2.6 | 0.00 | 0.01 | 0.00 | 998.0 | |
| 20260506090404 | 0 | 135 | 0.9 | 2.6 | 0.00 | 0.01 | 0.00 | 998.0 | |
| 20260506090354 | 0 | 113 | 0.9 | 2.6 | 0.00 | 0.01 | 0.00 | 998.0 | |
| 20260506090344 | 0 | 68 | 0.9 | 2.6 | 0.00 | 0.01 | 0.00 | 998.0 | |
| 20260506090335 | 0 | 90 | 0.0 | 2.6 | 0.00 | 0.01 | 0.00 | 998.0 | |
| 20260506090324 | 0 | 68 | 0.0 | 2.6 | 0.00 | 0.01 | 0.00 | 998.0 | |
| 20260506090314 | 0 | 45 | 0.0 | 2.6 | 0.00 | 0.01 | 0.00 | 998.0 | |
| 20260506090304 | 0 | 270 | 0.0 | 2.6 | 0.00 | 0.01 | 0.00 | 998.0 | |
| 20260506090234 | 0 | 90 | 0.0 | 2.6 | 0.00 | 0.01 | 0.00 | 998.0 | |
| 20260506090214 | 0 | 90 | 0.9 | 2.6 | 0.00 | 0.01 | 0.00 | 998.0 | |
| 20260506090155 | 0 | 45 | 1.7 | 2.6 | 0.00 | 0.01 | 0.00 | 998.0 | |
| 20260506090125 | 0 | 45 | 1.7 | 4.3 | 0.00 | 0.01 | 0.00 | 998.0 | |
| 20260506090105 | 0 | 90 | 1.7 | 4.3 | 0.00 | 0.01 | 0.00 | 998.0 | |
| 20260506090055 | 0 | 45 | 0.9 | 4.3 | 0.00 | 0.01 | 0.00 | 998.0 | |
| 20260506090045 | 0 | 90 | 0.9 | 4.3 | 0.00 | 0.01 | 0.00 | 997.9 | |
| 20260506090005 | 0 | 90 | 0.0 | 4.3 | 0.00 | 0.01 | 0.00 | 998.0 | |
| 20260506085955 | 0 | 135 | 0.0 | 4.3 | 0.00 | 0.01 | 0.00 | 998.0 | |
| 20260506085925 | 0 | 135 | 0.0 | 4.3 | 0.00 | 0.01 | 0.00 | 997.9 | |
| 20260506085855 | 0 | 90 | 0.0 | 4.3 | 0.00 | 0.01 | 0.00 | 998.0 | |
| 20260506085825 | 0 | 90 | 0.9 | 4.3 | 0.00 | 0.01 | 0.00 | 998.0 | |
| 20260506085805 | 0 | 90 | 1.7 | 4.3 | 0.00 | 0.01 | 0.00 | 998.0 | |
| 20260506085745 | 0 | 90 | 1.7 | 4.3 | 0.00 | 0.01 | 0.00 | 997.9 | |
| 20260506085725 | 0 | 45 | 1.7 | 4.3 | 0.00 | 0.01 | 0.00 | 997.9 | |
| 20260506085715 | 0 | 68 | 1.7 | 4.3 | 0.00 | 0.01 | 0.00 | 998.0 | |
| 20260506085655 | 0 | 45 | 1.7 | 4.3 | 0.00 | 0.01 | 0.00 | 998.0 | |
| 20260506085645 | 0 | 68 | 0.9 | 4.3 | 0.00 | 0.01 | 0.00 | 997.9 | |
| 20260506085635 | 0 | 90 | 0.9 | 2.6 | 0.00 | 0.01 | 0.00 | 998.0 | |
| 20260506085616 | 0 | 45 | 0.9 | 2.6 | 0.00 | 0.01 | 0.00 | 998.0 | |
| 20260506085606 | 0 | 45 | 0.9 | 2.6 | 0.00 | 0.01 | 0.00 | 997.9 | |
| 20260506085536 | 0 | 135 | 0.9 | 2.6 | 0.00 | 0.01 | 0.00 | 998.0 | |
| 20260506085526 | 0 | 90 | 0.9 | 2.6 | 0.00 | 0.01 | 0.00 | 998.0 | |
| 20260506085456 | 0 | 135 | 0.9 | 2.6 | 0.00 | 0.01 | 0.00 | 998.0 | |
| 20260506085446 | 0 | 90 | 0.9 | 2.6 | 0.00 | 0.01 | 0.00 | 998.0 | |
| 20260506085436 | 0 | 113 | 0.9 | 2.6 | 0.00 | 0.01 | 0.00 | 998.0 | |
| 20260506085426 | 0 | 135 | 1.7 | 2.6 | 0.00 | 0.01 | 0.00 | 998.0 | |
| 20260506085416 | 0 | 90 | 1.7 | 2.6 | 0.00 | 0.01 | 0.00 | 998.0 | |
| 20260506085406 | 0 | 90 | 1.7 | 2.6 | 0.00 | 0.01 | 0.00 | 997.9 | |
| 20260506085336 | 0 | 90 | 1.7 | 2.6 | 0.00 | 0.01 | 0.00 | 998.0 | |
| 20260506085326 | 0 | 90 | 1.7 | 2.6 | 0.00 | 0.01 | 0.00 | 997.9 | |
| 20260506085306 | 0 | 90 | 0.9 | 2.6 | 0.00 | 0.01 | 0.00 | 997.9 | |
| 20260506085256 | 0 | 90 | 0.9 | 1.7 | 0.00 | 0.01 | 0.00 | 997.9 | |
| 20260506085246 | 0 | 90 | 0.9 | 1.7 | 0.00 | 0.01 | 0.00 | 998.0 | |
| 20260506085236 | 0 | 45 | 0.0 | 1.7 | 0.00 | 0.01 | 0.00 | 998.0 | |
| 20260506085226 | 0 | 90 | 0.0 | 1.7 | 0.00 | 0.01 | 0.00 | 997.9 | |
| 20260506085216 | 0 | 135 | 0.0 | 1.7 | 0.00 | 0.01 | 0.00 | 998.0 | |
| 20260506085206 | 0 | 90 | 0.0 | 1.7 | 0.00 | 0.01 | 0.00 | 998.0 | |
| 20260506085146 | 0 | 0 | 0.0 | 1.7 | 0.00 | 0.01 | 0.00 | 998.0 | |
| 20260506085136 | 0 | 113 | 0.0 | 1.7 | 0.00 | 0.01 | 0.00 | 998.0 | |
| 20260506085126 | 0 | 315 | 0.0 | 1.7 | 0.00 | 0.01 | 0.00 | 998.0 | |
| 20260506085116 | 0 | 225 | 0.0 | 1.7 | 0.00 | 0.01 | 0.00 | 998.0 | |
| 20260506085057 | 0 | 0 | 0.0 | 1.7 | 0.00 | 0.01 | 0.00 | 997.9 | |
| 20260506085047 | 0 | 0 | 0.0 | 1.7 | 0.00 | 0.01 | 0.00 | 998.0 | |
| 20260506085007 | 0 | 0 | 0.0 | 1.7 | 0.00 | 0.01 | 0.00 | 998.0 | |
| 20260506084947 | 0 | 90 | 0.9 | 1.7 | 0.00 | 0.01 | 0.00 | 998.0 | |
| 20260506084927 | 0 | 0 | 0.9 | 1.7 | 0.00 | 0.01 | 0.00 | 998.0 | |
| 20260506084917 | 0 | 45 | 0.9 | 1.7 | 0.00 | 0.01 | 0.00 | 997.9 | |
| 20260506084907 | 0 | 45 | 0.9 | 1.7 | 0.00 | 0.01 | 0.00 | 998.0 | |
| 20260506084857 | 0 | 23 | 0.9 | 1.7 | 0.00 | 0.01 | 0.00 | 998.0 | |
| 20260506084847 | 0 | 90 | 0.9 | 1.7 | 0.00 | 0.01 | 0.00 | 998.0 | |
| 20260506084827 | 0 | 45 | 0.9 | 1.7 | 0.00 | 0.01 | 0.00 | 998.0 | |
| 20260506084817 | 0 | 68 | 0.0 | 1.7 | 0.00 | 0.01 | 0.00 | 998.0 | |
| 20260506084757 | 0 | 45 | 0.0 | 1.7 | 0.00 | 0.01 | 0.00 | 997.9 | |
| 20260506084737 | 0 | 45 | 0.0 | 1.7 | 0.00 | 0.01 | 0.00 | 998.0 | |
| 20260506084727 | 0 | 90 | 0.0 | 1.7 | 0.00 | 0.01 | 0.00 | 998.0 | |
| 20260506084647 | 0 | 90 | 0.0 | 1.7 | 0.00 | 0.01 | 0.00 | 998.0 | |
| 20260506084637 | 0 | 135 | 0.0 | 1.7 | 0.00 | 0.01 | 0.00 | 998.0 | |
| 20260506084627 | 0 | 135 | 0.0 | 1.7 | 0.00 | 0.01 | 0.00 | 997.9 | |
| 20260506084607 | 0 | 90 | 0.0 | 1.7 | 0.00 | 0.01 | 0.00 | 998.0 | |
| 20260506084537 | 0 | 90 | 0.0 | 1.7 | 0.00 | 0.01 | 0.00 | 997.9 | |
| 20260506084528 | 0 | 90 | 0.0 | 1.7 | 0.00 | 0.01 | 0.00 | 998.0 | |
| 20260506084448 | 0 | 90 | 0.0 | 1.7 | 0.00 | 0.01 | 0.00 | 997.9 | |
| 20260506084428 | 0 | 135 | 0.9 | 1.7 | 0.00 | 0.01 | 0.00 | 997.9 | |
| 20260506084408 | 0 | 90 | 0.9 | 1.7 | 0.00 | 0.01 | 0.00 | 997.9 | |
| 20260506084328 | 0 | 90 | 0.9 | 1.7 | 0.00 | 0.01 | 0.00 | 997.9 | |
| 20260506084318 | 0 | 90 | 0.9 | 1.7 | 0.00 | 0.01 | 0.00 | 998.0 | |
| 20260506084248 | 0 | 45 | 0.9 | 1.7 | 0.00 | 0.01 | 0.00 | 998.0 | |
| 20260506084238 | 0 | 90 | 0.9 | 1.7 | 0.00 | 0.01 | 0.00 | 998.0 | |
| 20260506084218 | 0 | 90 | 0.9 | 1.7 | 0.00 | 0.01 | 0.00 | 997.9 | |
| 20260506084208 | 0 | 113 | 0.9 | 1.7 | 0.00 | 0.01 | 0.00 | 997.9 | |
| 20260506084158 | 0 | 135 | 0.9 | 1.7 | 0.00 | 0.01 | 0.00 | 997.9 | |
| 20260506084128 | 0 | 113 | 0.9 | 1.7 | 0.00 | 0.01 | 0.00 | 998.0 | |
| 20260506084118 | 0 | 135 | 0.9 | 1.7 | 0.00 | 0.01 | 0.00 | 998.0 | |
| 20260506084108 | 0 | 270 | 0.9 | 1.7 | 0.00 | 0.01 | 0.00 | 997.9 | |
| 20260506084048 | 0 | 90 | 0.0 | 1.7 | 0.00 | 0.01 | 0.00 | 997.9 | |
| 20260506084038 | 0 | 90 | 0.0 | 1.7 | 0.00 | 0.01 | 0.00 | 998.0 | |
| 20260506084028 | 0 | 45 | 0.0 | 0.9 | 0.00 | 0.01 | 0.00 | 998.0 | |
| 20260506084018 | 0 | 135 | 0.0 | 0.9 | 0.00 | 0.01 | 0.00 | 998.0 | |
| 20260506083948 | 0 | 90 | 0.0 | 0.9 | 0.00 | 0.01 | 0.00 | 998.0 | |
| 20260506083939 | 0 | 135 | 0.0 | 0.9 | 0.00 | 0.01 | 0.00 | 998.0 | |
| 20260506083919 | 0 | 0 | 0.0 | 0.9 | 0.00 | 0.01 | 0.00 | 998.0 | |
| 20260506083839 | 0 | 0 | 0.0 | 0.9 | 0.00 | 0.01 | 0.00 | 998.0 | |
| 20260506083829 | 0 | 90 | 0.0 | 0.9 | 0.00 | 0.01 | 0.00 | 998.0 | |
| 20260506083759 | 0 | 0 | 0.0 | 0.9 | 0.00 | 0.01 | 0.00 | 998.0 | |
| 20260506083749 | 0 | 90 | 0.0 | 0.9 | 0.00 | 0.01 | 0.00 | 998.0 | |
| 20260506083729 | 0 | 45 | 0.0 | 0.9 | 0.00 | 0.01 | 0.00 | 998.0 | |
| 20260506083659 | 0 | 45 | 0.0 | 1.7 | 0.00 | 0.01 | 0.00 | 998.0 | |
| 20260506083629 | 0 | 45 | 0.0 | 2.6 | 0.00 | 0.01 | 0.00 | 998.0 | |
| 20260506083609 | 0 | 0 | 0.0 | 2.6 | 0.00 | 0.01 | 0.00 | 998.0 | |
| 20260506083549 | 0 | 45 | 0.0 | 2.6 | 0.00 | 0.01 | 0.00 | 998.0 | |
| 20260506083509 | 0 | 0 | 0.0 | 2.6 | 0.00 | 0.01 | 0.00 | 998.0 | |
| 20260506083439 | 0 | 45 | 0.0 | 2.6 | 0.00 | 0.01 | 0.00 | 998.0 | |
| 20260506083420 | 0 | 315 | 0.0 | 2.6 | 0.00 | 0.01 | 0.00 | 998.0 | |
| 20260506083400 | 0 | 45 | 0.0 | 2.6 | 0.00 | 0.01 | 0.00 | 998.0 | |
| 20260506083340 | 0 | 90 | 0.0 | 2.6 | 0.00 | 0.01 | 0.00 | 998.0 | |
| 20260506083300 | 0 | 90 | 0.0 | 2.6 | 0.00 | 0.01 | 0.00 | 998.0 | |
| 20260506083240 | 0 | 90 | 0.9 | 2.6 | 0.00 | 0.01 | 0.00 | 998.0 | |
| 20260506083230 | 0 | 90 | 1.7 | 2.6 | 0.00 | 0.01 | 0.00 | 998.0 | |
| 20260506083210 | 0 | 45 | 1.7 | 2.6 | 0.00 | 0.01 | 0.00 | 998.1 | |
| 20260506083150 | 0 | 90 | 1.7 | 2.6 | 0.00 | 0.01 | 0.00 | 998.0 | |
| 20260506083120 | 0 | 135 | 1.7 | 2.6 | 0.00 | 0.01 | 0.00 | 998.0 | |
| 20260506083050 | 0 | 135 | 0.9 | 2.6 | 0.00 | 0.01 | 0.00 | 998.0 | |
| 20260506083030 | 0 | 135 | 0.0 | 1.7 | 0.00 | 0.01 | 0.00 | 998.0 | |
| 20260506082950 | 0 | 90 | 0.0 | 1.7 | 0.00 | 0.01 | 0.00 | 998.0 | |
| 20260506082910 | 0 | 135 | 0.0 | 1.7 | 0.00 | 0.01 | 0.00 | 998.0 | |
| 20260506082900 | 0 | 90 | 0.0 | 1.7 | 0.00 | 0.01 | 0.00 | 998.0 | |
| 20260506082841 | 0 | 135 | 0.0 | 1.7 | 0.00 | 0.01 | 0.00 | 997.9 | |
| 20260506082821 | 0 | 180 | 0.0 | 1.7 | 0.00 | 0.01 | 0.00 | 997.9 | |
| 20260506082811 | 0 | 135 | 0.0 | 1.7 | 0.00 | 0.01 | 0.00 | 998.0 | |
| 20260506082751 | 0 | 180 | 0.0 | 1.7 | 0.00 | 0.01 | 0.00 | 998.0 | |
| 20260506082721 | 0 | 225 | 0.0 | 1.7 | 0.00 | 0.01 | 0.00 | 997.9 | |
| 20260506082701 | 0 | 180 | 0.0 | 1.7 | 0.00 | 0.01 | 0.00 | 997.9 | |
| 20260506082651 | 0 | 225 | 0.0 | 1.7 | 0.00 | 0.01 | 0.00 | 998.0 | |
| 20260506082641 | 0 | 270 | 0.0 | 1.7 | 0.00 | 0.01 | 0.00 | 997.9 | |
| 20260506082631 | 0 | 225 | 0.0 | 2.6 | 0.00 | 0.01 | 0.00 | 997.9 | |
| 20260506082621 | 0 | 225 | 0.0 | 2.6 | 0.00 | 0.01 | 0.00 | 998.0 | |
| 20260506082611 | 0 | 180 | 0.0 | 2.6 | 0.00 | 0.01 | 0.00 | 997.9 | |
| 20260506082531 | 0 | 135 | 0.0 | 2.6 | 0.00 | 0.01 | 0.00 | 997.9 | |
| 20260506082521 | 0 | 135 | 0.9 | 2.6 | 0.00 | 0.01 | 0.00 | 997.9 | |
| 20260506082511 | 0 | 45 | 0.9 | 2.6 | 0.00 | 0.01 | 0.00 | 998.0 | |
| 20260506082441 | 0 | 45 | 0.9 | 2.6 | 0.00 | 0.01 | 0.00 | 997.9 | |
| 20260506082431 | 0 | 90 | 0.9 | 2.6 | 0.00 | 0.01 | 0.00 | 997.9 | |
| 20260506082351 | 0 | 90 | 0.0 | 2.6 | 0.00 | 0.01 | 0.00 | 997.9 | |
| 20260506082341 | 0 | 135 | 0.0 | 2.6 | 0.00 | 0.01 | 0.00 | 997.9 | |
| 20260506082321 | 0 | 135 | 0.9 | 2.6 | 0.00 | 0.01 | 0.00 | 997.9 | |
| 20260506082312 | 0 | 90 | 0.9 | 2.6 | 0.00 | 0.01 | 0.00 | 997.9 | |
| 20260506082252 | 0 | 135 | 0.9 | 2.6 | 0.00 | 0.01 | 0.00 | 998.0 | |
| 20260506082242 | 0 | 113 | 0.9 | 2.6 | 0.00 | 0.01 | 0.00 | 997.9 | |
| 20260506082232 | 0 | 135 | 0.9 | 2.6 | 0.00 | 0.01 | 0.00 | 997.9 | |
| 20260506082222 | 0 | 90 | 1.7 | 2.6 | 0.00 | 0.01 | 0.00 | 997.9 | |
| 20260506082202 | 0 | 135 | 1.7 | 2.6 | 0.00 | 0.01 | 0.00 | 997.9 | |
| 20260506082152 | 0 | 135 | 0.9 | 2.6 | 0.00 | 0.01 | 0.00 | 997.9 | |
| 20260506082142 | 0 | 180 | 0.9 | 2.6 | 0.00 | 0.01 | 0.00 | 997.9 | |
| 20260506082132 | 0 | 135 | 0.9 | 2.6 | 0.00 | 0.01 | 0.00 | 998.0 | |
| 20260506082122 | 0 | 135 | 0.0 | 2.6 | 0.00 | 0.01 | 0.00 | 997.9 | |
| 20260506082112 | 0 | 180 | 0.0 | 2.6 | 0.00 | 0.01 | 0.00 | 998.0 | |
| 20260506082102 | 73 | 135 | 0.0 | 2.6 | 0.00 | 0.01 | 0.00 | 51 | 998.0 |
| 20260506082052 | 0 | 90 | 0.0 | 2.6 | 0.00 | 0.01 | 0.00 | 998.0 | |
| 20260506082032 | 0 | 90 | 0.9 | 2.6 | 0.00 | 0.01 | 0.00 | 997.9 | |
| 20260506082022 | 0 | 45 | 0.0 | 2.6 | 0.00 | 0.01 | 0.00 | 998.0 | |
| 20260506082012 | 0 | 90 | 0.0 | 2.6 | 0.00 | 0.01 | 0.00 | 998.0 | |
| 20260506082002 | 0 | 113 | 0.0 | 2.6 | 0.00 | 0.01 | 0.00 | 998.0 | |
| 20260506081942 | 0 | 68 | 0.0 | 2.6 | 0.00 | 0.01 | 0.00 | 998.0 | |
| 20260506081932 | 0 | 135 | 0.0 | 1.7 | 0.00 | 0.01 | 0.00 | 998.0 | |
| 20260506081922 | 0 | 90 | 0.0 | 1.7 | 0.00 | 0.01 | 0.00 | 997.9 | |
| 20260506081902 | 0 | 0 | 0.9 | 1.7 | 0.00 | 0.01 | 0.00 | 997.9 | |
| 20260506081842 | 0 | 135 | 0.9 | 1.7 | 0.00 | 0.01 | 0.00 | 998.0 | |
| 20260506081822 | 0 | 315 | 0.9 | 1.7 | 0.00 | 0.01 | 0.00 | 998.0 | |
| 20260506081813 | 0 | 270 | 0.9 | 1.7 | 0.00 | 0.01 | 0.00 | 998.0 | |
| 20260506081733 | 0 | 270 | 0.9 | 1.7 | 0.00 | 0.01 | 0.00 | 998.0 | |
| 20260506081703 | 0 | 225 | 0.9 | 1.7 | 0.00 | 0.01 | 0.00 | 998.0 | |
| 20260506081653 | 0 | 270 | 0.9 | 1.7 | 0.00 | 0.01 | 0.00 | 998.0 | |
| 20260506081643 | 0 | 270 | 0.9 | 2.6 | 0.00 | 0.01 | 0.00 | 998.0 | |
| 20260506081623 | 0 | 270 | 0.9 | 3.5 | 0.00 | 0.01 | 0.00 | 998.0 | |
| 20260506081613 | 0 | 270 | 0.0 | 3.5 | 0.00 | 0.01 | 0.00 | 998.0 | |
| 20260506081553 | 0 | 225 | 0.0 | 3.5 | 0.00 | 0.01 | 0.00 | 998.0 | |
| 20260506081513 | 0 | 225 | 0.0 | 3.5 | 0.00 | 0.01 | 0.00 | 998.0 | |
| 20260506081453 | 0 | 225 | 0.0 | 4.3 | 0.00 | 0.01 | 0.00 | 998.0 | |
| 20260506081423 | 0 | 135 | 0.0 | 4.3 | 0.00 | 0.01 | 0.00 | 998.0 | |
| 20260506081413 | 0 | 158 | 0.0 | 4.3 | 0.00 | 0.01 | 0.00 | 998.0 | |
| 20260506081403 | 0 | 180 | 0.0 | 4.3 | 0.00 | 0.01 | 0.00 | 998.0 | |
| 20260506081343 | 0 | 180 | 0.9 | 4.3 | 0.00 | 0.01 | 0.00 | 998.0 | |
| 20260506081333 | 0 | 158 | 0.0 | 4.3 | 0.00 | 0.01 | 0.00 | 998.0 | |
| 20260506081323 | 0 | 90 | 0.0 | 4.3 | 0.00 | 0.01 | 0.00 | 998.0 | |
| 20260506081313 | 0 | 135 | 0.0 | 4.3 | 0.00 | 0.01 | 0.00 | 998.0 | |
| 20260506081253 | 0 | 180 | 0.0 | 4.3 | 0.00 | 0.01 | 0.00 | 998.0 | |
| 20260506081244 | 0 | 225 | 0.9 | 4.3 | 0.00 | 0.01 | 0.00 | 998.1 | |
| 20260506081234 | 0 | 180 | 0.9 | 4.3 | 0.00 | 0.01 | 0.00 | 998.0 | |
| 20260506081224 | 0 | 180 | 1.7 | 4.3 | 0.00 | 0.01 | 0.00 | 998.1 | |
| 20260506081144 | 0 | 180 | 1.7 | 4.3 | 0.00 | 0.01 | 0.00 | 998.1 | |
| 20260506081134 | 0 | 135 | 1.7 | 4.3 | 0.00 | 0.01 | 0.00 | 998.0 | |
| 20260506081124 | 0 | 135 | 1.7 | 4.3 | 0.00 | 0.01 | 0.00 | 998.1 | |
| 20260506081114 | 0 | 135 | 0.9 | 4.3 | 0.00 | 0.01 | 0.00 | 998.1 | |
| 20260506081054 | 0 | 113 | 1.7 | 4.3 | 0.00 | 0.01 | 0.00 | 998.1 | |
| 20260506081044 | 0 | 135 | 1.7 | 4.3 | 0.00 | 0.01 | 0.00 | 998.1 | |
| 20260506081034 | 0 | 135 | 1.7 | 4.3 | 0.00 | 0.01 | 0.00 | 998.0 | |
| 20260506081024 | 0 | 135 | 2.6 | 4.3 | 0.00 | 0.01 | 0.00 | 998.1 | |
| 20260506080944 | 0 | 135 | 1.7 | 4.3 | 0.00 | 0.01 | 0.00 | 998.1 | |
| 20260506080934 | 0 | 158 | 0.9 | 4.3 | 0.00 | 0.01 | 0.00 | 998.1 | |
| 20260506080854 | 0 | 180 | 0.9 | 4.3 | 0.00 | 0.01 | 0.00 | 998.1 | |
| 20260506080844 | 0 | 225 | 0.9 | 4.3 | 0.00 | 0.01 | 0.00 | 998.1 | |
| 20260506080834 | 0 | 158 | 1.7 | 4.3 | 0.00 | 0.01 | 0.00 | 998.1 | |
| 20260506080814 | 0 | 270 | 1.7 | 4.3 | 0.00 | 0.01 | 0.00 | 998.1 | |
| 20260506080804 | 0 | 180 | 1.7 | 4.3 | 0.00 | 0.01 | 0.00 | 998.1 | |
| 20260506080754 | 0 | 180 | 1.7 | 4.3 | 0.00 | 0.01 | 0.00 | 998.2 | |
| 20260506080744 | 0 | 135 | 1.7 | 4.3 | 0.00 | 0.01 | 0.00 | 998.2 | |
| 20260506080734 | 0 | 135 | 1.7 | 4.3 | 0.00 | 0.01 | 0.00 | 998.1 | |
| 20260506080655 | 0 | 135 | 1.7 | 4.3 | 0.00 | 0.01 | 0.00 | 998.1 | |
| 20260506080645 | 0 | 135 | 1.7 | 4.3 | 0.00 | 0.01 | 0.00 | 998.2 | |
| 20260506080635 | 0 | 113 | 2.6 | 4.3 | 0.00 | 0.01 | 0.00 | 998.1 | |
| 20260506080625 | 0 | 113 | 2.6 | 4.3 | 0.00 | 0.01 | 0.00 | 998.2 | |
| 20260506080615 | 0 | 158 | 2.6 | 4.3 | 0.00 | 0.01 | 0.00 | 998.1 | |
| 20260506080605 | 0 | 135 | 2.6 | 4.3 | 0.00 | 0.01 | 0.00 | 998.1 | |
| 20260506080555 | 0 | 180 | 2.6 | 4.3 | 0.00 | 0.01 | 0.00 | 998.2 | |
| 20260506080545 | 0 | 180 | 2.6 | 4.3 | 0.00 | 0.01 | 0.00 | 998.1 | |
| 20260506080525 | 0 | 180 | 1.7 | 3.5 | 0.00 | 0.01 | 0.00 | 998.2 | |
| 20260506080515 | 0 | 180 | 1.7 | 3.5 | 0.00 | 0.01 | 0.00 | 998.1 | |
| 20260506080445 | 0 | 180 | 1.7 | 3.5 | 0.00 | 0.01 | 0.00 | 998.2 | |
| 20260506080435 | 0 | 135 | 1.7 | 3.5 | 0.00 | 0.01 | 0.00 | 998.1 | |
| 20260506080415 | 0 | 90 | 1.7 | 3.5 | 0.00 | 0.01 | 0.00 | 998.2 | |
| 20260506080355 | 0 | 135 | 1.7 | 3.5 | 0.00 | 0.01 | 0.00 | 998.2 | |
| 20260506080325 | 0 | 90 | 1.7 | 3.5 | 0.00 | 0.01 | 0.00 | 998.2 | |
| 20260506080315 | 0 | 135 | 1.7 | 3.5 | 0.00 | 0.01 | 0.00 | 998.2 | |
| 20260506080305 | 0 | 135 | 0.9 | 3.5 | 0.00 | 0.01 | 0.00 | 998.2 | |
| 20260506080255 | 0 | 135 | 0.9 | 2.6 | 0.00 | 0.01 | 0.00 | 998.2 | |
| 20260506080245 | 0 | 135 | 0.9 | 1.7 | 0.00 | 0.01 | 0.00 | 998.2 | |
| 20260506080235 | 0 | 90 | 0.9 | 1.7 | 0.00 | 0.01 | 0.00 | 998.2 | |
| 20260506080225 | 0 | 90 | 0.0 | 1.7 | 0.00 | 0.01 | 0.00 | 998.2 | |
| 20260506080215 | 0 | 135 | 0.0 | 1.7 | 0.00 | 0.01 | 0.00 | 998.2 | |
| 20260506080206 | 0 | 135 | 0.0 | 0.9 | 0.00 | 0.01 | 0.00 | 998.2 | |
| 20260506080156 | 0 | 90 | 0.0 | 0.9 | 0.00 | 0.01 | 0.00 | 998.3 | |
| 20260506080146 | 0 | 90 | 0.0 | 0.9 | 0.00 | 0.01 | 0.00 | 998.2 | |
| 20260506080106 | 0 | 90 | 0.0 | 0.9 | 0.00 | 0.01 | 0.00 | 998.3 | |
| 20260506073520 | 0 | 225 | 1.7 | 4.3 | 0.00 | 0.01 | 0.00 | 998.3 | |
| 20260506073450 | 0 | 180 | 1.7 | 4.3 | 0.00 | 0.01 | 0.00 | 998.3 | |
| 20260506073440 | 0 | 180 | 1.7 | 4.3 | 0.00 | 0.01 | 0.00 | 998.4 | |
| 20260506073430 | 0 | 158 | 1.7 | 4.3 | 0.00 | 0.01 | 0.00 | 998.3 | |
| 20260506073410 | 0 | 180 | 1.7 | 4.3 | 0.00 | 0.01 | 0.00 | 998.3 | |
| 20260506073350 | 0 | 180 | 2.6 | 4.3 | 0.00 | 0.01 | 0.00 | 998.3 | |
| 20260506073340 | 0 | 225 | 1.7 | 4.3 | 0.00 | 0.01 | 0.00 | 998.3 | |
| 20260506073331 | 0 | 135 | 1.7 | 4.3 | 0.00 | 0.01 | 0.00 | 998.3 | |
| 20260506073310 | 0 | 180 | 1.7 | 4.3 | 0.00 | 0.01 | 0.00 | 998.3 | |
| 20260506073301 | 0 | 135 | 0.9 | 4.3 | 0.00 | 0.01 | 0.00 | 998.3 | |
| 20260506073241 | 0 | 135 | 0.9 | 3.5 | 0.00 | 0.01 | 0.00 | 998.3 | |
| 20260506073231 | 0 | 135 | 0.9 | 3.5 | 0.00 | 0.01 | 0.00 | 998.2 | |
| 20260506073151 | 0 | 135 | 0.9 | 3.5 | 0.00 | 0.01 | 0.00 | 998.3 | |
| 20260506073131 | 0 | 135 | 0.0 | 3.5 | 0.00 | 0.01 | 0.00 | 998.2 | |
| 20260506073101 | 0 | 225 | 0.0 | 3.5 | 0.00 | 0.01 | 0.00 | 998.2 | |
| 20260506073051 | 0 | 270 | 0.0 | 3.5 | 0.00 | 0.01 | 0.00 | 998.2 | |
| 20260506073041 | 0 | 90 | 0.0 | 3.5 | 0.00 | 0.01 | 0.00 | 998.2 | |
| 20260506073031 | 0 | 180 | 0.9 | 3.5 | 0.00 | 0.01 | 0.00 | 998.2 | |
| 20260506073021 | 0 | 225 | 0.9 | 3.5 | 0.00 | 0.01 | 0.00 | 998.2 | |
| 20260506073011 | 0 | 248 | 1.7 | 3.5 | 0.00 | 0.01 | 0.00 | 998.2 | |
| 20260506073001 | 0 | 180 | 1.7 | 3.5 | 0.00 | 0.01 | 0.00 | 998.2 | |
| 20260506072951 | 0 | 158 | 1.7 | 3.5 | 0.00 | 0.01 | 0.00 | 998.2 | |
| 20260506072942 | 0 | 135 | 1.7 | 3.5 | 0.00 | 0.01 | 0.00 | 998.2 | |
| 20260506072921 | 0 | 180 | 0.9 | 3.5 | 0.00 | 0.01 | 0.00 | 998.2 | |
| 20260506072901 | 0 | 180 | 1.7 | 3.5 | 0.00 | 0.01 | 0.00 | 998.2 | |
| 20260506072821 | 0 | 135 | 1.7 | 3.5 | 0.00 | 0.01 | 0.00 | 998.2 | |
| 20260506072811 | 0 | 158 | 1.7 | 3.5 | 0.00 | 0.01 | 0.00 | 998.2 | |
| 20260506072751 | 0 | 158 | 0.9 | 3.5 | 0.00 | 0.01 | 0.00 | 998.2 | |
| 20260506072741 | 0 | 135 | 0.9 | 3.5 | 0.00 | 0.01 | 0.00 | 998.2 | |
| 20260506072732 | 67 | 90 | 0.9 | 3.5 | 0.00 | 0.01 | 0.00 | 61 | 998.2 |
| 20260506072722 | 0 | 90 | 0.9 | 3.5 | 0.00 | 0.01 | 0.00 | 998.2 | |
| 20260506072712 | 0 | 90 | 0.9 | 4.3 | 0.00 | 0.01 | 0.00 | 998.2 | |
| 20260506072652 | 0 | 135 | 0.9 | 4.3 | 0.00 | 0.01 | 0.00 | 998.3 | |
| 20260506072642 | 0 | 90 | 0.9 | 4.3 | 0.00 | 0.01 | 0.00 | 998.3 | |
| 20260506072632 | 0 | 113 | 0.9 | 4.3 | 0.00 | 0.01 | 0.00 | 998.3 | |
| 20260506072612 | 0 | 135 | 1.7 | 4.3 | 0.00 | 0.01 | 0.00 | 998.3 | |
| 20260506072532 | 0 | 135 | 1.7 | 4.3 | 0.00 | 0.01 | 0.00 | 998.3 | |
| 20260506072452 | 0 | 135 | 1.7 | 4.3 | 0.00 | 0.01 | 0.00 | 998.3 | |
| 20260506072442 | 0 | 113 | 1.7 | 4.3 | 0.00 | 0.01 | 0.00 | 998.3 | |
| 20260506072432 | 0 | 90 | 1.7 | 4.3 | 0.00 | 0.01 | 0.00 | 998.3 | |
| 20260506072402 | 0 | 135 | 1.7 | 4.3 | 0.00 | 0.01 | 0.00 | 998.3 | |
| 20260506072352 | 0 | 135 | 1.7 | 4.3 | 0.00 | 0.01 | 0.00 | 998.4 | |
| 20260506072342 | 0 | 180 | 1.7 | 4.3 | 0.00 | 0.01 | 0.00 | 998.3 | |
| 20260506072332 | 0 | 180 | 1.7 | 4.3 | 0.00 | 0.01 | 0.00 | 998.4 | |
| 20260506072305 | 0 | 180 | 2.6 | 4.3 | 0.00 | 0.01 | 0.00 | 998.4 | |
| 20260506072222 | 0 | 158 | 2.6 | 4.3 | 0.00 | 0.01 | 0.00 | 998.4 | |
| 20260506072212 | 0 | 135 | 2.6 | 4.3 | 0.00 | 0.01 | 0.00 | 998.4 | |
| 20260506072152 | 0 | 135 | 1.7 | 5.2 | 0.00 | 0.01 | 0.00 | 998.4 | |
| 20260506072142 | 0 | 158 | 1.7 | 5.2 | 0.00 | 0.01 | 0.00 | 998.4 | |
| 20260506072132 | 0 | 158 | 0.9 | 5.2 | 0.00 | 0.01 | 0.00 | 998.4 | |
| 20260506072113 | 0 | 180 | 0.9 | 5.2 | 0.00 | 0.01 | 0.00 | 998.4 | |
| 20260506072033 | 0 | 180 | 0.9 | 5.2 | 0.00 | 0.01 | 0.00 | 998.4 | |
| 20260506072003 | 0 | 270 | 1.7 | 6.1 | 0.00 | 0.01 | 0.00 | 998.4 | |
| 20260506071953 | 0 | 225 | 1.7 | 6.1 | 0.00 | 0.01 | 0.00 | 998.4 |